# Wetter Temperatur Luftdruck Luftfeuchtigkeit Sichtweite Windgeschwindigkeit Windrichtung Zeit
1 Haze 29 1010 74 4000 3.6 280 19:57 02.04.2020
2 Haze 29 1010 70 4000 2.6 280 19:38 02.04.2020
3 Haze 29 1010 70 4000 2.6 280 19:19 02.04.2020
4 Haze 30 1009 58 4000 1.5 300 18:42 02.04.2020
5 Haze 30 1009 58 4000 1.5 300 18:21 02.04.2020
6 Haze 30 1009 58 4000 3.1 290 17:59 02.04.2020
7 Haze 30 1009 58 4000 3.1 290 17:59 02.04.2020
8 Smoke 30 1009 58 4000 3.1 300 17:41 02.04.2020
9 Smoke 30 1009 58 4000 3.1 300 17:22 02.04.2020
10 Smoke 30 1008 62 4000 4.1 290 16:58 02.04.2020
11 Smoke 30 1008 62 4000 4.1 290 16:39 02.04.2020
12 Smoke 30 1008 58 4000 4.1 300 16:21 02.04.2020
13 Smoke 31 1007 55 5000 4.1 290 15:56 02.04.2020
14 Smoke 31 1007 55 5000 3.1 310 15:38 02.04.2020
15 Smoke 31 1007 55 5000 3.1 310 15:18 02.04.2020
16 Smoke 31 1007 52 5000 4.1 300 14:55 02.04.2020
17 Smoke 31 1007 55 5000 4.1 300 14:37 02.04.2020
18 Smoke 31 1007 55 5000 4.1 300 14:18 02.04.2020
19 Smoke 32 1007 52 5000 3.6 300 13:54 02.04.2020
20 Smoke 32 1007 49 5000 5.1 310 13:36 02.04.2020
21 Smoke 32 1007 49 5000 5.1 310 13:18 02.04.2020
22 Smoke 33 1007 46 5000 5.7 310 12:41 02.04.2020
23 Smoke 33 1007 46 5000 5.7 310 12:19 02.04.2020
24 Smoke 33 1007 46 5000 5.7 310 12:19 02.04.2020
25 Smoke 33 1007 44 5000 5.7 310 11:57 02.04.2020
26 Smoke 33 1007 44 5000 5.7 310 11:57 02.04.2020
27 Smoke 33 1008 44 5000 5.1 320 11:39 02.04.2020
28 Smoke 33 1008 44 5000 5.1 320 11:20 02.04.2020
29 Smoke 33 1008 46 5000 4.6 300 10:56 02.04.2020
30 Smoke 33 1008 49 5000 4.6 280 10:37 02.04.2020
31 Smoke 33 1008 49 5000 4.6 280 10:19 02.04.2020
32 Smoke 33 1008 49 5000 4.6 280 10:19 02.04.2020
33 Smoke 33 1009 49 5000 5.1 270 09:58 02.04.2020
34 Smoke 34 1009 49 5000 5.1 270 09:39 02.04.2020
35 Smoke 34 1009 49 5000 5.7 250 09:20 02.04.2020
36 Smoke 34 1009 46 5000 5.7 250 08:47 02.04.2020
37 Smoke 34 1010 34 5000 2.6 280 08:27 02.04.2020
38 Smoke 34 1010 36 5000 2.1 80 07:47 02.04.2020
39 Smoke 33 1010 41 5000 1.5 320 07:22 02.04.2020
40 Smoke 32 1010 48 5000 1.5 320 06:59 02.04.2020
41 Smoke 31 1010 55 4000 1.5 40 06:23 02.04.2020
42 Smoke 30 1010 55 4000 1.5 0 05:45 02.04.2020
43 Haze 27 1010 69 3000 2.59 45 04:47 02.04.2020
44 Haze 26 1008 83 3500 3.43 25 02:18 02.04.2020
45 Haze 26 1008 88 3500 2.1 340 00:58 02.04.2020
46 Haze 27 1008 83 3500 3.6 340 00:36 02.04.2020
47 Haze 27 1008 83 3500 3.6 340 00:18 02.04.2020
48 Haze 27 1008 83 3500 2.6 340 23:38 01.04.2020
49 Haze 27 1008 83 3500 3.6 340 23:38 01.04.2020
50 Haze 27 1008 83 3500 2.6 340 23:19 01.04.2020
51 Haze 27 1008 83 3500 2.1 320 22:56 01.04.2020
52 Haze 27 1008 83 3500 2.1 320 22:37 01.04.2020
53 Haze 27 1009 78 3500 1.5 330 22:19 01.04.2020
54 Haze 27 1009 78 3500 2.6 340 21:39 01.04.2020
55 Haze 28 1010 69 3500 1.5 320 21:19 01.04.2020
56 Haze 28 1010 61 4000 3.89 328 20:56 01.04.2020
57 Smoke 29 1010 58 4000 2.1 310 20:38 01.04.2020
58 Smoke 29 1010 58 4000 2.1 310 20:19 01.04.2020
59 Smoke 28 1010 58 4000 3.89 328 19:57 01.04.2020
60 Smoke 29 1010 54 4000 2.1 90 19:37 01.04.2020
61 Smoke 29 1010 54 4000 2.1 90 19:37 01.04.2020
62 Smoke 29 1010 54 4000 2.1 90 19:19 01.04.2020
63 Haze 30 1010 55 5000 2.6 330 18:41 01.04.2020
64 Haze 30 1010 55 5000 2.6 330 18:22 01.04.2020
65 Haze 29 1010 62 5000 3.1 330 17:57 01.04.2020
66 Haze 29 1010 66 5000 2.6 310 17:37 01.04.2020
67 Haze 29 1010 66 5000 2.6 310 17:18 01.04.2020
68 Haze 29 1009 66 5000 3.1 310 16:56 01.04.2020
69 Haze 30 1009 62 5000 3.1 310 16:38 01.04.2020
70 Haze 30 1009 62 5000 3.1 310 16:20 01.04.2020
71 Haze 30 1009 58 5000 4.6 310 15:43 01.04.2020
72 Smoke 31 1009 52 5000 5.1 310 15:24 01.04.2020
73 Smoke 31 1008 55 5000 5.7 300 14:59 01.04.2020
74 Smoke 31 1008 49 5000 5.1 310 14:40 01.04.2020
75 Smoke 31 1008 49 5000 5.1 310 14:40 01.04.2020
76 Smoke 31 1008 49 5000 5.1 310 14:21 01.04.2020
77 Smoke 32 1008 55 5000 5.1 290 13:59 01.04.2020
78 Smoke 32 1008 55 5000 5.1 300 13:39 01.04.2020
79 Smoke 32 1008 55 5000 5.1 300 13:20 01.04.2020
80 Smoke 31 1008 55 5000 5.1 290 12:57 01.04.2020
81 Smoke 32 1008 52 5000 3.6 280 12:37 01.04.2020
82 Smoke 32 1008 52 5000 3.6 280 12:19 01.04.2020
83 Smoke 32 1009 52 5000 5.7 280 11:56 01.04.2020
84 Smoke 32 1009 52 5000 3.6 280 11:37 01.04.2020
85 Smoke 32 1009 52 5000 3.6 280 11:18 01.04.2020
86 Smoke 33 1010 52 5000 5.7 280 10:39 01.04.2020
87 Smoke 32 1010 55 5000 3.6 270 10:21 01.04.2020
88 Smoke 32 1011 55 5000 3.6 280 09:58 01.04.2020
89 Smoke 32 1011 52 4000 3.6 270 09:40 01.04.2020
90 Smoke 32 1011 52 4000 3.6 270 09:20 01.04.2020
91 Smoke 32 1011 52 4000 5.1 270 08:44 01.04.2020
92 Smoke 32 1012 52 4000 5.1 260 08:20 01.04.2020
93 Smoke 32 1012 46 4000 2.1 300 07:58 01.04.2020
94 Smoke 32 1013 43 4000 2.1 310 07:40 01.04.2020
95 Smoke 32 1013 43 4000 2.1 310 07:19 01.04.2020
96 Smoke 31 1013 51 3500 2.1 320 06:41 01.04.2020
97 Smoke 30 1013 51 3500 2.1 320 06:20 01.04.2020
98 Haze 27 1012 74 3000 2.6 350 05:28 01.04.2020
99 Haze 26 1011 69 3000 1.74 27 03:40 01.04.2020
100 Haze 26 1011 74 3000 2.69 7 02:59 01.04.2020
101 Haze 26 1010 69 4000 2.69 7 02:31 01.04.2020
102 Haze 26 1010 74 4000 3.03 13 01:49 01.04.2020
103 Haze 26 1010 78 4000 2.1 340 01:25 01.04.2020
104 Haze 26 1010 83 4000 2.1 20 00:47 01.04.2020
105 Haze 26 1010 83 4000 3.03 13 00:22 01.04.2020
106 Haze 26 1010 88 4000 2.6 350 23:55 31.03.2020
107 Haze 27 1010 83 4000 2.6 320 23:37 31.03.2020
108 Haze 27 1010 83 4000 2.6 320 23:19 31.03.2020
109 Haze 27 1011 83 4000 2.6 310 22:40 31.03.2020
110 Haze 27 1011 83 4000 2.6 310 22:21 31.03.2020
111 Haze 27 1011 78 4000 1.5 320 21:58 31.03.2020
112 Haze 27 1011 78 4000 3.41 6 21:39 31.03.2020
113 Haze 27 1011 78 4000 2.85 333 21:21 31.03.2020
114 Haze 27 1012 78 5000 2.85 333 20:57 31.03.2020
115 Haze 27 1012 78 5000 2.85 333 20:37 31.03.2020
116 Haze 27 1012 78 5000 2.85 333 20:19 31.03.2020
117 Haze 27 1012 78 5000 1.5 360 19:56 31.03.2020
118 Haze 28 1012 74 5000 2.1 350 19:37 31.03.2020
119 Haze 28 1012 69 5000 2.1 360 19:19 31.03.2020
120 Haze 28 1012 69 5000 2.1 360 18:43 31.03.2020
121 Haze 28 1011 69 5000 2.6 320 18:20 31.03.2020
122 Haze 28 1011 69 5000 2.6 320 17:57 31.03.2020
123 Haze 28 1011 69 5000 2.6 320 17:39 31.03.2020
124 Haze 28 1011 69 5000 2.6 320 17:21 31.03.2020
125 Haze 28 1010 69 5000 4.1 310 16:56 31.03.2020
126 Smoke 28 1010 69 5000 3.6 310 16:36 31.03.2020
127 Smoke 28 1010 69 5000 3.6 310 16:18 31.03.2020
128 Smoke 29 1010 62 5000 4.1 310 15:55 31.03.2020
129 Smoke 29 1009 58 5000 6.2 300 15:36 31.03.2020
130 Smoke 29 1009 58 5000 6.2 300 15:18 31.03.2020
131 Clouds 30 1009 55 6000 6.2 290 14:42 31.03.2020
132 Clear 30 1009 52 6000 5.7 300 14:22 31.03.2020
133 Clear 31 1009 48 6000 6.7 290 13:59 31.03.2020
134 Clear 31 1009 45 6000 6.2 290 13:40 31.03.2020
135 Clear 31 1009 45 6000 6.2 290 13:19 31.03.2020
136 Clear 31 1009 40 6000 5.7 290 12:46 31.03.2020
137 Clear 32 1009 43 6000 6.2 280 12:20 31.03.2020
138 Clear 32 1010 43 6000 4.6 290 11:58 31.03.2020
139 Smoke 32 1010 41 5000 5.7 290 11:38 31.03.2020
140 Smoke 32 1010 41 5000 5.7 290 11:19 31.03.2020
141 Smoke 32 1010 46 5000 5.7 280 10:55 31.03.2020
142 Smoke 32 1010 46 5000 5.7 280 10:55 31.03.2020
143 Smoke 33 1011 43 5000 5.7 270 10:37 31.03.2020
144 Smoke 33 1011 43 5000 5.7 270 10:19 31.03.2020
145 Smoke 33 1012 41 5000 4.1 290 09:45 31.03.2020
146 Smoke 33 1012 41 5000 5.1 290 09:27 31.03.2020
147 Smoke 33 1012 36 5000 4.6 270 08:59 31.03.2020
148 Smoke 33 1013 33 4000 2.6 320 08:41 31.03.2020
149 Smoke 33 1013 33 4000 2.6 320 08:21 31.03.2020
150 Smoke 33 1013 40 4000 3.6 290 07:59 31.03.2020
151 Smoke 32 1013 35 4000 4.1 280 07:41 31.03.2020
152 Smoke 31 1013 43 4000 2.6 290 07:22 31.03.2020
153 Smoke 31 1013 43 4000 2.6 290 06:55 31.03.2020
154 Smoke 31 1013 42 4000 2.1 330 06:36 31.03.2020
155 Haze 28 1012 69 3000 3.08 2 05:42 31.03.2020
156 Haze 28 1012 69 3000 3.08 2 05:23 31.03.2020
157 Haze 26 1011 83 3500 1.5 10 02:53 31.03.2020
158 Haze 27 1010 83 3500 2.1 320 01:47 31.03.2020
159 Haze 27 1010 83 3500 2.6 300 01:19 31.03.2020
160 Haze 27 1009 83 3500 2.6 290 00:43 31.03.2020
161 Haze 27 1009 83 3500 2.6 290 00:20 31.03.2020
162 Haze 27 1009 74 3500 2.1 290 23:40 30.03.2020
163 Haze 28 1009 58 3500 2.1 280 23:20 30.03.2020
164 Haze 27 1009 61 3500 0.9 80 22:57 30.03.2020
165 Haze 27 1009 61 3500 0.9 80 22:38 30.03.2020
166 Haze 27 1010 57 3500 0.9 80 22:19 30.03.2020
167 Haze 27 1010 61 3500 0.9 80 21:57 30.03.2020
168 Haze 28 1010 58 3500 0.9 80 21:38 30.03.2020
169 Haze 28 1011 58 3500 1.45 13 21:20 30.03.2020
170 Haze 28 1011 58 3500 1.45 13 20:57 30.03.2020
171 Haze 29 1011 58 3500 1.45 13 20:38 30.03.2020
172 Haze 29 1011 58 3500 1.45 13 20:19 30.03.2020
173 Haze 29 1011 58 3500 1.45 13 20:19 30.03.2020
174 Haze 29 1011 62 3500 1.5 40 19:41 30.03.2020
175 Haze 29 1011 62 3500 1.5 40 19:22 30.03.2020
176 Haze 29 1011 62 4000 1.5 330 18:59 30.03.2020
177 Smoke 29 1011 62 4000 1.5 310 18:41 30.03.2020
178 Smoke 29 1011 62 4000 1.5 310 18:22 30.03.2020
179 Smoke 29 1010 58 4000 1.5 290 17:57 30.03.2020
180 Smoke 29 1010 58 4000 2.1 300 17:39 30.03.2020
181 Smoke 29 1010 58 4000 2.1 300 17:19 30.03.2020
182 Smoke 29 1010 58 4000 2.1 310 16:57 30.03.2020
183 Smoke 29 1010 58 4000 2.1 310 16:39 30.03.2020
184 Smoke 29 1009 58 4000 3.6 310 16:20 30.03.2020
185 Smoke 30 1009 55 5000 4.6 300 15:55 30.03.2020
186 Smoke 30 1009 51 5000 4.6 300 15:37 30.03.2020
187 Smoke 30 1009 51 5000 4.6 300 15:18 30.03.2020
188 Smoke 30 1008 45 5000 4.6 290 14:55 30.03.2020
189 Smoke 30 1008 58 5000 6.2 280 14:36 30.03.2020
190 Smoke 30 1008 58 5000 6.2 280 14:18 30.03.2020
191 Smoke 31 1008 58 5000 5.7 300 13:54 30.03.2020
192 Smoke 31 1008 52 5000 4.1 300 13:36 30.03.2020
193 Smoke 31 1008 52 5000 4.1 300 13:18 30.03.2020
194 Smoke 32 1008 46 5000 4.6 300 12:41 30.03.2020
195 Smoke 32 1008 46 5000 4.6 300 12:20 30.03.2020
196 Smoke 32 1009 43 5000 4.6 300 11:57 30.03.2020
197 Smoke 32 1009 43 5000 4.6 300 11:39 30.03.2020
198 Smoke 32 1010 43 4000 5.7 280 11:20 30.03.2020
199 Smoke 32 1010 46 4000 5.1 290 10:41 30.03.2020
200 Smoke 32 1010 49 4000 5.1 260 10:22 30.03.2020
201 Smoke 32 1010 52 4000 4.6 280 09:57 30.03.2020
202 Smoke 32 1010 52 4000 4.6 280 09:57 30.03.2020
203 Smoke 31 1010 55 4000 4.6 260 09:38 30.03.2020
204 Smoke 31 1010 55 4000 4.6 260 09:19 30.03.2020
205 Smoke 32 1011 49 4000 5.1 260 08:42 30.03.2020
206 Smoke 32 1011 38 4000 2.1 300 08:23 30.03.2020
207 Smoke 32 1012 40 4000 1.5 200 07:53 30.03.2020
208 Smoke 32 1012 40 4000 1.5 150 07:34 30.03.2020
209 Smoke 31 1012 45 4000 1.5 330 06:57 30.03.2020
210 Smoke 31 1012 45 4000 3.6 330 06:33 30.03.2020
211 Smoke 29 1011 48 4000 3.6 330 05:59 30.03.2020
212 Smoke 28 1011 51 4000 2.1 340 05:34 30.03.2020
213 Smoke 27 1010 51 4000 1.5 330 04:26 30.03.2020
214 Smoke 27 1010 51 4000 1.5 340 03:45 30.03.2020
215 Smoke 28 1008 51 4000 4.6 330 02:42 30.03.2020
216 Smoke 28 1008 51 4000 4.6 330 01:48 30.03.2020
217 Smoke 27 1008 65 4000 3.6 350 00:56 30.03.2020
218 Smoke 28 1009 58 4000 3.1 320 00:25 30.03.2020
219 Smoke 28 1009 51 4000 2.6 330 23:43 29.03.2020
220 Smoke 28 1009 54 4000 2.1 330 23:24 29.03.2020
221 Smoke 28 1009 51 4000 1.5 280 22:59 29.03.2020
222 Smoke 28 1009 51 4000 1.5 280 22:39 29.03.2020
223 Smoke 28 1010 54 4000 2.2 339 22:19 29.03.2020
224 Smoke 28 1010 54 4000 2.2 339 21:58 29.03.2020
225 Smoke 29 1010 48 4000 2.24 331 21:37 29.03.2020
226 Smoke 29 1010 48 4000 2.4 4 21:18 29.03.2020
227 Smoke 29 1010 42 4000 1.5 30 20:55 29.03.2020
228 Smoke 29 1010 45 4000 1.5 340 20:37 29.03.2020
229 Smoke 29 1010 45 4000 1.5 340 20:37 29.03.2020
230 Smoke 30 1010 45 4000 2.4 4 20:18 29.03.2020
231 Smoke 30 1010 45 4000 2.4 4 19:54 29.03.2020
232 Smoke 30 1010 45 4000 2.1 340 19:36 29.03.2020
233 Smoke 30 1010 55 4000 2.1 300 19:18 29.03.2020
234 Smoke 30 1010 55 4000 2.1 300 18:54 29.03.2020
235 Smoke 30 1010 51 4000 2.6 290 18:36 29.03.2020
236 Smoke 30 1010 51 4000 2.6 290 18:36 29.03.2020
237 Smoke 31 1009 45 4000 1.93 18 18:18 29.03.2020
238 Smoke 31 1009 45 4000 1.93 18 17:42 29.03.2020
239 Smoke 31 1009 45 4000 1.93 18 17:23 29.03.2020
240 Smoke 31 1008 48 4000 2.6 310 16:59 29.03.2020
241 Smoke 31 1008 48 4000 2.6 310 16:40 29.03.2020
242 Smoke 31 1008 45 4000 2.6 320 16:21 29.03.2020
243 Smoke 32 1008 46 5000 3.6 310 15:58 29.03.2020
244 Smoke 32 1008 46 5000 3.6 310 15:40 29.03.2020
245 Smoke 32 1007 38 5000 4.1 290 15:20 29.03.2020
246 Smoke 32 1007 38 5000 3.6 310 14:56 29.03.2020
247 Smoke 32 1007 38 5000 4.1 290 14:37 29.03.2020
248 Smoke 32 1007 38 5000 4.1 290 14:19 29.03.2020
249 Smoke 33 1007 36 5000 4.1 330 13:55 29.03.2020
250 Smoke 33 1007 38 5000 5.1 330 13:37 29.03.2020
251 Smoke 33 1007 41 5000 4.1 310 13:18 29.03.2020
252 Smoke 34 1007 41 5000 4.6 300 12:54 29.03.2020
253 Smoke 34 1007 41 5000 4.6 300 12:54 29.03.2020
254 Smoke 34 1007 41 5000 4.6 300 12:36 29.03.2020
255 Smoke 34 1007 44 5000 5.1 280 12:18 29.03.2020
256 Smoke 34 1008 46 5000 4.6 280 11:38 29.03.2020
257 Smoke 34 1008 46 5000 4.6 280 11:20 29.03.2020
258 Smoke 34 1008 39 5000 4.6 290 10:40 29.03.2020
259 Smoke 34 1009 41 5000 4.6 290 10:21 29.03.2020
260 Smoke 34 1009 46 5000 5.7 280 09:59 29.03.2020
261 Smoke 34 1010 39 5000 3.6 290 09:38 29.03.2020
262 Smoke 33 1010 39 5000 3.6 290 09:19 29.03.2020
263 Smoke 34 1010 36 5000 3.1 270 08:48 29.03.2020
264 Smoke 34 1011 28 5000 1.5 0 08:27 29.03.2020
265 Smoke 34 1011 32 5000 3.45 333 07:56 29.03.2020
266 Smoke 33 1011 38 4500 3.45 333 07:38 29.03.2020
267 Smoke 32 1011 40 4000 2.6 230 07:19 29.03.2020
268 Smoke 27 1011 54 5000 2.1 340 04:59 29.03.2020
269 Smoke 26 1010 57 5000 4.26 18 03:42 29.03.2020
270 Smoke 26 1010 57 4500 2.6 340 03:24 29.03.2020
271 Smoke 26 1009 57 4000 2.1 350 01:50 29.03.2020
272 Smoke 26 1009 57 4000 2.6 10 01:23 29.03.2020
273 Smoke 27 1009 54 4000 3.32 16 00:53 29.03.2020
274 Smoke 27 1009 57 4000 3.6 340 00:29 29.03.2020
275 Haze 27 1009 65 4000 4.1 340 23:42 28.03.2020
276 Haze 27 1009 65 4000 4.1 340 23:23 28.03.2020
277 Haze 27 1009 65 3000 4.1 340 22:57 28.03.2020
278 Haze 27 1010 65 3000 4.1 330 22:37 28.03.2020
279 Haze 27 1010 65 3000 4.1 330 22:19 28.03.2020
280 Haze 27 1010 65 3000 5.1 340 21:42 28.03.2020
281 Haze 27 1010 61 3500 4.6 330 21:24 28.03.2020
282 Smoke 28 1011 54 4000 4.1 330 20:58 28.03.2020
283 Smoke 28 1011 54 4000 4.1 330 20:39 28.03.2020
284 Smoke 28 1011 51 4000 4.1 340 20:21 28.03.2020
285 Smoke 29 1011 30 4000 1.5 300 19:56 28.03.2020
286 Smoke 29 1011 30 4000 1.5 300 19:37 28.03.2020
287 Smoke 29 1011 30 4000 1.5 300 19:19 28.03.2020
288 Smoke 30 1011 23 4000 2.1 330 18:55 28.03.2020
289 Smoke 31 1011 20 4000 2.6 340 18:36 28.03.2020
290 Smoke 30 1011 25 4000 3.1 20 18:18 28.03.2020
291 Smoke 30 1011 25 4000 2.6 360 17:38 28.03.2020
292 Smoke 30 1011 27 4000 5.1 330 17:19 28.03.2020
293 Smoke 30 1010 28 4000 4.1 340 16:42 28.03.2020
294 Smoke 30 1010 28 4000 4.1 340 16:20 28.03.2020
295 Smoke 30 1010 35 4000 4.1 340 15:56 28.03.2020
296 Smoke 30 1010 37 4000 4.1 330 15:38 28.03.2020
297 Smoke 30 1010 37 4000 4.1 330 15:19 28.03.2020
298 Smoke 30 1010 42 4000 5.7 330 14:43 28.03.2020
299 Smoke 30 1009 48 5000 4.6 320 14:23 28.03.2020
300 Smoke 31 1009 48 5500 5.1 310 13:59 28.03.2020
301 Clouds 32 1008 46 6000 6.2 310 13:38 28.03.2020
302 Clouds 32 1008 46 6000 6.2 310 13:19 28.03.2020
303 Smoke 32 1009 46 5000 5.7 300 12:39 28.03.2020
304 Smoke 32 1009 46 5000 5.7 300 12:21 28.03.2020
305 Smoke 32 1009 49 4000 6.2 300 11:42 28.03.2020
306 Smoke 32 1009 49 4000 6.2 320 11:21 28.03.2020
307 Smoke 33 1009 49 4000 6.2 320 10:56 28.03.2020
308 Smoke 33 1010 55 4000 5.1 300 10:38 28.03.2020
309 Smoke 33 1010 55 4000 5.1 300 10:18 28.03.2020
310 Smoke 33 1010 55 3500 5.1 290 09:41 28.03.2020
311 Smoke 34 1011 52 3500 5.7 290 09:23 28.03.2020
312 Smoke 34 1011 49 3500 5.7 280 08:46 28.03.2020
313 Smoke 34 1012 44 3500 4.1 300 08:27 28.03.2020
314 Smoke 34 1012 36 3500 3.1 290 07:59 28.03.2020
315 Smoke 33 1013 38 3000 2.6 30 07:41 28.03.2020
316 Smoke 34 1013 38 3000 2.6 50 06:55 28.03.2020
317 Smoke 33 1013 41 2500 2.71 360 06:32 28.03.2020
318 Smoke 32 1013 45 2500 1.5 30 05:41 28.03.2020
319 Smoke 31 1013 45 2500 1.5 30 05:19 28.03.2020
320 Haze 29 1013 58 2500 3.44 18 04:40 28.03.2020
321 Haze 27 1012 65 2500 3.44 18 02:55 28.03.2020
322 Haze 27 1011 65 3000 4.1 23 01:48 28.03.2020
323 Haze 27 1011 69 3500 4.7 14 01:24 28.03.2020
324 Haze 27 1011 69 3500 4.7 14 00:55 28.03.2020
325 Haze 27 1011 69 3500 4.7 14 00:33 28.03.2020
326 Haze 27 1011 69 3500 4.7 14 23:54 27.03.2020
327 Haze 28 1011 65 3500 1.5 350 23:36 27.03.2020
328 Haze 27 1011 69 3500 2.6 40 23:18 27.03.2020
329 Haze 27 1011 69 3500 2.6 40 22:54 27.03.2020
330 Haze 27 1011 69 3500 2.6 340 22:36 27.03.2020
331 Haze 27 1011 69 3500 2.6 340 22:18 27.03.2020
332 Haze 27 1011 69 3500 1.5 340 21:42 27.03.2020
333 Haze 28 1012 65 3500 2.6 330 21:23 27.03.2020
334 Haze 28 1012 65 3500 2.6 360 20:58 27.03.2020
335 Haze 28 1012 65 3500 2.6 360 20:58 27.03.2020
336 Haze 28 1012 65 3500 2.6 350 20:39 27.03.2020
337 Haze 28 1012 65 3500 2.6 350 20:19 27.03.2020
338 Haze 28 1012 65 3500 1.5 350 19:56 27.03.2020
339 Haze 28 1012 65 3500 2.1 320 19:38 27.03.2020
340 Haze 28 1012 65 3500 2.1 320 19:19 27.03.2020
341 Haze 29 1012 66 3500 3.1 310 18:43 27.03.2020
342 Haze 29 1012 66 3500 3.1 310 18:23 27.03.2020
343 Haze 29 1012 66 3500 2.1 330 17:57 27.03.2020
344 Haze 29 1012 66 3500 3.6 320 17:38 27.03.2020
345 Haze 29 1011 66 3500 3.1 330 17:19 27.03.2020
346 Haze 29 1011 66 3500 3.1 320 16:44 27.03.2020
347 Haze 29 1011 66 3500 3.1 320 16:25 27.03.2020
348 Haze 29 1011 66 3500 3.1 320 16:25 27.03.2020
349 Haze 29 1011 66 3500 3.1 320 16:25 27.03.2020
350 Haze 29 1010 66 4000 3.6 330 15:46 27.03.2020
351 Haze 29 1010 66 4000 3.6 330 15:27 27.03.2020
352 Smoke 29 1010 66 4000 3.6 310 14:59 27.03.2020
353 Smoke 30 1010 62 4000 5.7 300 14:40 27.03.2020
354 Smoke 30 1010 62 4000 5.7 300 14:22 27.03.2020
355 Smoke 30 1009 55 5000 4.6 310 13:54 27.03.2020
356 Smoke 30 1009 58 5000 6.2 310 13:36 27.03.2020
357 Smoke 31 1010 52 5000 7.2 290 13:18 27.03.2020
358 Smoke 31 1010 55 5000 5.1 290 12:42 27.03.2020
359 Smoke 31 1010 55 5000 5.7 290 12:19 27.03.2020
360 Smoke 31 1010 55 5000 5.7 290 11:55 27.03.2020
361 Smoke 31 1010 55 5000 5.7 290 11:36 27.03.2020
362 Smoke 33 1010 44 5000 6.7 260 11:18 27.03.2020
363 Smoke 34 1010 44 5000 5.7 260 10:41 27.03.2020
364 Smoke 34 1010 44 5000 5.7 260 10:22 27.03.2020
365 Smoke 33 1011 44 5000 3.1 330 09:58 27.03.2020
366 Smoke 34 1012 46 5000 2.6 330 09:40 27.03.2020
367 Smoke 34 1012 46 5000 2.6 330 09:22 27.03.2020
368 Smoke 33 1012 52 5000 4.6 270 08:59 27.03.2020
369 Smoke 33 1012 52 5000 4.6 270 08:59 27.03.2020
370 Smoke 33 1012 52 5000 4.6 270 08:40 27.03.2020
371 Smoke 32 1013 59 4500 4.1 300 08:21 27.03.2020
372 Smoke 32 1013 55 4500 3.6 320 07:57 27.03.2020
373 Smoke 31 1013 62 4000 3.6 310 07:38 27.03.2020
374 Haze 31 1013 62 4000 3.1 310 07:20 27.03.2020
375 Haze 31 1013 62 4000 3.1 310 06:39 27.03.2020
376 Haze 29 1013 70 4000 1.5 0 05:45 27.03.2020
377 Haze 27 1012 78 4000 5.7 340 03:26 27.03.2020
378 Haze 28 1010 78 3000 1.5 120 01:55 27.03.2020
379 Haze 27 1010 83 3000 2.1 110 01:18 27.03.2020
380 Haze 28 1010 78 3000 1.5 20 00:41 27.03.2020
381 Haze 28 1010 78 3000 1.5 20 00:19 27.03.2020
382 Haze 28 1010 78 3000 1.5 340 23:37 26.03.2020
383 Haze 28 1011 78 3000 2.6 310 23:18 26.03.2020
384 Haze 28 1011 78 3000 2.6 310 22:56 26.03.2020
385 Haze 28 1011 78 3000 2.6 310 22:36 26.03.2020
386 Haze 28 1011 78 3000 2.6 310 22:18 26.03.2020
387 Haze 28 1011 78 3000 2.6 300 21:40 26.03.2020
388 Haze 28 1011 78 3000 2.1 300 21:21 26.03.2020
389 Haze 28 1011 78 3000 2.1 300 20:59 26.03.2020
390 Haze 28 1011 83 3000 1.5 350 20:39 26.03.2020
391 Haze 28 1011 83 3000 1.5 350 20:21 26.03.2020
392 Haze 29 1012 79 3000 0.51 284 19:58 26.03.2020
393 Haze 29 1012 74 3000 1.5 0 19:39 26.03.2020
394 Haze 29 1012 74 3000 1.5 0 19:21 26.03.2020
395 Haze 29 1012 74 3000 0.51 284 18:58 26.03.2020
396 Haze 29 1012 74 3000 0.51 284 18:40 26.03.2020
397 Haze 29 1011 74 3000 2.1 330 18:21 26.03.2020
398 Haze 29 1011 74 3000 1.5 290 17:44 26.03.2020
399 Haze 29 1011 74 3000 1.5 290 17:44 26.03.2020
400 Haze 29 1010 79 3000 3.1 280 17:20 26.03.2020
401 Haze 29 1010 79 3000 3.1 280 16:57 26.03.2020
402 Haze 29 1010 79 3000 2.1 280 16:38 26.03.2020
403 Haze 29 1010 79 3000 2.1 280 16:18 26.03.2020
404 Haze 29 1009 79 3000 2.6 300 15:54 26.03.2020
405 Haze 29 1009 74 3500 3.6 280 15:36 26.03.2020
406 Haze 29 1009 74 3500 3.6 280 15:18 26.03.2020
407 Haze 29 1008 74 4000 4.1 270 14:42 26.03.2020
408 Haze 29 1008 74 4500 5.7 280 14:24 26.03.2020
409 Haze 30 1008 79 5000 6.2 280 13:55 26.03.2020
410 Haze 30 1008 79 5000 6.2 290 13:37 26.03.2020
411 Haze 30 1008 79 5000 6.2 290 13:19 26.03.2020
412 Haze 31 1007 70 5000 6.2 270 12:38 26.03.2020
413 Haze 31 1007 70 5500 6.2 250 12:20 26.03.2020
414 Clouds 31 1007 59 6000 6.2 250 11:46 26.03.2020
415 Clouds 31 1007 59 6000 6.2 250 11:23 26.03.2020
416 Clouds 32 1008 59 6000 6.7 250 10:57 26.03.2020
417 Clouds 33 1008 56 6000 5.7 230 10:39 26.03.2020
418 Clouds 33 1008 56 6000 5.7 230 10:19 26.03.2020
419 Clouds 33 1008 46 6000 3.6 230 09:44 26.03.2020
420 Clouds 33 1009 46 6000 4.1 210 09:21 26.03.2020
421 Smoke 32 1010 46 5000 4.1 190 08:57 26.03.2020
422 Smoke 32 1010 46 5000 4.1 190 08:38 26.03.2020
423 Smoke 32 1010 46 5000 4.1 190 08:19 26.03.2020
424 Smoke 32 1011 46 5000 3.1 140 07:44 26.03.2020
425 Smoke 32 1011 43 4000 3.1 140 07:22 26.03.2020
426 Smoke 31 1011 52 3000 3.1 130 06:57 26.03.2020
427 Haze 30 1011 70 2500 2.1 130 06:27 26.03.2020
428 Rain 29 1011 74 2500 0.54 130 05:22 26.03.2020
429 Haze 29 1010 74 2500 0.54 130 03:45 26.03.2020
430 Haze 27 1009 78 2500 2.1 340 02:56 26.03.2020
431 Haze 28 1008 74 3000 1.5 330 01:50 26.03.2020
432 Haze 28 1008 78 3000 1.5 80 00:56 26.03.2020
433 Haze 28 1007 78 3000 1.5 150 00:22 26.03.2020
434 Haze 28 1008 74 3000 0.39 236 23:41 25.03.2020
435 Haze 28 1008 74 3000 0.39 236 23:22 25.03.2020
436 Haze 28 1009 74 3000 2.6 160 22:42 25.03.2020
437 Haze 28 1009 74 3000 2.6 160 22:21 25.03.2020
438 Haze 29 1009 70 3500 0.86 240 21:56 25.03.2020
439 Haze 29 1009 70 3500 0.86 240 21:38 25.03.2020
440 Haze 29 1009 70 3500 0.86 240 21:20 25.03.2020
441 Haze 29 1009 70 3500 0.86 240 20:56 25.03.2020
442 Haze 29 1009 70 3500 0.86 240 20:37 25.03.2020
443 Haze 29 1009 70 3500 2.03 171 20:18 25.03.2020
444 Haze 29 1010 70 3500 0.99 221 19:43 25.03.2020
445 Haze 29 1010 70 3500 0.99 221 19:43 25.03.2020
446 Smoke 30 1010 55 4000 1.5 130 19:23 25.03.2020
447 Smoke 30 1010 55 4000 1.5 130 18:58 25.03.2020
448 Smoke 30 1010 55 4000 1.5 130 18:40 25.03.2020
449 Smoke 30 1010 55 4000 1.5 100 18:21 25.03.2020
450 Smoke 30 1010 55 4000 1.5 100 17:56 25.03.2020
451 Haze 30 1010 58 4000 2.1 100 17:38 25.03.2020
452 Haze 30 1009 62 4000 1.5 90 17:20 25.03.2020
453 Smoke 30 1009 62 4000 1.98 210 16:44 25.03.2020
454 Smoke 30 1009 62 4000 1.98 210 16:24 25.03.2020
455 Smoke 30 1009 62 4000 1.98 210 15:59 25.03.2020
456 Smoke 30 1009 62 4000 1.5 160 15:41 25.03.2020
457 Smoke 30 1009 62 4000 1.5 160 15:41 25.03.2020
458 Smoke 30 1009 62 4000 1.5 160 15:20 25.03.2020
459 Smoke 30 1008 62 4000 3.1 120 14:55 25.03.2020
460 Smoke 31 1008 55 5000 3.6 160 14:37 25.03.2020
461 Smoke 31 1008 55 5000 3.6 160 14:18 25.03.2020
462 Haze 30 1007 62 5000 3.1 280 13:42 25.03.2020
463 Haze 30 1006 66 5000 4.1 270 13:22 25.03.2020
464 Clouds 30 1006 70 6000 6.2 280 12:38 25.03.2020
465 Clouds 30 1006 70 6000 6.2 280 12:19 25.03.2020
466 Clouds 31 1006 66 6000 6.7 280 11:56 25.03.2020
467 Clouds 31 1006 70 6000 6.2 270 11:37 25.03.2020
468 Clouds 31 1007 66 6000 6.7 260 11:19 25.03.2020
469 Clouds 31 1007 66 6000 6.7 260 10:56 25.03.2020
470 Clouds 31 1007 70 6000 5.7 260 10:38 25.03.2020
471 Clouds 31 1007 70 6000 5.7 260 10:18 25.03.2020
472 Smoke 31 1008 66 3000 5.7 250 09:43 25.03.2020
473 Smoke 31 1008 66 3000 5.7 250 09:24 25.03.2020
474 Smoke 31 1008 70 3000 5.7 230 08:57 25.03.2020
475 Smoke 31 1008 70 3000 5.7 230 08:39 25.03.2020
476 Smoke 31 1009 66 3000 4.1 230 08:19 25.03.2020
477 Smoke 31 1010 66 3000 3.6 190 07:41 25.03.2020
478 Smoke 31 1010 66 3000 3.6 190 07:22 25.03.2020
479 Smoke 31 1010 66 3000 3.6 230 06:50 25.03.2020
480 Smoke 31 1010 66 3000 3.6 230 06:28 25.03.2020
481 Smoke 30 1010 74 2500 2.1 280 05:56 25.03.2020
482 Smoke 30 1010 74 2500 2.1 280 05:30 25.03.2020
483 Haze 29 1009 79 2500 1.1 54 04:39 25.03.2020
484 Haze 28 1008 83 2500 2.6 260 03:36 25.03.2020
485 Haze 28 1008 78 2500 1.1 54 02:40 25.03.2020
486 Haze 28 1007 78 2500 1.5 0 01:23 25.03.2020
487 Haze 28 1007 78 2500 1.64 3 00:49 25.03.2020
488 Haze 28 1007 78 2500 1.64 3 00:24 25.03.2020
489 Haze 28 1007 78 2500 2.6 280 23:45 24.03.2020
490 Haze 28 1007 78 2500 2.6 280 23:26 24.03.2020
491 Haze 28 1007 78 2500 3.1 280 22:57 24.03.2020
492 Haze 28 1007 78 2500 3.1 290 22:38 24.03.2020
493 Haze 28 1007 78 2500 3.1 290 22:19 24.03.2020
494 Haze 28 1007 78 2500 2.6 290 21:56 24.03.2020
495 Haze 28 1008 83 2500 4.1 260 21:37 24.03.2020
496 Haze 28 1008 83 2500 4.1 260 21:18 24.03.2020
497 Haze 29 1008 70 2500 2.6 260 20:56 24.03.2020
498 Haze 29 1008 74 2500 2.86 291 20:38 24.03.2020
499 Haze 29 1008 74 2500 1.95 250 20:19 24.03.2020
500 Haze 29 1008 74 2500 1.97 261 19:41 24.03.2020
501 Haze 29 1008 74 2500 1.97 261 19:19 24.03.2020
502 Haze 30 1008 66 3000 2.1 160 18:56 24.03.2020
503 Haze 30 1008 66 3000 2.1 160 18:37 24.03.2020
504 Smoke 31 1008 55 3000 1.97 261 18:18 24.03.2020
505 Smoke 31 1008 55 3000 1.97 261 18:18 24.03.2020
506 Smoke 32 1008 46 4000 1.97 261 17:42 24.03.2020
507 Smoke 32 1008 46 4000 1.97 261 17:23 24.03.2020
508 Smoke 32 1008 46 4000 2.51 193 16:58 24.03.2020
509 Smoke 32 1007 49 4000 2.51 193 16:40 24.03.2020
510 Smoke 32 1007 49 4000 2.51 193 16:22 24.03.2020
511 Smoke 31 1007 48 4000 1.5 310 15:59 24.03.2020
512 Smoke 31 1007 52 4000 1.5 300 15:38 24.03.2020
513 -273 0 0 0 0 0 15:20 24.03.2020
514 Smoke 32 1007 49 4000 1.5 300 14:43 24.03.2020
515 Smoke 31 1006 49 4000 3.1 300 14:21 24.03.2020
516 Smoke 31 1006 49 5000 4.6 290 13:55 24.03.2020
517 Smoke 32 1006 49 5000 3.6 300 13:36 24.03.2020
518 Smoke 32 1006 49 5000 3.6 300 13:18 24.03.2020
519 Smoke 32 1006 49 5000 4.6 290 12:41 24.03.2020
520 Smoke 32 1006 49 5000 5.7 280 12:22 24.03.2020
521 Smoke 32 1006 49 5000 5.7 290 11:41 24.03.2020
522 Smoke 32 1006 49 5000 5.7 290 11:20 24.03.2020
523 Smoke 32 1007 55 5000 5.1 290 10:55 24.03.2020
524 Smoke 32 1007 59 5000 6.7 270 10:36 24.03.2020
525 Smoke 32 1007 59 5000 6.7 270 10:18 24.03.2020
526 Smoke 32 1008 59 5000 6.2 250 09:42 24.03.2020
527 Smoke 32 1008 59 5000 4.6 270 09:24 24.03.2020
528 Smoke 32 1009 62 5000 4.6 280 08:40 24.03.2020
529 Haze 33 1009 59 5000 3.1 310 08:21 24.03.2020
530 Haze 32 1010 62 5000 5.1 280 07:52 24.03.2020
531 Haze 32 1010 66 4000 6.7 280 07:25 24.03.2020
532 Haze 31 1010 70 4000 4.1 260 06:59 24.03.2020
533 Haze 31 1010 70 4000 3.6 260 06:34 24.03.2020
534 Haze 30 1010 74 4000 1.5 290 05:30 24.03.2020
535 Haze 29 1010 74 4000 1.5 300 04:50 24.03.2020
536 Haze 26 1009 69 3500 1.87 87 03:19 24.03.2020
537 Haze 27 1009 69 3500 1.87 87 02:25 24.03.2020
538 Haze 27 1008 69 3500 1.88 81 00:53 24.03.2020
539 Haze 27 1008 69 3500 1.5 340 00:26 24.03.2020
540 Haze 27 1008 69 3500 1.88 81 23:55 23.03.2020
541 Haze 27 1008 69 3500 1.88 81 23:36 23.03.2020
542 Haze 27 1008 69 3500 1.51 23 23:18 23.03.2020
543 Haze 28 1009 65 3500 1.51 23 22:42 23.03.2020
544 Haze 28 1009 65 3500 1.51 23 22:22 23.03.2020
545 Haze 28 1009 65 3500 1.51 23 22:22 23.03.2020
546 Haze 28 1009 61 3500 1.5 310 21:55 23.03.2020
547 Smoke 29 1010 54 4000 2.1 310 21:37 23.03.2020
548 Smoke 29 1010 54 4000 2.1 340 21:18 23.03.2020
549 Smoke 29 1010 54 4000 2.1 340 20:42 23.03.2020
550 Smoke 29 1010 54 4000 2.6 340 20:24 23.03.2020
551 Smoke 29 1011 54 4000 2.1 350 19:55 23.03.2020
552 Smoke 30 1011 48 4000 3.1 340 19:37 23.03.2020
553 Smoke 30 1011 51 4000 3.1 340 19:19 23.03.2020
554 Smoke 30 1011 51 4000 2.6 290 18:43 23.03.2020
555 Smoke 30 1011 51 4000 2.6 290 18:24 23.03.2020
556 Smoke 30 1011 51 4000 1.5 360 17:59 23.03.2020
557 Smoke 30 1011 51 4000 1.5 360 17:40 23.03.2020
558 Smoke 30 1010 55 5000 3.1 340 17:19 23.03.2020
559 Smoke 30 1009 55 5000 1.5 330 16:43 23.03.2020
560 Smoke 30 1009 55 5000 1.5 330 16:25 23.03.2020
561 Clear 31 1009 52 6000 3.1 320 15:54 23.03.2020
562 Clear 31 1009 52 6000 4.1 310 15:36 23.03.2020
563 Clear 31 1009 52 6000 4.1 310 15:18 23.03.2020
564 Clear 31 1009 52 6000 4.1 310 15:18 23.03.2020
565 Clear 31 1008 52 6000 4.6 310 14:37 23.03.2020
566 Clear 31 1008 49 6000 6.2 290 14:19 23.03.2020
567 Clear 31 1008 49 6000 6.2 290 14:19 23.03.2020
568 Clear 31 1008 49 6000 6.2 290 13:55 23.03.2020
569 Clear 31 1008 52 6000 5.7 300 13:37 23.03.2020
570 Clear 31 1008 52 6000 5.7 300 13:19 23.03.2020
571 Clear 32 1008 52 6000 4.6 290 12:42 23.03.2020
572 Clear 32 1008 52 6000 4.6 290 12:23 23.03.2020
573 Clear 33 1008 44 6000 5.7 280 11:56 23.03.2020
574 Clear 33 1008 44 6000 5.7 280 11:37 23.03.2020
575 Smoke 33 1008 46 6000 5.7 280 11:19 23.03.2020
576 Smoke 33 1008 46 6000 5.7 280 10:56 23.03.2020
577 Smoke 32 1009 55 5000 6.2 270 10:36 23.03.2020
578 Smoke 32 1009 55 5000 6.2 270 10:18 23.03.2020
579 Smoke 32 1009 52 4000 4.6 270 09:42 23.03.2020
580 Smoke 32 1010 52 4000 6.2 270 09:20 23.03.2020
581 Smoke 31 1011 55 3000 5.1 260 08:38 23.03.2020
582 Smoke 31 1011 55 3000 5.1 260 08:20 23.03.2020
583 Smoke 32 1011 55 3000 5.1 250 07:54 23.03.2020
584 Smoke 32 1012 49 3000 5.1 250 07:34 23.03.2020
585 Smoke 32 1012 45 3000 3.36 295 06:58 23.03.2020
586 Smoke 31 1012 45 3000 3.36 295 06:40 23.03.2020
587 Haze 31 1012 55 2500 2.1 60 05:44 23.03.2020
588 Haze 28 1012 65 2500 1.8 75 04:41 23.03.2020
589 Haze 26 1011 78 2500 1.5 0 02:59 23.03.2020
590 Haze 26 1010 83 2500 2.1 10 01:50 23.03.2020
591 Haze 26 1010 88 2500 2.1 350 00:50 23.03.2020
592 Haze 26 1010 88 2500 2.6 350 00:29 23.03.2020
593 Haze 26 1010 88 2500 3.1 330 23:44 22.03.2020
594 Haze 26 1010 88 2500 3.1 330 23:24 22.03.2020
595 Haze 26 1010 88 2500 3.1 310 22:42 22.03.2020
596 Haze 26 1010 88 2500 3.1 310 22:22 22.03.2020
597 Haze 26 1011 88 2500 4.1 320 21:54 22.03.2020
598 Haze 27 1011 83 2500 3.1 320 21:36 22.03.2020
599 Haze 27 1011 83 2500 3.1 320 21:18 22.03.2020
600 Haze 27 1012 83 3000 3.6 310 20:42 22.03.2020
601 Haze 27 1012 83 3000 3.6 300 20:24 22.03.2020
602 Haze 27 1012 78 3000 3.1 290 19:56 22.03.2020
603 Haze 27 1012 78 3000 2.1 260 19:38 22.03.2020
604 Haze 27 1012 78 3000 2.1 260 19:19 22.03.2020
605 Haze 28 1012 69 3000 0.9 25 18:58 22.03.2020
606 Haze 28 1012 69 4000 2.1 20 18:40 22.03.2020
607 Haze 28 1012 69 4000 2.1 20 18:21 22.03.2020
608 Haze 28 1012 69 4000 1.5 330 17:57 22.03.2020
609 Smoke 28 1012 69 4000 2.6 320 17:38 22.03.2020
610 Smoke 28 1012 69 4000 2.6 320 17:20 22.03.2020
611 Smoke 28 1012 74 4000 2.6 300 16:57 22.03.2020
612 Smoke 28 1011 74 4000 2.6 310 16:39 22.03.2020
613 Smoke 28 1011 74 4000 2.6 310 16:20 22.03.2020
614 Smoke 29 1011 66 4000 3.6 300 15:40 22.03.2020
615 Smoke 29 1011 66 4000 3.6 300 15:40 22.03.2020
616 Smoke 29 1011 62 5000 4.1 300 15:20 22.03.2020
617 Clear 29 1010 55 6000 5.1 310 14:46 22.03.2020
618 Clear 29 1010 55 6000 5.1 310 14:19 22.03.2020
619 Clear 30 1009 55 6000 3.6 300 13:44 22.03.2020
620 Clear 30 1009 55 6000 3.6 300 13:20 22.03.2020
621 Clear 31 1009 55 6000 4.6 300 12:59 22.03.2020
622 Clear 31 1009 55 6000 8.2 310 12:41 22.03.2020
623 Clear 32 1009 55 6000 5.1 300 12:19 22.03.2020
624 Clear 32 1010 58 6000 4.1 300 11:43 22.03.2020
625 Clear 32 1010 58 6000 4.1 300 11:25 22.03.2020
626 Clear 31 1010 58 6000 6.2 280 10:58 22.03.2020
627 Clear 31 1010 58 6000 7.2 280 10:40 22.03.2020
628 Clear 32 1010 58 6000 7.2 280 10:22 22.03.2020
629 Clear 32 1010 58 6000 7.2 280 10:22 22.03.2020
630 Smoke 31 1011 55 5000 4.6 310 09:47 22.03.2020
631 Smoke 32 1011 55 5000 4.1 310 09:28 22.03.2020
632 Smoke 32 1012 55 5000 4.1 300 08:51 22.03.2020
633 Smoke 32 1012 55 5000 4.6 290 08:32 22.03.2020
634 Smoke 32 1012 55 5000 4.6 290 08:32 22.03.2020
635 Smoke 32 1013 49 5000 4.1 330 07:56 22.03.2020
636 Smoke 31 1013 43 5000 4.1 290 07:38 22.03.2020
637 Smoke 31 1014 40 5000 1.5 340 06:48 22.03.2020
638 Smoke 30 1013 48 5000 2.1 360 05:52 22.03.2020
639 Haze 27 1013 74 2500 1.5 360 04:39 22.03.2020
640 Haze 24 1011 88 3500 2.6 130 01:49 22.03.2020
641 Haze 25 1011 83 3500 2.6 20 00:51 22.03.2020
642 Haze 25 1011 83 3500 2.6 360 00:32 22.03.2020
643 Haze 25 1011 83 3500 2.1 350 23:47 21.03.2020
644 Haze 25 1011 83 3500 2.6 10 23:23 21.03.2020
645 Haze 25 1011 83 3500 2.6 10 22:59 21.03.2020
646 Haze 26 1011 78 3500 1.5 20 22:38 21.03.2020
647 Haze 26 1011 78 3500 1.5 20 22:20 21.03.2020
648 Haze 26 1012 78 3500 2.6 360 21:59 21.03.2020
649 Haze 26 1012 78 3500 2.6 360 21:39 21.03.2020
650 Haze 26 1012 78 3500 2.6 340 21:20 21.03.2020
651 Haze 26 1013 78 3500 3.1 330 20:44 21.03.2020
652 Haze 26 1013 78 3500 3.1 340 20:22 21.03.2020
653 Haze 26 1013 78 3500 3.6 340 19:56 21.03.2020
654 Haze 27 1013 74 3500 3.6 330 19:38 21.03.2020
655 Haze 27 1013 74 3500 3.6 330 19:19 21.03.2020
656 Haze 27 1013 74 3500 3.1 340 18:54 21.03.2020
657 Haze 27 1013 74 3500 2.1 330 18:36 21.03.2020
658 Haze 27 1013 74 3500 2.1 330 18:18 21.03.2020
659 Smoke 27 1013 69 4000 3.1 10 17:42 21.03.2020
660 Smoke 27 1013 69 4000 3.1 10 17:23 21.03.2020
661 Smoke 27 1012 69 4000 4.1 310 16:43 21.03.2020
662 Smoke 27 1012 69 4000 4.1 310 16:43 21.03.2020
663 Smoke 27 1012 69 4000 4.1 310 16:24 21.03.2020
664 Smoke 27 1012 69 4000 4.1 310 16:24 21.03.2020
665 Smoke 27 1012 69 4000 4.6 320 15:59 21.03.2020
666 Smoke 27 1012 69 4000 4.6 320 15:41 21.03.2020
667 Smoke 27 1011 69 5000 5.1 300 15:23 21.03.2020
668 Clear 28 1011 61 6000 5.1 300 14:58 21.03.2020
669 Clear 28 1011 61 6000 5.1 300 14:58 21.03.2020
670 Clear 28 1011 61 6000 5.1 300 14:40 21.03.2020
671 Clear 28 1010 61 7000 4.6 300 14:20 21.03.2020
672 Clear 28 1010 61 7000 5.7 290 13:59 21.03.2020
673 Clear 29 1010 58 7000 5.1 290 13:40 21.03.2020
674 Clear 29 1010 58 7000 5.1 290 13:21 21.03.2020
675 Clear 29 1010 58 7000 5.1 290 13:21 21.03.2020
676 Clear 29 1010 58 7000 4.6 280 12:58 21.03.2020
677 Clear 29 1010 58 6000 5.1 270 12:37 21.03.2020
678 Clear 29 1010 58 6000 5.1 270 12:19 21.03.2020
679 Clear 29 1010 58 6000 4.1 270 11:55 21.03.2020
680 Clear 29 1010 58 6000 4.1 270 11:37 21.03.2020
681 Clear 29 1011 58 6000 6.2 260 11:18 21.03.2020
682 Clear 29 1011 58 6000 6.2 260 10:56 21.03.2020
683 Clear 29 1011 58 6000 5.7 270 10:38 21.03.2020
684 Clear 29 1011 58 6000 5.7 270 10:19 21.03.2020
685 Clouds 29 1012 58 6000 4.6 270 09:55 21.03.2020
686 Haze 29 1012 62 5000 4.6 290 09:36 21.03.2020
687 Haze 29 1012 62 5000 4.6 290 09:18 21.03.2020
688 Haze 29 1013 62 5000 5.1 270 08:42 21.03.2020
689 Haze 29 1013 62 4000 4.1 270 08:23 21.03.2020
690 Smoke 29 1014 62 4000 5.1 270 07:42 21.03.2020
691 Smoke 29 1014 58 4000 5.1 290 07:23 21.03.2020
692 Haze 29 1014 58 3000 3.1 280 06:47 21.03.2020
693 Haze 29 1014 58 3000 3.1 280 06:27 21.03.2020
694 Haze 29 1014 65 3000 2.1 110 05:46 21.03.2020
695 Haze 27 1014 69 3000 2.1 90 04:46 21.03.2020
696 Haze 24 1013 69 3500 2.1 180 02:48 21.03.2020
697 Haze 25 1012 73 4000 2 82 02:30 21.03.2020
698 Haze 24 1011 73 4000 1.5 80 01:32 21.03.2020
699 Haze 25 1011 69 4000 1.9 60 00:48 21.03.2020
700 Haze 25 1011 73 4000 1.5 90 00:26 21.03.2020
701 Haze 25 1011 78 4000 1.5 40 23:51 20.03.2020
702 Haze 25 1011 78 3500 2.1 40 23:27 20.03.2020
703 Haze 25 1011 78 3500 2.1 40 22:57 20.03.2020
704 Haze 25 1011 78 3500 1.5 20 22:39 20.03.2020
705 Haze 25 1011 78 3500 1.5 20 22:20 20.03.2020
706 Haze 25 1012 78 3500 1.5 340 21:55 20.03.2020
707 Haze 25 1012 78 3500 2.1 310 21:37 20.03.2020
708 Haze 25 1012 78 3500 2.1 310 21:18 20.03.2020
709 Haze 25 1012 73 3500 2.1 280 20:55 20.03.2020
710 Haze 26 1012 69 3500 1.5 300 20:37 20.03.2020
711 Haze 26 1012 69 3500 1.5 300 20:18 20.03.2020
712 Haze 26 1012 69 3500 3.1 300 19:44 20.03.2020
713 Haze 26 1013 65 3500 2.6 280 19:18 20.03.2020
714 Smoke 26 1013 65 3500 3.1 280 18:55 20.03.2020
715 Smoke 26 1013 65 3500 3.1 280 18:36 20.03.2020
716 Smoke 27 1013 57 3500 3.1 290 18:18 20.03.2020
717 Smoke 27 1013 57 3500 1.5 320 17:39 20.03.2020
718 Smoke 27 1012 57 3500 3.1 280 17:21 20.03.2020
719 Smoke 27 1012 57 3500 3.1 280 16:57 20.03.2020
720 Smoke 27 1012 57 4000 3.1 280 16:39 20.03.2020
721 Smoke 27 1012 57 4000 3.1 280 16:18 20.03.2020
722 Smoke 27 1012 57 5000 3.1 290 15:42 20.03.2020
723 Clear 27 1011 57 6000 4.6 290 15:21 20.03.2020
724 Clouds 27 1011 61 6000 5.1 270 14:55 20.03.2020
725 Clouds 28 1010 54 7000 4.6 280 14:37 20.03.2020
726 Clouds 28 1010 54 7000 4.6 280 14:18 20.03.2020
727 Clouds 28 1010 58 7000 5.7 260 13:42 20.03.2020
728 Clouds 29 1010 58 7000 5.1 270 13:19 20.03.2020
729 Clear 30 1010 55 7000 5.1 290 12:40 20.03.2020
730 Clear 30 1010 55 7000 5.1 290 12:22 20.03.2020
731 Clear 30 1010 51 7000 5.1 290 11:57 20.03.2020
732 Clear 30 1010 51 7000 5.1 290 11:38 20.03.2020
733 Clear 30 1011 51 6000 5.7 280 11:19 20.03.2020
734 Smoke 30 1011 51 5000 5.1 280 10:41 20.03.2020
735 Smoke 30 1011 51 5000 5.1 280 10:21 20.03.2020
736 Smoke 30 1011 55 4000 5.1 280 09:57 20.03.2020
737 Smoke 30 1012 55 4000 4.6 290 09:39 20.03.2020
738 Smoke 30 1012 55 4000 4.6 290 09:19 20.03.2020
739 Smoke 30 1012 58 5000 3.6 280 08:42 20.03.2020
740 Haze 30 1013 58 5000 4.6 280 08:22 20.03.2020
741 Haze 30 1014 58 5000 4.1 270 07:54 20.03.2020
742 Haze 29 1014 62 5000 4.6 280 07:36 20.03.2020
743 Haze 29 1014 62 5000 4.6 280 07:18 20.03.2020
744 Haze 29 1014 65 4000 2.1 260 06:41 20.03.2020
745 Haze 29 1014 65 4000 2.1 260 06:41 20.03.2020
746 Haze 28 1014 69 3000 1.5 140 04:52 20.03.2020
747 Haze 26 1013 69 3500 2.6 120 03:40 20.03.2020
748 Haze 26 1012 78 4000 2.6 270 02:20 20.03.2020
749 Haze 26 1011 78 4000 2.1 250 00:59 20.03.2020
750 Haze 26 1011 78 5000 1.77 28 00:31 20.03.2020
751 Haze 26 1011 74 5000 1.77 28 23:49 19.03.2020
752 Haze 26 1011 74 5000 1.77 28 23:30 19.03.2020
753 Clouds 26 1011 74 6000 0.55 21 22:57 19.03.2020
754 Clouds 26 1011 74 6000 0.55 21 22:38 19.03.2020
755 Clouds 26 1011 74 6000 0.55 21 22:20 19.03.2020
756 Clouds 27 1012 69 7000 0.55 21 21:55 19.03.2020
757 Clouds 27 1012 69 7000 2.6 220 21:37 19.03.2020
758 Clouds 27 1012 69 7000 2.6 220 21:18 19.03.2020
759 Clouds 27 1013 65 7000 0.55 21 20:42 19.03.2020
760 Clouds 27 1013 65 7000 0.28 357 20:23 19.03.2020
761 Clouds 27 1013 65 7000 1.06 268 19:57 19.03.2020
762 Clouds 27 1013 65 7000 1.06 268 19:38 19.03.2020
763 Clouds 27 1013 65 7000 1.06 268 19:20 19.03.2020
764 Clouds 27 1013 65 7000 1.06 268 18:56 19.03.2020
765 Clouds 27 1013 65 7000 1.5 0 18:38 19.03.2020
766 Clouds 27 1013 65 7000 1.5 0 18:38 19.03.2020
767 Clouds 27 1013 65 6000 1.06 268 18:19 19.03.2020
768 Clouds 27 1013 65 6000 1.06 268 17:42 19.03.2020
769 Smoke 28 1012 58 4000 3.1 300 17:19 19.03.2020
770 Smoke 28 1012 58 4000 3.1 300 17:19 19.03.2020
771 Smoke 28 1012 58 4000 3.1 300 16:55 19.03.2020
772 Smoke 28 1012 54 4000 4.1 300 16:37 19.03.2020
773 Smoke 28 1012 54 4000 4.1 300 16:19 19.03.2020
774 Smoke 28 1011 48 4000 4.1 290 15:40 19.03.2020
775 Smoke 28 1011 48 4000 4.1 290 15:18 19.03.2020
776 Smoke 29 1010 42 5000 4.6 280 14:43 19.03.2020
777 Smoke 29 1010 42 5000 4.6 280 14:21 19.03.2020
778 Smoke 30 1009 42 5000 4.1 280 13:42 19.03.2020
779 Smoke 30 1009 42 5000 4.1 280 13:21 19.03.2020
780 Smoke 31 1009 43 5000 5.1 290 12:58 19.03.2020
781 Clouds 31 1009 43 6000 6.2 280 12:40 19.03.2020
782 Clouds 31 1010 43 6000 5.7 280 12:21 19.03.2020
783 Clouds 30 1010 48 6000 7.2 300 11:43 19.03.2020
784 Clouds 31 1010 40 6000 3.6 270 11:24 19.03.2020
785 Clouds 31 1010 40 6000 3.6 270 10:58 19.03.2020
786 Clouds 31 1011 33 6000 5.1 280 10:38 19.03.2020
787 Clouds 31 1011 33 6000 5.1 280 10:19 19.03.2020
788 Clouds 32 1011 45 6000 7.7 290 09:55 19.03.2020
789 Clouds 32 1012 36 6000 4.1 280 09:37 19.03.2020
790 Clouds 32 1012 36 6000 4.1 280 09:18 19.03.2020
791 Clouds 31 1013 33 6000 5.1 280 08:41 19.03.2020
792 Clouds 31 1013 33 6000 5.1 280 08:20 19.03.2020
793 Clouds 31 1013 38 6000 4.6 290 07:45 19.03.2020
794 Smoke 32 1014 22 5000 4.6 320 07:25 19.03.2020
795 Smoke 31 1015 25 3500 2.1 320 06:35 19.03.2020
796 Smoke 31 1014 37 3000 3.88 301 05:48 19.03.2020
797 Smoke 28 1014 45 2500 2.1 130 04:57 19.03.2020
798 Haze 28 1014 51 2500 2.1 120 04:39 19.03.2020
799 Haze 24 1012 69 3000 2.6 10 02:49 19.03.2020
800 Haze 26 1011 65 3000 2.1 350 01:21 19.03.2020
801 Haze 26 1011 65 3000 2.13 49 00:28 19.03.2020
802 Haze 27 1011 61 3000 2.1 330 23:51 18.03.2020
803 Haze 27 1011 61 3000 2.1 330 23:30 18.03.2020
804 Haze 27 1011 61 3000 2.1 330 23:30 18.03.2020
805 Haze 27 1011 61 3000 2.1 360 22:56 18.03.2020
806 Haze 27 1011 61 3000 1.5 20 22:38 18.03.2020
807 Haze 27 1011 61 3000 1.5 20 22:20 18.03.2020
808 Haze 27 1012 65 3000 1.5 330 21:42 18.03.2020
809 Haze 28 1012 65 3000 1.5 10 21:21 18.03.2020
810 Haze 28 1012 65 3000 1.54 356 20:59 18.03.2020
811 Haze 28 1012 65 3000 1.54 356 20:40 18.03.2020
812 Haze 28 1012 65 3000 1.54 356 20:40 18.03.2020
813 Haze 28 1013 65 3000 1.19 314 20:20 18.03.2020
814 Haze 28 1013 69 3000 1.19 314 19:56 18.03.2020
815 Haze 28 1012 69 3000 1.19 314 19:38 18.03.2020
816 Haze 28 1012 69 3000 1.19 314 19:20 18.03.2020
817 Haze 28 1013 61 3000 2.1 260 18:41 18.03.2020
818 Haze 28 1013 65 3000 1.5 270 18:21 18.03.2020
819 Haze 28 1013 65 3000 1.5 270 17:58 18.03.2020
820 Haze 28 1013 65 3000 1.5 270 17:40 18.03.2020
821 Haze 29 1013 62 3000 2.6 310 17:21 18.03.2020
822 Haze 29 1013 62 3000 2.6 310 16:58 18.03.2020
823 Smoke 29 1012 58 3000 2.6 300 16:39 18.03.2020
824 Smoke 29 1012 58 3000 2.6 300 16:20 18.03.2020
825 Smoke 29 1012 58 3000 3.6 310 15:45 18.03.2020
826 Smoke 30 1011 51 3000 4.1 280 15:20 18.03.2020
827 Smoke 30 1011 48 4000 4.1 300 14:56 18.03.2020
828 Smoke 30 1011 45 4000 4.1 300 14:38 18.03.2020
829 Smoke 30 1011 45 4000 4.1 300 14:19 18.03.2020
830 Smoke 31 1010 48 5000 4.6 310 13:38 18.03.2020
831 Smoke 31 1010 48 5000 4.6 310 13:19 18.03.2020
832 Smoke 31 1010 52 5000 4.6 280 12:42 18.03.2020
833 Smoke 32 1010 43 5000 4.6 290 12:20 18.03.2020
834 Smoke 32 1010 43 5000 4.6 290 11:41 18.03.2020
835 Smoke 32 1011 38 5000 4.1 270 11:21 18.03.2020
836 Smoke 33 1011 38 5000 4.1 270 10:58 18.03.2020
837 Smoke 33 1011 41 5000 5.7 270 10:39 18.03.2020
838 Smoke 33 1011 41 5000 5.7 270 10:20 18.03.2020
839 Smoke 32 1011 36 5000 5.7 270 09:59 18.03.2020
840 Smoke 33 1012 38 5000 5.1 270 09:39 18.03.2020
841 Smoke 33 1012 38 5000 5.1 270 09:21 18.03.2020
842 Smoke 31 1013 40 4000 4.1 270 08:40 18.03.2020
843 Smoke 31 1013 40 4000 4.1 270 08:21 18.03.2020
844 Smoke 33 1014 35 3500 4.1 290 07:49 18.03.2020
845 Smoke 33 1014 35 3500 4.1 290 07:31 18.03.2020
846 Smoke 33 1014 33 3000 3.1 230 06:54 18.03.2020
847 Smoke 33 1014 21 3000 3.6 270 06:35 18.03.2020
848 Smoke 32 1014 24 3000 2.53 300 05:37 18.03.2020
849 Smoke 29 1014 28 3000 1.5 0 04:29 18.03.2020
850 Smoke 25 1013 28 4000 2.1 240 03:21 18.03.2020
851 Smoke 29 1012 26 4000 2.1 60 02:35 18.03.2020
852 Smoke 28 1011 30 4000 2 41 01:32 18.03.2020
853 Smoke 28 1011 32 4500 1.91 52 00:42 18.03.2020
854 Smoke 28 1011 32 5000 1.91 52 00:21 18.03.2020
855 Smoke 27 1011 39 5000 2.27 35 23:41 17.03.2020
856 Clear 28 1011 37 6000 1.51 69 23:20 17.03.2020
857 Clear 28 1011 39 6000 1.31 81 22:42 17.03.2020
858 Clear 28 1011 39 6000 1.31 81 22:24 17.03.2020
859 Clear 28 1011 42 6000 1.51 69 21:43 17.03.2020
860 Clear 28 1012 45 6000 1.31 81 21:23 17.03.2020
861 Clear 29 1012 42 6000 1.31 81 20:57 17.03.2020
862 Clear 29 1012 39 6000 1.31 81 20:37 17.03.2020
863 Clear 29 1012 39 6000 0.32 109 20:19 17.03.2020
864 Clear 29 1013 39 6000 0.32 109 19:41 17.03.2020
865 Clear 29 1013 39 6000 0.32 109 19:18 17.03.2020
866 Clear 29 1013 39 6000 0.32 109 18:57 17.03.2020
867 Smoke 30 1013 35 5000 0.32 109 18:39 17.03.2020
868 Smoke 30 1013 33 4000 2.1 340 18:21 17.03.2020
869 Smoke 30 1013 33 4000 2.1 340 17:56 17.03.2020
870 Smoke 30 1013 40 4000 2.1 340 17:37 17.03.2020
871 Smoke 30 1013 40 4000 1.23 304 17:18 17.03.2020
872 Smoke 30 1012 42 4000 2.6 10 16:41 17.03.2020
873 Smoke 30 1012 42 4000 2.6 10 16:19 17.03.2020
874 Smoke 30 1012 40 4000 2.6 350 15:45 17.03.2020
875 Smoke 30 1012 42 4000 3.1 310 15:22 17.03.2020
876 Smoke 31 1011 40 4000 4.1 300 14:44 17.03.2020
877 Smoke 31 1011 43 4000 4.6 300 14:25 17.03.2020
878 Smoke 31 1010 40 4000 5.7 310 13:58 17.03.2020
879 Smoke 31 1010 40 4000 4.6 310 13:39 17.03.2020
880 Smoke 31 1010 40 4000 4.6 310 13:21 17.03.2020
881 Smoke 32 1010 36 4000 6.7 290 12:44 17.03.2020
882 Smoke 32 1010 36 4000 6.7 290 12:24 17.03.2020
883 Smoke 33 1010 58 5000 7.2 300 11:48 17.03.2020
884 Smoke 33 1010 58 5000 7.2 300 11:30 17.03.2020
885 Smoke 33 1010 41 4000 6.2 290 10:59 17.03.2020
886 Smoke 33 1010 41 4000 6.2 290 10:59 17.03.2020
887 Smoke 33 1011 38 4000 6.2 290 10:40 17.03.2020
888 Smoke 33 1011 38 4000 6.2 290 10:22 17.03.2020
889 Smoke 33 1011 38 4000 6.2 290 10:22 17.03.2020
890 Smoke 33 1011 38 4000 5.7 260 09:59 17.03.2020
891 Smoke 33 1011 36 4000 4.6 270 09:41 17.03.2020
892 Smoke 33 1011 36 4000 4.6 270 09:20 17.03.2020
893 Smoke 33 1012 32 4000 5.1 260 08:50 17.03.2020
894 Smoke 34 1012 34 4000 5.7 270 08:23 17.03.2020
895 Smoke 35 1012 18 4000 5.7 290 07:57 17.03.2020
896 Smoke 35 1013 19 3500 2.6 60 07:38 17.03.2020
897 Smoke 35 1013 24 3500 3.1 60 07:19 17.03.2020
898 Smoke 34 1013 26 3000 3.6 80 06:39 17.03.2020
899 Smoke 33 1013 29 2500 2.1 110 05:58 17.03.2020
900 Smoke 26 1013 42 2100 1.5 0 03:58 17.03.2020
901 Smoke 26 1012 44 2200 1.74 66 02:56 17.03.2020
902 Smoke 26 1011 47 3000 1.52 87 01:49 17.03.2020
903 Smoke 26 1011 47 3000 1.52 87 01:25 17.03.2020
904 Smoke 26 1011 44 3000 1.54 81 00:48 17.03.2020
905 Smoke 27 1010 47 3500 1.54 81 23:51 16.03.2020
906 Smoke 27 1010 47 3500 1.54 81 23:32 16.03.2020
907 Smoke 27 1010 42 3500 1.84 61 22:45 16.03.2020
908 Smoke 27 1011 42 3500 2.1 230 22:26 16.03.2020
909 Smoke 28 1011 34 3500 1.84 61 21:59 16.03.2020
910 Smoke 28 1011 34 3500 1.84 61 21:40 16.03.2020
911 Smoke 28 1011 34 3500 1.84 61 21:22 16.03.2020
912 Smoke 28 1012 37 3500 1.84 61 20:57 16.03.2020
913 Smoke 29 1012 35 3500 1.84 61 20:38 16.03.2020
914 Smoke 29 1012 35 3500 0.33 133 20:19 16.03.2020
915 Smoke 29 1012 35 3500 0.33 133 20:19 16.03.2020
916 Smoke 30 1012 30 3500 0.33 133 19:42 16.03.2020
917 Smoke 29 1012 37 4000 0.33 133 19:22 16.03.2020
918 Smoke 29 1013 35 4000 0.33 133 18:56 16.03.2020
919 Smoke 30 1012 30 4000 0.33 133 18:37 16.03.2020
920 Smoke 31 1013 27 4000 0.33 133 18:18 16.03.2020
921 Smoke 31 1013 25 4000 2.1 30 17:42 16.03.2020
922 Smoke 31 1013 25 4000 2.1 30 17:22 16.03.2020
923 Smoke 30 1012 30 4000 2.1 20 16:46 16.03.2020
924 Smoke 31 1012 29 4000 2.1 360 16:28 16.03.2020
925 Smoke 31 1011 29 5000 2.1 320 15:56 16.03.2020
926 Smoke 31 1011 31 5000 2.1 320 15:37 16.03.2020
927 Smoke 31 1011 31 5000 2.1 320 15:18 16.03.2020
928 Smoke 31 1011 31 5000 2.6 320 14:42 16.03.2020
929 Smoke 31 1010 31 5000 3.6 290 14:19 16.03.2020
930 Smoke 32 1010 31 5000 5.1 300 13:42 16.03.2020
931 Smoke 32 1010 29 5000 5.1 300 13:23 16.03.2020
932 Smoke 33 1009 34 4000 4.6 310 12:46 16.03.2020
933 Smoke 33 1009 34 4000 4.6 310 12:27 16.03.2020
934 Smoke 33 1009 30 4000 4.1 310 11:59 16.03.2020
935 Smoke 34 1010 28 4000 4.1 300 11:41 16.03.2020
936 Smoke 33 1010 28 4000 4.6 300 11:18 16.03.2020
937 Smoke 34 1010 30 4000 5.1 290 10:42 16.03.2020
938 Smoke 34 1010 30 4000 5.1 290 10:24 16.03.2020
939 Smoke 34 1010 30 3500 4.6 260 09:45 16.03.2020
940 Smoke 35 1011 32 3500 5.1 280 09:27 16.03.2020
941 Smoke 34 1011 30 3500 5.1 290 08:56 16.03.2020
942 Smoke 35 1011 20 3500 3.6 290 08:25 16.03.2020
943 Smoke 35 1012 22 3500 2.1 120 07:50 16.03.2020
944 Smoke 35 1013 24 3500 2.1 110 07:28 16.03.2020
945 Smoke 35 1013 23 3000 3.6 100 06:54 16.03.2020
946 Smoke 34 1013 24 3000 3.6 120 06:26 16.03.2020
947 Smoke 32 1012 27 2500 2.6 100 05:50 16.03.2020
948 Smoke 27 1011 39 2300 2.16 63 02:45 16.03.2020
949 Smoke 25 1009 44 2500 2.1 100 01:20 16.03.2020
950 Smoke 25 1009 44 2500 2.1 100 00:40 16.03.2020
951 Smoke 26 1009 44 2500 2.1 110 23:49 15.03.2020
952 Smoke 26 1009 47 2500 2.18 75 23:20 15.03.2020
953 Smoke 26 1009 47 2500 1.5 0 22:43 15.03.2020
954 Smoke 27 1010 44 2500 1.5 130 22:24 15.03.2020
955 Smoke 27 1010 42 2500 2.6 150 21:59 15.03.2020
956 Smoke 27 1010 42 2500 2.6 150 21:39 15.03.2020
957 Smoke 27 1010 47 2500 1.72 94 21:19 15.03.2020
958 Smoke 27 1010 47 2500 1.72 94 20:43 15.03.2020
959 Smoke 28 1011 45 3000 1.06 81 20:22 15.03.2020
960 Smoke 29 1011 35 3000 1.5 90 19:58 15.03.2020
961 Smoke 29 1011 35 3000 1.5 90 19:40 15.03.2020
962 Smoke 30 1011 33 3000 2.1 90 19:21 15.03.2020
963 Smoke 29 1011 37 3000 1.5 90 18:56 15.03.2020
964 Smoke 29 1011 39 3000 1.5 90 18:38 15.03.2020
965 Smoke 29 1011 39 3000 1.5 90 18:20 15.03.2020
966 Smoke 30 1011 35 3000 1.5 340 17:41 15.03.2020
967 Smoke 30 1011 35 3000 1.5 340 17:22 15.03.2020
968 Smoke 30 1011 33 3500 1.5 330 16:59 15.03.2020
969 Smoke 31 1010 31 4000 3.6 350 16:40 15.03.2020
970 Smoke 31 1010 31 4000 3.6 350 16:21 15.03.2020
971 Smoke 31 1010 31 4000 4.1 330 15:54 15.03.2020
972 Smoke 31 1010 31 4000 3.1 320 15:36 15.03.2020
973 Smoke 31 1010 31 4000 3.1 320 15:18 15.03.2020
974 Smoke 31 1009 31 4000 4.6 340 14:39 15.03.2020
975 Smoke 31 1009 29 5000 3.1 320 14:21 15.03.2020
976 Smoke 32 1009 27 5000 5.1 330 13:56 15.03.2020
977 Smoke 32 1009 27 5000 5.1 300 13:37 15.03.2020
978 Smoke 32 1009 27 5000 5.1 300 13:18 15.03.2020
979 Smoke 32 1008 31 5000 4.6 300 12:40 15.03.2020
980 Smoke 32 1008 31 5000 4.6 300 12:22 15.03.2020
981 Smoke 32 1008 29 5000 6.2 260 11:45 15.03.2020
982 Smoke 32 1008 29 5000 6.2 260 11:26 15.03.2020
983 Smoke 33 1009 29 5000 5.7 260 10:59 15.03.2020
984 Smoke 33 1009 26 5000 6.7 260 10:40 15.03.2020
985 Smoke 33 1009 26 5000 6.7 260 10:22 15.03.2020
986 Smoke 34 1009 26 4000 7.2 250 09:59 15.03.2020
987 Smoke 34 1010 15 4000 1.5 0 09:38 15.03.2020
988 Smoke 34 1010 15 4000 1.5 0 09:20 15.03.2020
989 Smoke 34 1010 17 4000 2.1 30 08:41 15.03.2020
990 Smoke 34 1011 18 4000 2.6 50 08:19 15.03.2020
991 Smoke 34 1012 19 3500 3.6 10 07:49 15.03.2020
992 Smoke 33 1012 21 3500 4.1 30 07:22 15.03.2020
993 Smoke 32 1013 21 3500 2.1 0 06:44 15.03.2020
994 Smoke 31 1013 22 3500 2.6 70 05:49 15.03.2020
995 Smoke 28 1012 26 3000 2.6 40 04:57 15.03.2020
996 Smoke 25 1011 31 2500 1.5 180 04:39 15.03.2020
997 Smoke 25 1011 31 2500 1.5 180 04:20 15.03.2020
998 Smoke 22 1011 33 2500 2.36 63 03:19 15.03.2020
999 Smoke 25 1010 36 3500 1.5 200 02:28 15.03.2020
1000 Smoke 24 1009 50 3500 2.59 55 00:59 15.03.2020
1001 Smoke 24 1009 53 3500 2.1 150 00:41 15.03.2020
1002 Smoke 24 1009 53 3500 2.1 150 00:19 15.03.2020
1003 Smoke 24 1009 53 3500 2.59 55 23:40 14.03.2020
1004 Smoke 24 1009 53 3500 2.26 67 23:20 14.03.2020
1005 Smoke 24 1009 57 3500 2.1 110 22:56 14.03.2020
1006 Smoke 25 1009 53 3500 1.5 0 22:38 14.03.2020
1007 Smoke 25 1009 53 3500 1.5 0 22:19 14.03.2020
1008 Smoke 24 1010 53 3500 2.26 67 21:55 14.03.2020
1009 Smoke 25 1010 53 3500 2.26 67 21:36 14.03.2020
1010 Smoke 25 1010 53 3500 2.26 67 21:36 14.03.2020
1011 Smoke 25 1010 53 3500 2.26 67 21:18 14.03.2020
1012 Smoke 25 1010 53 3500 2.26 67 21:18 14.03.2020
1013 Smoke 25 1011 53 3500 2.26 67 20:56 14.03.2020
1014 Smoke 25 1011 53 3500 2.26 67 20:56 14.03.2020
1015 Smoke 25 1011 53 3500 1.5 300 20:38 14.03.2020
1016 Smoke 25 1011 53 3500 1.87 64 20:18 14.03.2020
1017 Smoke 25 1011 53 3500 1.87 64 19:41 14.03.2020
1018 Smoke 25 1011 53 3500 2.1 240 19:21 14.03.2020
1019 Smoke 26 1011 50 3500 1.87 64 18:41 14.03.2020
1020 Smoke 26 1011 50 4000 1.5 360 18:21 14.03.2020
1021 Smoke 27 1011 47 4000 2.6 360 17:43 14.03.2020
1022 Smoke 27 1011 47 4000 1.5 320 17:24 14.03.2020
1023 Smoke 27 1011 47 4000 1.5 320 16:59 14.03.2020
1024 Smoke 27 1010 51 4000 3.1 340 16:40 14.03.2020
1025 Smoke 27 1010 51 4000 3.1 340 16:21 14.03.2020
1026 Smoke 27 1010 51 4000 3.6 340 15:51 14.03.2020
1027 Smoke 28 1010 48 4000 4.1 330 15:25 14.03.2020
1028 Smoke 28 1009 48 5000 3.1 310 14:45 14.03.2020
1029 Clouds 28 1009 42 6000 3.6 330 14:23 14.03.2020
1030 Clear 30 1009 37 6000 4.1 320 13:57 14.03.2020
1031 Clear 30 1009 35 6000 4.6 320 13:39 14.03.2020
1032 Clear 30 1009 35 6000 5.1 330 13:20 14.03.2020
1033 Clear 30 1009 37 6000 6.2 330 12:45 14.03.2020
1034 Clear 30 1009 37 6000 6.2 330 12:26 14.03.2020
1035 Clear 30 1009 33 6000 6.2 320 11:48 14.03.2020
1036 Clear 30 1009 33 6000 6.2 320 11:28 14.03.2020
1037 Clear 31 1010 33 6000 6.2 310 10:59 14.03.2020
1038 Clouds 32 1010 33 6000 6.2 310 10:41 14.03.2020
1039 Clouds 32 1010 33 6000 6.2 310 10:23 14.03.2020
1040 Clouds 32 1010 14 6000 6.7 290 09:44 14.03.2020
1041 Smoke 32 1011 14 5000 3.6 50 09:24 14.03.2020
1042 Smoke 32 1011 14 5000 3.6 50 09:24 14.03.2020
1043 Smoke 32 1012 15 5000 4.6 30 08:48 14.03.2020
1044 Smoke 32 1012 16 5000 2.6 30 08:29 14.03.2020
1045 Smoke 32 1013 18 5000 4.1 30 07:55 14.03.2020
1046 Smoke 31 1014 22 5000 4.6 50 07:37 14.03.2020
1047 Smoke 31 1014 22 5000 4.6 50 07:19 14.03.2020
1048 Smoke 29 1014 26 5000 4.1 40 06:40 14.03.2020
1049 Smoke 26 1014 31 3000 4.6 50 05:24 14.03.2020
1050 Smoke 23 1014 38 2500 3.1 20 03:49 14.03.2020
1051 Smoke 21 1013 43 2500 2.6 30 03:24 14.03.2020
1052 Smoke 22 1013 49 3000 2.6 40 02:23 14.03.2020
1053 Smoke 22 1013 60 4000 3.1 360 00:49 14.03.2020
1054 Smoke 23 1013 53 4000 3.1 10 23:50 13.03.2020
1055 Smoke 23 1013 53 4000 2.6 10 23:30 13.03.2020
1056 Smoke 23 1013 53 4000 3.1 340 22:52 13.03.2020
1057 Smoke 23 1013 53 4000 3.6 340 22:26 13.03.2020
1058 Smoke 24 1014 50 4000 3.6 340 21:44 13.03.2020
1059 Smoke 24 1014 47 4000 2.6 10 21:22 13.03.2020
1060 Smoke 24 1014 47 4000 2.6 10 20:59 13.03.2020
1061 Smoke 24 1014 47 4000 2.6 360 20:41 13.03.2020
1062 Smoke 24 1014 47 4000 2.6 360 20:21 13.03.2020
1063 Smoke 25 1015 44 4000 3.1 20 19:48 13.03.2020
1064 Smoke 25 1015 41 4000 3.1 10 19:30 13.03.2020
1065 Smoke 25 1015 41 4000 3.1 60 18:49 13.03.2020
1066 Smoke 26 1015 36 4000 2.6 20 18:31 13.03.2020
1067 Smoke 26 1015 34 4000 4.6 360 17:57 13.03.2020
1068 Smoke 26 1014 31 4000 4.6 350 17:39 13.03.2020
1069 Smoke 26 1014 34 4000 5.1 330 17:20 13.03.2020
1070 Smoke 26 1014 39 4000 5.1 320 16:42 13.03.2020
1071 Smoke 26 1014 39 4000 5.1 320 16:24 13.03.2020
1072 Smoke 26 1013 36 4000 6.7 330 15:58 13.03.2020
1073 Smoke 26 1013 39 4000 4.6 320 15:38 13.03.2020
1074 Smoke 26 1013 39 4000 4.6 320 15:20 13.03.2020
1075 Smoke 26 1013 39 5000 4.6 320 14:43 13.03.2020
1076 Clouds 27 1013 36 6000 5.1 310 14:22 13.03.2020
1077 Clouds 27 1012 36 6000 6.2 310 13:57 13.03.2020
1078 Clouds 27 1012 39 6000 5.1 310 13:39 13.03.2020
1079 Clouds 27 1012 39 6000 5.1 310 13:19 13.03.2020
1080 Clouds 28 1012 39 6000 6.7 310 12:55 13.03.2020
1081 Clouds 28 1012 39 6000 6.7 320 12:36 13.03.2020
1082 Clouds 28 1012 42 6000 5.1 310 12:18 13.03.2020
1083 Clouds 28 1012 42 6000 5.1 310 11:42 13.03.2020
1084 Smoke 28 1012 45 5000 3.6 300 11:24 13.03.2020
1085 Smoke 28 1012 45 5000 3.6 300 10:57 13.03.2020
1086 Smoke 29 1013 39 5000 7.2 290 10:38 13.03.2020
1087 Smoke 29 1013 39 5000 7.2 290 10:20 13.03.2020
1088 Smoke 29 1013 39 5000 6.2 310 09:43 13.03.2020
1089 Smoke 29 1014 37 5000 4.6 320 09:24 13.03.2020
1090 Smoke 28 1014 39 5000 5.1 300 08:47 13.03.2020
1091 Smoke 28 1015 37 5000 2.1 320 08:23 13.03.2020
1092 Smoke 29 1015 37 5000 2.6 90 07:58 13.03.2020
1093 Smoke 28 1016 39 5000 3.91 352 07:38 13.03.2020
1094 Smoke 28 1016 39 5000 3.91 352 07:18 13.03.2020
1095 Smoke 28 1016 39 4000 4.6 330 06:43 13.03.2020
1096 Smoke 27 1016 39 4000 4.6 330 05:56 13.03.2020
1097 Smoke 27 1016 47 4000 3.6 10 05:37 13.03.2020
1098 Haze 24 1016 60 3000 3.1 30 04:38 13.03.2020
1099 Haze 23 1015 60 3000 3.1 30 03:46 13.03.2020
1100 Haze 21 1014 68 2500 2.6 90 01:48 13.03.2020
1101 Haze 22 1014 64 2500 2.6 100 01:19 13.03.2020
1102 Haze 22 1014 64 3000 2.84 48 00:56 13.03.2020
1103 Haze 22 1014 64 3000 2.84 48 00:37 13.03.2020
1104 Haze 22 1014 68 3500 1.5 70 00:18 13.03.2020
1105 Haze 23 1014 64 4000 2.6 50 23:29 12.03.2020
1106 Smoke 23 1014 60 4000 2.1 40 22:59 12.03.2020
1107 Smoke 23 1014 64 4000 1.5 70 22:41 12.03.2020
1108 Smoke 23 1014 64 4000 1.5 70 22:23 12.03.2020
1109 Smoke 23 1014 60 4000 2.1 360 21:54 12.03.2020
1110 Smoke 24 1014 57 4000 2.1 330 21:36 12.03.2020
1111 Smoke 24 1014 57 4000 2.1 330 21:18 12.03.2020
1112 Smoke 24 1015 57 4000 3.1 320 20:42 12.03.2020
1113 Smoke 24 1015 57 4000 3.1 320 20:42 12.03.2020
1114 Smoke 24 1015 57 4000 3.1 320 20:19 12.03.2020
1115 Smoke 24 1015 57 4000 3.6 300 19:42 12.03.2020
1116 Smoke 24 1015 57 4000 3.6 300 19:21 12.03.2020
1117 Smoke 25 1015 53 4000 2.6 310 18:45 12.03.2020
1118 Smoke 25 1015 53 4000 2.6 310 18:25 12.03.2020
1119 Smoke 25 1015 53 4000 2.6 310 17:58 12.03.2020
1120 Smoke 25 1014 57 4000 3.1 310 17:40 12.03.2020
1121 Smoke 25 1014 57 4000 3.1 310 17:21 12.03.2020
1122 Smoke 25 1014 57 4000 2.1 320 16:58 12.03.2020
1123 Smoke 26 1014 54 4000 3.6 310 16:39 12.03.2020
1124 Smoke 26 1014 54 4000 3.6 310 16:20 12.03.2020
1125 Smoke 25 1013 57 4000 2.6 330 15:47 12.03.2020
1126 Smoke 25 1013 57 4000 2.6 330 15:27 12.03.2020
1127 Clear 25 1013 57 5000 5.1 310 14:44 12.03.2020
1128 Clear 26 1013 54 6000 3.6 320 14:25 12.03.2020
1129 Clear 27 1013 51 8000 4.6 300 13:58 12.03.2020
1130 Clear 27 1013 47 9000 4.6 300 13:37 12.03.2020
1131 Clear 27 1013 47 9000 4.6 300 13:19 12.03.2020
1132 Clear 27 1013 47 10000 4.6 300 12:43 12.03.2020
1133 Clear 27 1013 47 10000 4.6 300 12:22 12.03.2020
1134 Clouds 28 1013 48 10000 6.2 290 11:59 12.03.2020
1135 Clouds 28 1013 45 9000 5.7 290 11:39 12.03.2020
1136 Clouds 28 1013 45 9000 5.7 290 11:39 12.03.2020
1137 Clouds 28 1013 45 9000 5.1 330 11:20 12.03.2020
1138 Clouds 28 1013 45 9000 5.1 330 10:59 12.03.2020
1139 Clouds 28 1014 48 8000 5.1 320 10:41 12.03.2020
1140 Clouds 28 1014 48 8000 5.1 320 10:22 12.03.2020
1141 Clouds 28 1014 48 8000 5.1 320 10:22 12.03.2020
1142 Clouds 28 1014 45 6000 7.2 320 09:49 12.03.2020
1143 Clouds 28 1014 48 6000 6.2 300 09:28 12.03.2020
1144 Clouds 28 1015 48 6000 5.1 300 08:55 12.03.2020
1145 Smoke 28 1015 51 5000 5.7 320 08:37 12.03.2020
1146 Smoke 28 1015 51 5000 5.7 320 08:18 12.03.2020
1147 Smoke 28 1016 48 4500 4.6 330 07:46 12.03.2020
1148 Smoke 28 1016 54 4000 4.1 310 07:21 12.03.2020
1149 Smoke 27 1016 54 3000 3.6 340 05:59 12.03.2020
1150 Haze 26 1015 57 2500 2.6 60 05:27 12.03.2020
1151 Haze 23 1013 69 2500 2.1 80 02:47 12.03.2020
1152 Haze 24 1012 69 3000 1.5 50 01:43 12.03.2020
1153 Haze 24 1012 69 3000 1.5 10 01:21 12.03.2020
1154 Haze 24 1012 69 3000 2.61 24 00:41 12.03.2020
1155 Haze 24 1012 69 3000 2.61 24 23:57 11.03.2020
1156 Haze 25 1012 61 4000 2.1 10 23:28 11.03.2020
1157 Haze 25 1012 61 4000 2.1 10 22:58 11.03.2020
1158 Haze 25 1012 61 4000 2.1 360 22:39 11.03.2020
1159 Haze 25 1012 61 4000 2.1 360 22:21 11.03.2020
1160 Haze 25 1013 61 4000 1.5 310 21:56 11.03.2020
1161 Haze 25 1013 65 4000 2.1 310 21:37 11.03.2020
1162 Haze 25 1013 65 4000 1.5 310 21:19 11.03.2020
1163 Haze 25 1013 65 4000 1.5 310 20:55 11.03.2020
1164 Haze 25 1013 65 4000 1.5 310 20:55 11.03.2020
1165 Haze 25 1013 65 4000 1.5 300 20:36 11.03.2020
1166 Haze 25 1013 65 4000 1.5 300 20:18 11.03.2020
1167 Haze 26 1013 61 4000 1.5 310 19:42 11.03.2020
1168 Haze 26 1013 61 4000 2.1 310 19:23 11.03.2020
1169 Haze 26 1013 61 4000 2.1 310 18:56 11.03.2020
1170 Haze 26 1013 61 4000 3.1 310 18:36 11.03.2020
1171 Haze 26 1013 61 4000 2.6 300 18:18 11.03.2020
1172 Haze 25 1013 65 4000 2.1 280 17:40 11.03.2020
1173 Haze 25 1013 65 4000 2.6 290 17:21 11.03.2020
1174 Haze 25 1013 65 4000 2.6 290 16:56 11.03.2020
1175 Smoke 26 1012 57 4000 3.1 280 16:38 11.03.2020
1176 Smoke 26 1012 57 4000 3.1 280 16:19 11.03.2020
1177 Smoke 26 1012 57 4000 2.6 320 15:42 11.03.2020
1178 Smoke 26 1011 57 5000 3.1 320 15:23 11.03.2020
1179 Smoke 26 1011 57 5000 5.1 290 14:46 11.03.2020
1180 Clouds 27 1011 57 6000 5.1 290 14:24 11.03.2020
1181 Clouds 27 1011 51 7000 5.7 290 13:59 11.03.2020
1182 Clouds 27 1011 51 7000 5.7 290 13:40 11.03.2020
1183 Clouds 28 1011 48 8000 5.1 290 13:22 11.03.2020
1184 Clouds 28 1011 48 9000 6.2 280 12:55 11.03.2020
1185 Clear 28 1011 48 10000 3.6 320 12:37 11.03.2020
1186 Clear 28 1011 48 10000 3.6 320 12:18 11.03.2020
1187 Clear 28 1011 45 9000 5.1 290 11:40 11.03.2020
1188 Clear 28 1011 45 9000 5.1 290 11:20 11.03.2020
1189 Clear 29 1011 45 9000 5.1 310 10:47 11.03.2020
1190 Clouds 29 1012 45 9000 7.2 280 10:20 11.03.2020
1191 Clouds 28 1012 48 9000 4.1 260 09:55 11.03.2020
1192 Clouds 28 1012 48 10000 5.1 290 09:36 11.03.2020
1193 Clouds 28 1012 48 10000 5.1 290 09:18 11.03.2020
1194 Clouds 28 1012 51 10000 5.7 280 08:42 11.03.2020
1195 Clouds 28 1012 51 10000 5.7 280 08:42 11.03.2020
1196 Clouds 28 1013 48 9000 3.6 260 08:23 11.03.2020
1197 Clouds 28 1014 48 9000 3.6 280 07:47 11.03.2020
1198 Clouds 28 1014 48 8000 4.6 290 07:20 11.03.2020
1199 Clouds 27 1014 51 8000 4.6 280 06:49 11.03.2020
1200 Clouds 27 1014 54 7000 5.1 270 06:20 11.03.2020
1201 Smoke 27 1014 57 5000 2.6 300 05:23 11.03.2020
1202 Haze 25 1011 61 3000 2.1 40 02:36 11.03.2020
1203 Haze 25 1011 65 3000 2.1 340 01:51 11.03.2020
1204 Haze 25 1011 65 3000 2.1 350 00:53 11.03.2020
1205 Haze 25 1011 65 3000 2.1 320 00:31 11.03.2020
1206 Haze 25 1011 61 4000 3.6 280 23:47 10.03.2020
1207 Haze 25 1011 61 4000 3.6 280 23:22 10.03.2020
1208 Smoke 25 1011 61 4000 2.1 270 22:55 10.03.2020
1209 Smoke 25 1011 61 4000 3.6 230 22:36 10.03.2020
1210 Smoke 25 1011 61 4000 3.6 230 22:18 10.03.2020
1211 Smoke 25 1011 61 4000 3.1 250 21:55 10.03.2020
1212 Haze 25 1011 65 4000 2.1 220 21:37 10.03.2020
1213 Haze 25 1011 65 4000 2.1 220 21:18 10.03.2020
1214 Haze 26 1012 61 4000 2.6 240 20:42 10.03.2020
1215 Haze 26 1012 61 4000 2.6 240 20:19 10.03.2020
1216 Haze 26 1012 61 4000 3.6 280 19:58 10.03.2020
1217 Haze 26 1012 61 4000 3.6 290 19:40 10.03.2020
1218 Haze 26 1012 61 4000 3.6 290 19:21 10.03.2020
1219 Haze 26 1012 65 4000 4.1 270 18:55 10.03.2020
1220 Haze 26 1012 65 4000 3.6 290 18:36 10.03.2020
1221 Haze 26 1012 65 4000 3.6 290 18:18 10.03.2020
1222 Haze 26 1012 65 4000 4.6 350 17:41 10.03.2020
1223 Haze 26 1012 65 4000 4.6 350 17:22 10.03.2020
1224 Haze 26 1011 65 4000 4.1 240 16:54 10.03.2020
1225 Haze 26 1011 65 4000 3.1 230 16:36 10.03.2020
1226 Haze 26 1011 65 4000 3.1 230 16:18 10.03.2020
1227 Haze 26 1010 65 4000 3.1 260 15:41 10.03.2020
1228 Haze 26 1010 65 4000 3.1 260 15:20 10.03.2020
1229 Smoke 27 1010 61 4500 3.6 250 14:58 10.03.2020
1230 Smoke 27 1010 61 5000 3.1 270 14:40 10.03.2020
1231 Smoke 27 1010 61 5000 3.1 270 14:19 10.03.2020
1232 Smoke 28 1010 58 5000 3.6 270 13:43 10.03.2020
1233 Clouds 28 1010 58 6000 2.6 260 13:25 10.03.2020
1234 Clouds 28 1010 58 6000 3.1 280 12:55 10.03.2020
1235 Clouds 28 1010 58 6000 3.6 230 12:36 10.03.2020
1236 Clouds 28 1010 58 6000 3.6 230 12:18 10.03.2020
1237 Clouds 28 1010 54 6000 3.6 270 12:18 10.03.2020
1238 Clouds 28 1010 54 6000 3.6 300 11:42 10.03.2020
1239 Clouds 28 1011 58 6000 5.1 240 11:24 10.03.2020
1240 Clouds 28 1011 58 6000 5.1 240 10:56 10.03.2020
1241 Clouds 29 1011 58 6000 3.6 240 10:38 10.03.2020
1242 Clouds 29 1011 58 6000 3.6 240 10:19 10.03.2020
1243 Clouds 29 1011 54 6000 4.1 270 09:45 10.03.2020
1244 Smoke 29 1012 58 5000 5.7 240 09:20 10.03.2020
1245 Smoke 29 1012 54 5000 4.1 300 08:56 10.03.2020
1246 Smoke 29 1013 58 5000 4.6 270 08:36 10.03.2020
1247 Smoke 29 1013 58 5000 4.6 270 08:18 10.03.2020
1248 Smoke 29 1013 58 4000 5.1 280 07:40 10.03.2020
1249 Smoke 29 1013 58 4000 5.1 280 07:21 10.03.2020
1250 Haze 28 1013 61 3000 4.6 300 06:38 10.03.2020
1251 Haze 27 1013 69 2500 3.56 274 05:42 10.03.2020
1252 Haze 26 1012 74 2500 2.6 10 05:19 10.03.2020
1253 Haze 26 1012 78 2400 1.66 71 04:30 10.03.2020
1254 Haze 25 1011 78 2200 1.66 71 02:58 10.03.2020
1255 Haze 25 1010 78 2200 2.6 350 01:33 10.03.2020
1256 Haze 25 1010 78 2200 2.1 340 00:51 10.03.2020
1257 Haze 25 1010 78 2500 1.5 30 00:28 10.03.2020
1258 Haze 25 1010 78 3000 1.11 43 23:43 09.03.2020
1259 Haze 25 1010 78 3000 1.11 43 23:22 09.03.2020
1260 Haze 25 1010 78 3000 0.84 56 22:57 09.03.2020
1261 Haze 25 1010 78 3000 0.84 56 22:38 09.03.2020
1262 Haze 25 1010 78 3000 0.84 56 22:19 09.03.2020
1263 Haze 25 1011 78 3000 1.5 310 21:44 09.03.2020
1264 Haze 25 1011 78 3000 1.5 300 21:22 09.03.2020
1265 Haze 25 1011 73 3000 0.84 56 20:58 09.03.2020
1266 Haze 25 1012 73 3000 2.1 190 20:40 09.03.2020
1267 Haze 25 1012 73 3000 2.1 190 20:40 09.03.2020
1268 Haze 25 1012 73 3000 2.1 190 20:21 09.03.2020
1269 Haze 25 1012 73 3000 1.5 220 19:56 09.03.2020
1270 Haze 26 1012 69 4000 1.32 310 19:38 09.03.2020
1271 Haze 26 1012 69 4000 1.32 310 19:18 09.03.2020
1272 Haze 26 1012 69 4000 1.5 50 18:55 09.03.2020
1273 Haze 26 1012 69 4000 2.1 250 18:37 09.03.2020
1274 Haze 26 1012 69 4000 1.32 310 18:18 09.03.2020
1275 Haze 26 1012 69 4000 1.32 310 17:55 09.03.2020
1276 Smoke 26 1012 69 4000 2.6 330 17:55 09.03.2020
1277 Smoke 26 1012 69 4000 2.6 330 17:36 09.03.2020
1278 -273 0 0 0 0 0 17:18 09.03.2020
1279 Smoke 26 1011 69 4000 3.6 290 16:42 09.03.2020
1280 Smoke 26 1011 69 4000 3.6 290 16:22 09.03.2020
1281 Smoke 26 1011 69 4000 3.6 290 15:59 09.03.2020
1282 Smoke 26 1010 69 4000 4.1 290 15:40 09.03.2020
1283 Smoke 26 1010 69 4000 4.1 290 15:21 09.03.2020
1284 Smoke 26 1010 69 4000 4.1 290 15:21 09.03.2020
1285 Smoke 26 1010 69 5000 3.6 300 14:59 09.03.2020
1286 Smoke 27 1010 65 5000 4.1 300 14:38 09.03.2020
1287 Smoke 27 1010 65 5000 4.1 300 14:20 09.03.2020
1288 Smoke 27 1010 61 5000 3.1 320 13:58 09.03.2020
1289 Smoke 27 1009 61 5000 4.1 310 13:39 09.03.2020
1290 Smoke 27 1009 61 5000 4.1 310 13:39 09.03.2020
1291 Smoke 27 1009 61 5000 4.1 310 13:20 09.03.2020
1292 Clouds 28 1009 58 6000 6.2 290 12:44 09.03.2020
1293 Clouds 28 1009 58 6000 5.7 300 12:24 09.03.2020
1294 Smoke 28 1010 58 5000 6.7 290 11:58 09.03.2020
1295 Smoke 28 1010 58 5000 6.7 290 11:40 09.03.2020
1296 Smoke 28 1010 58 5000 6.7 290 11:20 09.03.2020
1297 Smoke 29 1010 54 5000 6.2 290 10:55 09.03.2020
1298 Smoke 29 1010 51 5000 5.7 300 10:37 09.03.2020
1299 Smoke 29 1010 51 5000 5.7 300 10:18 09.03.2020
1300 Smoke 29 1011 51 4000 5.7 280 09:42 09.03.2020
1301 Smoke 29 1011 51 4000 5.7 280 09:23 09.03.2020
1302 Smoke 29 1012 54 4000 6.7 280 08:45 09.03.2020
1303 Smoke 28 1012 58 4000 5.7 270 08:27 09.03.2020
1304 Smoke 28 1013 58 4000 5.7 260 07:44 09.03.2020
1305 Smoke 28 1013 58 4000 3.6 300 07:22 09.03.2020
1306 Smoke 27 1014 61 4000 3.6 280 06:59 09.03.2020
1307 Smoke 27 1014 57 3000 3.6 290 06:39 09.03.2020
1308 Smoke 27 1014 57 3000 3.6 290 06:20 09.03.2020
1309 Haze 27 1014 57 3000 4.1 270 05:41 09.03.2020
1310 Haze 25 1013 69 2500 2.1 350 04:56 09.03.2020
1311 Haze 25 1012 73 2500 1.44 66 04:37 09.03.2020
1312 Haze 25 1012 73 2500 1.44 66 04:18 09.03.2020
1313 Smoke 22 1011 78 3000 1.44 66 02:50 09.03.2020
1314 Smoke 23 1010 73 3000 2.1 20 00:42 09.03.2020
1315 Smoke 24 1011 69 3000 2.1 360 00:24 09.03.2020
1316 Smoke 24 1011 69 3000 1.8 76 23:55 08.03.2020
1317 Haze 24 1011 69 3000 1.5 330 23:29 08.03.2020
1318 Haze 24 1011 69 3000 0.88 22 22:59 08.03.2020
1319 Haze 24 1011 69 3000 0.88 22 22:40 08.03.2020
1320 Haze 24 1011 69 3000 0.88 22 22:22 08.03.2020
1321 Haze 24 1011 69 3000 0.88 22 21:57 08.03.2020
1322 Haze 24 1011 69 3000 0.88 22 21:57 08.03.2020
1323 Haze 25 1012 65 3000 0.88 22 21:39 08.03.2020
1324 Haze 25 1012 65 3000 0.88 22 21:20 08.03.2020
1325 Haze 25 1012 65 3000 1.5 90 20:56 08.03.2020
1326 Haze 25 1012 65 3000 1.5 80 20:37 08.03.2020
1327 Haze 25 1013 65 3000 1.5 50 20:19 08.03.2020
1328 Haze 25 1013 65 3000 1.5 50 19:38 08.03.2020
1329 Haze 25 1013 65 4000 1.5 80 19:19 08.03.2020
1330 Haze 25 1013 65 4000 0.38 355 18:43 08.03.2020
1331 Clear 22 1013 66 0 0.38 355 18:24 08.03.2020
1332 Clear 22 1013 66 0 0.38 355 18:24 08.03.2020
1333 Smoke 25 1012 65 4000 2.6 310 17:58 08.03.2020
1334 Smoke 25 1012 65 4000 2.6 310 17:39 08.03.2020
1335 Smoke 25 1012 65 4000 2.6 310 17:20 08.03.2020
1336 Smoke 25 1012 65 4000 2.6 310 16:55 08.03.2020
1337 Smoke 26 1012 61 4000 3.1 300 16:36 08.03.2020
1338 Smoke 26 1012 61 4000 3.1 300 16:18 08.03.2020
1339 Smoke 26 1012 57 4000 3.6 300 15:41 08.03.2020
1340 Smoke 26 1012 57 4000 3.6 300 15:21 08.03.2020
1341 Smoke 26 1011 57 5000 5.7 280 14:56 08.03.2020
1342 Smoke 26 1011 57 5000 5.7 280 14:37 08.03.2020
1343 Smoke 26 1011 57 5000 5.7 280 14:19 08.03.2020
1344 Smoke 27 1011 54 5000 4.6 270 13:41 08.03.2020
1345 Smoke 28 1011 51 5000 4.6 290 13:20 08.03.2020
1346 Smoke 28 1010 51 5000 5.1 300 12:46 08.03.2020
1347 Smoke 28 1010 54 5000 5.1 290 12:28 08.03.2020
1348 Smoke 28 1010 54 5000 4.6 290 11:58 08.03.2020
1349 Smoke 28 1010 54 5000 4.6 290 11:58 08.03.2020
1350 Smoke 28 1011 57 5000 6.7 270 11:40 08.03.2020
1351 Smoke 28 1011 57 5000 6.7 270 11:21 08.03.2020
1352 Smoke 28 1011 57 5000 6.7 270 10:42 08.03.2020
1353 Smoke 28 1011 54 5000 6.2 270 10:24 08.03.2020
1354 Smoke 28 1012 51 5000 6.2 260 09:59 08.03.2020
1355 Smoke 28 1012 51 5000 6.2 260 09:37 08.03.2020
1356 Smoke 28 1012 51 5000 6.2 260 09:19 08.03.2020
1357 Smoke 28 1013 48 4000 4.6 270 08:42 08.03.2020
1358 Smoke 28 1013 48 4000 5.7 270 08:20 08.03.2020
1359 Smoke 28 1013 48 4000 5.7 270 07:45 08.03.2020
1360 Smoke 28 1014 42 4000 3.6 310 07:25 08.03.2020
1361 Smoke 27 1015 42 3000 2.6 290 06:43 08.03.2020
1362 Smoke 27 1015 42 3000 2.6 290 06:24 08.03.2020
1363 Smoke 28 1014 47 3000 2.1 10 05:43 08.03.2020
1364 Smoke 24 1014 53 3000 2.1 50 03:52 08.03.2020
1365 Smoke 24 1014 53 3000 2.1 50 03:52 08.03.2020
1366 Smoke 24 1012 53 3000 2.6 50 02:38 08.03.2020
1367 Haze 23 1012 60 3000 1.5 30 01:35 08.03.2020
1368 Haze 23 1012 60 3000 1.5 30 00:58 08.03.2020
1369 Haze 24 1012 64 3000 1.85 69 00:28 08.03.2020
1370 Haze 23 1012 69 3000 2.1 30 23:48 07.03.2020
1371 Haze 23 1012 69 3000 2.1 30 23:26 07.03.2020
1372 Haze 24 1012 60 3000 2.43 32 22:56 07.03.2020
1373 Haze 24 1012 60 3000 2.1 40 22:37 07.03.2020
1374 Haze 24 1012 60 3000 2.1 40 22:19 07.03.2020
1375 Haze 24 1012 60 3000 2.1 20 21:43 07.03.2020
1376 Haze 24 1012 60 3000 2.1 20 21:43 07.03.2020
1377 Haze 25 1013 57 3000 2.6 30 21:22 07.03.2020
1378 Haze 25 1013 61 3000 2.1 10 20:41 07.03.2020
1379 Haze 25 1013 61 3000 2.1 10 20:21 07.03.2020
1380 Haze 25 1013 61 3000 2.6 10 19:42 07.03.2020
1381 Haze 25 1013 61 3500 3.1 50 19:23 07.03.2020
1382 Haze 25 1014 61 4000 3.1 50 18:59 07.03.2020
1383 Haze 25 1014 61 4000 3.1 10 18:39 07.03.2020
1384 Haze 25 1014 61 4000 3.1 10 18:20 07.03.2020
1385 Smoke 26 1013 57 4000 3.1 360 17:42 07.03.2020
1386 Smoke 26 1013 57 4000 3.1 360 17:20 07.03.2020
1387 Smoke 26 1013 57 4000 3.1 320 16:56 07.03.2020
1388 Smoke 26 1013 57 4000 3.1 330 16:38 07.03.2020
1389 Smoke 26 1013 57 4000 3.1 330 16:20 07.03.2020
1390 Smoke 26 1012 57 4000 3.6 320 15:55 07.03.2020
1391 Smoke 26 1012 57 4000 4.1 310 15:36 07.03.2020
1392 Smoke 26 1012 57 4000 4.1 310 15:18 07.03.2020
1393 Smoke 26 1012 57 5000 4.1 300 14:42 07.03.2020
1394 Smoke 26 1012 57 5000 4.1 300 14:23 07.03.2020
1395 Smoke 27 1011 54 5000 6.7 290 13:44 07.03.2020
1396 Smoke 27 1011 54 5000 6.7 290 13:22 07.03.2020
1397 Smoke 28 1011 51 5000 6.2 300 12:59 07.03.2020
1398 Smoke 28 1011 51 5000 5.7 290 12:39 07.03.2020
1399 Smoke 28 1011 51 5000 5.7 290 12:19 07.03.2020
1400 Smoke 28 1011 51 5000 5.7 300 11:55 07.03.2020
1401 Smoke 28 1012 54 5000 5.1 310 11:36 07.03.2020
1402 Smoke 28 1012 54 5000 5.1 310 11:18 07.03.2020
1403 Smoke 28 1012 51 5000 6.7 280 10:39 07.03.2020
1404 Smoke 28 1012 51 5000 6.7 280 10:19 07.03.2020
1405 Smoke 28 1013 54 5000 6.2 280 09:41 07.03.2020
1406 Smoke 28 1013 54 5000 6.2 280 09:20 07.03.2020
1407 Smoke 28 1013 51 4000 6.7 290 08:59 07.03.2020
1408 Smoke 29 1014 45 4000 4.1 310 08:41 07.03.2020
1409 Smoke 29 1014 45 4000 4.1 310 08:20 07.03.2020
1410 Smoke 28 1014 48 4000 2.1 290 07:47 07.03.2020
1411 Clear 26 1014 49 0 2.59 281 07:22 07.03.2020
1412 Clear 26 1014 49 0 2.59 281 06:52 07.03.2020
1413 Clear 26 1014 49 0 2.59 281 06:28 07.03.2020
1414 Haze 26 1015 65 3000 4.1 70 05:45 07.03.2020
1415 Haze 25 1014 65 3000 3.6 20 04:25 07.03.2020
1416 Haze 24 1011 69 3000 2.1 40 02:46 07.03.2020
1417 Haze 24 1011 69 3000 2.1 40 02:18 07.03.2020
1418 Haze 24 1011 73 3000 1.5 40 01:23 07.03.2020
1419 Haze 25 1011 69 3000 2.1 350 00:37 07.03.2020
1420 Haze 25 1011 69 3000 2.1 360 00:18 07.03.2020
1421 Haze 25 1011 69 3000 2.1 340 23:41 06.03.2020
1422 Haze 25 1011 69 3000 2.1 300 23:23 06.03.2020
1423 Haze 25 1011 69 3000 2.1 320 22:47 06.03.2020
1424 Haze 25 1011 69 3000 2.1 320 22:21 06.03.2020
1425 Haze 25 1011 73 3000 2.6 340 21:50 06.03.2020
1426 Haze 26 1012 69 3000 3.6 300 21:21 06.03.2020
1427 Haze 26 1012 69 3000 1.5 330 20:56 06.03.2020
1428 Haze 26 1012 69 3000 2.6 60 20:36 06.03.2020
1429 Haze 26 1012 69 3000 2.6 60 20:18 06.03.2020
1430 Haze 26 1012 65 3000 3.6 270 19:43 06.03.2020
1431 Haze 26 1012 65 3000 3.6 270 19:24 06.03.2020
1432 Haze 26 1012 65 4000 3.1 240 18:43 06.03.2020
1433 Haze 26 1012 61 4000 3.6 240 18:21 06.03.2020
1434 Haze 26 1012 61 4000 3.6 240 17:57 06.03.2020
1435 Haze 26 1012 61 4000 3.6 240 17:39 06.03.2020
1436 Haze 27 1011 61 4000 3.6 280 17:21 06.03.2020
1437 Haze 27 1011 61 4000 3.6 280 16:57 06.03.2020
1438 Haze 27 1011 61 4000 3.6 280 16:39 06.03.2020
1439 Haze 27 1011 61 4000 3.6 280 16:19 06.03.2020
1440 Haze 27 1010 61 4000 4.6 260 15:42 06.03.2020
1441 Haze 27 1010 61 4000 4.6 260 15:23 06.03.2020
1442 Smoke 27 1010 61 5000 4.1 250 14:43 06.03.2020
1443 Smoke 27 1010 61 5000 4.1 250 14:24 06.03.2020
1444 Smoke 27 1010 61 5000 4.1 230 13:59 06.03.2020
1445 Smoke 28 1010 54 5000 4.1 260 13:40 06.03.2020
1446 Smoke 28 1010 54 5000 4.1 260 13:20 06.03.2020
1447 Smoke 28 1009 54 5000 5.1 260 12:55 06.03.2020
1448 Smoke 28 1009 58 5000 5.1 280 12:36 06.03.2020
1449 Smoke 28 1009 58 5000 5.1 280 12:18 06.03.2020
1450 Smoke 28 1009 58 5000 5.1 280 12:18 06.03.2020
1451 Smoke 29 1009 51 5000 4.6 250 11:43 06.03.2020
1452 Smoke 29 1009 54 5000 6.2 280 11:21 06.03.2020
1453 Smoke 29 1010 51 5000 5.7 250 10:58 06.03.2020
1454 Smoke 29 1010 51 5000 6.2 260 10:37 06.03.2020
1455 Smoke 29 1010 51 5000 6.2 260 10:18 06.03.2020
1456 Smoke 29 1010 51 5000 6.2 260 10:18 06.03.2020
1457 Smoke 30 1011 48 5000 5.7 280 09:42 06.03.2020
1458 Smoke 29 1011 58 5000 5.7 270 09:24 06.03.2020
1459 Smoke 29 1011 54 5000 5.7 280 08:57 06.03.2020
1460 Smoke 29 1012 54 5000 5.1 250 08:38 06.03.2020
1461 Smoke 29 1012 54 5000 5.1 250 08:20 06.03.2020
1462 Smoke 29 1012 54 5000 6.2 260 07:47 06.03.2020
1463 Smoke 29 1013 54 5000 4.6 220 07:25 06.03.2020
1464 Smoke 29 1013 51 5000 3.1 250 06:51 06.03.2020
1465 Smoke 29 1012 54 4000 4.6 250 06:32 06.03.2020
1466 Smoke 28 1012 57 3000 4.1 230 05:39 06.03.2020
1467 Smoke 28 1012 57 3000 4.1 230 05:20 06.03.2020
1468 Smoke 27 1011 69 3000 1.5 150 04:41 06.03.2020
1469 Haze 26 1009 65 3000 0.99 111 01:45 06.03.2020
1470 Haze 26 1009 65 3000 2.6 240 01:26 06.03.2020
1471 Haze 26 1009 65 3000 4.1 240 00:59 06.03.2020
1472 Haze 26 1009 65 3000 3.1 240 00:31 06.03.2020
1473 Haze 26 1009 65 3000 2.1 250 23:44 05.03.2020
1474 Haze 26 1009 65 3000 3.1 250 23:25 05.03.2020
1475 Haze 26 1009 65 3000 2.6 240 22:56 05.03.2020
1476 Haze 26 1009 65 3000 3.6 240 22:37 05.03.2020
1477 Haze 26 1009 65 3000 3.6 240 22:18 05.03.2020
1478 Haze 26 1010 65 3000 2.6 230 21:56 05.03.2020
1479 Haze 26 1010 65 3000 2.6 230 21:56 05.03.2020
1480 Haze 26 1010 65 3000 3.1 240 21:37 05.03.2020
1481 Haze 26 1010 65 3000 3.1 240 21:19 05.03.2020
1482 Haze 26 1010 65 3000 3.1 230 20:55 05.03.2020
1483 Haze 26 1011 69 3000 3.6 240 20:36 05.03.2020
1484 Haze 26 1011 69 3000 3.6 240 20:18 05.03.2020
1485 Haze 26 1011 65 4000 4.1 240 19:40 05.03.2020
1486 Haze 26 1011 65 4000 4.1 240 19:22 05.03.2020
1487 Haze 27 1011 61 4000 4.6 240 19:00 05.03.2020
1488 Haze 27 1011 61 4000 3.6 240 18:38 05.03.2020
1489 Haze 27 1011 61 4000 3.6 240 18:19 05.03.2020
1490 Haze 27 1011 61 4000 4.6 240 17:58 05.03.2020
1491 Haze 27 1011 65 4000 4.1 250 17:40 05.03.2020
1492 Haze 27 1011 65 4000 4.1 250 17:21 05.03.2020
1493 Haze 27 1010 65 4000 4.6 240 16:42 05.03.2020
1494 Haze 27 1010 65 4000 4.6 240 16:42 05.03.2020
1495 Haze 27 1010 65 4000 4.6 240 16:24 05.03.2020
1496 Haze 27 1010 61 4000 6.2 260 15:59 05.03.2020
1497 Haze 27 1010 61 4000 4.6 270 15:40 05.03.2020
1498 Haze 27 1010 61 4000 4.6 270 15:21 05.03.2020
1499 Haze 27 1009 65 4000 4.1 280 14:55 05.03.2020
1500 Haze 27 1009 65 5000 6.2 250 14:36 05.03.2020
1501 Haze 27 1009 65 5000 6.2 250 14:18 05.03.2020
1502 Haze 27 1009 61 5000 6.2 260 13:43 05.03.2020
1503 Haze 28 1009 61 5000 5.7 270 13:21 05.03.2020
1504 Haze 28 1009 58 5000 5.7 260 12:57 05.03.2020
1505 Smoke 28 1009 61 5000 6.7 270 12:38 05.03.2020
1506 Smoke 28 1009 61 5000 6.7 270 12:19 05.03.2020
1507 Smoke 28 1009 58 5000 6.2 240 11:56 05.03.2020
1508 Smoke 28 1009 61 5000 5.1 280 11:37 05.03.2020
1509 Smoke 29 1009 61 5000 5.1 280 11:18 05.03.2020
1510 Smoke 29 1009 61 5000 5.7 270 10:56 05.03.2020
1511 Smoke 29 1010 58 5000 6.2 260 10:38 05.03.2020
1512 Smoke 29 1010 58 5000 6.2 260 10:38 05.03.2020
1513 Smoke 29 1010 58 5000 6.2 260 10:20 05.03.2020
1514 Smoke 30 1011 54 5000 4.6 300 09:44 05.03.2020
1515 Smoke 30 1011 54 5000 4.6 300 09:26 05.03.2020
1516 Smoke 29 1011 58 5000 4.1 300 08:44 05.03.2020
1517 Smoke 30 1012 58 4000 4.1 270 08:25 05.03.2020
1518 Smoke 28 1012 58 4000 5.7 300 07:48 05.03.2020
1519 Smoke 28 1012 58 4000 3.1 280 07:22 05.03.2020
1520 Smoke 29 1013 58 3500 2.6 230 06:49 05.03.2020
1521 Haze 28 1013 58 3500 2.1 70 06:22 05.03.2020
1522 Haze 28 1013 61 3000 1.5 360 05:57 05.03.2020
1523 Haze 28 1012 69 3000 2.6 70 05:25 05.03.2020
1524 Haze 25 1012 73 2300 2.6 100 04:22 05.03.2020
1525 Haze 24 1012 78 2100 2.1 110 03:56 05.03.2020
1526 Haze 23 1010 83 2500 2.1 100 02:21 05.03.2020
1527 Haze 24 1009 78 2500 2.6 130 01:22 05.03.2020
1528 Haze 24 1010 78 2500 2.1 50 00:26 05.03.2020
1529 Haze 24 1010 83 3000 2.1 40 23:43 04.03.2020
1530 Haze 24 1010 78 3000 2.1 40 23:24 04.03.2020
1531 Haze 25 1010 78 3000 1.5 30 22:59 04.03.2020
1532 Haze 25 1010 78 3000 2.1 40 22:39 04.03.2020
1533 Haze 25 1010 78 3000 2.1 40 22:19 04.03.2020
1534 Haze 25 1011 78 3000 2.1 40 21:58 04.03.2020
1535 Haze 25 1011 78 3000 1.5 50 21:40 04.03.2020
1536 Haze 25 1011 78 3000 1.5 50 21:20 04.03.2020
1537 Haze 25 1011 73 3000 2.1 30 20:56 04.03.2020
1538 Haze 26 1012 69 3000 2.1 350 20:37 04.03.2020
1539 Haze 26 1012 69 3000 2.1 350 20:19 04.03.2020
1540 Haze 26 1012 74 3000 2.1 350 19:42 04.03.2020
1541 Haze 25 1012 73 3000 1.5 300 19:23 04.03.2020
1542 Haze 25 1012 78 3000 1.5 290 18:57 04.03.2020
1543 Haze 25 1012 78 3000 3.1 320 18:37 04.03.2020
1544 Haze 25 1012 78 3000 3.1 320 18:18 04.03.2020
1545 Haze 26 1012 74 3000 2.1 270 17:55 04.03.2020
1546 Haze 26 1012 69 3000 3.1 270 17:37 04.03.2020
1547 Haze 26 1012 69 3000 3.1 270 17:19 04.03.2020
1548 Haze 25 1011 73 3000 3.6 290 16:44 04.03.2020
1549 Haze 25 1011 73 3000 3.6 290 16:25 04.03.2020
1550 Haze 26 1011 69 3000 4.1 300 15:59 04.03.2020
1551 Haze 26 1011 74 3500 3.6 290 15:41 04.03.2020
1552 Haze 26 1011 74 3500 3.6 290 15:22 04.03.2020
1553 Haze 26 1011 69 4000 4.1 290 14:55 04.03.2020
1554 Haze 26 1010 69 5000 5.7 290 14:37 04.03.2020
1555 Haze 26 1010 69 5000 5.7 290 14:18 04.03.2020
1556 Haze 27 1010 65 5000 3.6 300 13:56 04.03.2020
1557 Haze 27 1010 65 5000 5.1 300 13:37 04.03.2020
1558 Haze 27 1010 65 5000 5.1 300 13:19 04.03.2020
1559 Haze 27 1010 65 5000 5.7 290 12:44 04.03.2020
1560 Haze 27 1010 61 5000 6.2 290 12:25 04.03.2020
1561 Haze 28 1010 61 5000 6.2 280 11:56 04.03.2020
1562 Smoke 28 1010 58 4000 5.7 280 11:38 04.03.2020
1563 Smoke 29 1010 58 4000 5.7 280 11:19 04.03.2020
1564 Smoke 29 1010 58 4000 5.7 280 11:19 04.03.2020
1565 Smoke 29 1011 61 4000 5.7 290 10:47 04.03.2020
1566 Smoke 30 1011 51 4000 6.2 280 10:26 04.03.2020
1567 Smoke 28 1012 54 4000 5.1 290 09:58 04.03.2020
1568 Smoke 30 1012 51 4000 6.2 300 09:40 04.03.2020
1569 Smoke 30 1012 51 4000 6.2 300 09:20 04.03.2020
1570 Smoke 30 1013 54 3000 5.1 280 08:43 04.03.2020
1571 Smoke 29 1013 54 3000 5.1 280 08:25 04.03.2020
1572 Smoke 28 1014 58 3000 5.1 270 07:52 04.03.2020
1573 Smoke 29 1014 58 3000 5.7 280 07:33 04.03.2020
1574 Smoke 29 1015 58 3000 4.6 280 06:54 04.03.2020
1575 Smoke 29 1015 57 3000 3.6 290 06:27 04.03.2020
1576 Haze 28 1015 65 2500 3.1 310 05:59 04.03.2020
1577 Haze 28 1014 61 2500 1.5 90 05:41 04.03.2020
1578 Haze 26 1014 65 2500 2.6 120 04:19 04.03.2020
1579 Haze 23 1013 69 2500 2.1 110 03:38 04.03.2020
1580 Haze 23 1012 69 3000 2.1 100 02:59 04.03.2020
1581 Haze 25 1011 65 4000 2.1 130 02:32 04.03.2020
1582 Haze 25 1011 65 4000 2.1 130 01:58 04.03.2020
1583 Haze 25 1011 65 5000 1.19 51 01:38 04.03.2020
1584 Haze 25 1011 65 5000 1.5 35 00:42 04.03.2020
1585 Clouds 25 1011 65 6000 3.6 20 00:24 04.03.2020
1586 Clouds 25 1011 65 6000 2.6 310 23:45 03.03.2020
1587 Clouds 26 1011 57 6000 2.6 310 23:27 03.03.2020
1588 Clouds 26 1011 57 6000 2.1 290 22:57 03.03.2020
1589 Clouds 26 1011 57 6000 2.1 290 22:39 03.03.2020
1590 Clouds 26 1011 57 6000 2.1 290 22:19 03.03.2020
1591 Clouds 26 1012 57 6000 2.1 300 21:56 03.03.2020
1592 Clouds 26 1012 61 6000 3.6 300 21:36 03.03.2020
1593 Clouds 26 1012 61 6000 3.6 300 21:18 03.03.2020
1594 Clear 26 1012 65 6000 1.5 300 20:40 03.03.2020
1595 Clear 26 1012 65 6000 1.5 300 20:20 03.03.2020
1596 Clear 26 1013 61 6000 3.1 280 19:59 03.03.2020
1597 Clear 26 1013 61 6000 3.1 290 19:37 03.03.2020
1598 Clear 26 1013 61 6000 3.1 290 19:19 03.03.2020
1599 Clear 26 1013 61 6000 3.1 290 19:19 03.03.2020
1600 Clear 26 1013 61 6000 2.1 280 18:58 03.03.2020
1601 Smoke 26 1013 61 5000 3.1 250 18:40 03.03.2020
1602 Smoke 26 1013 61 5000 3.1 250 18:21 03.03.2020
1603 Haze 27 1013 57 4000 3.1 260 17:57 03.03.2020
1604 Haze 27 1013 57 4000 3.1 280 17:39 03.03.2020
1605 Haze 27 1013 57 4000 3.1 280 17:21 03.03.2020
1606 Haze 26 1012 61 4000 3.1 270 16:57 03.03.2020
1607 Haze 27 1012 61 4000 3.1 280 16:37 03.03.2020
1608 Haze 27 1012 61 4000 3.1 280 16:19 03.03.2020
1609 Haze 27 1012 61 4000 3.6 290 15:44 03.03.2020
1610 Smoke 27 1011 61 4000 3.6 270 15:22 03.03.2020
1611 Haze 27 1011 61 4000 4.1 270 14:57 03.03.2020
1612 Haze 27 1011 61 4000 4.1 290 14:37 03.03.2020
1613 Haze 27 1011 61 4000 4.1 290 14:19 03.03.2020
1614 Smoke 28 1011 58 5000 4.1 280 13:56 03.03.2020
1615 Smoke 28 1010 58 5000 5.1 270 13:38 03.03.2020
1616 Smoke 28 1010 58 5000 5.1 270 13:19 03.03.2020
1617 Smoke 28 1011 58 5000 4.6 290 12:43 03.03.2020
1618 Smoke 29 1011 54 5000 5.1 280 12:24 03.03.2020
1619 Smoke 29 1011 54 5000 5.7 290 11:55 03.03.2020
1620 Smoke 29 1011 54 5000 4.6 280 11:37 03.03.2020
1621 Smoke 30 1011 54 5000 4.6 280 11:18 03.03.2020
1622 Smoke 30 1011 54 5000 4.6 270 10:55 03.03.2020
1623 Smoke 30 1011 54 5000 4.6 270 10:37 03.03.2020
1624 Smoke 30 1011 54 5000 4.6 270 10:18 03.03.2020
1625 Smoke 30 1011 54 5000 4.6 270 10:18 03.03.2020
1626 Smoke 31 1012 54 5000 4.6 280 09:43 03.03.2020
1627 Smoke 30 1012 54 5000 5.1 280 09:21 03.03.2020
1628 Smoke 30 1013 54 4000 4.1 280 08:43 03.03.2020
1629 Smoke 29 1013 54 4000 4.1 280 08:24 03.03.2020
1630 Smoke 29 1013 54 4000 4.1 270 07:58 03.03.2020
1631 Smoke 29 1014 51 4000 3.6 290 07:39 03.03.2020
1632 Smoke 29 1014 51 4000 3.6 290 07:19 03.03.2020
1633 Smoke 29 1014 58 3000 3.1 250 06:40 03.03.2020
1634 Smoke 29 1014 58 3000 3.1 250 06:21 03.03.2020
1635 Smoke 28 1014 65 3000 2.6 270 05:46 03.03.2020
1636 Haze 26 1014 74 2100 2.1 210 04:56 03.03.2020
1637 Haze 24 1013 83 2100 2.6 120 03:32 03.03.2020
1638 Haze 25 1011 83 2200 2.1 20 01:39 03.03.2020
1639 Haze 25 1011 78 2500 1.5 20 00:47 03.03.2020
1640 Haze 25 1011 78 2500 1.5 20 00:26 03.03.2020
1641 Haze 25 1011 78 2500 1.5 10 23:51 02.03.2020
1642 Haze 25 1011 83 2500 1.5 10 23:23 02.03.2020
1643 Mist 25 1011 83 3000 2.1 10 22:58 02.03.2020
1644 Mist 25 1011 83 3000 2.1 10 22:58 02.03.2020
1645 Mist 25 1011 83 3000 0.47 11 22:39 02.03.2020
1646 Mist 25 1011 83 3000 0.47 11 22:20 02.03.2020
1647 Haze 25 1011 83 3000 1.5 0 21:58 02.03.2020
1648 Haze 26 1012 78 3000 1.5 10 21:39 02.03.2020
1649 Haze 26 1012 78 3000 1.5 10 21:39 02.03.2020
1650 Haze 26 1012 78 3000 1.5 10 21:20 02.03.2020
1651 Haze 26 1012 78 3000 0.47 11 20:57 02.03.2020
1652 Haze 26 1012 78 3000 0.47 11 20:57 02.03.2020
1653 Haze 26 1012 78 3000 2.1 350 20:38 02.03.2020
1654 Haze 26 1012 78 3000 2.1 350 20:38 02.03.2020
1655 Haze 26 1012 78 3000 2.1 350 20:19 02.03.2020
1656 Haze 26 1012 78 3000 1.5 300 19:54 02.03.2020
1657 Haze 26 1013 78 3000 2.1 220 19:36 02.03.2020
1658 Haze 26 1013 78 3000 2.1 220 19:18 02.03.2020
1659 Haze 26 1012 78 3000 1.73 156 18:43 02.03.2020
1660 Haze 26 1012 78 3000 1.5 320 18:19 02.03.2020
1661 Haze 26 1012 74 3000 2.1 340 17:57 02.03.2020
1662 Haze 26 1012 74 3000 1.5 320 17:39 02.03.2020
1663 Haze 26 1012 74 3000 1.5 320 17:21 02.03.2020
1664 Haze 26 1012 74 3000 1.5 310 16:54 02.03.2020
1665 Haze 26 1012 74 3000 3.1 300 16:36 02.03.2020
1666 Haze 26 1012 74 3000 3.1 300 16:18 02.03.2020
1667 Haze 26 1012 74 3000 3.1 300 16:18 02.03.2020
1668 Haze 26 1011 78 3000 2.6 320 15:42 02.03.2020
1669 Haze 27 1011 74 3000 4.6 280 15:19 02.03.2020
1670 Haze 27 1010 74 4000 4.6 290 14:41 02.03.2020
1671 Haze 27 1010 74 4000 4.6 290 14:20 02.03.2020
1672 Haze 27 1010 74 5000 4.1 280 13:59 02.03.2020
1673 Haze 27 1010 69 5000 5.7 280 13:38 02.03.2020
1674 Haze 27 1010 69 5000 5.7 280 13:18 02.03.2020
1675 Haze 28 1010 65 5000 5.1 290 12:43 02.03.2020
1676 Haze 28 1010 65 5000 4.6 280 12:19 02.03.2020
1677 Haze 29 1010 62 5000 4.6 290 11:55 02.03.2020
1678 Haze 28 1010 65 5000 3.6 290 11:36 02.03.2020
1679 Haze 30 1010 65 5000 3.6 290 11:18 02.03.2020
1680 Haze 30 1011 62 4000 5.1 270 10:42 02.03.2020
1681 Haze 30 1011 65 4000 5.7 270 10:20 02.03.2020
1682 Haze 30 1012 65 4000 5.1 270 09:58 02.03.2020
1683 Smoke 30 1012 62 3000 5.1 260 09:39 02.03.2020
1684 Smoke 30 1012 62 3000 5.1 260 09:20 02.03.2020
1685 Smoke 31 1012 58 3000 5.7 290 08:41 02.03.2020
1686 Smoke 30 1012 58 3000 5.7 290 08:19 02.03.2020
1687 Smoke 29 1013 62 3000 5.1 270 07:42 02.03.2020
1688 Smoke 30 1013 58 3000 3.6 270 06:57 02.03.2020
1689 Smoke 29 1013 61 3000 3.1 290 06:37 02.03.2020
1690 Smoke 29 1013 48 3000 2.6 250 05:52 02.03.2020
1691 Smoke 26 1013 50 2500 2.08 88 04:23 02.03.2020
1692 Smoke 24 1012 50 2500 2.08 88 03:20 02.03.2020
1693 Smoke 26 1011 50 4000 1.5 0 02:37 02.03.2020
1694 Smoke 26 1011 50 4000 1.5 0 02:37 02.03.2020
1695 Smoke 25 1011 44 4000 2.09 22 01:47 02.03.2020
1696 Smoke 25 1010 50 4000 2.09 22 01:28 02.03.2020
1697 Clear 25 1010 50 6000 2.42 28 00:23 02.03.2020
1698 Clear 25 1010 50 6000 2.42 28 23:56 01.03.2020
1699 Clear 26 1010 47 6000 2.42 28 23:38 01.03.2020
1700 Clear 26 1010 47 6000 1.54 26 23:19 01.03.2020
1701 Clear 26 1010 47 6000 1.54 26 22:43 01.03.2020
1702 Clear 26 1010 47 6000 1.54 26 22:20 01.03.2020
1703 Clear 26 1011 47 6000 1.5 50 21:55 01.03.2020
1704 Clear 26 1011 44 6000 1 40 21:37 01.03.2020
1705 Clear 26 1011 44 6000 1 40 21:18 01.03.2020
1706 Clear 27 1012 42 6000 2.1 180 20:43 01.03.2020
1707 Clear 27 1012 42 6000 3.1 140 20:25 01.03.2020
1708 Clear 28 1012 37 6000 2.1 140 19:54 01.03.2020
1709 Clear 27 1012 47 6000 3.1 50 19:36 01.03.2020
1710 Clear 27 1012 47 6000 3.1 50 19:18 01.03.2020
1711 Smoke 28 1012 51 5000 2.6 340 18:40 01.03.2020
1712 Smoke 28 1012 51 5000 2.6 340 18:20 01.03.2020
1713 Smoke 28 1012 51 4000 3.6 290 17:57 01.03.2020
1714 Smoke 27 1012 57 4000 2.6 360 17:39 01.03.2020
1715 Smoke 27 1012 57 4000 2.6 360 17:20 01.03.2020
1716 Smoke 27 1011 57 4000 1.5 320 16:57 01.03.2020
1717 Smoke 28 1011 51 4000 2.6 320 16:38 01.03.2020
1718 Smoke 28 1011 51 4000 2.6 320 16:18 01.03.2020
1719 Smoke 28 1010 48 4000 3.1 310 15:56 01.03.2020
1720 Smoke 29 1010 45 4000 3.6 320 15:38 01.03.2020
1721 Smoke 28 1010 45 4000 3.6 320 15:19 01.03.2020
1722 Smoke 27 1009 54 4000 3.1 320 14:56 01.03.2020
1723 Smoke 27 1009 65 4000 3.1 310 14:38 01.03.2020
1724 Smoke 27 1009 65 4000 3.1 310 14:20 01.03.2020
1725 Smoke 28 1009 54 4000 5.7 300 13:55 01.03.2020
1726 Smoke 29 1009 54 5000 6.2 300 13:37 01.03.2020
1727 Smoke 29 1009 54 5000 6.2 300 13:18 01.03.2020
1728 Smoke 30 1009 45 5000 6.2 290 12:42 01.03.2020
1729 Smoke 30 1008 48 5000 4.1 270 12:42 01.03.2020
1730 Smoke 30 1008 48 5000 4.1 270 12:21 01.03.2020
1731 Smoke 30 1008 48 5000 4.1 270 12:21 01.03.2020
1732 Smoke 30 1008 48 5000 4.6 300 11:43 01.03.2020
1733 Smoke 33 1009 43 5000 5.7 290 11:25 01.03.2020
1734 Smoke 32 1009 51 5000 5.1 280 10:57 01.03.2020
1735 Smoke 32 1009 55 4000 4.6 280 10:38 01.03.2020
1736 Smoke 32 1009 55 4000 4.6 280 10:20 01.03.2020
1737 Smoke 32 1010 55 4000 5.7 270 09:58 01.03.2020
1738 Smoke 32 1010 55 4000 5.7 270 09:58 01.03.2020
1739 Smoke 33 1010 55 4000 5.1 280 09:40 01.03.2020
1740 Smoke 33 1010 55 4000 5.1 280 09:21 01.03.2020
1741 Smoke 32 1011 55 4000 6.2 250 08:42 01.03.2020
1742 Smoke 30 1011 55 4000 5.7 260 08:21 01.03.2020
1743 Smoke 32 1012 48 4000 4.6 240 07:43 01.03.2020
1744 Smoke 30 1012 45 4000 3.6 240 07:24 01.03.2020
1745 Smoke 32 1012 35 4000 1.5 360 06:58 01.03.2020
1746 Smoke 31 1013 35 4000 1.5 350 06:39 01.03.2020
1747 Smoke 25 1012 47 3000 1.5 20 04:39 01.03.2020
1748 Haze 23 1011 73 2300 2.1 360 02:58 01.03.2020
1749 Haze 25 1010 78 2500 3.1 30 02:18 01.03.2020
1750 Haze 25 1009 83 2500 2.1 10 01:34 01.03.2020
1751 Haze 25 1009 83 2500 2.1 340 00:48 01.03.2020
1752 Haze 25 1009 83 2500 2.1 320 00:25 01.03.2020
1753 Haze 25 1009 88 2500 3.1 340 23:54 29.02.2020
1754 Haze 25 1009 83 2500 2.1 310 23:35 29.02.2020
1755 Haze 26 1009 78 3000 2.6 340 22:46 29.02.2020
1756 Haze 26 1009 78 3000 2.6 340 22:26 29.02.2020
1757 Haze 26 1010 78 3000 1.5 330 21:57 29.02.2020
1758 Haze 26 1010 74 3000 1.5 320 21:38 29.02.2020
1759 Haze 26 1010 74 3000 1.5 320 21:19 29.02.2020
1760 Haze 27 1011 69 3500 1.46 55 20:41 29.02.2020
1761 Haze 27 1011 69 3500 1.39 84 20:20 29.02.2020
1762 Haze 27 1011 69 3500 1.5 0 19:54 29.02.2020
1763 Haze 27 1011 69 3500 2.1 10 19:36 29.02.2020
1764 Haze 27 1011 69 3500 2.1 10 19:18 29.02.2020
1765 Haze 27 1011 69 3500 1.5 0 18:39 29.02.2020
1766 Haze 27 1011 69 3500 1.5 0 18:19 29.02.2020
1767 Haze 27 1011 69 3500 2.1 20 17:55 29.02.2020
1768 Haze 27 1011 65 3500 1.39 84 17:37 29.02.2020
1769 Haze 27 1011 65 3500 1.22 280 17:19 29.02.2020
1770 Haze 27 1010 65 4000 2.6 300 16:43 29.02.2020
1771 Haze 27 1010 65 4000 2.6 300 16:19 29.02.2020
1772 Haze 28 1010 61 4000 2.6 340 15:56 29.02.2020
1773 Smoke 28 1009 58 4000 4.1 310 15:36 29.02.2020
1774 Smoke 28 1009 58 4000 4.1 310 15:18 29.02.2020
1775 Smoke 29 1009 54 4000 4.6 290 14:39 29.02.2020
1776 Smoke 29 1009 54 4000 4.6 290 14:21 29.02.2020
1777 Smoke 29 1009 42 5000 5.1 310 13:45 29.02.2020
1778 Smoke 29 1008 35 5000 5.1 300 13:27 29.02.2020
1779 Smoke 30 1008 37 5000 4.6 290 12:57 29.02.2020
1780 Smoke 30 1008 27 5000 4.6 290 12:38 29.02.2020
1781 Smoke 30 1008 27 5000 4.6 290 12:20 29.02.2020
1782 Smoke 31 1008 23 4000 4.6 300 11:45 29.02.2020
1783 Smoke 32 1008 40 4000 5.1 290 11:26 29.02.2020
1784 Smoke 32 1009 38 3500 6.2 290 10:51 29.02.2020
1785 Smoke 32 1019 27 3500 5.1 300 10:30 29.02.2020
1786 Smoke 32 1010 29 3000 5.1 290 09:56 29.02.2020
1787 Smoke 32 1010 29 3000 5.1 290 09:55 29.02.2020
1788 Smoke 32 1010 31 3000 5.1 300 09:37 29.02.2020
1789 Smoke 32 1010 31 3000 5.1 300 09:18 29.02.2020
1790 Smoke 31 1011 45 2500 4.6 300 08:40 29.02.2020
1791 Smoke 30 1011 45 2500 4.6 300 08:20 29.02.2020
1792 Smoke 30 1011 38 2500 4.6 290 07:51 29.02.2020
1793 Smoke 31 1011 40 2500 3.6 240 07:22 29.02.2020
1794 Smoke 31 1012 40 2500 4.1 270 06:54 29.02.2020
1795 Smoke 31 1011 31 2100 2.1 220 06:29 29.02.2020
1796 Smoke 30 1012 30 2100 2.6 110 05:52 29.02.2020
1797 Smoke 29 1011 37 2100 2.6 150 05:32 29.02.2020
1798 Smoke 25 1010 53 2100 1.5 50 03:59 29.02.2020
1799 Haze 24 1010 60 2200 2.1 50 03:24 29.02.2020
1800 Smoke 24 1009 64 2500 1.99 52 02:59 29.02.2020
1801 Smoke 24 1008 57 2500 2.08 71 01:59 29.02.2020
1802 Smoke 24 1008 57 2500 2.21 74 00:52 29.02.2020
1803 Smoke 24 1008 57 2500 2.1 320 00:28 29.02.2020
1804 Smoke 25 1008 53 2500 2.21 74 23:41 28.02.2020
1805 Smoke 25 1008 53 2500 2.21 74 23:23 28.02.2020
1806 Smoke 25 1008 53 2500 1.5 140 22:43 28.02.2020
1807 Smoke 26 1009 47 2500 1.5 200 22:23 28.02.2020
1808 Smoke 26 1009 50 3000 1.5 150 21:56 28.02.2020
1809 Smoke 26 1009 47 3000 2.1 180 21:38 28.02.2020
1810 Smoke 26 1009 47 3000 2.1 180 21:19 28.02.2020
1811 Smoke 27 1010 44 3000 1.48 60 20:39 28.02.2020
1812 Smoke 27 1010 44 3000 1.99 77 20:21 28.02.2020
1813 Smoke 28 1010 42 3000 3.1 50 19:57 28.02.2020
1814 Smoke 28 1010 37 3000 2.1 130 19:39 28.02.2020
1815 Smoke 28 1010 37 3000 2.1 130 19:39 28.02.2020
1816 Smoke 28 1010 37 3000 2.1 130 19:20 28.02.2020
1817 Smoke 28 1010 42 3000 2.1 60 18:47 28.02.2020
1818 Smoke 28 1010 39 3000 2.1 140 18:47 28.02.2020
1819 Smoke 28 1010 42 3000 2.1 60 18:28 28.02.2020
1820 Smoke 28 1010 51 3000 3.1 40 17:58 28.02.2020
1821 Smoke 28 1010 51 3000 3.1 30 17:39 28.02.2020
1822 Smoke 28 1010 51 3000 3.1 30 17:39 28.02.2020
1823 Smoke 28 1010 51 3000 3.1 30 17:39 28.02.2020
1824 Smoke 28 1010 51 3000 3.1 30 17:20 28.02.2020
1825 Smoke 28 1010 51 3000 1.5 360 16:43 28.02.2020
1826 Smoke 28 1009 51 3000 3.1 320 16:20 28.02.2020
1827 Smoke 29 1009 45 3000 4.1 330 15:58 28.02.2020
1828 Smoke 29 1009 42 3000 2.6 310 15:39 28.02.2020
1829 Smoke 29 1009 42 3000 2.6 310 15:19 28.02.2020
1830 Smoke 29 1009 37 3000 4.1 300 14:56 28.02.2020
1831 Smoke 29 1009 37 3000 4.1 300 14:38 28.02.2020
1832 Smoke 29 1009 37 3000 4.1 300 14:18 28.02.2020
1833 Smoke 30 1009 33 4000 5.7 310 13:41 28.02.2020
1834 Smoke 30 1009 33 4000 5.7 310 13:20 28.02.2020
1835 Smoke 30 1008 35 4000 5.1 290 12:56 28.02.2020
1836 Smoke 31 1008 27 4000 6.2 290 12:37 28.02.2020
1837 Smoke 31 1008 27 4000 6.2 290 12:19 28.02.2020
1838 Smoke 31 1008 29 4000 4.6 270 11:41 28.02.2020
1839 Smoke 32 1008 29 4000 4.6 270 11:22 28.02.2020
1840 Smoke 33 1009 25 4000 5.1 270 10:54 28.02.2020
1841 Smoke 33 1009 25 4000 5.1 270 10:54 28.02.2020
1842 Smoke 33 1009 24 4000 4.1 270 10:36 28.02.2020
1843 Smoke 33 1009 24 4000 4.1 270 10:18 28.02.2020
1844 Smoke 33 1010 35 3500 4.6 270 09:40 28.02.2020
1845 Smoke 33 1010 35 3500 4.6 270 09:20 28.02.2020
1846 Smoke 32 1010 31 3000 5.1 290 08:42 28.02.2020
1847 Smoke 32 1011 31 3000 4.6 270 08:21 28.02.2020
1848 Smoke 32 1011 29 3000 4.1 270 07:47 28.02.2020
1849 Smoke 33 1012 20 3000 3.6 290 07:27 28.02.2020
1850 Smoke 33 1012 22 2800 2.1 130 06:59 28.02.2020
1851 Smoke 32 1012 22 2500 2.6 110 06:38 28.02.2020
1852 Smoke 29 1012 30 2500 1.5 0 05:31 28.02.2020
1853 Smoke 27 1011 39 2300 2.6 130 04:32 28.02.2020
1854 Smoke 23 1010 36 2000 1.5 170 03:22 28.02.2020
1855 Smoke 27 1009 39 2500 2.6 160 02:41 28.02.2020
1856 Smoke 25 1009 44 2500 2.08 67 01:48 28.02.2020
1857 Smoke 27 1009 34 2500 2.05 65 00:33 28.02.2020
1858 Smoke 25 1009 44 2500 2.05 65 23:47 27.02.2020
1859 Smoke 26 1009 41 2500 2.05 65 23:23 27.02.2020
1860 Smoke 26 1009 44 2500 2.51 63 22:59 27.02.2020
1861 Smoke 26 1009 41 2500 2.51 63 22:40 27.02.2020
1862 Smoke 26 1009 41 2500 2.51 63 22:21 27.02.2020
1863 Smoke 26 1010 39 2500 1.5 0 21:42 27.02.2020
1864 Smoke 27 1010 39 2500 2.51 63 21:24 27.02.2020
1865 Smoke 27 1011 36 3000 2.51 63 20:59 27.02.2020
1866 Smoke 28 1011 28 3000 1.5 80 20:41 27.02.2020
1867 Smoke 28 1011 28 3000 1.5 80 20:23 27.02.2020
1868 Smoke 29 1011 25 3000 1.5 61 19:57 27.02.2020
1869 Smoke 29 1012 26 3000 1.5 0 19:39 27.02.2020
1870 Smoke 29 1012 26 3000 1.5 0 19:21 27.02.2020
1871 Smoke 28 1012 28 3000 2.1 90 18:55 27.02.2020
1872 Smoke 29 1012 25 3500 2.1 90 18:37 27.02.2020
1873 Smoke 29 1012 25 3500 2.1 90 18:18 27.02.2020
1874 Smoke 29 1011 28 3500 2.6 40 17:54 27.02.2020
1875 Smoke 29 1011 28 3500 2.1 340 17:36 27.02.2020
1876 Smoke 29 1011 28 3500 2.1 340 17:18 27.02.2020
1877 Smoke 30 1011 35 4000 2.6 320 16:41 27.02.2020
1878 Smoke 30 1011 35 4000 2.6 320 16:20 27.02.2020
1879 Smoke 29 1011 42 4000 3.1 330 15:59 27.02.2020
1880 Smoke 29 1010 45 4000 2.6 310 15:38 27.02.2020
1881 Smoke 29 1010 45 4000 2.6 310 15:20 27.02.2020
1882 Smoke 29 1010 39 4000 2.6 310 14:59 27.02.2020
1883 Smoke 29 1010 40 4000 4.1 290 14:38 27.02.2020
1884 Smoke 30 1010 40 4000 4.1 290 14:20 27.02.2020
1885 Smoke 31 1010 38 4000 4.1 290 13:42 27.02.2020
1886 Smoke 32 1010 27 4000 5.1 290 13:22 27.02.2020
1887 Smoke 31 1009 31 4000 5.1 280 12:56 27.02.2020
1888 Smoke 32 1009 40 4000 5.7 280 12:38 27.02.2020
1889 Smoke 31 1009 40 4000 5.7 280 12:18 27.02.2020
1890 Smoke 31 1010 43 4000 5.1 290 11:42 27.02.2020
1891 Smoke 32 1010 43 4000 5.1 290 11:22 27.02.2020
1892 Smoke 33 1010 38 4000 6.2 270 10:44 27.02.2020
1893 Smoke 33 1010 38 4000 5.7 270 10:24 27.02.2020
1894 Smoke 34 1011 12 3000 3.1 210 09:50 27.02.2020
1895 Smoke 35 1011 13 3000 3.1 160 09:30 27.02.2020
1896 Smoke 36 1012 13 3000 1.5 200 08:59 27.02.2020
1897 Smoke 36 1012 15 3000 3.1 120 08:41 27.02.2020
1898 Smoke 35 1012 15 3000 3.1 120 08:22 27.02.2020
1899 Smoke 35 1013 16 2500 3.6 130 07:45 27.02.2020
1900 Smoke 34 1013 18 2500 3.6 130 07:25 27.02.2020
1901 Smoke 33 1014 18 2500 3.1 110 06:48 27.02.2020
1902 Smoke 32 1014 20 2500 3.1 90 05:48 27.02.2020
1903 Smoke 26 1013 24 2500 3.1 100 03:42 27.02.2020
1904 Smoke 27 1011 22 3000 2.6 50 02:33 27.02.2020
1905 Smoke 27 1010 26 3000 2.87 63 00:46 27.02.2020
1906 Smoke 27 1010 30 3000 2.87 63 00:26 27.02.2020
1907 Smoke 27 1010 28 3000 3.1 40 23:40 26.02.2020
1908 Smoke 27 1010 28 3000 3.1 40 23:19 26.02.2020
1909 Smoke 26 1010 34 3000 2.1 60 22:58 26.02.2020
1910 Smoke 27 1011 34 3000 2.1 80 22:39 26.02.2020
1911 Smoke 27 1011 34 3000 2.1 80 22:20 26.02.2020
1912 Smoke 27 1011 34 3000 3.1 100 21:56 26.02.2020
1913 Smoke 27 1011 47 3000 4.1 110 21:38 26.02.2020
1914 Smoke 27 1011 47 3000 4.1 110 21:18 26.02.2020
1915 Smoke 27 1011 44 3000 2.6 90 20:55 26.02.2020
1916 Smoke 28 1012 39 3000 2.13 76 20:37 26.02.2020
1917 Smoke 28 1012 39 3000 2.16 73 20:18 26.02.2020
1918 Smoke 28 1012 45 3000 2.16 73 19:46 26.02.2020
1919 Smoke 28 1012 51 3000 2.1 60 19:21 26.02.2020
1920 Smoke 28 1012 51 3000 3.1 340 18:59 26.02.2020
1921 Smoke 28 1012 54 3000 2.1 340 18:41 26.02.2020
1922 Smoke 28 1012 54 3000 2.1 340 18:22 26.02.2020
1923 Smoke 28 1012 58 3000 2.6 310 17:56 26.02.2020
1924 Smoke 28 1012 54 3000 1.5 300 17:37 26.02.2020
1925 Smoke 28 1012 54 3000 1.5 300 17:18 26.02.2020
1926 Smoke 29 1011 45 3000 2.1 310 16:43 26.02.2020
1927 Smoke 29 1011 45 3000 2.1 310 16:22 26.02.2020
1928 Smoke 30 1011 35 3000 3.1 320 15:56 26.02.2020
1929 Smoke 30 1011 28 3000 3.1 350 15:38 26.02.2020
1930 Smoke 30 1011 28 3000 3.1 350 15:19 26.02.2020
1931 Smoke 30 1010 28 3000 3.1 330 14:42 26.02.2020
1932 Smoke 31 1010 33 3000 4.1 320 14:22 26.02.2020
1933 Smoke 31 1010 29 4000 4.6 310 13:43 26.02.2020
1934 Smoke 32 1010 31 4000 2.6 320 13:23 26.02.2020
1935 Smoke 32 1009 29 4000 4.6 320 12:58 26.02.2020
1936 Smoke 32 1009 29 4000 4.1 320 12:37 26.02.2020
1937 Smoke 32 1009 29 4000 4.1 320 12:18 26.02.2020
1938 Smoke 33 1010 26 5000 4.6 310 11:42 26.02.2020
1939 Smoke 33 1010 26 5000 4.6 310 11:22 26.02.2020
1940 Smoke 34 1010 20 5000 5.1 290 10:58 26.02.2020
1941 Smoke 34 1010 16 5000 4.6 280 10:39 26.02.2020
1942 Smoke 35 1010 16 5000 4.6 280 10:20 26.02.2020
1943 Smoke 35 1011 16 5000 2.6 90 09:43 26.02.2020
1944 Smoke 35 1011 16 5000 4.1 120 09:22 26.02.2020
1945 Smoke 35 1012 17 4000 4.1 130 08:56 26.02.2020
1946 Smoke 35 1012 17 4000 4.6 90 08:36 26.02.2020
1947 Smoke 34 1012 17 4000 4.6 90 08:18 26.02.2020
1948 Smoke 34 1013 17 4000 5.1 110 07:42 26.02.2020
1949 Smoke 33 1013 19 4000 3.6 100 07:23 26.02.2020
1950 Smoke 32 1013 21 3500 4.6 70 06:50 26.02.2020
1951 Smoke 32 1014 22 3500 4.1 90 06:31 26.02.2020
1952 Smoke 31 1013 22 3000 4.1 70 05:49 26.02.2020
1953 Smoke 30 1013 23 3000 3.6 70 05:20 26.02.2020
1954 Smoke 28 1013 23 3000 3.6 70 04:19 26.02.2020
1955 Smoke 27 1011 22 3000 3.6 50 02:21 26.02.2020
1956 Smoke 27 1011 22 3000 4.6 80 01:40 26.02.2020
1957 Smoke 27 1010 22 3000 3.6 70 00:48 26.02.2020
1958 Smoke 28 1010 23 3000 3.6 70 00:22 26.02.2020
1959 Smoke 28 1010 23 3000 3.6 70 00:22 26.02.2020
1960 Smoke 27 1010 24 3000 2.6 70 23:45 25.02.2020
1961 Smoke 28 1010 23 3000 3.1 60 23:26 25.02.2020
1962 Smoke 27 1010 22 3000 3.6 80 22:59 25.02.2020
1963 Smoke 28 1010 21 3000 4.6 50 22:41 25.02.2020
1964 Smoke 28 1011 21 3000 4.1 50 22:19 25.02.2020
1965 Smoke 28 1011 21 3000 4.1 50 22:19 25.02.2020
1966 Smoke 29 1011 20 3000 4.1 50 21:39 25.02.2020
1967 Smoke 29 1011 20 3000 4.1 50 21:21 25.02.2020
1968 -273 0 0 0 0 0 21:21 25.02.2020
1969 Smoke 29 1011 20 3000 4.1 40 20:58 25.02.2020
1970 Smoke 29 1011 21 3000 3.6 50 20:39 25.02.2020
1971 Smoke 29 1011 21 3000 3.6 50 20:21 25.02.2020
1972 Smoke 30 1011 20 3000 4.1 40 19:59 25.02.2020
1973 Smoke 29 1011 26 3000 2.6 40 19:40 25.02.2020
1974 Smoke 29 1011 26 3000 2.6 40 19:19 25.02.2020
1975 Smoke 28 1011 37 3000 1.5 330 18:42 25.02.2020
1976 Smoke 29 1011 39 3000 3.1 30 18:21 25.02.2020
1977 Smoke 29 1011 39 3000 3.1 30 18:21 25.02.2020
1978 Smoke 29 1011 42 3000 3.1 360 17:58 25.02.2020
1979 Smoke 29 1011 45 3000 4.6 70 17:38 25.02.2020
1980 Smoke 29 1011 45 3000 4.6 70 17:19 25.02.2020
1981 Smoke 28 1010 51 3500 2.1 310 16:58 25.02.2020
1982 Smoke 29 1010 48 3500 1.5 330 16:40 25.02.2020
1983 Smoke 29 1010 48 3500 1.5 330 16:22 25.02.2020
1984 Smoke 29 1010 45 3500 3.1 320 15:56 25.02.2020
1985 Smoke 29 1010 45 3500 3.1 320 15:56 25.02.2020
1986 Smoke 29 1009 42 3500 2.6 310 15:38 25.02.2020
1987 Smoke 29 1009 42 3500 2.6 310 15:18 25.02.2020
1988 Smoke 29 1009 37 4000 3.1 330 14:56 25.02.2020
1989 Smoke 30 1008 35 5000 3.6 330 14:37 25.02.2020
1990 Smoke 30 1008 35 5000 3.6 330 14:37 25.02.2020
1991 Smoke 31 1008 35 5000 3.6 330 14:18 25.02.2020
1992 Smoke 31 1008 35 5000 3.6 330 14:18 25.02.2020
1993 Smoke 32 1008 31 5000 3.6 340 13:55 25.02.2020
1994 Smoke 33 1008 31 5000 4.6 320 13:37 25.02.2020
1995 Smoke 32 1008 31 5000 4.6 320 13:18 25.02.2020
1996 Clouds 34 1008 26 6000 5.7 320 12:41 25.02.2020
1997 Clouds 34 1008 26 6000 5.7 320 12:21 25.02.2020
1998 Clouds 34 1008 30 6000 1.5 60 11:56 25.02.2020
1999 Clouds 34 1008 30 6000 2.6 360 11:38 25.02.2020
2000 Clouds 34 1008 30 6000 2.6 360 11:19 25.02.2020
2001 Clouds 34 1009 24 6000 3.1 340 10:57 25.02.2020
2002 Clouds 34 1009 24 6000 3.1 340 10:57 25.02.2020
2003 Smoke 34 1009 18 5000 3.1 350 10:39 25.02.2020
2004 Smoke 34 1009 18 5000 3.1 350 10:20 25.02.2020
2005 Smoke 35 1010 12 4500 3.6 80 09:41 25.02.2020
2006 Smoke 35 1010 12 4500 3.6 80 09:20 25.02.2020
2007 Smoke 35 1011 14 4000 3.6 70 08:45 25.02.2020
2008 Smoke 34 1011 15 4000 4.6 80 08:26 25.02.2020
2009 Smoke 34 1012 18 4000 4.6 80 07:51 25.02.2020
2010 Smoke 33 1013 18 4000 4.6 70 07:25 25.02.2020
2011 Smoke 33 1013 19 4000 3.1 40 06:59 25.02.2020
2012 Smoke 32 1013 20 4000 4.1 70 06:26 25.02.2020
2013 Smoke 30 1013 23 3000 4.6 50 05:24 25.02.2020
2014 Smoke 24 1011 24 4000 1.5 30 02:47 25.02.2020
2015 Smoke 27 1010 24 4000 3.05 46 01:28 25.02.2020
2016 Smoke 28 1010 21 4000 2.84 43 00:34 25.02.2020
2017 Smoke 27 1009 24 4000 2.84 43 23:57 24.02.2020
2018 Smoke 27 1009 22 4000 1.5 20 23:39 24.02.2020
2019 Smoke 27 1009 22 4000 1.5 20 23:19 24.02.2020
2020 Smoke 27 1010 26 3000 2.1 10 22:38 24.02.2020
2021 Smoke 27 1010 26 3000 2.1 10 22:19 24.02.2020
2022 Smoke 27 1010 30 3000 2.6 350 21:56 24.02.2020
2023 Smoke 28 1011 28 3000 2.56 39 21:38 24.02.2020
2024 Smoke 28 1011 28 3000 2.56 39 21:19 24.02.2020
2025 Smoke 29 1011 26 3000 3.1 330 20:56 24.02.2020
2026 Smoke 29 1011 42 3000 3.6 50 20:37 24.02.2020
2027 Smoke 29 1011 42 3000 3.6 50 20:18 24.02.2020
2028 Haze 28 1011 58 3000 2.1 50 19:56 24.02.2020
2029 Haze 27 1012 65 3000 2.1 90 19:37 24.02.2020
2030 Haze 27 1012 65 3000 2.1 90 19:19 24.02.2020
2031 Haze 28 1011 61 3000 3.1 140 18:42 24.02.2020
2032 Haze 28 1011 61 3000 3.1 140 18:23 24.02.2020
2033 Haze 28 1011 61 3000 1.5 150 17:57 24.02.2020
2034 Smoke 28 1011 61 3000 1.5 80 17:38 24.02.2020
2035 Smoke 28 1011 61 3000 1.5 80 17:19 24.02.2020
2036 -273 0 0 0 0 0 16:55 24.02.2020
2037 Smoke 27 1011 65 3000 1.53 280 16:55 24.02.2020
2038 Haze 28 1010 61 2200 2.6 10 16:37 24.02.2020
2039 Haze 28 1010 61 2200 2.6 10 16:18 24.02.2020
2040 Haze 27 1010 65 2200 2.6 300 15:56 24.02.2020
2041 Haze 28 1010 65 2500 4.1 310 15:38 24.02.2020
2042 Haze 28 1010 65 2500 4.1 310 15:19 24.02.2020
2043 Smoke 28 1009 61 3000 3.6 290 14:42 24.02.2020
2044 Smoke 29 1009 61 3000 3.6 290 14:23 24.02.2020
2045 -273 0 0 0 0 0 13:59 24.02.2020
2046 Smoke 30 1010 58 3000 4.1 310 13:41 24.02.2020
2047 Smoke 30 1010 58 3000 4.1 310 13:23 24.02.2020
2048 Smoke 30 1009 48 3000 4.6 310 12:58 24.02.2020
2049 Smoke 30 1009 55 3500 5.1 270 12:40 24.02.2020
2050 Smoke 30 1009 45 3500 5.1 270 12:22 24.02.2020
2051 Smoke 30 1009 45 3500 5.1 270 11:48 24.02.2020
2052 Smoke 31 1010 38 3500 4.6 310 11:29 24.02.2020
2053 Smoke 31 1010 38 3500 5.7 280 10:51 24.02.2020
2054 Smoke 31 1010 38 4000 5.7 270 10:31 24.02.2020
2055 Smoke 31 1011 43 4000 4.6 290 09:56 24.02.2020
2056 Smoke 30 1011 43 3000 3.6 270 09:38 24.02.2020
2057 Smoke 31 1011 43 3000 3.6 270 09:19 24.02.2020
2058 Smoke 31 1011 43 3000 4.1 290 08:48 24.02.2020
2059 Smoke 31 1012 40 3000 4.1 270 08:28 24.02.2020
2060 Smoke 31 1013 43 3000 3.6 270 07:52 24.02.2020
2061 Smoke 31 1013 40 2500 3.6 260 07:32 24.02.2020
2062 Smoke 30 1013 42 2500 3.1 260 06:49 24.02.2020
2063 Smoke 30 1013 42 2500 3.6 260 06:22 24.02.2020
2064 Smoke 28 1013 45 2200 1.5 0 05:41 24.02.2020
2065 Smoke 27 1013 45 2200 1.5 0 05:23 24.02.2020
2066 Smoke 23 1011 50 2700 2.1 130 02:57 24.02.2020
2067 Smoke 25 1011 50 2700 2.6 90 01:53 24.02.2020
2068 Smoke 25 1011 53 3000 2.01 60 01:28 24.02.2020
2069 Smoke 25 1011 53 3000 2.12 49 01:28 24.02.2020
2070 Smoke 26 1010 50 3000 2.12 49 00:38 24.02.2020
2071 Smoke 26 1010 50 3000 2.12 49 00:19 24.02.2020
2072 Smoke 25 1010 53 3000 2.1 270 23:42 23.02.2020
2073 Smoke 25 1011 53 3000 2.12 49 23:23 23.02.2020
2074 Smoke 26 1011 50 3000 1.56 67 22:58 23.02.2020
2075 Smoke 26 1011 50 3000 1.56 67 22:40 23.02.2020
2076 Smoke 26 1011 50 3000 1.56 67 22:21 23.02.2020
2077 Smoke 27 1012 44 3000 1.56 67 21:46 23.02.2020
2078 Smoke 27 1012 44 3000 1.56 67 21:21 23.02.2020
2079 Smoke 27 1013 44 3000 1.56 67 20:58 23.02.2020
2080 Smoke 27 1013 44 3000 2.1 360 20:40 23.02.2020
2081 Smoke 27 1013 44 3000 2.1 360 20:22 23.02.2020
2082 Smoke 27 1013 47 3000 1.15 69 19:59 23.02.2020
2083 Smoke 27 1013 44 3000 2.1 350 19:40 23.02.2020
2084 Smoke 27 1013 44 3000 2.1 350 19:19 23.02.2020
2085 Smoke 28 1013 39 3000 2.6 310 18:59 23.02.2020
2086 Smoke 28 1013 37 4000 1.15 69 18:37 23.02.2020
2087 Smoke 28 1013 37 4000 1.15 69 18:19 23.02.2020
2088 Smoke 28 1013 42 4000 2.1 180 17:58 23.02.2020
2089 Smoke 28 1013 42 4000 2.6 80 17:39 23.02.2020
2090 Smoke 28 1013 42 4000 2.6 80 17:21 23.02.2020
2091 Smoke 28 1013 42 4000 2.1 310 16:54 23.02.2020
2092 Smoke 28 1012 42 4000 2.6 310 16:36 23.02.2020
2093 Smoke 28 1012 42 4000 2.6 310 16:18 23.02.2020
2094 Smoke 29 1012 37 4000 3.6 300 15:40 23.02.2020
2095 Smoke 29 1012 37 4000 3.6 300 15:21 23.02.2020
2096 Smoke 30 1012 33 4500 3.6 300 14:59 23.02.2020
2097 Smoke 30 1012 27 5000 3.6 300 14:40 23.02.2020
2098 Smoke 31 1012 27 5000 3.6 300 14:22 23.02.2020
2099 Smoke 31 1012 27 5000 3.6 300 14:22 23.02.2020
2100 Smoke 31 1012 25 5000 3.1 310 13:57 23.02.2020
2101 Smoke 32 1012 24 5000 5.1 310 13:39 23.02.2020
2102 Smoke 32 1012 24 5000 5.1 310 13:20 23.02.2020
2103 Smoke 32 1012 22 5000 5.1 300 12:43 23.02.2020
2104 Smoke 33 1011 21 5000 5.7 330 12:23 23.02.2020
2105 Smoke 33 1011 29 5000 4.6 290 11:59 23.02.2020
2106 Smoke 33 1011 30 4500 4.6 290 11:37 23.02.2020
2107 Smoke 34 1011 30 4500 4.6 290 11:19 23.02.2020
2108 Smoke 34 1012 28 4000 5.1 300 10:56 23.02.2020
2109 Smoke 34 1012 28 4000 5.1 300 10:56 23.02.2020
2110 Smoke 33 1012 21 3500 5.7 280 10:37 23.02.2020
2111 Smoke 33 1012 21 3500 5.7 280 10:19 23.02.2020
2112 Smoke 33 1013 38 3000 4.6 270 09:40 23.02.2020
2113 Smoke 32 1013 38 3000 4.6 270 09:21 23.02.2020
2114 Smoke 32 1013 40 3000 4.1 270 08:57 23.02.2020
2115 Smoke 31 1014 40 3000 4.1 240 08:39 23.02.2020
2116 Smoke 32 1014 40 3000 4.1 240 08:19 23.02.2020
2117 Smoke 32 1015 38 2500 4.1 250 07:40 23.02.2020
2118 Smoke 32 1015 38 2500 4.1 250 07:40 23.02.2020
2119 Smoke 31 1016 33 2500 1.5 250 06:54 23.02.2020
2120 Smoke 30 1015 37 2500 1.5 100 05:54 23.02.2020
2121 Smoke 28 1015 45 2200 1.5 0 04:48 23.02.2020
2122 Smoke 24 1014 50 2700 2.1 40 03:35 23.02.2020
2123 Smoke 24 1013 47 2700 1.98 80 02:37 23.02.2020
2124 Smoke 25 1013 53 2700 2.03 51 01:26 23.02.2020
2125 Smoke 25 1013 57 3000 2.07 39 00:49 23.02.2020
2126 Smoke 26 1013 54 3000 2.6 20 00:28 23.02.2020
2127 Smoke 26 1013 57 3000 2.07 39 23:59 22.02.2020
2128 Smoke 26 1013 57 3000 2.07 39 23:40 22.02.2020
2129 Smoke 26 1013 57 3000 1.97 43 23:19 22.02.2020
2130 Smoke 27 1014 51 3000 2.1 310 22:41 22.02.2020
2131 Smoke 27 1014 51 3000 2.1 310 22:19 22.02.2020
2132 Smoke 27 1014 44 3000 1.5 330 21:43 22.02.2020
2133 Smoke 28 1014 42 3000 2.1 180 21:24 22.02.2020
2134 Smoke 29 1014 39 3000 3.1 190 20:49 22.02.2020
2135 Smoke 29 1015 37 3000 2.1 160 20:26 22.02.2020
2136 Smoke 29 1015 39 3000 1.54 85 19:59 22.02.2020
2137 Smoke 28 1015 42 3000 1.5 120 19:41 22.02.2020
2138 Smoke 28 1015 42 3000 1.5 120 19:21 22.02.2020
2139 Smoke 29 1015 37 3000 2.1 150 18:41 22.02.2020
2140 Smoke 29 1015 37 3000 2.1 150 18:22 22.02.2020
2141 Smoke 29 1015 45 3000 1.5 30 17:58 22.02.2020
2142 Smoke 29 1015 45 4000 4.1 50 17:40 22.02.2020
2143 Smoke 29 1015 45 4000 4.1 50 17:22 22.02.2020
2144 Smoke 29 1015 45 4000 3.6 350 16:58 22.02.2020
2145 Smoke 29 1014 45 4000 3.1 330 16:39 22.02.2020
2146 Smoke 29 1014 45 4000 3.1 330 16:20 22.02.2020
2147 Smoke 30 1014 40 4000 2.6 340 15:45 22.02.2020
2148 Smoke 30 1014 40 4000 2.6 340 15:45 22.02.2020
2149 Smoke 30 1013 40 4000 3.6 330 15:26 22.02.2020
2150 Smoke 30 1013 40 4000 3.1 320 14:56 22.02.2020
2151 Smoke 30 1013 35 4000 3.6 300 14:38 22.02.2020
2152 Smoke 31 1013 35 4000 3.6 300 14:19 22.02.2020
2153 Smoke 32 1012 38 4000 3.6 310 13:41 22.02.2020
2154 Smoke 32 1012 38 4000 3.6 310 13:19 22.02.2020
2155 Smoke 31 1013 33 4000 4.6 290 12:47 22.02.2020
2156 Smoke 32 1013 36 4000 4.1 290 12:24 22.02.2020
2157 Smoke 31 1013 35 4000 4.1 300 11:56 22.02.2020
2158 Smoke 31 1013 35 4000 4.1 260 11:37 22.02.2020
2159 Smoke 32 1013 35 4000 4.1 260 11:18 22.02.2020
2160 Smoke 32 1014 46 3000 5.1 260 10:41 22.02.2020
2161 Smoke 32 1014 46 3000 5.1 260 10:20 22.02.2020
2162 Smoke 32 1014 43 3000 4.6 290 09:59 22.02.2020
2163 Smoke 32 1014 43 3000 4.1 280 09:40 22.02.2020
2164 Smoke 32 1014 43 3000 4.1 280 09:21 22.02.2020
2165 Smoke 32 1015 40 3000 3.6 250 08:51 22.02.2020
2166 Smoke 32 1015 41 3000 3.6 290 08:28 22.02.2020
2167 Smoke 32 1016 27 3000 2.6 280 07:54 22.02.2020
2168 Smoke 31 1016 29 3000 2.1 120 07:20 22.02.2020
2169 Smoke 30 1016 33 3000 1.66 321 06:53 22.02.2020
2170 Smoke 30 1017 35 3000 1.66 321 06:34 22.02.2020
2171 Smoke 26 1016 47 3000 1.5 130 04:42 22.02.2020
2172 Smoke 23 1016 50 3000 2.1 30 03:45 22.02.2020
2173 Smoke 24 1015 57 3000 2.1 340 02:33 22.02.2020
2174 Smoke 24 1014 57 3000 2.6 360 01:47 22.02.2020
2175 Smoke 24 1014 57 3000 2.1 330 01:27 22.02.2020
2176 Smoke 24 1014 57 3000 1.5 340 00:46 22.02.2020
2177 Smoke 24 1014 57 3000 2.15 53 00:28 22.02.2020
2178 Smoke 24 1014 57 3000 2.15 53 23:48 21.02.2020
2179 Smoke 25 1014 50 3000 1.5 30 23:24 21.02.2020
2180 Smoke 25 1014 50 3000 2.1 360 22:57 21.02.2020
2181 Smoke 25 1014 53 3000 3.1 20 22:39 21.02.2020
2182 Smoke 26 1015 50 3000 2.1 30 22:20 21.02.2020
2183 Smoke 26 1015 50 3000 2.1 30 21:42 21.02.2020
2184 Smoke 26 1015 50 3000 2.6 360 21:24 21.02.2020
2185 Smoke 26 1016 54 3000 2.1 340 20:56 21.02.2020
2186 Smoke 26 1016 54 3000 2.6 20 20:38 21.02.2020
2187 Smoke 26 1016 54 3000 2.6 20 20:19 21.02.2020
2188 Smoke 27 1016 47 3000 3.1 40 19:39 21.02.2020
2189 Smoke 27 1016 47 3000 3.1 40 19:19 21.02.2020
2190 Smoke 27 1016 42 3000 2.6 20 18:40 21.02.2020
2191 Smoke 27 1016 42 3000 2.6 20 18:22 21.02.2020
2192 Smoke 27 1016 42 3000 2.6 20 18:22 21.02.2020
2193 Smoke 28 1016 45 3000 2.1 30 17:55 21.02.2020
2194 Smoke 28 1016 42 3000 2.6 360 17:36 21.02.2020
2195 Smoke 28 1016 42 3000 2.6 360 17:18 21.02.2020
2196 Smoke 28 1015 45 3000 2.6 320 16:41 21.02.2020
2197 Smoke 28 1015 45 3000 2.6 320 16:21 21.02.2020
2198 Smoke 28 1015 37 3000 2.6 300 15:57 21.02.2020
2199 Smoke 28 1014 32 4000 3.1 290 15:38 21.02.2020
2200 Smoke 28 1014 32 4000 3.1 290 15:18 21.02.2020
2201 Smoke 28 1014 34 4000 4.1 310 14:42 21.02.2020
2202 Smoke 28 1014 37 5000 3.6 310 14:21 21.02.2020
2203 Smoke 29 1013 40 5000 4.6 300 13:45 21.02.2020
2204 Smoke 29 1013 40 5000 4.6 300 13:24 21.02.2020
2205 Smoke 30 1012 42 5000 4.6 300 12:59 21.02.2020
2206 Smoke 30 1012 51 5000 4.1 300 12:40 21.02.2020
2207 Smoke 30 1012 51 5000 4.1 300 12:22 21.02.2020
2208 Smoke 30 1012 48 5000 5.1 330 11:44 21.02.2020
2209 Smoke 31 1012 45 5000 4.6 280 11:23 21.02.2020
2210 Smoke 31 1013 45 5000 5.7 280 10:59 21.02.2020
2211 Smoke 32 1013 40 4000 3.6 310 10:41 21.02.2020
2212 Smoke 32 1013 40 4000 3.6 310 10:19 21.02.2020
2213 Smoke 32 1013 46 4000 5.1 270 09:58 21.02.2020
2214 Smoke 32 1013 55 3500 5.7 250 09:38 21.02.2020
2215 Smoke 31 1013 55 3500 5.7 250 09:38 21.02.2020
2216 Smoke 31 1013 55 3500 5.7 250 09:20 21.02.2020
2217 Smoke 31 1014 55 3500 6.7 240 08:45 21.02.2020
2218 Smoke 31 1014 49 3000 5.1 260 08:22 21.02.2020
2219 Smoke 30 1015 48 3000 5.1 250 07:59 21.02.2020
2220 Smoke 31 1015 31 3000 1.5 30 07:41 21.02.2020
2221 Smoke 31 1015 31 3000 1.5 30 07:20 21.02.2020
2222 Smoke 31 1016 35 3000 1.5 50 06:53 21.02.2020
2223 Smoke 30 1016 40 3000 2.1 350 06:31 21.02.2020
2224 Smoke 28 1016 42 3000 1.5 40 05:52 21.02.2020
2225 Smoke 25 1015 61 2500 2.1 30 04:39 21.02.2020
2226 Smoke 25 1015 61 2500 2.1 30 04:20 21.02.2020
2227 Smoke 24 1014 73 2500 1.5 340 03:42 21.02.2020
2228 Smoke 24 1013 69 2500 2.1 40 02:58 21.02.2020
2229 Smoke 25 1012 65 3000 1.45 62 01:25 21.02.2020
2230 Smoke 25 1012 69 3000 2.1 350 00:46 21.02.2020
2231 Smoke 26 1012 61 3000 2.1 310 00:24 21.02.2020
2232 Haze 26 1012 57 3000 2.1 340 23:46 20.02.2020
2233 Haze 26 1012 65 3000 1.5 340 23:26 20.02.2020
2234 Haze 26 1012 69 3000 2.6 340 22:59 20.02.2020
2235 Haze 26 1012 69 3000 2.1 360 22:39 20.02.2020
2236 Haze 26 1012 69 3000 2.1 360 22:20 20.02.2020
2237 Haze 26 1012 69 3000 2.1 10 21:56 20.02.2020
2238 Haze 26 1013 69 3000 2.1 320 21:37 20.02.2020
2239 Haze 26 1013 69 3000 2.1 320 21:19 20.02.2020
2240 Haze 26 1013 69 3000 2.1 320 21:19 20.02.2020
2241 Haze 26 1013 74 3000 2.1 330 20:55 20.02.2020
2242 Haze 26 1013 74 3000 3.1 340 20:37 20.02.2020
2243 Haze 26 1013 74 3000 3.1 340 20:18 20.02.2020
2244 Haze 26 1013 74 3000 1.5 330 19:58 20.02.2020
2245 Haze 26 1013 74 3000 2.6 360 19:39 20.02.2020
2246 Haze 26 1013 74 3000 2.6 360 19:21 20.02.2020
2247 Smoke 27 1013 61 3000 2.6 320 18:39 20.02.2020
2248 Smoke 27 1013 61 3000 2.6 320 18:39 20.02.2020
2249 Smoke 27 1013 61 3000 2.6 320 18:20 20.02.2020
2250 Smoke 28 1013 61 3000 3.1 310 17:55 20.02.2020
2251 Smoke 28 1013 61 3000 3.1 310 17:36 20.02.2020
2252 Smoke 28 1012 58 3000 2.6 300 17:18 20.02.2020
2253 Smoke 28 1012 58 3000 2.6 300 16:55 20.02.2020
2254 Smoke 28 1012 54 3000 2.6 290 16:37 20.02.2020
2255 Smoke 28 1012 54 3000 2.6 290 16:18 20.02.2020
2256 Smoke 28 1011 54 3000 2.6 290 15:41 20.02.2020
2257 Smoke 28 1011 48 3000 3.6 290 15:21 20.02.2020
2258 Smoke 28 1011 45 4000 4.1 300 14:56 20.02.2020
2259 Smoke 29 1010 42 4000 4.6 290 14:38 20.02.2020
2260 Smoke 29 1010 42 4000 4.6 290 14:20 20.02.2020
2261 Smoke 29 1010 40 4000 4.6 300 13:45 20.02.2020
2262 Smoke 30 1010 35 4000 4.6 310 13:20 20.02.2020
2263 Smoke 30 1010 35 4000 5.1 300 12:58 20.02.2020
2264 Smoke 31 1010 29 4000 5.7 300 12:39 20.02.2020
2265 Smoke 31 1010 29 4000 5.7 300 12:19 20.02.2020
2266 Smoke 31 1010 31 4000 6.2 300 11:54 20.02.2020
2267 Smoke 32 1010 27 4000 5.7 300 11:36 20.02.2020
2268 Smoke 32 1010 27 4000 5.7 300 11:18 20.02.2020
2269 Smoke 33 1010 36 4000 4.6 300 10:42 20.02.2020
2270 Smoke 33 1010 36 4000 4.6 300 10:42 20.02.2020
2271 Smoke 32 1010 36 4000 4.6 300 10:22 20.02.2020
2272 Smoke 32 1011 38 4000 5.1 260 09:55 20.02.2020
2273 Smoke 33 1011 38 4000 4.6 300 09:37 20.02.2020
2274 Smoke 32 1011 38 4000 4.6 300 09:19 20.02.2020
2275 Smoke 33 1013 26 3000 3.1 320 08:40 20.02.2020
2276 Smoke 33 1013 26 3000 3.1 320 08:22 20.02.2020
2277 Smoke 32 1014 31 3000 3.6 320 07:46 20.02.2020
2278 Smoke 32 1014 31 3000 3.6 320 07:26 20.02.2020
2279 Smoke 32 1014 33 2500 3.1 360 06:56 20.02.2020
2280 Smoke 31 1014 37 2500 2.1 40 06:30 20.02.2020
2281 Smoke 30 1014 42 2500 1.5 310 05:47 20.02.2020
2282 Smoke 28 1013 51 2500 1.5 60 05:18 20.02.2020
2283 Smoke 27 1013 54 2500 2.1 150 04:29 20.02.2020
2284 Smoke 24 1012 51 3000 1.91 46 03:40 20.02.2020
2285 Smoke 24 1011 50 3000 1.5 40 02:45 20.02.2020
2286 Smoke 26 1010 54 3000 1.78 75 01:21 20.02.2020
2287 Smoke 27 1010 51 3000 1.5 10 00:35 20.02.2020
2288 Smoke 26 1010 57 3000 1.78 75 23:55 19.02.2020
2289 Smoke 27 1010 51 3000 1.78 75 23:24 19.02.2020
2290 Smoke 27 1010 51 3000 1.28 82 22:56 19.02.2020
2291 Smoke 27 1011 51 3000 1.28 82 22:38 19.02.2020
2292 Smoke 27 1011 51 3000 1.28 82 22:20 19.02.2020
2293 Smoke 27 1011 51 3000 1.5 20 21:56 19.02.2020
2294 Smoke 27 1011 57 3000 1.28 82 21:38 19.02.2020
2295 Smoke 27 1011 57 3000 1.28 82 21:18 19.02.2020
2296 Haze 27 1011 57 3000 1.5 80 20:56 19.02.2020
2297 Haze 28 1012 51 3000 1.5 30 20:37 19.02.2020
2298 Haze 28 1012 51 3000 1.5 30 20:18 19.02.2020
2299 Haze 28 1012 51 3000 3.6 60 19:56 19.02.2020
2300 Haze 28 1012 58 3000 2.6 10 19:37 19.02.2020
2301 Haze 28 1012 58 3000 2.6 10 19:18 19.02.2020
2302 Haze 28 1012 65 3000 3.6 20 18:56 19.02.2020
2303 Haze 28 1012 65 3000 3.6 20 18:56 19.02.2020
2304 Haze 28 1012 61 3000 2.1 10 18:38 19.02.2020
2305 Haze 28 1012 61 3000 2.1 10 18:20 19.02.2020
2306 Haze 28 1012 61 2500 2.1 320 17:43 19.02.2020
2307 Haze 28 1012 61 2500 2.1 320 17:20 19.02.2020
2308 Haze 28 1012 61 2500 2.1 290 16:44 19.02.2020
2309 Haze 28 1011 61 2500 3.1 320 16:20 19.02.2020
2310 Haze 29 1011 62 2500 3.6 310 15:59 19.02.2020
2311 Haze 29 1011 58 3000 3.6 310 15:41 19.02.2020
2312 Haze 29 1011 58 3000 3.6 310 15:23 19.02.2020
2313 Smoke 29 1010 62 4000 3.1 300 14:55 19.02.2020
2314 Smoke 29 1010 55 5000 3.6 290 14:37 19.02.2020
2315 Smoke 31 1010 55 5000 3.6 290 14:18 19.02.2020
2316 Smoke 31 1010 43 4000 3.6 280 13:41 19.02.2020
2317 Smoke 31 1010 43 4000 3.6 280 13:21 19.02.2020
2318 Smoke 32 1009 38 4000 4.6 270 12:42 19.02.2020
2319 Smoke 32 1009 38 4000 4.6 270 12:19 19.02.2020
2320 Smoke 32 1009 38 4000 4.6 270 11:59 19.02.2020
2321 Smoke 32 1010 33 4000 4.6 260 11:37 19.02.2020
2322 Smoke 33 1010 33 4000 4.6 260 11:19 19.02.2020
2323 Smoke 34 1010 30 4000 4.6 260 10:57 19.02.2020
2324 Smoke 33 1011 36 3000 5.1 260 10:38 19.02.2020
2325 Smoke 33 1011 36 3000 5.1 260 10:19 19.02.2020
2326 Smoke 33 1011 36 3000 4.6 270 09:58 19.02.2020
2327 Smoke 33 1012 33 3000 4.1 270 09:37 19.02.2020
2328 Smoke 33 1012 33 3000 4.1 270 09:18 19.02.2020
2329 Smoke 33 1012 33 2500 5.7 250 08:45 19.02.2020
2330 Smoke 32 1013 33 2500 4.6 270 08:24 19.02.2020
2331 Smoke 32 1014 29 2500 1.5 100 07:43 19.02.2020
2332 Smoke 32 1014 29 2500 1.5 100 07:25 19.02.2020
2333 Smoke 32 1014 31 2500 2.6 60 06:53 19.02.2020
2334 Smoke 31 1014 33 2200 2.1 70 06:27 19.02.2020
2335 Smoke 27 1014 48 1500 1.88 62 04:24 19.02.2020
2336 Smoke 26 1013 54 1800 1.5 150 02:56 19.02.2020
2337 Smoke 27 1012 54 2200 1.88 62 02:31 19.02.2020
2338 Smoke 27 1012 61 2200 1.8 76 01:24 19.02.2020
2339 Smoke 26 1012 65 2200 1.8 76 00:51 19.02.2020
2340 Smoke 26 1012 65 2200 1.8 76 00:51 19.02.2020
2341 Smoke 26 1012 65 2200 1.5 80 00:31 19.02.2020
2342 Smoke 26 1012 65 2500 1.8 76 23:44 18.02.2020
2343 Smoke 27 1012 61 2500 2.1 90 23:21 18.02.2020
2344 Smoke 27 1012 57 2500 2.1 80 22:59 18.02.2020
2345 Smoke 27 1012 54 2500 1.5 50 22:41 18.02.2020
2346 Smoke 27 1012 54 2500 1.5 50 22:19 18.02.2020
2347 Smoke 27 1012 54 2500 2.1 110 21:56 18.02.2020
2348 Smoke 28 1013 48 2500 2.1 150 21:38 18.02.2020
2349 Smoke 28 1013 48 2500 2.1 150 21:19 18.02.2020
2350 Smoke 29 1013 45 2500 1.08 81 20:58 18.02.2020
2351 Smoke 29 1013 45 2500 1.08 81 20:38 18.02.2020
2352 Smoke 29 1013 45 2500 0.63 116 20:20 18.02.2020
2353 Smoke 29 1013 48 3000 0.63 116 19:55 18.02.2020
2354 Smoke 30 1014 40 3000 2.1 170 19:36 18.02.2020
2355 Smoke 30 1014 40 3000 2.1 170 19:18 18.02.2020
2356 Smoke 30 1014 40 3500 2.6 140 18:41 18.02.2020
2357 Smoke 30 1014 40 3500 2.6 140 18:21 18.02.2020
2358 Smoke 30 1014 40 3500 2.6 120 17:57 18.02.2020
2359 Smoke 30 1014 42 3500 1.5 90 17:38 18.02.2020
2360 -273 0 0 0 0 0 17:19 18.02.2020
2361 Smoke 30 1013 42 3500 1.5 320 16:40 18.02.2020
2362 Smoke 30 1013 42 3500 1.5 320 16:40 18.02.2020
2363 Smoke 30 1013 42 3500 1.5 320 16:20 18.02.2020
2364 Smoke 31 1013 40 3500 1.5 320 15:42 18.02.2020
2365 Smoke 31 1012 40 3500 2.6 310 15:21 18.02.2020
2366 Smoke 31 1012 40 3500 3.1 300 14:58 18.02.2020
2367 Smoke 31 1012 40 3500 3.1 310 14:40 18.02.2020
2368 Smoke 31 1012 40 3500 3.1 310 14:21 18.02.2020
2369 Smoke 31 1011 40 3500 3.6 310 13:57 18.02.2020
2370 Smoke 32 1011 38 3500 5.7 300 13:38 18.02.2020
2371 Smoke 32 1011 38 3500 5.7 300 13:20 18.02.2020
2372 Smoke 32 1011 33 3500 5.1 300 12:43 18.02.2020
2373 Smoke 33 1011 32 3500 5.7 300 12:24 18.02.2020
2374 Smoke 33 1011 32 3500 5.1 290 11:56 18.02.2020
2375 Smoke 34 1011 26 3500 4.1 280 11:38 18.02.2020
2376 Smoke 34 1011 26 3500 4.1 280 11:19 18.02.2020
2377 Smoke 34 1011 28 3500 4.6 280 10:44 18.02.2020
2378 Smoke 34 1011 28 3500 4.6 280 10:44 18.02.2020
2379 Smoke 34 1012 28 3500 4.6 270 10:22 18.02.2020
2380 Smoke 34 1012 30 3500 4.1 260 09:56 18.02.2020
2381 Smoke 34 1013 32 3500 4.1 290 09:38 18.02.2020
2382 Smoke 34 1013 32 3500 4.1 290 09:19 18.02.2020
2383 Smoke 34 1013 23 3500 2.6 310 08:55 18.02.2020
2384 Smoke 34 1014 26 3500 2.6 140 08:37 18.02.2020
2385 Smoke 34 1014 26 3500 2.6 140 08:19 18.02.2020
2386 Smoke 34 1014 26 3500 3.6 160 07:46 18.02.2020
2387 Smoke 34 1015 28 3500 2.1 140 07:25 18.02.2020
2388 Smoke 34 1015 30 3000 2.1 100 06:51 18.02.2020
2389 Smoke 33 1015 31 3000 2.6 110 06:28 18.02.2020
2390 Smoke 32 1015 35 2500 3.1 110 05:48 18.02.2020
2391 Smoke 31 1014 38 2500 2.1 60 05:20 18.02.2020
2392 Smoke 28 1013 48 2200 1.5 30 03:49 18.02.2020
2393 Smoke 27 1013 51 2500 2.6 110 02:58 18.02.2020
2394 Haze 26 1012 61 2500 1.5 80 01:25 18.02.2020
2395 Haze 26 1012 69 2500 2.6 90 00:40 18.02.2020
2396 Haze 26 1012 69 2500 2.6 90 00:18 18.02.2020
2397 Haze 27 1012 61 2500 1.5 70 23:39 17.02.2020
2398 Haze 27 1012 61 2500 1.5 70 23:19 17.02.2020
2399 Smoke 27 1012 57 2500 2.1 30 22:58 17.02.2020
2400 Smoke 27 1012 57 2500 2.1 210 22:39 17.02.2020
2401 Smoke 27 1012 57 2500 2.1 210 22:18 17.02.2020
2402 Smoke 28 1013 48 3000 2.1 160 21:39 17.02.2020
2403 Smoke 28 1013 48 3000 2.1 160 21:19 17.02.2020
2404 Smoke 28 1013 51 3000 2.6 200 20:55 17.02.2020
2405 Smoke 28 1013 51 3000 2.6 200 20:55 17.02.2020
2406 Smoke 29 1013 45 3000 2.1 170 20:37 17.02.2020
2407 Smoke 29 1013 45 3000 2.1 170 20:37 17.02.2020
2408 Smoke 29 1013 45 3000 2.1 170 20:19 17.02.2020
2409 Smoke 30 1014 40 3000 1.6 69 19:43 17.02.2020
2410 Smoke 30 1013 40 3000 1.6 69 19:43 17.02.2020
2411 Smoke 30 1014 40 3000 1.6 69 19:21 17.02.2020
2412 Smoke 30 1014 40 3000 2.6 210 18:56 17.02.2020
2413 Smoke 31 1014 38 3000 2.1 50 18:36 17.02.2020
2414 Smoke 31 1014 38 3000 2.1 50 18:36 17.02.2020
2415 Smoke 31 1014 38 3000 2.1 50 18:36 17.02.2020
2416 Smoke 31 1014 38 3000 2.1 50 18:18 17.02.2020
2417 Smoke 30 1014 40 3000 3.6 350 17:38 17.02.2020
2418 Smoke 30 1014 40 3000 3.1 340 17:20 17.02.2020
2419 Smoke 30 1014 40 3000 3.1 340 16:59 17.02.2020
2420 Smoke 30 1014 40 3000 3.1 340 16:59 17.02.2020
2421 Smoke 30 1014 40 3000 3.1 340 16:59 17.02.2020
2422 Smoke 30 1013 40 3000 4.1 340 16:40 17.02.2020
2423 Smoke 30 1013 40 3000 4.1 340 16:22 17.02.2020
2424 Smoke 30 1013 42 3000 2.6 330 15:48 17.02.2020
2425 Smoke 30 1013 45 3000 2.6 310 15:29 17.02.2020
2426 Smoke 30 1012 45 3000 2.1 320 15:00 17.02.2020
2427 Smoke 30 1012 55 3000 2.6 310 14:41 17.02.2020
2428 Smoke 31 1012 55 3000 2.6 310 14:22 17.02.2020
2429 Smoke 31 1012 52 3000 4.1 300 13:58 17.02.2020
2430 Smoke 32 1012 46 3000 4.1 290 13:38 17.02.2020
2431 Smoke 32 1012 46 3000 4.1 290 13:19 17.02.2020
2432 Smoke 31 1012 43 3000 4.1 300 12:43 17.02.2020
2433 Smoke 31 1012 46 3000 3.6 300 12:25 17.02.2020
2434 Smoke 32 1012 43 3000 4.1 280 11:58 17.02.2020
2435 Smoke 33 1012 38 3000 4.6 270 11:39 17.02.2020
2436 Smoke 34 1012 38 3000 4.6 270 11:20 17.02.2020
2437 Smoke 33 1012 46 3000 5.1 270 10:55 17.02.2020
2438 Smoke 33 1012 46 3000 6.2 270 10:37 17.02.2020
2439 Smoke 33 1012 46 3000 6.2 270 10:18 17.02.2020
2440 Smoke 34 1013 25 3500 2.6 130 09:41 17.02.2020
2441 Smoke 35 1013 25 3500 2.6 130 09:21 17.02.2020
2442 Smoke 36 1014 26 3000 3.1 120 08:58 17.02.2020
2443 Smoke 35 1014 30 3000 3.1 100 08:40 17.02.2020
2444 Smoke 35 1014 30 3000 3.1 100 08:20 17.02.2020
2445 Smoke 35 1015 30 3000 3.6 110 07:45 17.02.2020
2446 Smoke 34 1015 32 2500 3.6 120 07:24 17.02.2020
2447 Smoke 33 1015 33 2500 2.6 50 06:52 17.02.2020
2448 Smoke 33 1015 33 2500 2.6 50 06:33 17.02.2020
2449 Smoke 31 1015 38 2500 2.6 70 05:58 17.02.2020
2450 Smoke 30 1015 42 2500 2.6 80 05:38 17.02.2020
2451 Smoke 25 1013 64 2200 2.29 56 03:22 17.02.2020
2452 Haze 24 1012 69 3000 2.02 62 01:59 17.02.2020
2453 Haze 25 1012 65 3000 1.94 62 00:51 17.02.2020
2454 Haze 25 1012 61 3000 1.94 62 00:22 17.02.2020
2455 Haze 25 1012 61 3000 1.5 0 23:54 16.02.2020
2456 Haze 26 1012 65 3000 1.5 20 23:33 16.02.2020
2457 Haze 26 1012 65 3000 1.5 10 22:58 16.02.2020
2458 Haze 26 1012 65 3000 1.5 10 22:58 16.02.2020
2459 Haze 26 1012 65 3000 1.5 10 22:39 16.02.2020
2460 Haze 26 1012 65 3000 1.5 10 22:21 16.02.2020
2461 Haze 26 1012 65 3000 1.71 49 21:58 16.02.2020
2462 Haze 26 1013 65 3000 1.71 49 21:40 16.02.2020
2463 Haze 26 1013 65 3000 1.71 49 21:22 16.02.2020
2464 Haze 26 1013 69 3000 1.71 49 20:57 16.02.2020
2465 Haze 27 1013 61 3500 1.71 49 20:39 16.02.2020
2466 Haze 27 1013 61 3500 1.18 75 20:21 16.02.2020
2467 Smoke 27 1014 54 3500 1.5 0 19:58 16.02.2020
2468 Smoke 28 1014 48 3500 2.1 300 19:38 16.02.2020
2469 Smoke 28 1014 48 3500 2.1 20 19:19 16.02.2020
2470 Smoke 28 1014 48 3500 1.5 320 18:44 16.02.2020
2471 Smoke 28 1014 48 3500 1.5 320 18:25 16.02.2020
2472 Smoke 28 1014 45 3500 1.5 0 17:57 16.02.2020
2473 Smoke 27 1014 51 3500 1.5 0 17:39 16.02.2020
2474 Smoke 27 1014 51 3500 1.5 0 17:19 16.02.2020
2475 Smoke 27 1013 51 3000 1.5 340 16:55 16.02.2020
2476 Smoke 27 1013 51 2500 2.1 320 16:36 16.02.2020
2477 Smoke 27 1013 51 2500 2.1 320 16:18 16.02.2020
2478 Smoke 28 1012 48 2500 2.6 320 15:41 16.02.2020
2479 Smoke 28 1012 48 2500 2.6 320 15:22 16.02.2020
2480 Smoke 28 1012 48 2500 3.1 320 14:45 16.02.2020
2481 Smoke 28 1011 48 3000 3.1 300 14:24 16.02.2020
2482 Smoke 29 1011 54 3000 3.1 310 13:59 16.02.2020
2483 Smoke 29 1011 54 3000 4.6 300 13:41 16.02.2020
2484 Smoke 29 1011 54 3000 4.6 300 13:23 16.02.2020
2485 Smoke 30 1011 51 3000 5.7 290 12:40 16.02.2020
2486 Smoke 30 1011 51 3000 5.7 290 12:20 16.02.2020
2487 Smoke 30 1011 48 3000 5.1 290 11:54 16.02.2020
2488 Smoke 30 1011 43 3000 5.1 290 11:36 16.02.2020
2489 Smoke 31 1011 43 3000 5.1 290 11:18 16.02.2020
2490 Smoke 31 1011 45 3000 5.1 280 10:55 16.02.2020
2491 Smoke 31 1011 48 3000 4.6 280 10:37 16.02.2020
2492 Smoke 31 1011 48 3000 4.6 280 10:18 16.02.2020
2493 Smoke 31 1012 40 3000 4.1 290 09:39 16.02.2020
2494 Smoke 30 1012 40 3000 4.1 290 09:20 16.02.2020
2495 Smoke 30 1013 35 3000 4.1 280 08:57 16.02.2020
2496 Smoke 30 1013 35 3000 4.1 280 08:57 16.02.2020
2497 Smoke 31 1013 31 3000 6.47 279 08:39 16.02.2020
2498 Smoke 31 1013 31 3000 0.59 297 08:19 16.02.2020
2499 Smoke 31 1014 31 3000 1.5 90 07:42 16.02.2020
2500 Smoke 30 1015 33 3000 3.1 40 06:58 16.02.2020
2501 Smoke 29 1015 35 2500 3.1 20 06:31 16.02.2020
2502 Smoke 24 1014 41 2500 2.6 140 04:37 16.02.2020
2503 Smoke 23 1013 50 3000 1.5 90 03:22 16.02.2020
2504 Smoke 25 1013 44 3000 1.5 0 02:24 16.02.2020
2505 Smoke 25 1012 50 3000 2.6 10 01:39 16.02.2020
2506 Smoke 25 1012 50 3000 2.6 10 01:20 16.02.2020
2507 Smoke 24 1012 57 3000 2.1 10 00:51 16.02.2020
2508 Smoke 24 1012 60 3000 2.1 10 00:27 16.02.2020
2509 Smoke 24 1012 69 3000 4.1 350 23:44 15.02.2020
2510 Smoke 24 1012 69 3000 4.1 350 23:25 15.02.2020
2511 Smoke 25 1012 65 3000 2.6 330 22:59 15.02.2020
2512 Smoke 25 1013 65 3000 2.6 330 22:40 15.02.2020
2513 Smoke 25 1013 65 3000 2.6 330 22:19 15.02.2020
2514 Smoke 25 1013 61 3000 2.6 310 21:56 15.02.2020
2515 Smoke 26 1013 44 3000 2.1 300 21:37 15.02.2020
2516 Smoke 26 1013 44 3000 2.1 300 21:19 15.02.2020
2517 Smoke 26 1013 34 3000 3.6 260 20:39 15.02.2020
2518 Smoke 26 1013 34 3000 3.6 260 20:20 15.02.2020
2519 Smoke 27 1013 30 3500 2.6 140 19:44 15.02.2020
2520 Smoke 27 1013 28 3500 1.5 120 19:22 15.02.2020
2521 Smoke 27 1013 28 3500 2.1 120 18:44 15.02.2020
2522 Smoke 28 1013 24 3500 2.1 120 18:23 15.02.2020
2523 Smoke 28 1013 23 4000 3.1 30 17:58 15.02.2020
2524 Smoke 27 1013 28 4000 2.1 10 17:38 15.02.2020
2525 Smoke 27 1013 28 4000 2.1 10 17:20 15.02.2020
2526 Smoke 28 1013 26 4000 2.1 10 16:43 15.02.2020
2527 Smoke 28 1013 28 4000 3.1 330 16:24 15.02.2020
2528 Smoke 28 1012 28 4000 3.6 330 15:58 15.02.2020
2529 Smoke 28 1012 30 4000 2.6 330 15:40 15.02.2020
2530 Smoke 28 1012 30 4000 2.6 330 15:40 15.02.2020
2531 Smoke 28 1012 30 4000 2.6 330 15:22 15.02.2020
2532 Smoke 28 1012 34 5000 3.6 320 14:45 15.02.2020
2533 Smoke 29 1011 30 5000 4.6 330 14:19 15.02.2020
2534 Smoke 30 1011 39 5000 4.1 320 13:56 15.02.2020
2535 Smoke 29 1011 39 5000 4.1 320 13:56 15.02.2020
2536 Smoke 30 1011 33 5000 6.7 320 13:38 15.02.2020
2537 Smoke 30 1011 33 5000 6.7 320 13:20 15.02.2020
2538 Smoke 30 1010 33 5000 6.2 310 12:42 15.02.2020
2539 Smoke 30 1010 33 5000 6.2 310 12:23 15.02.2020
2540 Smoke 31 1010 29 4000 5.1 310 11:52 15.02.2020
2541 Smoke 31 1010 29 4000 5.7 310 11:33 15.02.2020
2542 Smoke 32 1011 29 4000 6.7 300 10:57 15.02.2020
2543 Smoke 32 1011 29 4000 6.7 290 10:38 15.02.2020
2544 Smoke 32 1011 29 4000 6.7 290 10:19 15.02.2020
2545 Smoke 32 1011 29 4000 5.7 310 09:43 15.02.2020
2546 Smoke 33 1012 29 4000 4.6 310 09:25 15.02.2020
2547 Smoke 32 1012 27 4000 3.6 310 08:45 15.02.2020
2548 Smoke 32 1013 29 3500 4.6 280 08:26 15.02.2020
2549 Smoke 31 1014 29 3500 3.6 260 07:59 15.02.2020
2550 Smoke 31 1014 29 3500 1.5 0 07:39 15.02.2020
2551 Smoke 31 1014 29 3500 1.5 0 07:18 15.02.2020
2552 Smoke 30 1015 35 2500 1.5 90 06:37 15.02.2020
2553 Smoke 29 1014 34 2500 2.1 50 05:55 15.02.2020
2554 Smoke 27 1014 39 2500 1.5 0 04:48 15.02.2020
2555 Smoke 25 1013 44 2500 1.5 0 03:45 15.02.2020
2556 Smoke 25 1012 41 3500 2.6 10 02:58 15.02.2020
2557 Smoke 26 1012 41 3500 2.1 30 02:23 15.02.2020
2558 Smoke 26 1012 41 4000 1.5 10 01:41 15.02.2020
2559 Smoke 26 1011 41 5000 2.1 0 00:58 15.02.2020
2560 Clear 26 1011 44 6000 1.5 0 00:27 15.02.2020
2561 Clear 26 1012 44 6000 2.1 340 23:44 14.02.2020
2562 Clear 27 1012 44 6000 2.1 340 23:21 14.02.2020
2563 Clear 27 1012 44 6000 2.1 0 22:54 14.02.2020
2564 Clear 27 1012 47 6000 1.5 0 22:36 14.02.2020
2565 Clear 27 1012 47 6000 1.5 0 22:36 14.02.2020
2566 Clear 27 1012 47 6000 1.5 0 22:18 14.02.2020
2567 Clear 28 1012 42 6000 2.1 70 21:40 14.02.2020
2568 Clear 28 1012 42 6000 2.1 70 21:21 14.02.2020
2569 Clear 27 1013 44 6000 1.5 50 20:44 14.02.2020
2570 Clear 28 1013 42 6000 2.6 90 20:20 14.02.2020
2571 Clear 28 1013 39 6000 2.6 130 19:57 14.02.2020
2572 Clear 29 1013 37 6000 1.5 150 19:38 14.02.2020
2573 Clear 29 1013 37 6000 1.5 150 19:19 14.02.2020
2574 Clear 29 1013 35 6000 3.1 350 18:56 14.02.2020
2575 Clear 29 1013 39 6000 3.1 20 18:38 14.02.2020
2576 Clear 29 1013 39 6000 3.1 20 18:18 14.02.2020
2577 Clear 30 1013 37 6000 4.1 50 17:42 14.02.2020
2578 Clear 30 1013 37 6000 4.1 50 17:21 14.02.2020
2579 Clear 29 1013 39 6000 2.1 0 16:57 14.02.2020
2580 Smoke 30 1012 37 5000 2.1 0 16:39 14.02.2020
2581 Smoke 30 1012 37 5000 2.1 0 16:21 14.02.2020
2582 Smoke 30 1012 37 4000 5.7 350 15:56 14.02.2020
2583 Smoke 30 1012 37 4000 5.7 330 15:37 14.02.2020
2584 Smoke 30 1012 37 4000 5.7 330 15:37 14.02.2020
2585 Smoke 30 1012 37 4000 5.7 330 15:37 14.02.2020
2586 Smoke 29 1012 37 4000 5.7 330 15:19 14.02.2020
2587 Smoke 29 1012 37 4000 5.7 330 15:19 14.02.2020
2588 Smoke 29 1011 37 3500 5.7 330 14:56 14.02.2020
2589 Smoke 29 1011 37 3500 5.1 330 14:38 14.02.2020
2590 Smoke 30 1011 37 3500 5.1 330 14:19 14.02.2020
2591 Smoke 31 1010 38 4000 4.6 310 13:40 14.02.2020
2592 Smoke 31 1010 38 4000 4.6 310 13:40 14.02.2020
2593 Smoke 31 1010 38 4000 4.6 310 13:21 14.02.2020
2594 Smoke 32 1010 38 4000 6.2 330 12:58 14.02.2020
2595 Smoke 31 1010 35 4000 6.2 330 12:39 14.02.2020
2596 Smoke 31 1010 35 4000 6.2 330 12:21 14.02.2020
2597 Smoke 31 1010 38 4000 4.6 310 11:58 14.02.2020
2598 Smoke 32 1010 33 4000 6.2 290 11:40 14.02.2020
2599 Smoke 33 1010 33 4000 6.2 290 11:20 14.02.2020
2600 Clear 33 1011 45 6000 4.6 280 10:55 14.02.2020
2601 Smoke 33 1011 31 4000 5.7 300 10:37 14.02.2020
2602 Smoke 33 1011 31 4000 5.7 300 10:19 14.02.2020
2603 Smoke 33 1012 26 4000 1.5 20 09:40 14.02.2020
2604 Smoke 33 1012 26 4000 1.5 20 09:20 14.02.2020
2605 Smoke 33 1014 27 3000 3.1 30 08:43 14.02.2020
2606 Smoke 32 1014 27 3000 3.1 30 08:25 14.02.2020
2607 Smoke 33 1014 29 3000 1.5 40 07:56 14.02.2020
2608 Smoke 33 1015 29 3000 2.6 40 07:38 14.02.2020
2609 Smoke 33 1015 29 3000 2.6 40 07:18 14.02.2020
2610 Smoke 32 1015 31 3000 2.6 70 06:29 14.02.2020
2611 Smoke 30 1015 33 3000 2.1 60 05:47 14.02.2020
2612 Smoke 28 1015 35 3000 3.1 360 04:46 14.02.2020
2613 Smoke 27 1014 39 3000 2.09 38 03:29 14.02.2020
2614 Smoke 25 1013 47 3500 1.5 0 02:30 14.02.2020
2615 Smoke 27 1012 39 3500 2.1 40 01:28 14.02.2020
2616 Smoke 28 1012 39 3500 2.95 59 00:43 14.02.2020
2617 Smoke 28 1012 39 3500 2.95 59 00:43 14.02.2020
2618 Smoke 28 1012 39 3500 2.95 59 00:43 14.02.2020
2619 Smoke 28 1013 39 3500 2.95 59 00:23 14.02.2020
2620 Smoke 27 1013 44 3500 2.95 59 23:45 13.02.2020
2621 Smoke 28 1013 39 3500 3.47 35 23:22 13.02.2020
2622 Smoke 28 1013 42 3500 1.5 290 22:44 13.02.2020
2623 Smoke 29 1013 35 3500 1.5 340 22:20 13.02.2020
2624 Smoke 29 1013 35 3500 1.5 340 22:20 13.02.2020
2625 Smoke 29 1013 35 3500 3.47 35 21:59 13.02.2020
2626 Smoke 29 1014 37 3500 1.5 20 21:41 13.02.2020
2627 Smoke 29 1014 37 3500 1.5 20 21:22 13.02.2020
2628 Smoke 28 1014 42 3500 3.47 35 20:58 13.02.2020
2629 Smoke 29 1014 37 3500 2.6 20 20:39 13.02.2020
2630 Smoke 29 1014 37 3500 2.6 20 20:21 13.02.2020
2631 Smoke 29 1014 39 3500 3.6 30 19:56 13.02.2020
2632 Smoke 29 1015 42 3000 2.6 10 19:37 13.02.2020
2633 Smoke 29 1015 42 3000 2.6 10 19:19 13.02.2020
2634 Smoke 29 1015 51 3000 3.1 360 18:44 13.02.2020
2635 Smoke 29 1015 48 3000 2.6 40 18:44 13.02.2020
2636 Smoke 29 1015 51 3000 3.1 360 18:24 13.02.2020
2637 Smoke 29 1015 51 3000 3.1 360 18:24 13.02.2020
2638 Smoke 30 1014 45 3000 2.6 350 17:59 13.02.2020
2639 Smoke 29 1014 51 3500 2.6 60 17:40 13.02.2020
2640 Smoke 29 1014 51 3500 2.6 60 17:21 13.02.2020
2641 Smoke 29 1014 51 3500 2.6 60 17:21 13.02.2020
2642 Smoke 30 1014 45 3500 2.6 340 16:58 13.02.2020
2643 Smoke 30 1014 42 3500 2.1 350 16:40 13.02.2020
2644 Smoke 30 1014 42 3500 2.1 350 16:19 13.02.2020
2645 Smoke 30 1014 42 3500 2.1 350 16:19 13.02.2020
2646 Smoke 31 1013 38 3500 3.6 340 15:56 13.02.2020
2647 Smoke 31 1013 40 3500 3.1 330 15:38 13.02.2020
2648 Smoke 31 1013 40 3500 3.1 330 15:19 13.02.2020
2649 Smoke 31 1013 38 4000 4.1 320 14:57 13.02.2020
2650 Smoke 31 1012 38 4000 3.6 320 14:38 13.02.2020
2651 Smoke 31 1012 38 4000 3.6 320 14:20 13.02.2020
2652 Smoke 31 1012 35 4000 5.7 340 13:48 13.02.2020
2653 Smoke 32 1012 38 4000 4.1 310 13:19 13.02.2020
2654 Smoke 31 1012 42 4000 4.6 330 12:56 13.02.2020
2655 Smoke 31 1012 42 4000 4.6 330 12:56 13.02.2020
2656 Smoke 31 1012 43 4000 5.1 330 12:37 13.02.2020
2657 Smoke 31 1012 43 4000 5.1 330 12:37 13.02.2020
2658 Smoke 31 1012 43 4000 5.1 330 12:19 13.02.2020
2659 Smoke 31 1012 43 4000 4.1 310 11:45 13.02.2020
2660 Smoke 32 1012 35 4000 4.1 270 11:20 13.02.2020
2661 Smoke 33 1013 35 4000 3.6 280 10:55 13.02.2020
2662 Smoke 32 1014 38 4000 2.1 0 10:37 13.02.2020
2663 Smoke 32 1014 38 4000 2.1 0 10:19 13.02.2020
2664 Smoke 34 1015 29 3500 2.6 130 09:41 13.02.2020
2665 Smoke 34 1015 29 3500 2.6 130 09:22 13.02.2020
2666 Smoke 34 1016 33 3500 1.5 130 08:42 13.02.2020
2667 Smoke 33 1016 36 3000 2.6 100 08:19 13.02.2020
2668 Smoke 33 1016 36 3000 2.6 100 08:19 13.02.2020
2669 Smoke 32 1017 40 2500 3.6 90 07:41 13.02.2020
2670 Smoke 31 1018 48 2500 3.1 90 07:22 13.02.2020
2671 Smoke 31 1017 40 2500 3.6 90 07:22 13.02.2020
2672 Smoke 30 1018 48 2500 2.6 120 06:49 13.02.2020
2673 Smoke 30 1018 48 2500 2.6 120 06:29 13.02.2020
2674 Smoke 29 1017 54 2500 2.6 120 05:37 13.02.2020
2675 Smoke 28 1016 51 2500 2.6 70 04:28 13.02.2020
2676 Smoke 28 1016 51 2500 3.1 60 03:52 13.02.2020
2677 Haze 27 1016 57 2500 2.6 110 03:26 13.02.2020
2678 Haze 27 1015 61 2500 2.6 130 02:53 13.02.2020
2679 Haze 26 1015 65 3000 2.1 130 02:19 13.02.2020
2680 Haze 26 1014 65 3000 1.5 130 01:36 13.02.2020
2681 Haze 26 1014 65 3000 2.43 68 00:43 13.02.2020
2682 Haze 27 1014 61 3000 1.5 0 00:22 13.02.2020
2683 Smoke 27 1014 61 3000 2.1 150 23:41 12.02.2020
2684 Smoke 27 1014 61 3000 2.1 150 23:22 12.02.2020
2685 Smoke 27 1015 61 3000 2.32 43 22:54 12.02.2020
2686 Smoke 27 1015 61 3000 2.32 43 22:36 12.02.2020
2687 Smoke 27 1015 61 3000 2.32 43 22:18 12.02.2020
2688 Smoke 28 1015 54 3000 2.6 140 21:40 12.02.2020
2689 Smoke 28 1015 54 3000 2.6 140 21:20 12.02.2020
2690 Smoke 29 1015 51 3000 2.1 150 20:59 12.02.2020
2691 Smoke 29 1016 48 3000 2.6 140 20:41 12.02.2020
2692 Smoke 29 1016 48 3000 2.6 140 20:41 12.02.2020
2693 Smoke 29 1016 48 3000 2.6 140 20:22 12.02.2020
2694 Smoke 30 1015 45 3000 2.6 80 19:56 12.02.2020
2695 Smoke 29 1016 51 3000 2.6 360 19:37 12.02.2020
2696 Smoke 29 1016 51 3000 2.6 360 19:19 12.02.2020
2697 Smoke 29 1016 51 3000 3.6 30 18:47 12.02.2020
2698 Smoke 29 1016 54 3000 2.6 10 18:19 12.02.2020
2699 Smoke 30 1015 48 3000 3.1 20 17:56 12.02.2020
2700 Smoke 30 1015 51 3000 3.6 340 17:37 12.02.2020
2701 Smoke 30 1015 51 3000 3.6 340 17:37 12.02.2020
2702 Smoke 30 1015 51 3000 3.6 340 17:19 12.02.2020
2703 Smoke 29 1015 54 3000 3.1 350 16:40 12.02.2020
2704 Smoke 29 1015 54 3000 3.1 350 16:20 12.02.2020
2705 Smoke 31 1014 48 3000 3.6 40 15:57 12.02.2020
2706 Smoke 31 1014 45 3000 3.6 360 15:36 12.02.2020
2707 Smoke 31 1014 45 3000 3.6 360 15:36 12.02.2020
2708 Smoke 31 1014 45 3000 3.6 360 15:18 12.02.2020
2709 Smoke 31 1014 43 3000 3.1 300 14:42 12.02.2020
2710 Smoke 31 1014 43 3000 3.1 300 14:42 12.02.2020
2711 Smoke 31 1014 43 3000 3.1 300 14:21 12.02.2020
2712 Smoke 31 1014 45 3000 2.6 310 13:58 12.02.2020
2713 Smoke 31 1014 45 3000 3.1 300 13:40 12.02.2020
2714 Smoke 31 1014 45 3000 3.1 300 13:21 12.02.2020
2715 Smoke 31 1014 48 3000 3.6 280 12:57 12.02.2020
2716 Smoke 31 1014 48 3000 3.6 280 12:57 12.02.2020
2717 Smoke 31 1014 45 3000 4.1 300 12:38 12.02.2020
2718 Smoke 31 1014 48 3000 4.6 270 12:18 12.02.2020
2719 Smoke 31 1014 48 3000 4.6 270 11:58 12.02.2020
2720 Smoke 31 1014 48 3000 4.1 300 11:39 12.02.2020
2721 Smoke 31 1014 48 3000 4.1 300 11:20 12.02.2020
2722 Smoke 31 1014 48 3000 4.1 300 11:20 12.02.2020
2723 Smoke 31 1014 48 3000 5.7 260 10:56 12.02.2020
2724 Smoke 31 1015 45 3000 4.6 280 10:38 12.02.2020
2725 Smoke 31 1015 45 3000 4.6 280 10:19 12.02.2020
2726 Smoke 31 1015 48 3000 3.6 270 09:42 12.02.2020
2727 Smoke 32 1015 38 3500 2.1 0 09:24 12.02.2020
2728 Smoke 32 1015 38 3500 2.1 0 09:24 12.02.2020
2729 Smoke 32 1016 40 3500 2.6 50 08:58 12.02.2020
2730 Smoke 31 1016 43 3500 2.1 0 08:38 12.02.2020
2731 Smoke 31 1016 43 3500 2.1 0 08:20 12.02.2020
2732 Smoke 31 1016 43 3500 2.1 0 08:20 12.02.2020
2733 Smoke 31 1016 43 3500 2.1 0 08:20 12.02.2020
2734 Smoke 31 1016 43 3500 2.1 0 08:20 12.02.2020
2735 Smoke 32 1017 46 3000 2.52 103 07:45 12.02.2020
2736 Smoke 32 1017 46 3000 2.52 103 07:45 12.02.2020
2737 Smoke 31 1017 45 3000 2.1 50 07:24 12.02.2020
2738 Smoke 32 1017 45 3000 2.6 80 06:59 12.02.2020
2739 Smoke 32 1017 45 3000 2.6 80 06:59 12.02.2020
2740 Smoke 31 1017 45 3000 3.1 70 06:24 12.02.2020
2741 Smoke 31 1017 48 3000 2.1 70 05:44 12.02.2020
2742 Smoke 29 1017 48 4000 3.6 70 05:21 12.02.2020
2743 Smoke 28 1016 51 2500 4.6 60 04:41 12.02.2020
2744 Smoke 27 1015 54 2500 3.6 80 03:43 12.02.2020
2745 Smoke 27 1015 54 2500 3.6 70 03:24 12.02.2020
2746 Smoke 27 1014 54 3000 4.1 50 02:41 12.02.2020
2747 Smoke 27 1014 54 3000 4.1 50 02:21 12.02.2020
2748 Smoke 27 1013 57 3000 1.5 60 01:27 12.02.2020
2749 Smoke 28 1013 54 3000 3.1 50 00:40 12.02.2020
2750 Smoke 28 1013 54 3000 3.1 50 00:21 12.02.2020
2751 Smoke 28 1013 54 3000 2.6 50 23:47 11.02.2020
2752 Haze 27 1013 57 3000 3.17 52 23:29 11.02.2020
2753 Haze 27 1013 57 3000 3.34 34 22:56 11.02.2020
2754 Haze 28 1013 54 3000 3.34 34 22:38 11.02.2020
2755 Haze 28 1013 54 3000 3.34 34 22:20 11.02.2020
2756 Haze 28 1014 58 3000 1.5 40 21:56 11.02.2020
2757 Haze 28 1014 58 3500 1.5 100 21:38 11.02.2020
2758 Haze 28 1014 58 3500 1.5 100 21:18 11.02.2020
2759 Smoke 29 1014 54 3500 1.5 0 20:57 11.02.2020
2760 Smoke 29 1014 51 3500 1.5 0 20:38 11.02.2020
2761 Smoke 29 1014 51 3500 1.5 0 20:19 11.02.2020
2762 Smoke 29 1014 51 3500 1.5 0 20:19 11.02.2020
2763 Smoke 29 1014 51 3500 1.5 60 19:54 11.02.2020
2764 Smoke 29 1014 51 3500 1.53 50 19:36 11.02.2020
2765 Smoke 29 1014 51 3500 1.53 50 19:18 11.02.2020
2766 Smoke 29 1014 48 3500 2.1 90 18:43 11.02.2020
2767 Smoke 30 1014 48 3500 3.1 50 18:25 11.02.2020
2768 Smoke 29 1014 51 3000 2.6 40 17:55 11.02.2020
2769 Smoke 29 1014 54 3000 2.1 10 17:37 11.02.2020
2770 Smoke 30 1014 54 3000 2.1 10 17:18 11.02.2020
2771 Smoke 30 1014 54 3000 3.1 20 16:58 11.02.2020
2772 Smoke 30 1013 54 3000 3.6 360 16:38 11.02.2020
2773 Smoke 30 1013 54 3000 3.6 360 16:20 11.02.2020
2774 Smoke 29 1013 51 3000 3.1 340 15:48 11.02.2020
2775 Smoke 29 1013 51 3000 3.1 340 15:29 11.02.2020
2776 Smoke 30 1012 51 3500 2.1 310 14:59 11.02.2020
2777 Smoke 30 1012 51 3500 3.1 300 14:41 11.02.2020
2778 Smoke 30 1012 51 3500 3.1 300 14:19 11.02.2020
2779 Smoke 30 1012 48 4000 3.1 310 13:42 11.02.2020
2780 Smoke 31 1012 45 4000 4.1 310 13:23 11.02.2020
2781 Smoke 31 1012 45 4000 4.6 280 12:59 11.02.2020
2782 Smoke 31 1012 45 4000 3.6 300 12:41 11.02.2020
2783 Smoke 31 1012 45 4000 3.6 300 12:21 11.02.2020
2784 Smoke 31 1012 45 4000 3.6 300 11:57 11.02.2020
2785 Smoke 32 1012 46 4000 4.1 280 11:39 11.02.2020
2786 Smoke 32 1012 46 4000 4.1 280 11:19 11.02.2020
2787 Smoke 33 1013 38 4000 4.6 260 10:40 11.02.2020
2788 -273 0 0 0 0 0 10:21 11.02.2020
2789 Smoke 33 1013 38 4000 1 190 09:58 11.02.2020
2790 Smoke 32 1014 38 3000 3.6 120 09:40 11.02.2020
2791 Smoke 32 1014 38 3000 3.6 120 09:21 11.02.2020
2792 Smoke 33 1014 41 3000 2.6 100 08:49 11.02.2020
2793 Smoke 32 1015 43 2500 2.1 100 08:25 11.02.2020
2794 Smoke 32 1015 43 2500 2.1 100 08:25 11.02.2020
2795 Smoke 31 1015 48 2500 3.1 140 07:55 11.02.2020
2796 Smoke 31 1016 48 2500 1.5 120 07:34 11.02.2020
2797 Smoke 30 1016 51 2500 2.1 100 06:58 11.02.2020
2798 Smoke 30 1016 51 2500 2.1 100 06:58 11.02.2020
2799 Smoke 30 1016 54 2500 2.6 110 06:38 11.02.2020
2800 Smoke 30 1016 54 2500 2.6 110 06:38 11.02.2020
2801 Smoke 30 1016 54 2500 2.6 110 06:20 11.02.2020
2802 Smoke 29 1015 54 2500 3.1 60 05:41 11.02.2020
2803 Smoke 28 1015 54 2500 3.1 60 05:20 11.02.2020
2804 Haze 26 1014 61 2500 1.92 56 04:18 11.02.2020
2805 Haze 26 1012 61 3000 2.6 110 02:38 11.02.2020
2806 Haze 25 1012 65 3000 2.1 130 01:53 11.02.2020
2807 Haze 26 1011 61 4000 2.6 120 01:30 11.02.2020
2808 Haze 26 1011 61 4000 3.1 80 00:26 11.02.2020
2809 Haze 26 1011 61 4000 2.6 80 23:48 10.02.2020
2810 Smoke 26 1011 61 4000 2.1 80 23:30 10.02.2020
2811 Smoke 26 1011 61 4000 1.5 70 22:57 10.02.2020
2812 Smoke 27 1011 57 4000 2.1 50 22:37 10.02.2020
2813 Smoke 27 1011 57 4000 2.1 50 22:19 10.02.2020
2814 Smoke 27 1012 57 4000 2.1 30 21:41 10.02.2020
2815 Smoke 27 1012 57 4000 2.1 30 21:23 10.02.2020
2816 Smoke 28 1012 51 4000 2.6 40 20:56 10.02.2020
2817 Smoke 28 1012 51 4000 2.6 140 20:38 10.02.2020
2818 Smoke 28 1012 51 4000 2.6 140 20:38 10.02.2020
2819 Smoke 28 1012 51 4000 2.6 140 20:19 10.02.2020
2820 Smoke 28 1012 51 4000 2.6 120 19:58 10.02.2020
2821 Smoke 28 1012 51 4000 2.1 100 19:37 10.02.2020
2822 Smoke 28 1012 51 4000 2.1 100 19:18 10.02.2020
2823 Smoke 29 1012 48 3500 1.5 160 18:58 10.02.2020
2824 Smoke 28 1013 51 3500 1.5 70 18:38 10.02.2020
2825 Smoke 28 1013 51 3500 1.5 70 18:20 10.02.2020
2826 Smoke 28 1013 51 3500 1.5 70 18:20 10.02.2020
2827 Smoke 29 1013 45 3000 2.6 50 17:55 10.02.2020
2828 Smoke 29 1013 45 3000 5.1 30 17:37 10.02.2020
2829 Smoke 30 1013 45 3000 5.1 30 17:18 10.02.2020
2830 Smoke 30 1013 45 3000 5.1 30 17:18 10.02.2020
2831 Smoke 29 1012 48 3000 4.6 360 16:56 10.02.2020
2832 Smoke 29 1012 48 3000 4.1 20 16:38 10.02.2020
2833 Smoke 29 1012 48 3000 4.1 20 16:18 10.02.2020
2834 Smoke 29 1011 48 3000 3.6 350 15:42 10.02.2020
2835 Smoke 29 1011 48 3000 3.6 350 15:22 10.02.2020
2836 Smoke 29 1011 45 3500 4.6 350 14:59 10.02.2020
2837 Smoke 29 1011 45 3500 4.1 330 14:41 10.02.2020
2838 Smoke 30 1011 45 3500 4.1 330 14:19 10.02.2020
2839 Smoke 31 1011 45 3500 3.6 330 13:56 10.02.2020
2840 Smoke 31 1011 48 4000 3.6 310 13:37 10.02.2020
2841 Smoke 31 1011 48 4000 4.6 320 13:18 10.02.2020
2842 Smoke 31 1011 48 4000 4.6 320 12:43 10.02.2020
2843 Smoke 32 1011 46 4000 4.1 300 12:24 10.02.2020
2844 Smoke 32 1011 46 4000 5.1 290 11:55 10.02.2020
2845 Smoke 32 1011 43 4000 4.1 290 11:36 10.02.2020
2846 Smoke 32 1011 43 4000 4.1 290 11:18 10.02.2020
2847 Smoke 31 1012 43 4000 3.6 310 10:44 10.02.2020
2848 Smoke 31 1012 45 4000 5.1 290 10:26 10.02.2020
2849 Smoke 31 1012 55 4000 5.1 270 09:45 10.02.2020
2850 Smoke 31 1013 36 4000 2.6 290 09:24 10.02.2020
2851 Smoke 32 1014 40 4000 3.1 130 08:45 10.02.2020
2852 Smoke 32 1014 40 4000 3.1 130 08:22 10.02.2020
2853 Smoke 32 1015 40 4000 2.6 110 07:58 10.02.2020
2854 Smoke 31 1015 45 3500 4.1 90 07:38 10.02.2020
2855 Smoke 30 1015 48 3000 4.6 70 06:59 10.02.2020
2856 Smoke 29 1015 51 2500 3.6 60 05:52 10.02.2020
2857 Smoke 25 1014 53 2500 4.1 70 04:26 10.02.2020
2858 Smoke 25 1013 50 3000 3.6 70 03:31 10.02.2020
2859 Smoke 25 1013 50 3000 4.1 80 02:54 10.02.2020
2860 Smoke 25 1012 47 3000 3.6 60 01:36 10.02.2020
2861 Smoke 25 1012 47 3000 3.1 60 00:48 10.02.2020
2862 Smoke 25 1012 47 3000 4.1 70 00:28 10.02.2020
2863 Smoke 25 1012 44 3000 4.1 70 23:45 09.02.2020
2864 Smoke 25 1012 44 3000 4.6 70 23:26 09.02.2020
2865 Smoke 25 1012 44 3000 4.6 70 22:59 09.02.2020
2866 Smoke 26 1012 41 3000 4.1 70 22:39 09.02.2020
2867 Smoke 26 1012 41 3000 4.1 70 22:19 09.02.2020
2868 Smoke 26 1012 44 3000 3.1 40 21:42 09.02.2020
2869 Smoke 26 1012 44 3000 3.1 40 21:23 09.02.2020
2870 Smoke 27 1013 44 3000 3.1 80 20:48 09.02.2020
2871 Smoke 27 1013 44 3000 3.1 80 20:23 09.02.2020
2872 Smoke 27 1013 47 3000 1.17 51 19:58 09.02.2020
2873 Smoke 27 1013 47 3000 1.5 0 19:39 09.02.2020
2874 Smoke 27 1013 47 3000 1.5 0 19:20 09.02.2020
2875 Smoke 26 1013 50 3000 1.5 0 18:56 09.02.2020
2876 Smoke 26 1014 54 3000 3.1 360 18:36 09.02.2020
2877 Smoke 26 1014 54 3000 3.1 360 18:18 09.02.2020
2878 Smoke 27 1014 51 3000 3.6 350 17:40 09.02.2020
2879 Smoke 28 1014 51 3000 3.6 350 17:22 09.02.2020
2880 Smoke 28 1014 51 3000 3.6 350 17:21 09.02.2020
2881 Smoke 27 1014 54 3000 2.6 350 16:44 09.02.2020
2882 Smoke 27 1014 54 3000 2.6 350 16:25 09.02.2020
2883 Smoke 27 1013 51 3500 4.6 360 15:59 09.02.2020
2884 Smoke 27 1013 51 3500 4.6 340 15:41 09.02.2020
2885 Smoke 27 1013 51 3500 4.6 340 15:22 09.02.2020
2886 Smoke 27 1013 45 4000 5.1 350 14:57 09.02.2020
2887 Smoke 27 1012 48 4000 3.1 330 14:39 09.02.2020
2888 Smoke 27 1012 48 4000 3.1 330 14:39 09.02.2020
2889 Smoke 28 1012 48 4000 3.1 330 14:21 09.02.2020
2890 Smoke 28 1012 45 4000 3.6 330 13:44 09.02.2020
2891 Smoke 29 1012 48 4000 4.1 320 13:26 09.02.2020
2892 Smoke 29 1012 48 3500 4.1 300 12:57 09.02.2020
2893 Smoke 30 1012 45 3500 5.1 320 12:38 09.02.2020
2894 Smoke 29 1012 45 3500 5.1 320 12:19 09.02.2020
2895 Smoke 30 1012 33 4000 2.1 350 11:41 09.02.2020
2896 Smoke 30 1012 33 4000 2.1 350 11:22 09.02.2020
2897 Smoke 31 1012 33 4000 3.6 20 10:59 09.02.2020
2898 Smoke 31 1013 33 4000 4.6 40 10:41 09.02.2020
2899 Smoke 31 1013 33 4000 4.6 40 10:21 09.02.2020
2900 Smoke 31 1013 33 3500 3.1 50 09:46 09.02.2020
2901 Smoke 31 1014 35 3500 4.6 100 09:27 09.02.2020
2902 Smoke 31 1015 33 3500 5.7 120 08:45 09.02.2020
2903 Smoke 31 1015 33 3500 5.7 120 08:27 09.02.2020
2904 Smoke 30 1015 33 3000 5.7 90 07:59 09.02.2020
2905 Smoke 29 1016 37 2500 6.7 100 07:41 09.02.2020
2906 Smoke 28 1017 42 2500 5.7 100 06:48 09.02.2020
2907 Smoke 28 1017 42 2500 5.7 100 06:29 09.02.2020
2908 Smoke 27 1016 47 2500 5.7 90 05:43 09.02.2020
2909 Smoke 26 1016 47 2500 5.1 100 05:19 09.02.2020
2910 Smoke 23 1015 53 2500 3.6 50 03:53 09.02.2020
2911 Smoke 24 1015 50 3000 5.1 80 02:46 09.02.2020
2912 Smoke 24 1014 50 3000 5.7 70 02:26 09.02.2020
2913 Smoke 24 1014 50 3000 4.1 70 01:35 09.02.2020
2914 Smoke 24 1013 53 3000 5.7 80 00:47 09.02.2020
2915 Smoke 24 1013 53 3000 4.6 70 00:25 09.02.2020
2916 Smoke 24 1013 53 3000 4.1 70 23:44 08.02.2020
2917 Smoke 25 1013 47 3000 4.1 70 23:22 08.02.2020
2918 Smoke 25 1013 47 3000 3.6 90 22:43 08.02.2020
2919 Smoke 25 1013 47 3000 3.6 80 22:22 08.02.2020
2920 Smoke 25 1013 47 3000 4.6 80 21:59 08.02.2020
2921 Smoke 25 1013 47 3000 4.1 80 21:40 08.02.2020
2922 Smoke 25 1013 47 3000 4.1 80 21:40 08.02.2020
2923 Smoke 25 1013 47 3000 4.1 80 21:21 08.02.2020
2924 Smoke 26 1013 44 3000 4.6 50 20:57 08.02.2020
2925 Smoke 26 1014 44 3000 4.6 50 20:38 08.02.2020
2926 Smoke 26 1014 44 3000 4.6 50 20:19 08.02.2020
2927 Smoke 26 1014 44 3000 4.1 40 19:55 08.02.2020
2928 Smoke 26 1014 44 3000 2.1 70 19:37 08.02.2020
2929 Smoke 26 1014 44 3000 2.1 70 19:19 08.02.2020
2930 Smoke 25 1014 50 3000 1.5 10 18:43 08.02.2020
2931 Smoke 25 1014 50 3000 1.5 10 18:43 08.02.2020
2932 Smoke 25 1015 50 3000 3.1 50 18:24 08.02.2020
2933 Smoke 25 1015 50 3000 3.1 340 17:44 08.02.2020
2934 Smoke 25 1015 53 3000 1.5 40 17:22 08.02.2020
2935 Smoke 25 1014 53 3000 3.6 350 16:59 08.02.2020
2936 Smoke 26 1014 50 3000 4.6 340 16:40 08.02.2020
2937 Smoke 26 1014 50 3000 4.6 340 16:21 08.02.2020
2938 Smoke 26 1014 50 3000 5.7 350 15:43 08.02.2020
2939 Smoke 26 1013 54 3000 6.7 330 15:19 08.02.2020
2940 Smoke 26 1013 50 3000 5.7 330 14:59 08.02.2020
2941 Smoke 26 1013 42 3000 6.2 330 14:41 08.02.2020
2942 Smoke 27 1013 42 3000 6.2 330 14:19 08.02.2020
2943 Smoke 28 1013 39 3000 5.1 330 13:43 08.02.2020
2944 Smoke 28 1012 45 3000 6.2 320 13:23 08.02.2020
2945 Smoke 28 1012 45 3000 6.2 320 12:57 08.02.2020
2946 Smoke 28 1012 51 3000 6.2 310 12:38 08.02.2020
2947 Smoke 28 1012 51 3000 6.2 310 12:38 08.02.2020
2948 Smoke 28 1012 51 3000 6.2 310 12:19 08.02.2020
2949 Smoke 28 1012 45 3000 5.7 320 11:43 08.02.2020
2950 Smoke 28 1012 45 3000 5.7 320 11:22 08.02.2020
2951 Smoke 29 1013 48 3000 5.7 290 10:57 08.02.2020
2952 Smoke 29 1013 48 3000 5.1 310 10:39 08.02.2020
2953 Smoke 29 1013 48 3000 5.1 310 10:20 08.02.2020
2954 Smoke 29 1013 51 3000 6.2 300 09:50 08.02.2020
2955 Smoke 29 1014 45 3000 4.6 280 09:24 08.02.2020
2956 Smoke 28 1014 37 3000 2.1 110 08:47 08.02.2020
2957 Smoke 29 1015 37 3000 3.1 60 08:27 08.02.2020
2958 Smoke 28 1016 39 2500 3.6 70 07:53 08.02.2020
2959 Smoke 28 1016 39 2500 2.6 60 07:34 08.02.2020
2960 Smoke 27 1016 44 2500 3.6 60 06:55 08.02.2020
2961 Smoke 26 1016 44 2500 3.1 50 06:22 08.02.2020
2962 Smoke 25 1016 50 2500 2.1 40 05:37 08.02.2020
2963 Smoke 24 1016 50 2500 2.1 40 05:18 08.02.2020
2964 Smoke 22 1015 56 2200 2.1 30 04:26 08.02.2020
2965 Haze 21 1015 64 2200 3.1 40 03:39 08.02.2020
2966 Haze 21 1014 64 2500 4.1 60 02:43 08.02.2020
2967 Haze 21 1013 73 3000 2.6 90 01:35 08.02.2020
2968 Haze 22 1013 68 3000 2.1 150 00:57 08.02.2020
2969 Haze 22 1013 68 3000 1.71 78 00:37 08.02.2020
2970 Haze 22 1013 68 3000 1.71 78 00:18 08.02.2020
2971 Haze 22 1013 64 3000 2.1 160 23:41 07.02.2020
2972 Haze 22 1013 64 3000 2.1 160 23:20 07.02.2020
2973 Haze 22 1013 64 3000 2.1 120 22:55 07.02.2020
2974 Haze 23 1014 64 3000 1.5 90 22:37 07.02.2020
2975 Haze 23 1014 64 3000 1.5 90 22:18 07.02.2020
2976 Haze 22 1014 68 3000 1.5 10 21:41 07.02.2020
2977 Haze 22 1014 68 3000 1.5 10 21:21 07.02.2020
2978 Smoke 23 1015 64 3000 2.6 360 20:41 07.02.2020
2979 Smoke 23 1015 64 3000 2.6 360 20:22 07.02.2020
2980 Smoke 23 1015 64 3000 2.6 40 19:57 07.02.2020
2981 Smoke 23 1015 64 3000 2.6 60 19:38 07.02.2020
2982 Smoke 23 1015 64 3000 2.6 60 19:19 07.02.2020
2983 Smoke 24 1016 57 3000 3.1 40 18:46 07.02.2020
2984 Smoke 24 1016 57 3000 3.1 40 18:27 07.02.2020
2985 Smoke 23 1016 60 3000 3.1 300 17:57 07.02.2020
2986 Smoke 24 1015 57 3000 2.6 350 17:39 07.02.2020
2987 Smoke 24 1015 57 3000 2.6 350 17:21 07.02.2020
2988 Smoke 24 1015 57 3000 3.1 320 16:52 07.02.2020
2989 Smoke 24 1015 57 3000 3.1 320 16:52 07.02.2020
2990 Smoke 23 1015 60 4000 2.6 320 16:25 07.02.2020
2991 Smoke 23 1014 60 4000 3.1 310 15:56 07.02.2020
2992 Smoke 24 1014 53 4000 4.6 320 15:38 07.02.2020
2993 Smoke 24 1014 53 4000 4.6 320 15:20 07.02.2020
2994 Smoke 25 1013 47 4000 3.1 320 14:42 07.02.2020
2995 Smoke 26 1013 47 4000 3.1 320 14:24 07.02.2020
2996 Smoke 26 1013 41 5000 4.1 300 13:57 07.02.2020
2997 Smoke 27 1013 39 5000 5.1 310 13:39 07.02.2020
2998 Smoke 26 1013 39 5000 5.1 310 13:20 07.02.2020
2999 Smoke 27 1013 34 5000 6.2 310 12:45 07.02.2020
3000 Smoke 27 1013 30 5000 6.7 310 12:26 07.02.2020
3001 Smoke 27 1013 34 5000 7.2 300 11:59 07.02.2020
3002 Smoke 27 1013 34 5000 7.7 300 11:40 07.02.2020
3003 Smoke 27 1013 34 5000 7.7 300 11:19 07.02.2020
3004 Smoke 28 1014 30 4000 7.2 310 10:41 07.02.2020
3005 Smoke 27 1014 30 4000 7.2 310 10:22 07.02.2020
3006 Smoke 27 1014 32 4000 6.2 320 09:56 07.02.2020
3007 Smoke 28 1015 32 3000 6.7 290 09:37 07.02.2020
3008 Smoke 27 1015 32 3000 6.7 290 09:19 07.02.2020
3009 Smoke 27 1015 28 3000 5.1 290 08:42 07.02.2020
3010 Smoke 27 1015 28 3000 5.1 290 08:20 07.02.2020
3011 Smoke 26 1016 29 2500 3.6 340 07:44 07.02.2020
3012 Smoke 27 1016 36 2500 1.5 0 07:26 07.02.2020
3013 Smoke 25 1017 38 2500 1.5 240 06:45 07.02.2020
3014 Smoke 25 1017 38 2500 1.5 240 06:25 07.02.2020
3015 Smoke 24 1017 49 2500 2.6 10 05:44 07.02.2020
3016 Smoke 21 1015 46 2500 1.5 20 04:33 07.02.2020
3017 Smoke 21 1014 49 2500 1.5 10 02:50 07.02.2020
3018 Smoke 20 1013 52 3000 1.79 59 01:37 07.02.2020
3019 Smoke 20 1013 52 3000 2.25 40 00:48 07.02.2020
3020 Smoke 20 1012 52 3000 2.25 40 00:19 07.02.2020
3021 Smoke 21 1012 46 3000 2.25 40 23:37 06.02.2020
3022 Smoke 21 1012 46 3000 2.04 19 23:19 06.02.2020
3023 Smoke 22 1013 37 3000 2.04 19 22:44 06.02.2020
3024 Smoke 22 1013 37 3000 2.04 19 22:25 06.02.2020
3025 Smoke 23 1013 33 3000 2.04 19 21:38 06.02.2020
3026 Smoke 23 1013 33 3000 2.1 310 21:20 06.02.2020
3027 Smoke 23 1013 33 3000 2.1 310 20:58 06.02.2020
3028 Smoke 24 1013 31 4000 1.5 150 20:39 06.02.2020
3029 Smoke 24 1013 31 4000 1.5 150 20:19 06.02.2020
3030 Smoke 23 1014 35 4000 2.1 40 19:59 06.02.2020
3031 Smoke 24 1014 36 4000 3.1 40 19:41 06.02.2020
3032 Smoke 24 1014 36 4000 3.1 40 19:22 06.02.2020
3033 Smoke 24 1014 38 4000 1.5 220 18:58 06.02.2020
3034 Smoke 24 1014 36 4000 1.5 30 18:40 06.02.2020
3035 Smoke 24 1014 36 4000 1.5 30 18:40 06.02.2020
3036 Smoke 24 1014 36 4000 1.5 30 18:21 06.02.2020
3037 Smoke 24 1014 36 4000 3.1 340 17:45 06.02.2020
3038 Smoke 24 1013 41 4000 4.1 350 17:21 06.02.2020
3039 Smoke 24 1013 47 4000 3.6 330 16:59 06.02.2020
3040 Smoke 25 1013 41 4000 2.6 310 16:40 06.02.2020
3041 Smoke 25 1013 41 4000 2.6 310 16:22 06.02.2020
3042 Smoke 25 1012 38 4000 4.1 340 15:42 06.02.2020
3043 Smoke 25 1012 38 4000 4.1 340 15:42 06.02.2020
3044 Smoke 25 1012 36 4000 3.6 320 15:22 06.02.2020
3045 Smoke 26 1011 29 5000 5.1 320 14:51 06.02.2020
3046 Smoke 27 1011 29 5000 5.1 320 14:28 06.02.2020
3047 Smoke 27 1012 30 5000 5.7 320 13:59 06.02.2020
3048 Smoke 28 1011 30 5000 5.7 330 13:40 06.02.2020
3049 Smoke 28 1011 30 5000 5.7 330 13:19 06.02.2020
3050 Smoke 28 1011 30 5000 5.7 320 12:44 06.02.2020
3051 Smoke 28 1011 30 5000 5.7 320 12:19 06.02.2020
3052 Smoke 29 1011 26 5000 5.1 320 12:19 06.02.2020
3053 Smoke 29 1011 26 5000 5.1 320 11:57 06.02.2020
3054 Smoke 29 1011 28 5000 6.2 330 11:39 06.02.2020
3055 Smoke 29 1011 28 5000 6.2 330 11:19 06.02.2020
3056 Smoke 29 1011 28 4000 6.2 310 10:56 06.02.2020
3057 Smoke 29 1012 32 4000 6.7 310 10:38 06.02.2020
3058 Smoke 29 1012 32 4000 6.7 310 10:19 06.02.2020
3059 Smoke 29 1012 35 3500 6.2 300 10:19 06.02.2020
3060 Smoke 29 1012 35 3500 6.2 300 09:56 06.02.2020
3061 Smoke 28 1013 39 3000 5.7 310 09:36 06.02.2020
3062 Smoke 28 1013 42 3000 5.1 320 09:18 06.02.2020
3063 Smoke 28 1013 45 3000 5.1 250 08:41 06.02.2020
3064 Smoke 27 1013 45 3000 5.1 250 08:20 06.02.2020
3065 Smoke 28 1014 45 3000 4.1 280 07:46 06.02.2020
3066 Smoke 28 1014 37 3000 2.1 220 07:25 06.02.2020
3067 Smoke 26 1015 41 2500 1.69 8 06:22 06.02.2020
3068 Smoke 26 1015 41 2500 1.69 8 06:22 06.02.2020
3069 Smoke 25 1015 44 2500 1.5 50 05:55 06.02.2020
3070 Haze 23 1014 60 2500 2.1 20 04:24 06.02.2020
3071 Haze 22 1014 64 3000 2.6 10 03:20 06.02.2020
3072 Haze 22 1013 64 3000 2.1 350 02:29 06.02.2020
3073 Haze 22 1012 68 3000 1.5 10 01:35 06.02.2020
3074 Haze 22 1012 68 3000 1.5 40 00:58 06.02.2020
3075 Haze 22 1013 68 3000 3.1 330 00:26 06.02.2020
3076 Haze 22 1013 68 3000 3.1 340 23:46 05.02.2020
3077 Haze 22 1013 68 3000 4.1 330 23:28 05.02.2020
3078 Smoke 23 1013 64 3000 3.1 340 22:58 05.02.2020
3079 Smoke 23 1013 53 3000 2.6 340 22:40 05.02.2020
3080 Smoke 23 1013 53 3000 2.6 340 22:22 05.02.2020
3081 Smoke 23 1013 53 3000 2.6 340 22:22 05.02.2020
3082 Smoke 23 1013 53 3000 2.1 290 21:54 05.02.2020
3083 Smoke 24 1013 50 3000 2.1 330 21:36 05.02.2020
3084 Smoke 24 1013 50 3000 2.1 330 21:18 05.02.2020
3085 Smoke 24 1014 50 3000 2.38 5 20:39 05.02.2020
3086 Smoke 24 1014 50 3000 2.38 5 20:39 05.02.2020
3087 Smoke 24 1014 50 3000 2.38 5 20:39 05.02.2020
3088 Smoke 24 1014 50 3000 2.25 10 20:19 05.02.2020
3089 Smoke 24 1014 53 3000 1.5 310 19:57 05.02.2020
3090 Smoke 24 1014 57 3000 2.25 10 19:38 05.02.2020
3091 Smoke 24 1014 57 3000 2.25 10 19:19 05.02.2020
3092 Smoke 24 1014 57 3000 2.25 10 19:19 05.02.2020
3093 Smoke 24 1014 57 3000 2.25 10 19:19 05.02.2020
3094 Smoke 25 1014 53 3000 2.1 50 18:46 05.02.2020
3095 Smoke 25 1014 53 3000 2.1 50 18:22 05.02.2020
3096 Smoke 25 1014 50 3000 3.1 350 17:59 05.02.2020
3097 Smoke 25 1014 53 3000 2.6 340 17:38 05.02.2020
3098 Smoke 25 1014 53 3000 3.1 330 17:18 05.02.2020
3099 Smoke 25 1014 53 3000 3.1 330 17:18 05.02.2020
3100 Smoke 25 1014 53 3000 3.1 330 16:57 05.02.2020
3101 Smoke 25 1013 57 3000 2.1 320 16:38 05.02.2020
3102 Smoke 25 1013 57 3000 2.1 320 16:19 05.02.2020
3103 Smoke 25 1013 53 3000 2.6 320 15:42 05.02.2020
3104 Smoke 25 1012 50 4000 3.6 320 15:19 05.02.2020
3105 Smoke 26 1012 47 4000 3.1 310 14:56 05.02.2020
3106 Smoke 26 1012 44 4000 3.6 300 14:37 05.02.2020
3107 Smoke 27 1012 44 4000 3.6 300 14:19 05.02.2020
3108 Smoke 28 1011 39 5000 3.6 320 13:42 05.02.2020
3109 Smoke 28 1011 39 5000 3.6 320 13:22 05.02.2020
3110 Smoke 29 1011 35 5000 4.6 330 12:44 05.02.2020
3111 Smoke 29 1011 35 5000 4.6 330 12:25 05.02.2020
3112 Smoke 29 1011 35 5000 5.1 320 11:59 05.02.2020
3113 Smoke 29 1011 37 4000 4.1 320 11:41 05.02.2020
3114 Smoke 29 1011 34 4000 6.2 290 11:22 05.02.2020
3115 Smoke 30 1012 37 3500 5.7 300 10:44 05.02.2020
3116 Smoke 29 1012 37 3500 5.7 300 10:26 05.02.2020
3117 Smoke 30 1012 35 3500 5.1 300 09:59 05.02.2020
3118 Smoke 29 1012 33 3500 4.6 290 09:38 05.02.2020
3119 Smoke 29 1012 33 3500 4.6 290 09:20 05.02.2020
3120 Smoke 29 1013 35 3500 4.1 270 08:46 05.02.2020
3121 Smoke 29 1013 35 3000 4.1 270 08:25 05.02.2020
3122 Smoke 29 1014 30 3000 2.1 290 07:57 05.02.2020
3123 Smoke 28 1014 32 3000 2.6 20 07:36 05.02.2020
3124 Smoke 28 1015 30 2500 2.6 10 06:58 05.02.2020
3125 Smoke 27 1015 32 2500 2.1 20 06:39 05.02.2020
3126 Smoke 26 1015 36 2500 1.5 40 06:19 05.02.2020
3127 Smoke 24 1015 41 2500 2.84 46 05:20 05.02.2020
3128 Smoke 23 1015 38 2200 1 0 04:54 05.02.2020
3129 Smoke 20 1014 46 3000 2.1 200 03:57 05.02.2020
3130 Smoke 22 1012 46 3000 2.1 190 02:31 05.02.2020
3131 Smoke 22 1012 49 3000 2.1 160 01:55 05.02.2020
3132 Smoke 23 1012 40 3000 2.7 39 00:54 05.02.2020
3133 Smoke 21 1012 60 3000 2.7 39 23:59 04.02.2020
3134 Smoke 22 1012 60 3000 2.7 39 23:39 04.02.2020
3135 Smoke 22 1012 60 3000 2.85 14 23:19 04.02.2020
3136 Smoke 22 1012 56 3000 2.85 14 22:56 04.02.2020
3137 Smoke 22 1013 60 3000 2.85 14 22:38 04.02.2020
3138 Smoke 22 1013 60 3000 2.85 14 22:20 04.02.2020
3139 Smoke 22 1013 56 3000 1.5 50 21:54 04.02.2020
3140 Smoke 23 1013 49 3000 1.5 40 21:36 04.02.2020
3141 Smoke 23 1013 49 3000 1.5 40 21:18 04.02.2020
3142 Smoke 23 1014 53 3000 2.85 14 20:42 04.02.2020
3143 -273 0 0 0 0 0 20:21 04.02.2020
3144 Smoke 24 1014 50 3000 2.6 10 19:59 04.02.2020
3145 Smoke 24 1014 50 3000 3.1 30 19:40 04.02.2020
3146 Smoke 24 1014 50 3000 3.1 30 19:22 04.02.2020
3147 Smoke 24 1014 53 3000 2.6 10 18:57 04.02.2020
3148 Smoke 25 1014 53 3000 3.1 340 18:38 04.02.2020
3149 Smoke 25 1014 53 3000 3.1 340 18:19 04.02.2020
3150 Smoke 25 1014 53 3000 2.6 360 18:19 04.02.2020
3151 Smoke 25 1014 53 3000 3.1 340 17:43 04.02.2020
3152 Smoke 25 1014 53 4000 3.1 350 17:22 04.02.2020
3153 Smoke 25 1014 53 4000 3.1 350 16:59 04.02.2020
3154 Smoke 25 1014 53 4000 3.6 330 16:38 04.02.2020
3155 Smoke 25 1014 53 4000 3.6 330 16:20 04.02.2020
3156 Smoke 26 1013 50 4000 2.6 40 15:56 04.02.2020
3157 Smoke 26 1013 47 4000 3.6 340 15:38 04.02.2020
3158 Smoke 26 1013 47 4000 3.6 340 15:19 04.02.2020
3159 Smoke 26 1012 44 4000 3.6 340 14:44 04.02.2020
3160 Smoke 27 1012 39 4000 4.1 320 14:23 04.02.2020
3161 Smoke 28 1012 39 4000 4.1 320 13:58 04.02.2020
3162 Smoke 28 1012 34 4000 5.1 320 13:40 04.02.2020
3163 Smoke 28 1012 34 4000 5.1 320 13:21 04.02.2020
3164 Smoke 28 1011 37 4000 6.2 330 12:44 04.02.2020
3165 Smoke 29 1011 37 4000 5.1 330 12:26 04.02.2020
3166 Smoke 29 1011 39 4000 5.1 320 11:58 04.02.2020
3167 Smoke 29 1011 42 3500 5.1 320 11:39 04.02.2020
3168 Smoke 29 1011 42 3500 5.1 320 11:21 04.02.2020
3169 Smoke 29 1012 48 3000 5.1 310 10:59 04.02.2020
3170 Smoke 29 1012 51 3000 5.1 310 10:40 04.02.2020
3171 Smoke 29 1012 51 3000 5.1 310 10:22 04.02.2020
3172 Smoke 29 1013 51 2500 4.6 260 09:41 04.02.2020
3173 Smoke 29 1013 51 2500 4.6 260 09:23 04.02.2020
3174 Smoke 28 1013 51 2500 4.6 260 08:56 04.02.2020
3175 Smoke 28 1014 48 2500 4.6 280 08:38 04.02.2020
3176 Smoke 28 1014 48 2500 4.6 280 08:38 04.02.2020
3177 Smoke 28 1014 48 2500 4.6 280 08:20 04.02.2020
3178 Smoke 27 1015 51 2200 1.5 80 07:43 04.02.2020
3179 Smoke 27 1015 51 2200 1.5 80 07:22 04.02.2020
3180 Smoke 27 1015 51 2100 1.5 70 06:43 04.02.2020
3181 Smoke 26 1016 61 1600 2.1 70 05:58 04.02.2020
3182 Haze 25 1015 65 1600 1.87 344 05:28 04.02.2020
3183 Mist 22 1014 73 1800 2.1 120 03:52 04.02.2020
3184 Mist 22 1014 73 1800 1.5 70 03:32 04.02.2020
3185 Mist 22 1014 78 1600 1.5 360 02:55 04.02.2020
3186 Mist 23 1013 78 1600 3.1 20 02:31 04.02.2020
3187 Mist 22 1013 83 1500 2.1 330 01:53 04.02.2020
3188 Mist 22 1012 88 1400 1.5 310 01:35 04.02.2020
3189 Mist 22 1012 83 1400 1.5 20 00:44 04.02.2020
3190 Mist 22 1012 88 1400 2.1 20 00:21 04.02.2020
3191 Mist 23 1012 78 2200 1.5 40 23:39 03.02.2020
3192 Mist 23 1012 78 2200 1.5 40 23:19 03.02.2020
3193 Mist 23 1013 83 2200 1.5 70 22:39 03.02.2020
3194 Mist 23 1013 83 2200 1.5 70 22:39 03.02.2020
3195 Mist 23 1013 83 2200 1.5 70 22:20 03.02.2020
3196 Mist 23 1013 83 2100 2.1 60 21:55 03.02.2020
3197 Haze 24 1013 78 2100 2.6 350 21:37 03.02.2020
3198 Haze 24 1013 78 2100 2.6 350 21:18 03.02.2020
3199 Haze 24 1014 78 2200 2.6 10 20:42 03.02.2020
3200 Haze 24 1014 78 2200 2.6 10 20:19 03.02.2020
3201 Haze 24 1014 78 2200 2.6 10 20:19 03.02.2020
3202 Haze 24 1014 78 2500 2.1 330 19:56 03.02.2020
3203 Haze 25 1014 73 2500 1.5 360 19:38 03.02.2020
3204 Haze 25 1014 73 2500 1.5 360 19:19 03.02.2020
3205 Haze 25 1015 73 3000 2.6 280 18:45 03.02.2020
3206 Haze 25 1015 73 3000 2.6 280 18:25 03.02.2020
3207 Haze 25 1015 73 3000 1.5 320 17:59 03.02.2020
3208 Haze 25 1015 73 3000 1.5 320 17:59 03.02.2020
3209 Haze 25 1015 69 3000 1.5 270 17:40 03.02.2020
3210 Haze 25 1015 69 3000 1.5 270 17:20 03.02.2020
3211 Haze 25 1014 69 3000 2.1 270 16:58 03.02.2020
3212 Haze 25 1014 69 3000 2.1 270 16:58 03.02.2020
3213 Haze 25 1014 73 3000 2.1 320 16:38 03.02.2020
3214 Haze 25 1014 73 3000 2.1 320 16:20 03.02.2020
3215 Haze 25 1014 73 3000 2.1 300 15:54 03.02.2020
3216 Haze 25 1014 73 3000 3.1 270 15:36 03.02.2020
3217 Haze 25 1014 73 3000 3.1 270 15:18 03.02.2020
3218 Haze 25 1014 73 3000 3.1 270 15:18 03.02.2020
3219 Haze 26 1013 74 3000 3.6 280 14:41 03.02.2020
3220 Haze 27 1013 74 3000 3.6 280 14:23 03.02.2020
3221 Haze 27 1012 74 3000 3.6 280 13:56 03.02.2020
3222 Haze 27 1012 74 3000 4.1 290 13:37 03.02.2020
3223 Haze 27 1012 74 3000 4.1 290 13:19 03.02.2020
3224 Haze 27 1012 69 3000 5.1 290 12:41 03.02.2020
3225 Haze 27 1012 69 3000 5.1 290 12:23 03.02.2020
3226 Haze 27 1012 61 3000 4.6 300 11:59 03.02.2020
3227 Haze 27 1012 65 3000 5.1 300 11:38 03.02.2020
3228 Haze 28 1012 65 3000 5.1 300 11:19 03.02.2020
3229 Haze 28 1013 65 3000 3.6 290 10:55 03.02.2020
3230 Haze 28 1013 65 3000 3.6 290 10:55 03.02.2020
3231 Haze 29 1013 61 2500 4.1 260 10:37 03.02.2020
3232 Haze 28 1013 61 2500 4.1 260 10:18 03.02.2020
3233 Haze 28 1014 61 2500 4.6 290 09:38 03.02.2020
3234 Haze 28 1014 61 2500 4.6 290 09:19 03.02.2020
3235 Haze 28 1014 61 2500 4.6 290 09:19 03.02.2020
3236 Haze 28 1015 65 2500 5.1 260 08:41 03.02.2020
3237 Haze 28 1015 65 2500 5.1 260 08:22 03.02.2020
3238 Haze 28 1016 65 2000 4.1 280 07:43 03.02.2020
3239 Haze 27 1016 65 2000 4.1 280 07:23 03.02.2020
3240 Haze 27 1016 61 2000 2.1 190 06:57 03.02.2020
3241 Haze 27 1016 61 2000 2.1 190 06:57 03.02.2020
3242 Haze 27 1016 65 1500 1.25 317 06:31 03.02.2020
3243 Haze 26 1016 69 1500 2.1 310 05:58 03.02.2020
3244 Haze 26 1016 73 1200 1.5 40 05:34 03.02.2020
3245 Mist 24 1016 78 1200 1.69 83 04:47 03.02.2020
3246 Mist 22 1014 78 1500 1.69 83 02:48 03.02.2020
3247 Mist 22 1014 78 1500 1.69 83 02:48 03.02.2020
3248 Mist 23 1014 78 1500 1.69 83 02:28 03.02.2020
3249 Mist 23 1014 78 1600 1.69 78 00:50 03.02.2020
3250 Mist 23 1014 78 1600 1.69 78 00:28 03.02.2020
3251 Mist 23 1014 78 1600 1.69 78 23:56 02.02.2020
3252 Mist 24 1014 78 1800 1.69 78 23:36 02.02.2020
3253 Mist 24 1014 78 1800 1.65 112 23:18 02.02.2020
3254 Mist 24 1014 78 1800 1.65 112 22:40 02.02.2020
3255 Mist 24 1014 78 1800 1.65 112 22:22 02.02.2020
3256 Mist 24 1015 78 1800 1.5 50 21:58 02.02.2020
3257 Mist 24 1015 78 1800 1.5 100 21:39 02.02.2020
3258 Mist 24 1015 78 1800 1.5 100 21:20 02.02.2020
3259 Mist 24 1015 78 1800 2.6 90 20:57 02.02.2020
3260 Mist 25 1015 78 1800 2.6 120 20:39 02.02.2020
3261 Mist 25 1015 78 1800 2.6 120 20:20 02.02.2020
3262 Haze 25 1016 73 2100 1.07 103 19:58 02.02.2020
3263 Haze 25 1016 73 2200 2.1 200 19:40 02.02.2020
3264 Haze 25 1016 73 2200 2.1 200 19:21 02.02.2020
3265 Haze 25 1016 73 2200 1.5 220 18:56 02.02.2020
3266 Haze 26 1016 69 2200 2.6 220 18:37 02.02.2020
3267 Haze 26 1016 69 2200 2.6 220 18:19 02.02.2020
3268 Haze 26 1016 69 2200 2.1 230 17:57 02.02.2020
3269 Smoke 26 1016 69 2200 2.1 280 17:37 02.02.2020
3270 Smoke 26 1016 69 2200 2.1 280 17:18 02.02.2020
3271 Smoke 26 1015 69 2200 2.1 250 16:57 02.02.2020
3272 Smoke 26 1015 69 2200 3.1 240 16:38 02.02.2020
3273 Smoke 26 1015 69 2200 3.1 240 16:19 02.02.2020
3274 Smoke 26 1015 69 2200 2.6 260 15:57 02.02.2020
3275 Smoke 27 1014 61 2200 3.6 240 15:37 02.02.2020
3276 Smoke 27 1014 61 2200 3.6 240 15:19 02.02.2020
3277 Smoke 27 1014 57 3000 3.6 250 14:44 02.02.2020
3278 Smoke 27 1013 54 3000 3.1 240 14:19 02.02.2020
3279 Smoke 28 1013 45 3000 4.6 260 13:59 02.02.2020
3280 Smoke 29 1013 48 3000 5.1 260 13:41 02.02.2020
3281 Smoke 29 1013 48 3000 5.1 260 13:21 02.02.2020
3282 Smoke 29 1012 42 3000 5.1 250 12:57 02.02.2020
3283 Smoke 29 1012 45 3000 5.1 260 12:39 02.02.2020
3284 Smoke 29 1012 45 3000 5.1 260 12:21 02.02.2020
3285 Smoke 29 1012 48 3000 5.1 270 11:43 02.02.2020
3286 Smoke 29 1012 48 3000 5.1 260 11:20 02.02.2020
3287 Smoke 29 1012 45 3000 5.1 280 10:58 02.02.2020
3288 Smoke 29 1012 45 3000 5.1 280 10:58 02.02.2020
3289 Smoke 29 1012 45 3000 5.1 270 10:40 02.02.2020
3290 Smoke 29 1012 45 3000 5.1 270 10:22 02.02.2020
3291 Smoke 29 1013 45 3000 5.7 280 09:59 02.02.2020
3292 Smoke 29 1013 42 3000 5.7 260 09:40 02.02.2020
3293 Smoke 30 1013 40 3000 5.1 270 09:21 02.02.2020
3294 Smoke 29 1013 42 3000 5.7 260 09:21 02.02.2020
3295 Smoke 30 1013 40 3000 5.1 270 08:49 02.02.2020
3296 Smoke 29 1014 37 3000 5.95 256 08:30 02.02.2020
3297 Smoke 29 1014 39 3000 2.6 150 07:49 02.02.2020
3298 Smoke 29 1015 39 3000 3.6 90 07:31 02.02.2020
3299 Smoke 29 1015 37 2500 2.6 150 06:57 02.02.2020
3300 Smoke 28 1015 39 2500 3.1 110 06:38 02.02.2020
3301 Smoke 28 1015 39 2500 3.1 110 06:18 02.02.2020
3302 Smoke 24 1015 53 2200 2.1 50 05:20 02.02.2020
3303 Smoke 24 1014 57 2200 2.6 40 04:21 02.02.2020
3304 Haze 22 1013 69 2200 1.5 30 03:23 02.02.2020
3305 Mist 23 1012 69 1800 1.74 85 02:20 02.02.2020
3306 Mist 23 1012 73 1800 1.74 85 01:50 02.02.2020
3307 Mist 23 1012 78 1800 2.6 120 00:51 02.02.2020
3308 Mist 23 1011 83 1800 2.6 150 00:29 02.02.2020
3309 Mist 22 1012 83 2100 2.15 81 23:58 01.02.2020
3310 Mist 23 1012 78 2100 1.5 200 23:39 01.02.2020
3311 Mist 23 1012 78 2100 1.5 200 23:21 01.02.2020
3312 Mist 23 1012 78 2500 2.1 140 22:43 01.02.2020
3313 Mist 24 1012 73 2500 2.1 90 22:19 01.02.2020
3314 Haze 24 1012 73 2500 2.6 180 21:42 01.02.2020
3315 Haze 24 1012 73 2500 2.6 180 21:19 01.02.2020
3316 Haze 24 1012 73 2500 2.6 180 20:56 01.02.2020
3317 Haze 25 1013 69 2500 2.1 210 20:37 01.02.2020
3318 Haze 25 1013 65 2500 1.5 180 20:18 01.02.2020
3319 Haze 25 1013 65 2500 1.5 180 19:55 01.02.2020
3320 Haze 25 1013 65 2500 2.32 120 19:37 01.02.2020
3321 Haze 25 1013 65 2500 2.32 120 19:37 01.02.2020
3322 Haze 25 1013 65 2500 2.32 120 19:18 01.02.2020
3323 Haze 25 1013 65 2500 1.5 210 18:55 01.02.2020
3324 Haze 25 1013 65 2500 1.5 200 18:37 01.02.2020
3325 Haze 25 1013 65 2500 1.5 200 18:18 01.02.2020
3326 Smoke 26 1013 61 3000 2.32 120 17:54 01.02.2020
3327 Smoke 27 1013 57 3000 2.1 360 17:36 01.02.2020
3328 Smoke 27 1013 57 3000 2.1 360 17:18 01.02.2020
3329 Smoke 26 1013 61 3000 0.18 329 16:41 01.02.2020
3330 Smoke 26 1013 61 3000 0.18 329 16:21 01.02.2020
3331 Smoke 26 1012 57 3000 2.6 350 15:47 01.02.2020
3332 Smoke 26 1012 57 3000 0.18 329 15:29 01.02.2020
3333 Smoke 26 1011 57 3000 2.1 310 14:59 01.02.2020
3334 Smoke 26 1011 57 3000 2.1 310 14:59 01.02.2020
3335 Smoke 26 1011 54 3000 2.1 330 14:39 01.02.2020
3336 Smoke 27 1011 54 3000 2.1 330 14:20 01.02.2020
3337 Smoke 28 1011 51 3500 2.6 330 13:45 01.02.2020
3338 Smoke 28 1011 51 3500 2.6 330 13:45 01.02.2020
3339 Smoke 28 1010 48 3500 4.1 320 13:22 01.02.2020
3340 Smoke 28 1010 48 3500 5.1 310 12:48 01.02.2020
3341 Smoke 28 1010 45 3500 5.1 330 12:30 01.02.2020
3342 Smoke 29 1011 45 3500 5.1 330 11:59 01.02.2020
3343 Smoke 29 1011 48 3500 5.1 300 11:39 01.02.2020
3344 Smoke 29 1011 45 3500 5.1 320 11:20 01.02.2020
3345 Smoke 29 1011 45 3500 5.1 320 10:57 01.02.2020
3346 Smoke 29 1011 48 3000 4.1 310 10:38 01.02.2020
3347 Smoke 28 1011 48 3000 4.1 310 10:20 01.02.2020
3348 Smoke 28 1011 45 3000 5.1 300 09:58 01.02.2020
3349 Smoke 27 1011 48 2500 4.1 270 09:39 01.02.2020
3350 Smoke 28 1011 48 2500 4.1 270 09:20 01.02.2020
3351 Smoke 28 1012 48 2500 4.6 260 08:45 01.02.2020
3352 Smoke 27 1013 39 2500 2.1 60 07:49 01.02.2020
3353 Smoke 27 1014 42 2500 3.1 70 07:27 01.02.2020
3354 Smoke 27 1014 42 2500 3.1 40 06:56 01.02.2020
3355 Smoke 27 1014 42 2500 3.1 40 06:56 01.02.2020
3356 Smoke 25 1014 47 2200 3.6 70 06:33 01.02.2020
3357 Smoke 25 1014 50 2100 1.5 50 05:52 01.02.2020
3358 Haze 20 1013 64 2200 2.57 43 03:56 01.02.2020
3359 Haze 19 1013 64 2500 2.1 30 03:21 01.02.2020
3360 Haze 20 1012 64 3000 1.5 0 02:46 01.02.2020
3361 Haze 21 1012 64 4000 2.57 43 02:27 01.02.2020
3362 Haze 21 1011 60 5000 2.6 360 01:54 01.02.2020
3363 Clear 22 1011 60 6000 2.6 40 01:31 01.02.2020
3364 Clear 21 1011 64 6000 2.6 10 00:30 01.02.2020
3365 Clear 21 1011 64 6000 1.5 10 23:43 31.01.2020
3366 Smoke 22 1011 60 5000 1.5 0 23:20 31.01.2020
3367 Smoke 23 1011 56 5000 2.6 10 22:59 31.01.2020
3368 Smoke 22 1011 60 5000 1.5 0 22:41 31.01.2020
3369 Smoke 22 1011 60 5000 1.5 0 22:22 31.01.2020
3370 Smoke 23 1011 56 5000 1.5 0 21:57 31.01.2020
3371 Smoke 23 1012 56 5000 1.88 45 21:39 31.01.2020
3372 Smoke 23 1012 56 5000 1.88 45 21:19 31.01.2020
3373 Smoke 23 1012 56 5000 2.6 230 20:56 31.01.2020
3374 Smoke 23 1012 56 5000 2.6 230 20:56 31.01.2020
3375 Smoke 23 1012 56 5000 1.5 0 20:38 31.01.2020
3376 Smoke 23 1012 56 5000 1.5 0 20:38 31.01.2020
3377 Smoke 23 1012 56 5000 1.5 360 20:20 31.01.2020
3378 Smoke 23 1012 56 5000 1.5 360 19:56 31.01.2020
3379 Smoke 23 1013 64 5000 2.6 0 19:37 31.01.2020
3380 Smoke 23 1013 64 5000 2.6 0 19:19 31.01.2020
3381 Smoke 23 1013 69 4000 2.1 0 18:42 31.01.2020
3382 Smoke 23 1013 69 4000 2.1 0 18:23 31.01.2020
3383 Haze 24 1012 64 3000 3.6 350 17:55 31.01.2020
3384 Haze 24 1012 64 3000 3.6 350 17:36 31.01.2020
3385 Haze 24 1012 64 3000 3.6 350 17:18 31.01.2020
3386 Haze 24 1012 64 3000 2.6 20 16:55 31.01.2020
3387 Haze 24 1012 64 3000 2.6 330 16:37 31.01.2020
3388 Haze 24 1012 64 3000 2.6 330 16:18 31.01.2020
3389 Haze 24 1012 64 3000 2.6 330 16:18 31.01.2020
3390 Smoke 24 1011 60 3000 3.1 340 15:41 31.01.2020
3391 Smoke 24 1011 60 3000 3.1 340 15:21 31.01.2020
3392 Smoke 24 1011 64 3000 4.1 320 14:58 31.01.2020
3393 Smoke 25 1010 57 3500 4.1 310 14:39 31.01.2020
3394 Smoke 26 1010 57 3500 4.1 310 14:20 31.01.2020
3395 Smoke 27 1010 50 3500 3.1 330 13:43 31.01.2020
3396 Smoke 27 1010 47 3500 7.2 290 13:25 31.01.2020
3397 Smoke 27 1010 41 3500 5.7 310 12:45 31.01.2020
3398 Smoke 27 1010 44 3500 4.6 310 12:26 31.01.2020
3399 Smoke 27 1010 47 3500 5.1 280 11:56 31.01.2020
3400 Smoke 27 1010 47 3500 6.2 290 11:38 31.01.2020
3401 Smoke 27 1010 47 3500 6.2 290 11:20 31.01.2020
3402 Smoke 27 1011 41 3000 5.1 290 10:55 31.01.2020
3403 Smoke 27 1011 44 3000 5.7 270 10:37 31.01.2020
3404 Smoke 26 1011 44 3000 5.7 270 10:18 31.01.2020
3405 Smoke 26 1012 42 3000 5.7 280 09:42 31.01.2020
3406 Smoke 26 1012 42 3000 5.7 280 09:22 31.01.2020
3407 Smoke 26 1013 42 3000 5.7 260 08:56 31.01.2020
3408 Smoke 26 1014 39 3000 5.1 270 08:38 31.01.2020
3409 Smoke 26 1014 39 3000 5.1 270 08:20 31.01.2020
3410 Smoke 26 1014 39 3000 3.1 280 07:47 31.01.2020
3411 Smoke 26 1015 39 3000 3.6 270 07:19 31.01.2020
3412 Smoke 26 1015 39 3000 3.6 270 07:19 31.01.2020
3413 Smoke 25 1015 38 2500 2.1 320 06:34 31.01.2020
3414 Smoke 25 1015 47 2500 1.5 160 05:55 31.01.2020
3415 Smoke 23 1015 53 2100 1.59 45 05:20 31.01.2020
3416 Haze 20 1014 60 1800 1.5 0 04:20 31.01.2020
3417 Haze 21 1013 64 2100 1.59 45 02:49 31.01.2020
3418 Haze 20 1012 68 2500 1.5 20 01:30 31.01.2020
3419 Smoke 21 1012 60 2500 1.5 340 00:39 31.01.2020
3420 Smoke 21 1012 60 2500 1.5 340 00:39 31.01.2020
3421 Smoke 21 1012 60 2500 1.5 340 00:20 31.01.2020
3422 Smoke 21 1012 60 2500 2.21 33 23:42 30.01.2020
3423 Smoke 21 1012 60 2500 1.71 42 23:21 30.01.2020
3424 Smoke 22 1013 53 3000 1.71 42 22:39 30.01.2020
3425 Smoke 22 1013 53 3000 1.71 42 22:21 30.01.2020
3426 Smoke 22 1013 49 3000 2.6 320 21:58 30.01.2020
3427 Smoke 22 1013 56 3000 1.71 42 21:40 30.01.2020
3428 Smoke 22 1013 56 3000 1.71 42 21:18 30.01.2020
3429 Smoke 22 1013 56 3000 1.5 10 20:57 30.01.2020
3430 Smoke 22 1014 56 3000 2.1 340 20:38 30.01.2020
3431 Smoke 22 1014 56 3000 2.1 340 20:20 30.01.2020
3432 Smoke 22 1014 56 3000 2.1 340 19:44 30.01.2020
3433 Smoke 22 1014 56 3000 2.1 340 19:19 30.01.2020
3434 Smoke 22 1014 56 3000 2.1 340 19:19 30.01.2020
3435 Smoke 22 1014 56 3000 2.1 350 18:59 30.01.2020
3436 Smoke 23 1014 56 3000 2.6 40 18:37 30.01.2020
3437 Smoke 23 1014 56 3000 2.6 40 18:18 30.01.2020
3438 Smoke 24 1014 53 3000 3.1 40 17:42 30.01.2020
3439 Smoke 23 1014 53 3000 2.6 40 17:20 30.01.2020
3440 Smoke 23 1014 53 3500 3.6 340 16:59 30.01.2020
3441 Smoke 24 1014 53 4000 4.6 340 16:40 30.01.2020
3442 Smoke 24 1014 53 4000 4.6 340 16:21 30.01.2020
3443 Smoke 24 1013 50 4000 5.1 330 15:45 30.01.2020
3444 Smoke 24 1013 50 4000 3.6 320 15:22 30.01.2020
3445 Smoke 24 1013 50 4000 3.6 320 15:22 30.01.2020
3446 Smoke 24 1013 53 4000 4.1 320 14:58 30.01.2020
3447 Smoke 24 1012 50 4000 4.6 320 14:40 30.01.2020
3448 Smoke 25 1012 50 4000 4.6 320 14:22 30.01.2020
3449 Smoke 27 1012 44 4000 4.6 330 13:42 30.01.2020
3450 Smoke 26 1012 44 4000 4.6 330 13:24 30.01.2020
3451 Smoke 27 1012 41 4000 6.2 300 12:57 30.01.2020
3452 Smoke 27 1012 41 4000 5.7 320 12:38 30.01.2020
3453 Smoke 27 1012 41 4000 5.7 320 12:20 30.01.2020
3454 Smoke 28 1012 39 4000 4.1 310 11:41 30.01.2020
3455 Smoke 28 1012 39 4000 4.1 310 11:41 30.01.2020
3456 Smoke 27 1012 39 4000 4.1 310 11:23 30.01.2020
3457 Smoke 28 1013 39 4000 4.1 310 10:59 30.01.2020
3458 Smoke 28 1013 36 4000 4.6 300 10:40 30.01.2020
3459 Smoke 27 1013 36 4000 4.6 300 10:21 30.01.2020
3460 Smoke 27 1014 36 4000 5.7 290 09:46 30.01.2020
3461 Smoke 27 1014 41 3500 3.6 280 09:27 30.01.2020
3462 Smoke 27 1015 39 3500 4.6 280 08:55 30.01.2020
3463 Smoke 27 1016 34 3000 2.1 120 08:36 30.01.2020
3464 Smoke 26 1016 34 3000 2.1 120 08:18 30.01.2020
3465 Smoke 26 1017 34 3000 1.5 280 07:44 30.01.2020
3466 Smoke 25 1017 33 3000 2.1 20 07:19 30.01.2020
3467 Smoke 25 1017 33 3000 3.1 70 06:45 30.01.2020
3468 Smoke 25 1017 38 3000 3.1 80 06:26 30.01.2020
3469 Smoke 25 1017 38 3000 3.1 80 06:26 30.01.2020
3470 Smoke 25 1017 38 3000 3.1 80 06:26 30.01.2020
3471 Smoke 24 1017 40 2500 3.1 70 05:43 30.01.2020
3472 Smoke 22 1017 46 2200 2.6 130 05:19 30.01.2020
3473 Smoke 19 1017 56 2200 2.1 120 03:48 30.01.2020
3474 Smoke 18 1016 56 3000 2.8 45 03:26 30.01.2020
3475 Smoke 20 1015 56 5000 2.15 50 01:41 30.01.2020
3476 Clear 20 1015 60 6000 2.6 120 00:37 30.01.2020
3477 Clear 20 1015 60 6000 2.6 120 00:19 30.01.2020
3478 Clear 20 1015 60 6000 2.6 120 00:19 30.01.2020
3479 Clear 19 1015 68 6000 2.1 90 23:44 29.01.2020
3480 Clear 20 1015 60 6000 2.55 39 23:20 29.01.2020
3481 Clear 20 1015 64 6000 2.55 39 22:56 29.01.2020
3482 Clear 21 1015 60 6000 1 0 22:38 29.01.2020
3483 Clear 21 1015 60 6000 1 0 22:19 29.01.2020
3484 Clear 21 1015 60 6000 1.5 110 21:56 29.01.2020
3485 Clear 21 1015 60 6000 1.5 50 21:37 29.01.2020
3486 Clear 21 1015 60 6000 1.5 50 21:37 29.01.2020
3487 Clear 21 1015 60 6000 1.5 50 21:18 29.01.2020
3488 Clear 21 1016 60 6000 2.1 0 20:57 29.01.2020
3489 Clear 21 1016 56 6000 2.6 0 20:37 29.01.2020
3490 Clear 21 1016 56 6000 2.6 0 20:18 29.01.2020
3491 Clear 21 1016 56 6000 2.6 360 19:55 29.01.2020
3492 Clear 22 1016 53 6000 2.1 0 19:36 29.01.2020
3493 Clear 22 1016 53 6000 2.1 0 19:18 29.01.2020
3494 Smoke 22 1016 53 5000 1.5 0 18:40 29.01.2020
3495 Smoke 22 1016 53 5000 1.5 0 18:19 29.01.2020
3496 Smoke 22 1016 53 4000 2.1 350 17:41 29.01.2020
3497 Smoke 22 1016 53 4000 2.1 350 17:23 29.01.2020
3498 Smoke 22 1016 53 4000 2.6 350 16:59 29.01.2020
3499 Smoke 22 1016 53 3500 4.1 330 16:40 29.01.2020
3500 Smoke 22 1015 49 3500 4.1 350 16:19 29.01.2020
3501 Smoke 23 1015 46 4000 4.6 340 15:40 29.01.2020
3502 -273 0 0 0 0 0 15:22 29.01.2020
3503 Smoke 23 1015 46 4000 5.1 330 14:57 29.01.2020
3504 Smoke 23 1014 46 5000 4.1 320 14:39 29.01.2020
3505 Smoke 24 1014 46 5000 4.1 320 14:18 29.01.2020
3506 Smoke 25 1014 44 5000 5.1 310 13:40 29.01.2020
3507 Smoke 24 1014 44 5000 5.1 310 13:22 29.01.2020
3508 Smoke 24 1014 44 5000 5.1 310 13:22 29.01.2020
3509 Smoke 24 1014 44 5000 5.1 330 12:56 29.01.2020
3510 Smoke 24 1014 44 5000 4.6 320 12:38 29.01.2020
3511 Smoke 24 1014 44 5000 4.6 320 12:20 29.01.2020
3512 Smoke 25 1014 44 5000 4.1 330 11:47 29.01.2020
3513 Smoke 26 1014 44 5000 4.1 330 11:24 29.01.2020
3514 Smoke 26 1014 44 5000 4.1 320 10:58 29.01.2020
3515 Clouds 30 1010 39 0 4.95 297 10:40 29.01.2020
3516 Smoke 27 1016 47 4000 5.1 330 10:20 29.01.2020
3517 Smoke 26 1016 47 4000 5.1 330 09:40 29.01.2020
3518 Smoke 26 1016 47 4000 5.1 330 09:22 29.01.2020
3519 Smoke 26 1016 47 3000 5.7 310 08:58 29.01.2020
3520 Smoke 26 1017 47 3000 4.6 340 08:39 29.01.2020
3521 Smoke 25 1017 47 3000 4.6 340 08:20 29.01.2020
3522 Smoke 25 1018 53 3000 4.1 330 07:45 29.01.2020
3523 Smoke 24 1018 53 3000 4.6 330 07:25 29.01.2020
3524 Smoke 25 1018 53 3000 3.6 280 06:55 29.01.2020
3525 Haze 24 1018 56 3000 3.1 340 06:37 29.01.2020
3526 Haze 24 1018 56 3000 3.1 340 06:18 29.01.2020
3527 Haze 24 1018 56 2500 2.6 20 05:45 29.01.2020
3528 Haze 23 1018 60 2500 4.6 340 05:26 29.01.2020
3529 Haze 22 1017 68 2500 2.6 30 04:38 29.01.2020
3530 Haze 22 1016 68 2500 3.6 10 03:49 29.01.2020
3531 Haze 22 1015 73 3000 2.6 40 02:33 29.01.2020
3532 Haze 23 1014 69 3500 2.1 20 00:44 29.01.2020
3533 Haze 23 1014 69 3500 2.6 30 00:25 29.01.2020
3534 Haze 23 1014 69 3500 1.5 0 23:58 28.01.2020
3535 Haze 23 1014 69 3500 3.1 340 23:37 28.01.2020
3536 Haze 23 1014 69 3500 3.1 340 23:18 28.01.2020
3537 Haze 23 1014 69 3000 2.6 330 22:41 28.01.2020
3538 Haze 23 1014 69 3000 2.1 330 22:21 28.01.2020
3539 Haze 24 1014 64 3000 2.1 320 21:42 28.01.2020
3540 Haze 24 1014 64 3000 2.1 320 21:24 28.01.2020
3541 Haze 24 1014 64 3000 2.6 340 20:59 28.01.2020
3542 Haze 24 1014 64 3000 2.6 340 20:59 28.01.2020
3543 Haze 24 1015 64 3000 3.6 10 20:40 28.01.2020
3544 Haze 24 1015 64 3000 3.6 10 20:21 28.01.2020
3545 Haze 24 1015 64 3000 3.6 310 19:39 28.01.2020
3546 Haze 24 1015 64 3000 3.6 310 19:21 28.01.2020
3547 Haze 24 1015 69 3000 4.1 330 18:59 28.01.2020
3548 Haze 24 1015 69 3000 4.1 310 18:40 28.01.2020
3549 Haze 24 1015 69 3000 4.1 310 18:22 28.01.2020
3550 Haze 24 1015 69 3000 4.1 310 18:22 28.01.2020
3551 Haze 24 1014 69 3000 3.6 320 17:59 28.01.2020
3552 Haze 25 1014 65 3000 3.6 340 17:38 28.01.2020
3553 Haze 25 1014 65 3000 3.6 340 17:38 28.01.2020
3554 Haze 25 1014 65 3000 3.6 340 17:19 28.01.2020
3555 Haze 24 1014 69 4000 4.1 360 16:55 28.01.2020
3556 Haze 24 1014 73 4000 3.6 320 16:37 28.01.2020
3557 Haze 24 1014 73 4000 3.6 320 16:19 28.01.2020
3558 Haze 25 1013 69 4000 3.1 330 15:44 28.01.2020
3559 Haze 25 1013 69 5000 4.1 310 15:19 28.01.2020
3560 Haze 25 1012 69 5000 3.6 310 14:57 28.01.2020
3561 Haze 26 1012 65 5000 4.1 240 14:38 28.01.2020
3562 Haze 26 1012 65 5000 4.1 240 14:18 28.01.2020
3563 Clouds 27 1012 57 6000 3.6 210 13:39 28.01.2020
3564 Clouds 27 1012 57 6000 3.6 210 13:21 28.01.2020
3565 Clouds 27 1012 57 6000 4.1 240 12:42 28.01.2020
3566 Clouds 28 1011 54 6000 5.1 260 12:24 28.01.2020
3567 Clouds 28 1011 54 6000 4.6 230 11:55 28.01.2020
3568 Clouds 28 1011 48 6000 4.6 260 11:37 28.01.2020
3569 Clouds 29 1011 48 6000 4.6 260 11:19 28.01.2020
3570 Smoke 29 1012 48 5000 4.6 250 10:41 28.01.2020
3571 Smoke 29 1012 48 5000 4.6 250 10:22 28.01.2020
3572 Clouds 28 1013 57 6000 3.1 230 09:55 28.01.2020
3573 Smoke 28 1012 47 5000 4.1 270 09:37 28.01.2020
3574 Smoke 28 1012 47 5000 4.1 270 09:18 28.01.2020
3575 Smoke 29 1013 45 4000 2.6 270 08:41 28.01.2020
3576 Smoke 28 1013 45 4000 2.6 270 08:20 28.01.2020
3577 Smoke 27 1014 51 3500 3.6 270 07:38 28.01.2020
3578 Haze 27 1014 61 2500 2.1 190 06:51 28.01.2020
3579 Haze 27 1014 61 2500 2.1 190 06:29 28.01.2020
3580 Haze 27 1014 61 2500 2.1 190 06:29 28.01.2020
3581 Haze 26 1014 65 2200 1.5 120 05:55 28.01.2020
3582 Haze 26 1014 69 2200 1.5 110 05:33 28.01.2020
3583 Haze 23 1013 78 2200 1.5 110 04:38 28.01.2020
3584 Mist 23 1013 78 2500 2.1 100 03:36 28.01.2020
3585 Mist 23 1012 78 3000 2.6 120 02:25 28.01.2020
3586 Mist 23 1012 78 3000 2.6 120 01:58 28.01.2020
3587 Mist 23 1012 78 3500 2.6 130 01:40 28.01.2020
3588 Mist 23 1012 78 3500 2.6 130 01:40 28.01.2020
3589 Mist 23 1011 78 3500 1.5 0 00:51 28.01.2020
3590 Mist 24 1011 73 3500 0.83 294 00:29 28.01.2020
3591 Mist 23 1011 78 3500 0.83 294 23:53 27.01.2020
3592 Haze 24 1011 73 3500 2.1 230 23:30 27.01.2020
3593 Haze 24 1011 73 3500 1.37 267 22:59 27.01.2020
3594 Haze 24 1012 73 3500 1.5 250 22:41 27.01.2020
3595 Haze 24 1012 73 3500 1.5 250 22:20 27.01.2020
3596 Haze 24 1012 73 3500 1.5 310 21:57 27.01.2020
3597 Haze 24 1012 69 3500 2.6 250 21:38 27.01.2020
3598 Haze 24 1012 69 3500 2.6 250 21:18 27.01.2020
3599 Haze 24 1012 69 4000 1.37 267 20:55 27.01.2020
3600 Haze 25 1013 69 4000 2.1 330 20:37 27.01.2020
3601 Haze 25 1013 69 4000 2.1 330 20:18 27.01.2020
3602 Haze 24 1013 69 4000 2.6 320 19:41 27.01.2020
3603 Haze 24 1013 69 4000 2.6 320 19:23 27.01.2020
3604 Haze 24 1013 69 4000 2.1 300 18:56 27.01.2020
3605 Haze 24 1013 64 4000 2.6 290 18:38 27.01.2020
3606 Haze 24 1013 64 4000 2.6 290 18:20 27.01.2020
3607 Haze 24 1013 69 3500 3.6 300 17:40 27.01.2020
3608 Haze 24 1013 69 3500 3.6 300 17:21 27.01.2020
3609 Haze 24 1013 69 3500 3.6 300 16:59 27.01.2020
3610 Haze 24 1012 73 3000 2.1 310 16:41 27.01.2020
3611 Haze 24 1012 73 3000 2.1 310 16:41 27.01.2020
3612 Haze 24 1012 73 3000 2.1 310 16:23 27.01.2020
3613 Haze 25 1012 69 3000 2.6 330 15:55 27.01.2020
3614 Haze 25 1011 69 3000 4.1 300 15:37 27.01.2020
3615 Haze 25 1011 69 3000 4.1 300 15:19 27.01.2020
3616 Haze 25 1011 69 3000 4.1 300 15:19 27.01.2020
3617 Haze 25 1011 65 4000 3.6 290 14:43 27.01.2020
3618 Haze 27 1011 65 4000 3.6 290 14:23 27.01.2020
3619 Smoke 26 1010 57 5000 4.6 310 13:58 27.01.2020
3620 Smoke 28 1010 57 5000 5.1 290 13:40 27.01.2020
3621 Smoke 27 1010 57 5000 5.1 290 13:20 27.01.2020
3622 Smoke 27 1010 69 5000 5.1 300 12:55 27.01.2020
3623 Smoke 27 1010 65 5000 4.6 290 12:37 27.01.2020
3624 Smoke 27 1010 65 5000 4.6 290 12:18 27.01.2020
3625 Smoke 27 1010 47 5000 6.2 290 11:41 27.01.2020
3626 Smoke 28 1010 47 5000 6.2 290 11:21 27.01.2020
3627 Smoke 29 1011 45 5000 5.1 290 10:43 27.01.2020
3628 Smoke 30 1011 30 5000 5.1 270 10:25 27.01.2020
3629 Smoke 29 1011 42 4000 5.7 270 09:56 27.01.2020
3630 Smoke 29 1012 48 4000 5.1 270 09:38 27.01.2020
3631 Smoke 29 1012 48 4000 5.1 270 09:18 27.01.2020
3632 Smoke 29 1012 51 4000 5.1 260 08:42 27.01.2020
3633 Smoke 28 1013 48 3000 4.6 290 08:20 27.01.2020
3634 Smoke 28 1013 51 3000 5.1 270 07:54 27.01.2020
3635 Smoke 28 1014 54 3000 4.1 300 07:34 27.01.2020
3636 Smoke 28 1014 57 3000 3.6 280 06:53 27.01.2020
3637 Smoke 28 1014 51 3000 1.5 320 06:25 27.01.2020
3638 Haze 26 1014 65 2500 2.6 290 05:24 27.01.2020
3639 Haze 24 1012 69 1900 1.5 0 03:49 27.01.2020
3640 Haze 24 1011 78 2100 2.6 360 02:42 27.01.2020
3641 Mist 24 1011 78 2000 1.5 320 01:29 27.01.2020
3642 Mist 24 1010 83 2100 2.6 300 00:58 27.01.2020
3643 Mist 24 1010 88 2000 1.5 310 00:37 27.01.2020
3644 Mist 24 1010 88 2000 1.5 310 00:18 27.01.2020
3645 Mist 24 1010 88 1800 2.1 280 23:41 26.01.2020
3646 Mist 24 1010 88 1800 2.1 280 23:19 26.01.2020
3647 Mist 24 1010 88 1700 2.1 230 22:55 26.01.2020
3648 Haze 25 1011 83 1800 2.6 230 22:37 26.01.2020
3649 Haze 25 1011 83 1800 2.6 230 22:18 26.01.2020
3650 Haze 25 1011 83 1700 1.5 210 21:56 26.01.2020
3651 Haze 25 1011 83 1700 1.39 126 21:38 26.01.2020
3652 Haze 25 1011 83 1700 1.39 126 21:19 26.01.2020
3653 Haze 25 1011 83 1700 1.5 180 20:55 26.01.2020
3654 Haze 25 1011 83 1800 2.1 200 20:37 26.01.2020
3655 Haze 25 1011 83 1800 2.1 200 20:18 26.01.2020
3656 Haze 26 1012 78 1800 2.6 210 19:56 26.01.2020
3657 Haze 27 1012 69 1800 2.6 230 19:37 26.01.2020
3658 Haze 27 1012 69 1800 2.6 230 19:37 26.01.2020
3659 Haze 27 1012 69 1800 2.6 230 19:18 26.01.2020
3660 Haze 25 1012 78 2500 3.1 220 18:41 26.01.2020
3661 Haze 25 1012 78 2500 3.1 220 18:22 26.01.2020
3662 Haze 26 1012 69 2500 3.1 210 17:58 26.01.2020
3663 Haze 26 1012 69 2500 3.1 210 17:58 26.01.2020
3664 Haze 27 1011 57 2500 1.59 134 17:39 26.01.2020
3665 Haze 27 1011 57 2500 0.56 325 17:20 26.01.2020
3666 Haze 27 1011 57 2500 0.56 325 16:58 26.01.2020
3667 Haze 27 1011 57 2500 0.56 325 16:58 26.01.2020
3668 Smoke 27 1011 57 3000 1.5 0 16:39 26.01.2020
3669 Smoke 27 1011 57 3000 1.5 0 16:39 26.01.2020
3670 Smoke 27 1011 57 3000 1.5 0 16:39 26.01.2020
3671 Smoke 27 1011 57 3000 1.5 0 16:20 26.01.2020
3672 Clear 25 1012 58 0 0.56 325 15:58 26.01.2020
3673 Clear 25 1012 58 0 0.56 325 15:39 26.01.2020
3674 Clear 25 1012 58 0 0.56 325 15:18 26.01.2020
3675 Clear 25 1012 58 0 0.56 325 14:40 26.01.2020
3676 Clear 32 1007 40 0 3.07 290 14:21 26.01.2020
3677 Clear 32 1006 41 0 3.07 290 13:55 26.01.2020
3678 Clear 33 1006 41 0 3.07 290 13:37 26.01.2020
3679 Clear 33 1006 41 0 3.07 290 13:37 26.01.2020
3680 Clear 33 1006 41 0 2.93 286 13:18 26.01.2020
3681 Clear 33 1006 41 0 2.93 286 13:18 26.01.2020
3682 Clear 33 1006 40 0 2.93 286 12:42 26.01.2020
3683 Clear 33 1006 39 0 2.93 286 12:23 26.01.2020
3684 Clear 33 1006 38 0 2.93 286 11:57 26.01.2020
3685 Clear 33 1006 38 0 2.93 286 11:39 26.01.2020
3686 Smoke 31 1011 51 3000 4.6 270 11:19 26.01.2020
3687 Smoke 31 1011 51 3000 4.6 270 10:58 26.01.2020
3688 Smoke 30 1011 51 3000 4.6 270 10:38 26.01.2020
3689 Smoke 30 1011 51 3000 4.6 270 10:20 26.01.2020
3690 Smoke 31 1011 45 3000 4.6 270 09:57 26.01.2020
3691 Smoke 30 1012 45 3000 4.1 260 09:39 26.01.2020
3692 Smoke 30 1012 45 3000 4.1 260 09:39 26.01.2020
3693 Smoke 31 1012 45 3000 4.1 260 09:21 26.01.2020
3694 Smoke 31 1012 45 2800 4.6 270 08:43 26.01.2020
3695 Smoke 31 1013 45 2500 4.1 250 08:22 26.01.2020
3696 Smoke 31 1013 33 2500 2.6 200 07:57 26.01.2020
3697 Smoke 30 1014 38 2200 1.5 150 07:39 26.01.2020
3698 Smoke 30 1014 38 2200 1.5 150 07:21 26.01.2020
3699 Smoke 29 1014 45 2000 2.1 360 06:31 26.01.2020
3700 Smoke 28 1014 54 1600 1.93 292 05:32 26.01.2020
3701 Haze 25 1013 61 1500 1.5 50 04:45 26.01.2020
3702 Haze 23 1012 65 2200 2.1 210 02:54 26.01.2020
3703 Haze 25 1011 65 3000 1.71 37 01:49 26.01.2020
3704 Haze 25 1011 61 3000 1.71 37 01:25 26.01.2020
3705 Smoke 25 1011 61 3000 1.5 0 00:48 26.01.2020
3706 Smoke 26 1011 54 3000 1.33 46 00:29 26.01.2020
3707 Clear 23 1012 43 0 1.33 46 23:41 25.01.2020
3708 Clear 23 1012 43 0 1.33 46 23:22 25.01.2020
3709 Clear 24 1012 46 0 1.61 56 22:59 25.01.2020
3710 Clear 24 1012 46 0 1.61 56 22:40 25.01.2020
3711 Clear 24 1012 46 0 1.61 56 22:19 25.01.2020
3712 Clear 24 1012 46 0 1.61 56 21:57 25.01.2020
3713 Clear 24 1012 46 0 1.61 56 21:38 25.01.2020
3714 Clear 24 1012 46 0 1.61 56 21:20 25.01.2020
3715 Clear 24 1012 46 0 1.61 56 20:44 25.01.2020
3716 Clear 24 1012 46 0 1.61 56 20:44 25.01.2020
3717 Clear 24 1012 46 0 1.61 56 20:25 25.01.2020
3718 Clouds 25 1014 49 0 1.52 50 19:55 25.01.2020
3719 Clouds 25 1014 49 0 1.52 50 19:37 25.01.2020
3720 Clouds 25 1014 51 0 1.21 56 19:18 25.01.2020
3721 Clouds 25 1014 49 0 1.52 50 18:42 25.01.2020
3722 Clouds 25 1014 51 0 1.21 56 18:22 25.01.2020
3723 Clouds 25 1014 49 0 1.52 50 17:58 25.01.2020
3724 Clouds 25 1014 49 0 1.52 50 17:38 25.01.2020
3725 Clear 26 1013 46 0 1.7 18 17:19 25.01.2020
3726 Clear 26 1013 46 0 1.7 18 16:43 25.01.2020
3727 Clear 26 1013 46 0 1.7 18 16:23 25.01.2020
3728 Clear 26 1013 46 0 1.7 18 15:58 25.01.2020
3729 Clear 26 1013 46 0 1.7 18 15:58 25.01.2020
3730 Clear 26 1013 46 0 1.7 18 15:39 25.01.2020
3731 Clear 26 1013 46 0 1.7 18 15:21 25.01.2020
3732 Clear 26 1013 46 0 1.7 18 14:43 25.01.2020
3733 Clouds 33 1008 43 0 7.83 316 14:19 25.01.2020
3734 Clouds 33 1008 43 0 7.83 316 13:54 25.01.2020
3735 Clouds 33 1008 43 0 7.83 316 13:36 25.01.2020
3736 Clouds 33 1008 44 0 7.47 316 13:18 25.01.2020
3737 Clouds 33 1008 44 0 7.47 316 13:18 25.01.2020
3738 Smoke 31 1011 48 3000 5.7 300 12:41 25.01.2020
3739 Smoke 31 1011 48 3000 5.7 300 12:20 25.01.2020
3740 Smoke 32 1011 43 3000 4.1 300 11:40 25.01.2020
3741 Smoke 32 1011 43 3000 4.1 300 11:20 25.01.2020
3742 Smoke 32 1012 46 3000 4.1 310 10:56 25.01.2020
3743 Smoke 31 1011 43 3000 5.7 300 10:38 25.01.2020
3744 Smoke 31 1011 43 3000 5.7 300 10:38 25.01.2020
3745 Smoke 31 1011 43 3000 5.7 300 10:18 25.01.2020
3746 Smoke 32 1012 36 3500 2.6 280 09:40 25.01.2020
3747 Smoke 32 1012 36 3500 2.6 280 09:20 25.01.2020
3748 Smoke 32 1013 36 3500 2.1 130 08:43 25.01.2020
3749 Smoke 32 1014 40 2500 1.5 0 08:00 25.01.2020
3750 Smoke 31 1015 40 2500 2.6 60 07:40 25.01.2020
3751 Smoke 31 1015 43 2500 2.1 70 06:44 25.01.2020
3752 Smoke 30 1016 45 2500 2.6 60 06:24 25.01.2020
3753 Smoke 28 1015 48 2500 3.1 40 05:44 25.01.2020
3754 Smoke 26 1015 57 2000 2.6 40 04:24 25.01.2020
3755 Smoke 24 1014 61 2000 2.1 30 03:50 25.01.2020
3756 Haze 25 1013 61 3000 2.1 100 02:38 25.01.2020
3757 Haze 24 1013 69 3000 1.5 120 01:58 25.01.2020
3758 Haze 24 1013 69 3000 1.5 80 01:23 25.01.2020
3759 Haze 24 1013 69 3000 2.55 50 00:41 25.01.2020
3760 Haze 24 1013 69 3000 2.55 50 00:41 25.01.2020
3761 Haze 24 1013 69 3000 2.55 50 00:22 25.01.2020
3762 Haze 25 1013 65 3500 2.55 50 23:42 24.01.2020
3763 Haze 25 1013 65 3500 2.55 50 23:24 24.01.2020
3764 Smoke 26 1013 65 3500 1.5 320 22:47 24.01.2020
3765 Smoke 26 1014 65 3500 2.18 57 22:29 24.01.2020
3766 Smoke 26 1014 65 3500 2.18 57 21:59 24.01.2020
3767 Smoke 27 1014 61 3500 2.6 210 21:41 24.01.2020
3768 Smoke 27 1014 61 3500 2.6 210 21:19 24.01.2020
3769 Smoke 26 1014 65 3500 1.5 280 20:44 24.01.2020
3770 Smoke 28 1014 51 3500 2.41 45 20:23 24.01.2020
3771 Smoke 28 1014 54 3500 2.96 41 19:59 24.01.2020
3772 Smoke 28 1014 51 3500 2.96 41 19:41 24.01.2020
3773 Smoke 28 1014 51 3500 2.96 41 19:22 24.01.2020
3774 Smoke 28 1014 51 3500 2.6 70 18:57 24.01.2020
3775 Smoke 29 1014 51 3500 2.6 30 18:39 24.01.2020
3776 Smoke 29 1014 51 3500 2.6 30 18:21 24.01.2020
3777 Smoke 29 1014 51 3500 2.6 30 18:21 24.01.2020
3778 Smoke 29 1014 51 3500 3.6 50 17:42 24.01.2020
3779 Smoke 29 1014 51 3500 3.6 50 17:21 24.01.2020
3780 Smoke 29 1014 51 3500 3.1 20 16:57 24.01.2020
3781 Smoke 29 1014 51 3500 3.1 20 16:57 24.01.2020
3782 Smoke 29 1013 48 3500 2.6 360 16:38 24.01.2020
3783 Smoke 29 1013 48 3500 2.6 360 16:18 24.01.2020
3784 Smoke 30 1013 48 4000 3.6 340 15:41 24.01.2020
3785 Smoke 30 1013 48 4000 3.6 340 15:21 24.01.2020
3786 Smoke 29 1012 45 4000 3.1 340 14:42 24.01.2020
3787 Smoke 29 1012 45 4500 3.1 320 14:24 24.01.2020
3788 Smoke 30 1012 40 5000 3.6 310 13:59 24.01.2020
3789 Smoke 31 1011 40 5000 3.6 310 13:40 24.01.2020
3790 Smoke 31 1011 40 5000 3.6 310 13:21 24.01.2020
3791 Smoke 31 1011 43 4500 4.1 330 12:42 24.01.2020
3792 Smoke 31 1011 45 4500 4.6 310 12:20 24.01.2020
3793 Smoke 32 1011 41 4000 5.7 310 11:44 24.01.2020
3794 Smoke 32 1011 41 4000 5.7 310 11:19 24.01.2020
3795 Smoke 33 1011 41 4000 4.6 300 10:56 24.01.2020
3796 Smoke 33 1012 41 4000 4.6 300 10:38 24.01.2020
3797 Smoke 32 1012 41 4000 4.6 300 10:18 24.01.2020
3798 Smoke 32 1013 41 3000 4.1 290 09:41 24.01.2020
3799 Smoke 32 1013 41 3000 4.1 290 09:23 24.01.2020
3800 Smoke 32 1014 33 3000 1.5 110 08:41 24.01.2020
3801 Smoke 32 1014 33 3000 1.5 110 08:21 24.01.2020
3802 Smoke 32 1015 38 2500 2.1 360 07:58 24.01.2020
3803 Smoke 31 1015 40 2500 1.5 80 07:37 24.01.2020
3804 Smoke 30 1015 42 2500 2.6 50 06:53 24.01.2020
3805 Smoke 30 1016 45 2500 2.1 20 06:33 24.01.2020
3806 Smoke 29 1016 51 2500 3.6 20 05:59 24.01.2020
3807 Smoke 28 1015 51 2500 2.1 30 05:18 24.01.2020
3808 Smoke 24 1013 57 2500 2.1 70 02:54 24.01.2020
3809 Haze 26 1013 57 3000 2.1 80 02:27 24.01.2020
3810 Haze 26 1012 57 3000 1.5 80 01:56 24.01.2020
3811 Haze 25 1012 61 3000 1.5 30 01:35 24.01.2020
3812 Haze 26 1012 57 3000 2.1 70 00:33 24.01.2020
3813 Haze 26 1013 57 3000 1.5 30 23:58 23.01.2020
3814 Haze 26 1013 57 3000 2.6 40 23:40 23.01.2020
3815 Haze 26 1013 57 3000 2.6 40 23:20 23.01.2020
3816 Haze 26 1013 61 3000 2.29 72 22:55 23.01.2020
3817 Smoke 27 1013 54 3000 1.5 70 22:36 23.01.2020
3818 Smoke 27 1013 54 3000 1.5 70 22:18 23.01.2020
3819 Smoke 27 1013 57 3000 2.1 160 21:54 23.01.2020
3820 Smoke 27 1014 57 3000 2.6 180 21:36 23.01.2020
3821 Smoke 27 1014 57 3000 2.6 180 21:18 23.01.2020
3822 Smoke 28 1014 51 3000 1.5 0 20:40 23.01.2020
3823 Smoke 28 1014 51 3000 1.5 0 20:22 23.01.2020
3824 Smoke 28 1014 51 3000 2.6 40 19:57 23.01.2020
3825 Smoke 28 1015 51 3000 2.6 30 19:38 23.01.2020
3826 Smoke 28 1015 51 3000 2.6 30 19:38 23.01.2020
3827 Smoke 28 1015 51 3000 2.6 30 19:20 23.01.2020
3828 Smoke 28 1015 51 3000 2.6 10 18:56 23.01.2020
3829 Smoke 28 1014 54 3000 2.6 360 18:37 23.01.2020
3830 Smoke 28 1014 54 3000 2.6 360 18:19 23.01.2020
3831 Smoke 28 1014 54 3000 4.6 10 17:43 23.01.2020
3832 Smoke 28 1014 54 3000 4.6 10 17:20 23.01.2020
3833 Smoke 29 1014 51 3000 3.1 30 16:58 23.01.2020
3834 Smoke 29 1013 51 3000 2.6 10 16:38 23.01.2020
3835 Smoke 29 1013 51 3000 2.6 10 16:19 23.01.2020
3836 Smoke 29 1013 51 3000 3.1 340 15:57 23.01.2020
3837 Smoke 29 1013 54 3000 3.6 340 15:38 23.01.2020
3838 Smoke 29 1012 51 3000 2.6 330 15:18 23.01.2020
3839 Smoke 29 1013 54 3000 3.6 340 15:18 23.01.2020
3840 Smoke 29 1012 51 3000 2.6 330 14:56 23.01.2020
3841 Smoke 29 1012 51 3000 2.6 330 14:56 23.01.2020
3842 Smoke 29 1012 51 3500 3.1 310 14:38 23.01.2020
3843 Smoke 30 1012 51 3500 3.1 310 14:20 23.01.2020
3844 Smoke 31 1012 43 3500 4.1 320 13:45 23.01.2020
3845 Smoke 31 1012 43 3500 4.1 320 13:21 23.01.2020
3846 Smoke 31 1012 45 3500 4.6 310 12:55 23.01.2020
3847 Smoke 31 1012 48 3500 5.1 330 12:36 23.01.2020
3848 Smoke 31 1012 48 3500 5.1 330 12:18 23.01.2020
3849 Smoke 31 1012 45 3500 3.6 300 11:43 23.01.2020
3850 Smoke 32 1012 43 3500 5.7 270 11:24 23.01.2020
3851 Smoke 32 1012 40 3500 5.1 300 10:58 23.01.2020
3852 Smoke 32 1012 43 3500 4.6 270 10:40 23.01.2020
3853 Smoke 32 1012 43 3500 4.6 270 10:18 23.01.2020
3854 Smoke 33 1013 34 4000 4.1 130 09:41 23.01.2020
3855 Smoke 33 1013 34 4000 4.1 130 09:41 23.01.2020
3856 Smoke 33 1013 34 4000 4.1 130 09:21 23.01.2020
3857 Smoke 33 1014 36 4000 4.1 90 08:56 23.01.2020
3858 Smoke 33 1015 36 4000 3.6 80 08:37 23.01.2020
3859 Smoke 32 1015 36 4000 3.6 80 08:18 23.01.2020
3860 Smoke 32 1016 38 3000 3.6 60 07:37 23.01.2020
3861 Smoke 32 1016 38 3000 3.6 60 07:18 23.01.2020
3862 Smoke 30 1016 42 2500 3.6 70 06:44 23.01.2020
3863 Smoke 29 1016 45 2500 4.1 90 06:18 23.01.2020
3864 Smoke 25 1015 54 2200 3.1 70 04:25 23.01.2020
3865 Smoke 22 1014 60 2500 1.5 70 03:23 23.01.2020
3866 Smoke 23 1013 64 3000 3.16 54 01:53 23.01.2020
3867 Smoke 24 1013 60 3000 1.5 0 00:44 23.01.2020
3868 Smoke 24 1013 60 3000 2.85 49 00:24 23.01.2020
3869 Smoke 24 1013 60 3000 2.85 49 23:46 22.01.2020
3870 Smoke 25 1013 61 3000 2.85 49 23:28 22.01.2020
3871 Smoke 25 1013 61 3500 1.5 50 22:43 22.01.2020
3872 Smoke 25 1014 61 3500 1.5 130 22:25 22.01.2020
3873 Smoke 25 1014 61 3500 2.1 350 21:59 22.01.2020
3874 Smoke 25 1014 61 3500 2.6 180 21:38 22.01.2020
3875 Smoke 25 1014 61 3500 2.6 180 21:19 22.01.2020
3876 Smoke 26 1015 57 3500 2.1 170 20:42 22.01.2020
3877 Smoke 26 1015 57 3500 2.1 170 20:42 22.01.2020
3878 Smoke 26 1015 57 3500 2.1 170 20:23 22.01.2020
3879 Smoke 27 1015 54 3500 2.1 180 19:59 22.01.2020
3880 Smoke 27 1015 54 3500 1.5 180 19:41 22.01.2020
3881 Smoke 27 1015 54 3500 1.5 180 19:21 22.01.2020
3882 Smoke 26 1015 57 3500 2.52 51 18:59 22.01.2020
3883 Smoke 27 1016 54 3500 3.1 40 18:40 22.01.2020
3884 Smoke 27 1016 54 3500 3.1 40 18:21 22.01.2020
3885 Smoke 27 1016 54 3500 2.6 20 17:59 22.01.2020
3886 Smoke 27 1015 57 3500 2.1 30 17:39 22.01.2020
3887 Smoke 27 1015 57 3500 2.1 30 17:20 22.01.2020
3888 Smoke 27 1015 57 3500 2.1 30 17:20 22.01.2020
3889 Smoke 27 1015 54 3500 2.1 350 16:56 22.01.2020
3890 Smoke 28 1015 51 3500 3.1 340 16:37 22.01.2020
3891 Smoke 28 1015 51 3500 3.1 340 16:18 22.01.2020
3892 Smoke 28 1014 54 3500 3.1 340 15:43 22.01.2020
3893 Smoke 28 1014 51 3500 3.6 340 15:24 22.01.2020
3894 Smoke 27 1014 51 3500 2.1 320 14:59 22.01.2020
3895 Smoke 27 1013 54 3500 3.6 320 14:38 22.01.2020
3896 Smoke 29 1013 54 3500 3.6 320 14:20 22.01.2020
3897 Smoke 28 1013 51 4000 3.1 330 13:57 22.01.2020
3898 Smoke 29 1013 51 4000 4.6 310 13:37 22.01.2020
3899 Smoke 29 1013 51 4000 4.6 310 13:19 22.01.2020
3900 Smoke 30 1013 51 3500 4.1 310 12:57 22.01.2020
3901 Smoke 30 1013 45 3500 4.1 310 12:38 22.01.2020
3902 Smoke 31 1013 45 3500 4.1 310 12:19 22.01.2020
3903 Smoke 31 1013 48 3500 3.6 320 11:56 22.01.2020
3904 Smoke 31 1013 45 3500 3.1 300 11:38 22.01.2020
3905 Smoke 31 1013 45 3500 3.1 300 11:19 22.01.2020
3906 Smoke 30 1014 48 3500 4.6 280 10:45 22.01.2020
3907 Smoke 30 1014 48 3500 4.6 280 10:21 22.01.2020
3908 Smoke 31 1014 36 3500 3.1 270 09:58 22.01.2020
3909 Smoke 31 1015 38 3000 1.5 20 09:40 22.01.2020
3910 Smoke 31 1015 38 3000 1.5 20 09:21 22.01.2020
3911 Smoke 31 1015 35 3000 2.1 100 08:55 22.01.2020
3912 Smoke 31 1016 35 2500 3.6 70 08:36 22.01.2020
3913 Smoke 31 1016 35 2500 3.6 70 08:18 22.01.2020
3914 Smoke 30 1017 40 2500 2.6 70 07:42 22.01.2020
3915 Smoke 30 1017 40 2500 2.6 70 07:23 22.01.2020
3916 Smoke 29 1017 45 2500 2.6 60 06:34 22.01.2020
3917 Smoke 28 1017 48 2300 2.6 70 05:45 22.01.2020
3918 Smoke 23 1016 64 2500 2.51 43 04:25 22.01.2020
3919 Haze 23 1015 60 2500 2.51 43 03:26 22.01.2020
3920 Haze 24 1015 57 2500 1.5 100 02:42 22.01.2020
3921 Haze 24 1014 60 3000 2.17 49 00:47 22.01.2020
3922 Haze 24 1014 64 3000 2.17 49 00:27 22.01.2020
3923 Haze 23 1014 64 3000 2.17 49 23:57 21.01.2020
3924 Haze 25 1014 57 3000 2.17 49 23:37 21.01.2020
3925 Haze 25 1014 57 3000 2.04 75 23:19 21.01.2020
3926 Smoke 24 1014 60 3000 2.04 75 22:40 21.01.2020
3927 Smoke 24 1014 60 3000 2.04 75 22:21 21.01.2020
3928 Smoke 25 1014 53 3000 2.04 75 21:58 21.01.2020
3929 Smoke 26 1015 50 3000 2.04 75 21:38 21.01.2020
3930 Smoke 26 1015 50 3000 2.04 75 21:20 21.01.2020
3931 Smoke 26 1015 47 3000 2.1 160 20:57 21.01.2020
3932 Smoke 26 1015 47 4000 2.04 75 20:38 21.01.2020
3933 Smoke 26 1015 47 4000 0.95 47 20:20 21.01.2020
3934 Smoke 27 1015 44 4000 1.5 20 19:57 21.01.2020
3935 Smoke 26 1015 47 4000 1.33 45 19:39 21.01.2020
3936 Smoke 26 1015 47 4000 1.33 45 19:20 21.01.2020
3937 Smoke 26 1015 47 4000 1.33 45 19:20 21.01.2020
3938 Smoke 26 1015 47 4000 1.33 45 18:55 21.01.2020
3939 Smoke 26 1016 47 4000 1.5 30 18:37 21.01.2020
3940 Smoke 27 1016 44 4000 3.1 60 18:18 21.01.2020
3941 Smoke 27 1016 44 4000 3.1 60 17:45 21.01.2020
3942 Smoke 26 1016 47 4000 1.66 337 17:20 21.01.2020
3943 Smoke 26 1015 47 4000 1.5 60 16:59 21.01.2020
3944 Smoke 27 1015 42 4000 2.1 340 16:37 21.01.2020
3945 Smoke 27 1015 42 4000 2.1 340 16:37 21.01.2020
3946 Smoke 27 1015 42 4000 2.1 340 16:37 21.01.2020
3947 Smoke 27 1015 42 4000 2.1 340 16:19 21.01.2020
3948 Smoke 27 1015 42 4000 1.5 290 15:54 21.01.2020
3949 Smoke 27 1014 42 4000 1.5 330 15:36 21.01.2020
3950 Smoke 27 1014 42 4000 1.5 330 15:18 21.01.2020
3951 Smoke 27 1013 51 3500 4.1 300 14:38 21.01.2020
3952 Smoke 28 1013 51 3500 4.1 300 14:20 21.01.2020
3953 Smoke 29 1013 54 3500 4.1 300 13:40 21.01.2020
3954 Smoke 29 1013 54 3500 4.1 300 13:19 21.01.2020
3955 Smoke 29 1013 54 3500 4.6 300 12:45 21.01.2020
3956 Smoke 30 1012 45 3500 3.6 310 12:27 21.01.2020
3957 Smoke 30 1012 54 3500 3.6 300 11:58 21.01.2020
3958 Smoke 29 1012 51 3000 3.6 290 11:40 21.01.2020
3959 Smoke 29 1012 51 3000 3.6 290 11:21 21.01.2020
3960 Smoke 29 1012 51 3000 3.6 290 11:21 21.01.2020
3961 Smoke 29 1013 54 3000 4.6 300 10:55 21.01.2020
3962 Smoke 29 1013 58 3000 3.6 320 10:37 21.01.2020
3963 Smoke 29 1013 58 3000 3.6 320 10:18 21.01.2020
3964 Smoke 29 1014 54 3000 4.1 280 09:41 21.01.2020
3965 Smoke 29 1014 54 3000 4.1 280 09:22 21.01.2020
3966 Smoke 29 1014 45 3000 4.1 290 08:50 21.01.2020
3967 Smoke 29 1015 45 3000 4.6 280 08:30 21.01.2020
3968 Smoke 28 1015 47 2500 4.6 290 07:59 21.01.2020
3969 Smoke 29 1015 54 2200 3.6 280 07:40 21.01.2020
3970 Smoke 28 1015 54 2200 3.6 280 07:22 21.01.2020
3971 Smoke 29 1016 45 2200 1.5 200 06:49 21.01.2020
3972 Smoke 28 1016 48 1900 1.64 299 06:29 21.01.2020
3973 Smoke 28 1016 48 1900 1.64 299 06:29 21.01.2020
3974 Smoke 28 1016 48 1900 1.64 299 06:29 21.01.2020
3975 Haze 27 1016 65 1500 2.1 150 05:42 21.01.2020
3976 Haze 23 1015 73 1200 2.1 130 04:40 21.01.2020
3977 Haze 23 1014 73 1800 1.41 85 02:57 21.01.2020
3978 Haze 23 1013 78 2200 2.1 340 01:55 21.01.2020
3979 Haze 23 1012 78 2200 0.77 95 01:18 21.01.2020
3980 Haze 23 1012 78 2200 1.5 260 00:37 21.01.2020
3981 Haze 23 1012 78 2200 0.77 95 23:59 20.01.2020
3982 Haze 24 1012 73 2200 2.1 160 23:39 20.01.2020
3983 Haze 24 1012 73 2200 2.1 160 23:39 20.01.2020
3984 Haze 24 1012 73 2200 2.1 160 23:19 20.01.2020
3985 Haze 24 1013 69 2200 3.6 120 22:56 20.01.2020
3986 Haze 25 1013 61 2500 2.6 100 22:37 20.01.2020
3987 Haze 25 1013 61 2500 2.6 100 22:19 20.01.2020
3988 Haze 25 1013 61 2500 2.6 120 21:57 20.01.2020
3989 Haze 26 1013 57 2500 2.6 70 21:37 20.01.2020
3990 Haze 26 1013 57 2500 2.6 70 21:19 20.01.2020
3991 Haze 26 1014 57 2500 1.5 160 20:56 20.01.2020
3992 Haze 26 1014 57 2500 1.5 160 20:56 20.01.2020
3993 Smoke 26 1014 57 2500 2.6 130 20:38 20.01.2020
3994 Smoke 26 1014 57 2500 1.5 90 20:18 20.01.2020
3995 Smoke 26 1014 57 2500 1.5 90 19:56 20.01.2020
3996 Smoke 26 1014 57 2500 1.5 90 19:56 20.01.2020
3997 Smoke 26 1014 57 2500 1.02 21 19:37 20.01.2020
3998 Smoke 26 1014 57 2500 1.02 21 19:18 20.01.2020
3999 Smoke 26 1015 57 2500 1.02 21 18:44 20.01.2020
4000 Smoke 26 1015 57 2500 1.02 21 18:22 20.01.2020
4001 Smoke 27 1014 54 3000 2.6 350 17:41 20.01.2020
4002 Smoke 27 1014 54 3000 2.6 350 17:20 20.01.2020
4003 Smoke 27 1014 54 3000 2.6 350 17:20 20.01.2020
4004 Smoke 27 1014 54 3000 2.6 340 16:59 20.01.2020
4005 Smoke 27 1014 57 3000 2.1 340 16:39 20.01.2020
4006 Smoke 27 1014 57 3000 2.1 340 16:19 20.01.2020
4007 Smoke 27 1014 57 3000 2.1 340 16:18 20.01.2020
4008 Smoke 27 1014 57 3000 2.1 340 16:18 20.01.2020
4009 Smoke 27 1014 57 3000 2.1 340 16:18 20.01.2020
4010 Smoke 27 1014 57 3000 2.1 340 16:18 20.01.2020
4011 Smoke 26 1013 61 3000 2.1 300 15:56 20.01.2020
4012 Smoke 26 1013 61 3000 2.6 320 15:38 20.01.2020
4013 Smoke 26 1013 61 3000 2.6 320 15:20 20.01.2020
4014 Smoke 28 1012 54 3000 2.1 300 14:41 20.01.2020
4015 Smoke 28 1012 54 3000 2.1 300 14:22 20.01.2020
4016 Smoke 29 1012 51 2500 4.1 330 13:58 20.01.2020
4017 Smoke 29 1011 51 2500 3.6 310 13:40 20.01.2020
4018 Smoke 29 1011 51 2500 3.6 310 13:21 20.01.2020
4019 Smoke 29 1011 51 3000 4.6 300 12:46 20.01.2020
4020 Smoke 30 1011 45 3000 4.1 280 12:28 20.01.2020
4021 Smoke 30 1011 45 3000 4.1 300 11:58 20.01.2020
4022 Smoke 30 1011 45 3000 5.1 280 11:39 20.01.2020
4023 Smoke 30 1011 48 3000 4.1 290 11:20 20.01.2020
4024 Smoke 30 1011 48 3000 4.1 290 10:48 20.01.2020
4025 Smoke 30 1012 48 3000 4.6 280 10:22 20.01.2020
4026 Smoke 32 1012 43 3000 3.6 280 09:57 20.01.2020
4027 Smoke 32 1012 36 3000 2.1 80 09:39 20.01.2020
4028 Smoke 32 1012 36 3000 2.1 80 09:20 20.01.2020
4029 Smoke 32 1013 38 2500 3.1 110 08:44 20.01.2020
4030 Smoke 32 1014 43 2500 3.1 90 08:26 20.01.2020
4031 Smoke 31 1014 42 2500 3.6 120 07:45 20.01.2020
4032 Smoke 30 1015 45 2500 3.6 110 07:25 20.01.2020
4033 Smoke 29 1015 45 2200 3.6 130 06:54 20.01.2020
4034 Smoke 28 1015 48 2200 3.1 100 06:28 20.01.2020
4035 Smoke 27 1015 51 2200 2.6 60 05:43 20.01.2020
4036 Smoke 27 1015 54 2100 2.6 120 05:22 20.01.2020
4037 Haze 25 1015 61 1800 2.1 90 04:47 20.01.2020
4038 Haze 23 1013 64 3000 1 50 02:58 20.01.2020
4039 Haze 23 1013 64 3000 1 50 02:58 20.01.2020
4040 Haze 23 1012 64 5000 1.5 70 01:55 20.01.2020
4041 Clear 23 1012 64 6000 1.5 170 01:37 20.01.2020
4042 Clear 23 1012 69 6000 2.07 55 00:45 20.01.2020
4043 Clear 23 1012 64 6000 2.07 55 00:24 20.01.2020
4044 Haze 23 1012 69 4000 2.07 55 23:39 19.01.2020
4045 Haze 23 1012 69 4000 1.84 91 23:20 19.01.2020
4046 Haze 23 1012 69 3000 1 120 22:57 19.01.2020
4047 Haze 24 1013 60 2800 1.84 91 22:39 19.01.2020
4048 Haze 24 1013 60 2800 1.84 91 22:20 19.01.2020
4049 Haze 24 1013 60 2500 1.84 91 21:57 19.01.2020
4050 Haze 24 1013 69 2500 1.84 91 21:39 19.01.2020
4051 Haze 24 1013 69 2500 1.84 91 21:20 19.01.2020
4052 Smoke 25 1013 57 2500 1.84 91 20:57 19.01.2020
4053 Smoke 25 1013 57 2500 2.1 180 20:39 19.01.2020
4054 Smoke 25 1013 57 2500 2.1 180 20:21 19.01.2020
4055 Smoke 25 1014 57 2500 1.62 55 19:57 19.01.2020
4056 Smoke 25 1014 57 2500 1.62 55 19:39 19.01.2020
4057 Smoke 25 1014 57 2500 1.62 55 19:21 19.01.2020
4058 Smoke 25 1014 57 2500 1.62 55 18:59 19.01.2020
4059 Smoke 26 1014 54 2500 2.1 10 18:41 19.01.2020
4060 Smoke 26 1014 57 2500 2.6 50 18:21 19.01.2020
4061 Smoke 26 1014 57 2500 2.6 50 17:59 19.01.2020
4062 Smoke 26 1014 57 2500 2.1 340 17:40 19.01.2020
4063 Smoke 26 1014 57 2500 2.1 340 17:21 19.01.2020
4064 Smoke 26 1014 57 2500 2.1 340 16:59 19.01.2020
4065 Smoke 26 1013 57 2500 2.1 330 16:40 19.01.2020
4066 Smoke 26 1013 57 2500 2.1 330 16:40 19.01.2020
4067 Smoke 26 1013 57 2500 2.1 330 16:22 19.01.2020
4068 Smoke 27 1013 54 2500 2.1 300 15:59 19.01.2020
4069 Smoke 27 1013 54 2500 2.1 300 15:40 19.01.2020
4070 Smoke 27 1013 54 2500 2.1 300 15:21 19.01.2020
4071 Smoke 27 1012 54 2500 2.1 310 14:59 19.01.2020
4072 Smoke 27 1012 54 2500 2.6 330 14:39 19.01.2020
4073 Smoke 28 1012 54 2500 2.6 330 14:19 19.01.2020
4074 Smoke 28 1011 48 3000 3.1 310 13:58 19.01.2020
4075 Smoke 28 1011 51 3000 3.6 310 13:38 19.01.2020
4076 Smoke 28 1011 51 3000 3.6 310 13:20 19.01.2020
4077 Smoke 29 1011 48 3000 3.6 300 12:56 19.01.2020
4078 Smoke 30 1011 48 3000 3.1 290 12:37 19.01.2020
4079 Smoke 30 1011 48 3000 3.1 290 12:37 19.01.2020
4080 Smoke 30 1011 48 3000 3.1 290 12:19 19.01.2020
4081 Smoke 29 1011 48 2500 5.1 270 11:43 19.01.2020
4082 Smoke 30 1012 45 2500 4.6 290 11:21 19.01.2020
4083 Smoke 30 1012 43 2500 3.6 280 10:57 19.01.2020
4084 Smoke 30 1012 45 2500 5.1 260 10:39 19.01.2020
4085 Smoke 30 1012 45 2500 5.1 260 10:19 19.01.2020
4086 Smoke 30 1012 33 2500 1.5 320 09:56 19.01.2020
4087 Smoke 30 1012 33 2500 1.5 320 09:56 19.01.2020
4088 Smoke 30 1012 33 2500 1.5 320 09:56 19.01.2020
4089 Smoke 30 1013 35 2500 2.6 350 09:37 19.01.2020
4090 Smoke 30 1013 35 2500 2.6 350 09:19 19.01.2020
4091 Smoke 30 1013 38 2500 2.1 10 08:54 19.01.2020
4092 Smoke 29 1014 37 2500 3.1 80 08:30 19.01.2020
4093 Smoke 28 1015 39 2500 3.1 20 07:46 19.01.2020
4094 Smoke 29 1015 39 2500 2.1 50 07:27 19.01.2020
4095 Smoke 27 1016 44 2200 3.1 30 06:54 19.01.2020
4096 Smoke 26 1015 47 2200 4.6 40 06:21 19.01.2020
4097 Haze 21 1014 68 1700 2.6 180 03:51 19.01.2020
4098 Haze 22 1013 64 1800 2.6 70 02:28 19.01.2020
4099 Haze 21 1012 73 1800 2.75 52 01:38 19.01.2020
4100 Haze 21 1012 73 1800 2.77 53 01:18 19.01.2020
4101 Haze 21 1012 73 1800 2.77 53 01:18 19.01.2020
4102 Haze 21 1012 73 1800 1.5 300 00:41 19.01.2020
4103 Haze 21 1012 73 1800 1.5 300 00:41 19.01.2020
4104 Haze 21 1012 73 1800 1.5 300 00:19 19.01.2020
4105 Haze 21 1012 73 2200 2.77 53 23:42 18.01.2020
4106 Haze 21 1012 73 2200 2.77 53 23:24 18.01.2020
4107 Haze 22 1012 68 2200 2.84 33 22:58 18.01.2020
4108 Haze 22 1012 68 2200 2.84 33 22:40 18.01.2020
4109 Haze 22 1012 68 2200 2.84 33 22:21 18.01.2020
4110 Haze 22 1013 68 2200 2.84 33 21:58 18.01.2020
4111 Haze 22 1013 73 2200 2.84 33 21:38 18.01.2020
4112 Haze 22 1013 73 2200 2.84 33 21:20 18.01.2020
4113 Haze 23 1013 64 2200 2.1 340 20:55 18.01.2020
4114 Haze 23 1013 69 2200 1.5 40 20:36 18.01.2020
4115 Haze 23 1013 69 2200 1.5 40 20:18 18.01.2020
4116 Haze 23 1013 64 2200 3.35 32 19:42 18.01.2020
4117 Haze 23 1013 64 2200 3.35 32 19:24 18.01.2020
4118 Haze 24 1014 60 2200 1.5 340 18:43 18.01.2020
4119 Haze 24 1014 60 2200 2.6 10 18:43 18.01.2020
4120 Haze 24 1014 60 2200 2.6 10 18:24 18.01.2020
4121 Haze 24 1014 60 2200 2.1 340 17:57 18.01.2020
4122 Smoke 24 1013 60 2200 2.1 340 17:39 18.01.2020
4123 Smoke 24 1013 60 2200 2.1 340 17:20 18.01.2020
4124 Smoke 25 1013 53 3000 2.2 354 16:56 18.01.2020
4125 Smoke 25 1013 53 3000 2.1 340 16:37 18.01.2020
4126 Smoke 25 1013 53 3000 2.1 340 16:19 18.01.2020
4127 Smoke 26 1013 47 3500 3.1 340 15:43 18.01.2020
4128 Smoke 26 1013 47 3500 3.1 340 15:24 18.01.2020
4129 Smoke 26 1012 44 3500 2.6 330 14:58 18.01.2020
4130 Smoke 26 1012 44 4000 3.1 320 14:39 18.01.2020
4131 Smoke 27 1012 44 4000 3.1 320 14:19 18.01.2020
4132 Smoke 27 1011 44 4000 3.6 330 13:55 18.01.2020
4133 Smoke 28 1011 42 4000 4.6 320 13:36 18.01.2020
4134 Smoke 28 1011 42 4000 4.6 320 13:18 18.01.2020
4135 Smoke 28 1011 45 4000 3.6 310 12:40 18.01.2020
4136 Smoke 28 1011 45 4000 3.6 310 12:21 18.01.2020
4137 Smoke 29 1011 39 3500 4.1 300 11:44 18.01.2020
4138 Smoke 29 1011 39 3500 4.1 300 11:24 18.01.2020
4139 Smoke 29 1011 37 3000 4.1 310 10:58 18.01.2020
4140 Smoke 29 1012 42 3000 4.1 280 10:39 18.01.2020
4141 Smoke 29 1012 42 3000 4.1 280 10:20 18.01.2020
4142 Smoke 29 1012 42 3000 3.1 270 09:49 18.01.2020
4143 Smoke 28 1012 37 3000 3.6 260 09:31 18.01.2020
4144 Smoke 28 1013 32 3000 1.5 60 08:58 18.01.2020
4145 Smoke 28 1014 32 3000 2.1 20 08:39 18.01.2020
4146 Smoke 28 1014 32 3000 2.1 20 08:19 18.01.2020
4147 Smoke 27 1014 34 2500 3.1 80 07:52 18.01.2020
4148 Smoke 26 1014 34 2500 2.1 20 07:32 18.01.2020
4149 Smoke 25 1015 36 2500 1.5 80 06:48 18.01.2020
4150 Smoke 24 1015 38 2500 3.1 80 06:18 18.01.2020
4151 Smoke 22 1015 43 2200 2.6 60 05:25 18.01.2020
4152 Haze 18 1013 59 2200 2.1 120 03:25 18.01.2020
4153 Haze 18 1013 63 2500 1.5 100 01:59 18.01.2020
4154 Haze 19 1012 59 2500 1.5 140 01:35 18.01.2020
4155 Haze 19 1012 59 2500 1.5 50 00:38 18.01.2020
4156 Haze 19 1012 59 2500 1.5 20 00:19 18.01.2020
4157 Haze 19 1012 59 2500 1.5 20 23:44 17.01.2020
4158 Haze 19 1013 63 2500 1.5 20 23:20 17.01.2020
4159 Haze 19 1013 63 2500 2.1 10 22:59 17.01.2020
4160 Haze 19 1014 63 2500 2.1 40 22:40 17.01.2020
4161 Haze 19 1014 63 2500 2.1 40 22:19 17.01.2020
4162 Haze 20 1014 60 2500 2.1 40 21:42 17.01.2020
4163 Haze 20 1014 60 2500 2.6 50 21:24 17.01.2020
4164 Smoke 20 1014 60 2500 3.6 40 20:59 17.01.2020
4165 Haze 20 1014 60 2500 3.1 20 20:40 17.01.2020
4166 Haze 20 1014 60 2500 3.1 20 20:20 17.01.2020
4167 Haze 20 1014 60 2500 2.6 340 19:57 17.01.2020
4168 Haze 20 1015 60 2200 2.6 350 19:38 17.01.2020
4169 Haze 20 1015 60 2200 2.6 350 19:19 17.01.2020
4170 Haze 20 1015 60 2500 3.1 340 18:57 17.01.2020
4171 Smoke 20 1015 60 2500 2.6 350 18:37 17.01.2020
4172 Smoke 20 1015 60 2500 2.6 350 18:19 17.01.2020
4173 Smoke 21 1015 56 2500 3.6 30 17:39 17.01.2020
4174 Smoke 21 1015 56 2500 3.6 30 17:21 17.01.2020
4175 Smoke 21 1014 56 3000 2.6 10 16:44 17.01.2020
4176 Smoke 22 1014 53 3000 4.1 10 16:21 17.01.2020
4177 Haze 21 1014 56 2500 4.6 340 15:58 17.01.2020
4178 Haze 21 1014 56 2500 4.6 340 15:58 17.01.2020
4179 Haze 21 1014 64 2500 4.1 340 15:40 17.01.2020
4180 Haze 21 1014 64 2500 4.1 340 15:22 17.01.2020
4181 Haze 22 1013 60 2500 3.6 310 14:43 17.01.2020
4182 Smoke 22 1013 60 2500 4.1 320 14:25 17.01.2020
4183 Smoke 23 1013 56 3000 3.6 310 13:46 17.01.2020
4184 Smoke 23 1013 56 3000 5.7 330 13:23 17.01.2020
4185 Smoke 24 1013 53 3500 5.1 320 12:56 17.01.2020
4186 Smoke 24 1013 53 3500 6.7 310 12:37 17.01.2020
4187 Smoke 24 1013 53 3500 6.7 310 12:18 17.01.2020
4188 Smoke 25 1013 49 3500 5.7 310 11:38 17.01.2020
4189 Smoke 24 1013 49 3500 5.7 310 11:18 17.01.2020
4190 Smoke 25 1014 44 4000 6.2 320 10:42 17.01.2020
4191 Smoke 25 1014 44 4000 6.2 320 10:22 17.01.2020
4192 Smoke 25 1014 41 4000 6.2 310 09:58 17.01.2020
4193 Smoke 26 1015 38 4000 5.7 310 09:38 17.01.2020
4194 Smoke 25 1015 38 4000 5.7 310 09:19 17.01.2020
4195 Smoke 25 1015 33 4000 6.2 290 08:43 17.01.2020
4196 Smoke 25 1016 31 4000 2.1 340 08:24 17.01.2020
4197 Smoke 24 1016 33 4000 2.1 310 07:53 17.01.2020
4198 Smoke 23 1017 33 4000 2.6 10 07:31 17.01.2020
4199 Smoke 23 1017 35 3500 3.6 320 06:57 17.01.2020
4200 Smoke 22 1018 37 3500 3.6 360 06:38 17.01.2020
4201 Smoke 21 1017 42 3000 2.1 10 05:38 17.01.2020
4202 Clear 16 1016 48 0 3.42 38 03:39 17.01.2020
4203 Clear 16 1016 48 0 3.42 38 02:52 17.01.2020
4204 Clear 16 1014 53 0 3.25 38 01:47 17.01.2020
4205 Clear 16 1014 53 0 3.25 38 01:29 17.01.2020
4206 Clear 16 1013 51 0 4.07 27 00:50 17.01.2020
4207 Clear 18 1014 52 6000 4.07 27 00:26 17.01.2020
4208 Clear 18 1014 52 6000 4.07 27 23:44 16.01.2020
4209 Clear 18 1014 52 6000 4.07 27 23:26 16.01.2020
4210 Clear 18 1014 48 6000 2.1 10 22:57 16.01.2020
4211 Clear 19 1014 48 6000 2.6 10 22:39 16.01.2020
4212 Clear 19 1014 48 6000 2.6 10 22:20 16.01.2020
4213 Clear 19 1014 45 6000 2.6 40 21:55 16.01.2020
4214 Clear 19 1014 52 6000 1 70 21:36 16.01.2020
4215 Clear 19 1014 52 6000 1 70 21:18 16.01.2020
4216 Clear 20 1015 49 6000 2.6 110 20:41 16.01.2020
4217 Clear 20 1015 49 6000 2.6 110 20:21 16.01.2020
4218 Clear 20 1015 37 6000 3.1 60 19:59 16.01.2020
4219 Clear 20 1015 42 6000 3.1 20 19:41 16.01.2020
4220 Clear 20 1015 42 6000 3.1 20 19:22 16.01.2020
4221 -273 0 0 0 0 0 19:22 16.01.2020
4222 Clear 20 1015 42 6000 3.1 20 19:22 16.01.2020
4223 Clear 20 1015 49 6000 2.6 10 18:57 16.01.2020
4224 Clear 20 1015 52 6000 2.6 20 18:38 16.01.2020
4225 Clear 20 1015 52 6000 2.6 20 18:20 16.01.2020
4226 Clear 21 1015 46 6000 2.6 10 17:58 16.01.2020
4227 Clear 20 1015 52 6000 2.1 0 17:39 16.01.2020
4228 Clear 20 1015 52 6000 2.1 0 17:20 16.01.2020
4229 Clear 21 1015 52 6000 4.1 330 16:42 16.01.2020
4230 Clear 21 1015 52 6000 4.1 330 16:24 16.01.2020
4231 Clear 21 1014 56 6000 4.1 330 15:59 16.01.2020
4232 Clear 21 1014 56 6000 4.6 320 15:39 16.01.2020
4233 Clear 21 1014 56 6000 4.6 320 15:20 16.01.2020
4234 Clear 21 1014 56 6000 4.1 310 14:45 16.01.2020
4235 Clear 23 1013 49 6000 4.1 320 14:24 16.01.2020
4236 Clear 23 1013 46 6000 6.2 320 13:56 16.01.2020
4237 Clear 24 1013 49 6000 6.2 320 13:37 16.01.2020
4238 Clear 24 1013 49 6000 6.2 320 13:19 16.01.2020
4239 Clouds 24 1013 47 6000 4.6 310 12:42 16.01.2020
4240 Clouds 24 1013 47 6000 4.6 310 12:22 16.01.2020
4241 Clouds 24 1013 47 6000 5.1 330 11:43 16.01.2020
4242 Clouds 25 1013 47 6000 4.6 340 11:25 16.01.2020
4243 Clouds 25 1013 44 6000 5.7 310 10:59 16.01.2020
4244 Smoke 25 1013 41 4000 7.2 290 10:38 16.01.2020
4245 Smoke 25 1013 41 4000 7.2 290 10:20 16.01.2020
4246 Smoke 25 1014 41 4000 5.7 320 09:56 16.01.2020
4247 Smoke 25 1014 44 4000 5.7 300 09:37 16.01.2020
4248 Smoke 25 1014 44 4000 5.7 300 09:19 16.01.2020
4249 Smoke 25 1015 44 4000 6.7 290 08:49 16.01.2020
4250 Smoke 25 1015 44 4000 4.6 340 08:29 16.01.2020
4251 Smoke 24 1016 46 4000 4.6 320 07:57 16.01.2020
4252 Smoke 24 1016 53 3000 2.1 330 07:37 16.01.2020
4253 Smoke 23 1016 53 3000 2.1 330 07:18 16.01.2020
4254 Smoke 23 1017 53 3000 1.5 20 06:42 16.01.2020
4255 Smoke 23 1017 60 3000 2.1 30 05:58 16.01.2020
4256 Haze 22 1016 64 2500 3.1 40 05:40 16.01.2020
4257 Haze 21 1015 60 2200 2.6 60 04:37 16.01.2020
4258 Haze 21 1015 60 2200 2.6 60 04:37 16.01.2020
4259 Haze 20 1014 68 2500 2.6 110 03:28 16.01.2020
4260 Haze 20 1014 68 2500 2.6 100 02:42 16.01.2020
4261 Haze 20 1013 68 3000 3.1 120 00:53 16.01.2020
4262 Haze 21 1013 64 3000 1.5 100 00:24 16.01.2020
4263 Haze 20 1013 68 3000 1.5 30 23:50 15.01.2020
4264 Haze 20 1013 68 3000 2.1 90 23:23 15.01.2020
4265 Haze 20 1013 68 3000 1.5 70 22:58 15.01.2020
4266 Haze 21 1014 64 3000 2.1 50 22:40 15.01.2020
4267 Haze 21 1014 64 3000 2.1 50 22:19 15.01.2020
4268 Haze 21 1014 64 3000 1.5 70 21:58 15.01.2020
4269 Haze 21 1014 64 3000 2.1 60 21:40 15.01.2020
4270 Haze 21 1014 64 3000 2.1 60 21:21 15.01.2020
4271 Haze 21 1014 64 3000 2.1 20 20:58 15.01.2020
4272 Haze 21 1014 64 3000 2.1 20 20:58 15.01.2020
4273 Smoke 22 1014 60 3000 4.1 50 20:40 15.01.2020
4274 Smoke 22 1014 60 3000 4.1 50 20:21 15.01.2020
4275 Smoke 22 1014 60 3000 2.1 350 19:55 15.01.2020
4276 Smoke 22 1015 60 3000 3.1 310 19:37 15.01.2020
4277 Smoke 22 1015 60 3000 3.1 310 19:19 15.01.2020
4278 Smoke 22 1015 60 3000 1.5 260 18:57 15.01.2020
4279 Smoke 22 1015 60 3000 2.6 310 18:38 15.01.2020
4280 Smoke 22 1015 60 3000 2.6 310 18:20 15.01.2020
4281 Smoke 22 1015 60 3000 2.6 310 18:20 15.01.2020
4282 Smoke 22 1015 60 3000 2.6 310 18:20 15.01.2020
4283 Smoke 23 1015 56 3000 4.1 300 17:58 15.01.2020
4284 Smoke 23 1015 56 3000 3.1 310 17:40 15.01.2020
4285 Smoke 23 1015 56 3000 3.1 310 17:21 15.01.2020
4286 Smoke 24 1014 53 3000 3.6 360 16:42 15.01.2020
4287 Smoke 24 1014 53 3000 3.6 360 16:24 15.01.2020
4288 Smoke 23 1014 53 3000 4.1 310 15:59 15.01.2020
4289 Smoke 24 1014 50 3000 6.2 300 15:41 15.01.2020
4290 Smoke 24 1014 50 3000 6.2 300 15:20 15.01.2020
4291 Smoke 24 1013 53 4000 4.6 310 14:45 15.01.2020
4292 Smoke 25 1013 57 4000 4.6 320 14:21 15.01.2020
4293 -273 0 0 0 0 0 13:58 15.01.2020
4294 Smoke 26 1012 53 5000 6.2 300 13:40 15.01.2020
4295 Smoke 25 1012 53 5000 6.2 300 13:22 15.01.2020
4296 Smoke 26 1012 47 5000 5.1 340 12:55 15.01.2020
4297 Smoke 26 1011 44 5000 3.6 300 12:36 15.01.2020
4298 Smoke 26 1011 44 5000 3.6 300 12:18 15.01.2020
4299 Smoke 27 1011 44 4000 5.1 280 11:38 15.01.2020
4300 Smoke 27 1011 44 4000 5.1 280 11:20 15.01.2020
4301 Smoke 27 1011 44 4000 2.1 270 10:48 15.01.2020
4302 Smoke 27 1012 44 4000 2.1 270 10:29 15.01.2020
4303 Smoke 28 1013 42 4000 1.5 0 09:59 15.01.2020
4304 Smoke 28 1013 42 4000 2.1 0 09:41 15.01.2020
4305 Smoke 28 1013 42 4000 2.1 0 09:21 15.01.2020
4306 Smoke 28 1013 42 4000 2.6 0 08:44 15.01.2020
4307 Smoke 28 1013 42 4000 2.6 0 08:44 15.01.2020
4308 Smoke 27 1013 42 3500 2.6 0 08:26 15.01.2020
4309 Smoke 26 1014 41 3500 2.6 350 07:54 15.01.2020
4310 Smoke 26 1014 41 3500 2.6 0 07:33 15.01.2020
4311 Smoke 26 1014 41 3500 2.6 320 06:54 15.01.2020
4312 Smoke 25 1015 47 3000 1.5 230 06:32 15.01.2020
4313 Smoke 23 1015 49 3000 2.1 290 05:32 15.01.2020
4314 Smoke 20 1013 52 3000 2.1 10 03:20 15.01.2020
4315 Smoke 22 1012 53 3000 3.1 340 01:48 15.01.2020
4316 Smoke 22 1011 56 3000 2.6 240 01:22 15.01.2020
4317 Smoke 22 1011 56 3000 2.1 200 00:37 15.01.2020
4318 Smoke 22 1011 56 3000 2.1 200 00:19 15.01.2020
4319 Smoke 21 1011 64 3000 2.33 22 23:46 14.01.2020
4320 Smoke 22 1012 60 3000 2.33 22 23:28 14.01.2020
4321 Smoke 22 1012 60 3000 3.2 16 22:57 14.01.2020
4322 Smoke 23 1012 53 3000 2.1 230 22:39 14.01.2020
4323 Smoke 23 1012 53 3000 2.1 230 22:18 14.01.2020
4324 Smoke 23 1012 53 3000 2.1 160 21:57 14.01.2020
4325 Smoke 23 1012 53 3000 1.5 0 21:39 14.01.2020
4326 Smoke 23 1012 53 3000 1.5 0 21:19 14.01.2020
4327 Smoke 24 1013 47 3000 1.5 0 20:54 14.01.2020
4328 Smoke 24 1013 47 3000 3.1 70 20:36 14.01.2020
4329 Smoke 24 1013 47 3000 3.1 70 20:18 14.01.2020
4330 Smoke 24 1013 47 3000 3.1 70 19:54 14.01.2020
4331 Smoke 24 1013 47 3000 3.1 10 19:36 14.01.2020
4332 Smoke 24 1013 47 3000 3.1 10 19:18 14.01.2020
4333 Smoke 24 1013 47 3000 3.1 30 18:40 14.01.2020
4334 Smoke 24 1013 47 3000 3.1 30 18:20 14.01.2020
4335 Smoke 24 1013 47 3000 3.1 30 17:56 14.01.2020
4336 Smoke 24 1013 50 3000 3.1 290 17:36 14.01.2020
4337 Smoke 24 1013 47 3000 3.1 340 17:18 14.01.2020
4338 Smoke 24 1013 47 3000 4.6 330 16:42 14.01.2020
4339 Smoke 24 1013 47 3000 4.6 330 16:22 14.01.2020
4340 Smoke 25 1012 47 3000 6.2 340 15:56 14.01.2020
4341 Smoke 25 1012 47 3000 5.7 330 15:38 14.01.2020
4342 Smoke 25 1012 47 3000 5.7 330 15:19 14.01.2020
4343 Smoke 24 1012 53 3000 3.1 320 14:43 14.01.2020
4344 Smoke 27 1011 50 3500 4.6 310 14:20 14.01.2020
4345 Smoke 27 1011 54 3500 3.6 350 13:55 14.01.2020
4346 Smoke 27 1011 51 3500 5.1 330 13:37 14.01.2020
4347 Smoke 27 1011 51 3500 5.1 330 13:18 14.01.2020
4348 Smoke 27 1010 51 3500 4.6 320 12:41 14.01.2020
4349 Smoke 27 1010 51 3500 4.6 320 12:21 14.01.2020
4350 Smoke 27 1010 51 3500 5.7 310 11:55 14.01.2020
4351 Smoke 27 1010 51 3500 5.1 330 11:36 14.01.2020
4352 Smoke 28 1010 51 3500 5.1 330 11:18 14.01.2020
4353 Smoke 29 1011 51 3500 4.1 320 10:40 14.01.2020
4354 Smoke 29 1011 51 3500 4.1 320 10:20 14.01.2020
4355 Smoke 29 1011 58 3500 5.1 310 09:58 14.01.2020
4356 Haze 28 1012 61 3500 5.7 310 09:40 14.01.2020
4357 Haze 28 1012 61 3500 5.7 310 09:21 14.01.2020
4358 Haze 28 1012 58 3500 5.1 310 08:48 14.01.2020
4359 Haze 28 1013 54 3500 2.6 320 08:25 14.01.2020
4360 Haze 28 1013 61 3500 2.6 360 07:56 14.01.2020
4361 Haze 28 1014 61 3500 1.5 360 07:34 14.01.2020
4362 Haze 27 1014 65 3500 2.1 320 06:57 14.01.2020
4363 Haze 27 1014 65 3000 1.5 100 06:34 14.01.2020
4364 Haze 25 1014 73 2200 2.1 20 05:28 14.01.2020
4365 Mist 23 1013 88 1500 3.6 20 03:57 14.01.2020
4366 Mist 23 1013 88 2200 2.6 40 03:35 14.01.2020
4367 Mist 23 1012 88 3000 2.6 80 01:58 14.01.2020
4368 Haze 24 1012 83 3000 1.5 0 01:18 14.01.2020
4369 Haze 24 1011 83 3000 2.1 20 00:38 14.01.2020
4370 Haze 24 1011 83 3000 1.5 0 23:59 13.01.2020
4371 Haze 24 1011 83 3000 2.1 10 23:37 13.01.2020
4372 Haze 24 1011 83 3000 2.1 10 23:18 13.01.2020
4373 Haze 24 1011 88 3000 2.6 40 22:45 13.01.2020
4374 Haze 24 1011 83 3000 2.1 10 22:22 13.01.2020
4375 Haze 24 1012 83 3000 2.42 354 21:58 13.01.2020
4376 Haze 24 1012 83 3000 1.5 320 21:39 13.01.2020
4377 Haze 24 1012 83 3000 1.5 320 21:19 13.01.2020
4378 Haze 25 1012 78 3000 1.5 10 20:59 13.01.2020
4379 Haze 25 1012 83 3000 2.6 340 20:41 13.01.2020
4380 Haze 25 1012 83 3000 2.6 340 20:22 13.01.2020
4381 Haze 25 1012 83 3000 2.6 340 20:22 13.01.2020
4382 Haze 25 1012 83 3000 2.6 50 19:59 13.01.2020
4383 Haze 25 1013 83 3000 1.5 350 19:40 13.01.2020
4384 Haze 25 1013 83 3000 1.5 350 19:20 13.01.2020
4385 Haze 25 1013 78 3000 1.5 340 18:57 13.01.2020
4386 Haze 25 1013 78 3000 2.1 310 18:37 13.01.2020
4387 Haze 25 1013 78 3000 2.1 310 18:37 13.01.2020
4388 Haze 25 1013 78 3000 2.1 310 18:19 13.01.2020
4389 Haze 26 1013 74 3000 2.1 330 17:55 13.01.2020
4390 Haze 26 1013 74 3000 3.1 10 17:36 13.01.2020
4391 Haze 26 1013 74 3000 3.1 10 17:18 13.01.2020
4392 Clear 24 1012 73 0 2.71 324 16:40 13.01.2020
4393 Clear 24 1012 73 0 2.71 324 16:21 13.01.2020
4394 Clear 24 1012 73 0 2.71 324 15:55 13.01.2020
4395 Clear 24 1012 73 0 2.71 324 15:36 13.01.2020
4396 Clear 24 1012 73 0 2.71 324 15:18 13.01.2020
4397 Clear 24 1012 73 0 2.71 324 14:42 13.01.2020
4398 Clear 31 1008 59 0 2.71 324 14:23 13.01.2020
4399 Clear 31 1007 57 0 5.61 307 13:57 13.01.2020
4400 Clear 31 1007 58 0 5.61 307 13:39 13.01.2020
4401 Clear 31 1007 55 0 5.12 303 13:21 13.01.2020
4402 Smoke 28 1010 65 3500 4.1 280 12:54 13.01.2020
4403 Smoke 28 1010 65 3500 4.1 280 12:36 13.01.2020
4404 Smoke 28 1010 65 3500 4.1 280 12:18 13.01.2020
4405 Smoke 28 1010 65 3500 5.1 280 11:39 13.01.2020
4406 Smoke 29 1010 65 3500 5.1 280 11:19 13.01.2020
4407 Smoke 29 1010 61 3500 5.1 280 10:57 13.01.2020
4408 Smoke 29 1011 58 3500 4.6 270 10:38 13.01.2020
4409 Smoke 29 1011 58 3500 4.6 270 10:20 13.01.2020
4410 Smoke 29 1011 58 3500 4.6 270 10:20 13.01.2020
4411 Haze 29 1011 58 3000 2.6 310 09:56 13.01.2020
4412 Haze 29 1012 65 3000 5.7 270 09:38 13.01.2020
4413 Haze 29 1012 65 3000 5.7 270 09:19 13.01.2020
4414 Haze 29 1013 62 3000 3.1 310 08:39 13.01.2020
4415 Haze 29 1013 62 3000 3.1 310 08:20 13.01.2020
4416 Haze 29 1014 61 2500 3.1 280 07:46 13.01.2020
4417 Haze 28 1014 69 2500 3.6 310 07:27 13.01.2020
4418 Haze 28 1014 65 2500 1.5 340 06:40 13.01.2020
4419 Haze 28 1014 65 2500 1.5 340 06:19 13.01.2020
4420 Haze 27 1014 74 1700 1.5 110 05:22 13.01.2020
4421 Mist 25 1013 78 1300 2.1 140 03:52 13.01.2020
4422 Mist 25 1013 78 1200 2.1 70 03:22 13.01.2020
4423 Mist 25 1012 78 2200 2.1 110 02:39 13.01.2020
4424 Mist 25 1012 78 2200 2.1 110 02:18 13.01.2020
4425 Mist 25 1012 78 2200 2.6 90 01:18 13.01.2020
4426 Mist 25 1012 83 2200 1.35 26 00:40 13.01.2020
4427 Mist 25 1012 83 2200 1.35 26 00:21 13.01.2020
4428 Mist 25 1011 83 2500 1.5 40 23:42 12.01.2020
4429 Mist 25 1011 83 2500 1.5 40 23:23 12.01.2020
4430 Mist 26 1012 83 2500 1.5 40 22:57 12.01.2020
4431 Mist 26 1012 83 2500 2.6 80 22:39 12.01.2020
4432 Mist 26 1012 83 2500 2.6 80 22:21 12.01.2020
4433 Haze 26 1012 83 3000 2.1 30 21:55 12.01.2020
4434 Haze 26 1012 83 3000 2.1 30 21:55 12.01.2020
4435 Haze 26 1013 83 3000 1.5 20 21:37 12.01.2020
4436 Haze 26 1013 83 3000 1.5 20 21:19 12.01.2020
4437 Haze 26 1013 83 3000 1.5 20 20:56 12.01.2020
4438 Haze 26 1013 83 3000 2.6 20 20:37 12.01.2020
4439 Haze 26 1013 83 3000 2.6 20 20:19 12.01.2020
4440 Haze 26 1013 83 3000 1.5 330 19:55 12.01.2020
4441 Haze 27 1013 78 3000 3.6 360 19:37 12.01.2020
4442 Haze 27 1013 78 3000 3.6 360 19:18 12.01.2020
4443 Haze 27 1013 78 3000 3.6 360 19:18 12.01.2020
4444 Haze 27 1013 78 3000 2.6 340 18:56 12.01.2020
4445 Haze 27 1014 78 3000 2.1 330 18:38 12.01.2020
4446 Haze 27 1014 78 3000 2.1 330 18:19 12.01.2020
4447 Haze 27 1014 74 3000 2.1 340 17:42 12.01.2020
4448 Haze 27 1014 74 3000 2.1 340 17:22 12.01.2020
4449 Haze 28 1013 69 3000 3.1 320 16:58 12.01.2020
4450 Haze 27 1013 74 3000 3.1 300 16:39 12.01.2020
4451 Haze 27 1013 74 3000 3.1 300 16:20 12.01.2020
4452 Haze 27 1013 74 3000 2.6 290 15:56 12.01.2020
4453 Haze 27 1013 74 3000 3.1 290 15:38 12.01.2020
4454 Haze 27 1012 69 3000 3.1 270 15:20 12.01.2020
4455 Haze 27 1012 65 3000 3.6 260 14:42 12.01.2020
4456 Haze 29 1012 65 3000 3.6 260 14:23 12.01.2020
4457 Haze 29 1012 61 3000 4.1 250 13:57 12.01.2020
4458 Smoke 29 1012 58 3000 4.1 250 13:39 12.01.2020
4459 Smoke 29 1012 58 3000 4.1 250 13:20 12.01.2020
4460 Smoke 29 1011 54 3000 4.6 250 12:56 12.01.2020
4461 Smoke 30 1011 45 3000 4.6 240 12:37 12.01.2020
4462 Smoke 30 1011 45 3000 4.6 240 12:19 12.01.2020
4463 Smoke 30 1011 48 3000 5.1 250 11:42 12.01.2020
4464 Smoke 30 1011 48 3000 5.1 250 11:22 12.01.2020
4465 Smoke 31 1011 45 3000 5.7 240 10:57 12.01.2020
4466 Smoke 31 1011 43 3000 5.7 250 10:39 12.01.2020
4467 Smoke 32 1011 43 3000 5.7 250 10:20 12.01.2020
4468 Smoke 32 1012 40 3000 2.6 170 09:42 12.01.2020
4469 Smoke 32 1012 40 3000 2.6 170 09:23 12.01.2020
4470 Smoke 32 1013 43 3000 2.6 160 08:48 12.01.2020
4471 Smoke 31 1014 43 3000 3.1 120 08:24 12.01.2020
4472 Smoke 31 1014 45 3000 3.6 140 07:56 12.01.2020
4473 Smoke 30 1015 45 2500 2.6 130 07:37 12.01.2020
4474 Smoke 30 1015 45 2500 2.6 130 07:19 12.01.2020
4475 Smoke 29 1015 54 2200 3.1 100 06:38 12.01.2020
4476 Smoke 28 1016 57 2200 2.6 140 05:55 12.01.2020
4477 Haze 26 1015 57 2100 2.1 80 04:56 12.01.2020
4478 Haze 24 1014 65 2200 2.1 130 03:44 12.01.2020
4479 Haze 24 1014 69 2200 2.6 130 02:52 12.01.2020
4480 Haze 25 1013 69 2500 2.1 150 02:27 12.01.2020
4481 Haze 25 1013 69 2500 1.5 150 01:35 12.01.2020
4482 Haze 25 1013 69 2500 1.7 68 00:57 12.01.2020
4483 Haze 25 1013 69 2500 1.7 68 00:37 12.01.2020
4484 Haze 25 1013 69 2500 1.7 68 00:18 12.01.2020
4485 Haze 26 1013 69 2500 1.5 170 23:41 11.01.2020
4486 Haze 26 1013 69 2500 1.5 170 23:19 11.01.2020
4487 Haze 26 1013 69 2500 1.5 40 22:56 11.01.2020
4488 Haze 26 1013 69 2500 1.87 91 22:38 11.01.2020
4489 Haze 26 1013 69 2500 1.87 91 22:20 11.01.2020
4490 Haze 25 1013 73 2500 1.87 91 21:44 11.01.2020
4491 Haze 25 1013 73 2500 1.5 60 21:20 11.01.2020
4492 Haze 26 1014 69 2500 2.1 30 20:59 11.01.2020
4493 Haze 27 1014 61 2500 2.1 30 20:39 11.01.2020
4494 Haze 27 1014 61 2500 2.1 30 20:20 11.01.2020
4495 Haze 28 1014 61 2500 3.6 70 19:57 11.01.2020
4496 Haze 28 1014 58 2500 1.5 170 19:38 11.01.2020
4497 Haze 28 1014 58 2500 1.5 170 19:20 11.01.2020
4498 Haze 27 1014 61 2500 2.1 260 18:56 11.01.2020
4499 Haze 28 1014 58 2500 2.1 210 18:37 11.01.2020
4500 Haze 28 1014 58 2500 2.1 210 18:19 11.01.2020
4501 Haze 28 1014 58 2500 2.1 210 18:19 11.01.2020
4502 Smoke 28 1014 58 3000 2.1 20 17:57 11.01.2020
4503 Smoke 28 1014 58 3000 2.1 270 17:39 11.01.2020
4504 Smoke 28 1014 58 3000 2.1 270 17:18 11.01.2020
4505 Smoke 28 1013 58 3500 2.1 340 16:44 11.01.2020
4506 Smoke 28 1013 58 3500 2.1 340 16:25 11.01.2020
4507 Smoke 29 1013 54 3500 1.5 320 15:57 11.01.2020
4508 Smoke 29 1013 51 3500 2.1 320 15:39 11.01.2020
4509 Smoke 29 1013 51 3500 2.1 320 15:20 11.01.2020
4510 Smoke 29 1012 51 3500 2.1 330 14:47 11.01.2020
4511 Smoke 30 1012 48 3500 3.1 320 14:26 11.01.2020
4512 Smoke 30 1012 51 4000 2.6 290 13:59 11.01.2020
4513 Smoke 31 1012 45 4000 3.6 290 13:38 11.01.2020
4514 Smoke 31 1012 45 4000 3.6 290 13:20 11.01.2020
4515 Smoke 31 1012 48 3500 4.1 290 12:56 11.01.2020
4516 Smoke 32 1012 40 3500 3.6 280 12:38 11.01.2020
4517 Smoke 32 1012 40 3500 3.6 280 12:20 11.01.2020
4518 Smoke 32 1011 38 3000 3.1 290 11:45 11.01.2020
4519 Smoke 32 1012 38 3000 2.1 220 11:24 11.01.2020
4520 Smoke 32 1012 38 3000 2.6 140 10:50 11.01.2020
4521 Smoke 32 1012 40 3000 2.6 110 10:30 11.01.2020
4522 Smoke 32 1013 40 3000 4.1 140 09:44 11.01.2020
4523 Smoke 32 1013 40 3000 2.6 130 09:21 11.01.2020
4524 Smoke 32 1013 40 3000 2.6 130 09:21 11.01.2020
4525 Smoke 32 1013 40 3000 2.6 130 09:21 11.01.2020
4526 Smoke 32 1013 40 3000 2.6 130 09:21 11.01.2020
4527 Smoke 32 1013 40 3000 2.6 130 09:21 11.01.2020
4528 Smoke 32 1014 43 2500 4.1 140 08:59 11.01.2020
4529 Smoke 31 1014 43 2500 3.6 90 08:41 11.01.2020
4530 Smoke 31 1014 43 2500 3.6 90 08:20 11.01.2020
4531 Smoke 30 1015 45 2500 3.1 120 07:43 11.01.2020
4532 Smoke 30 1015 48 2500 4.6 100 07:24 11.01.2020
4533 Smoke 29 1016 45 2500 3.6 100 06:45 11.01.2020
4534 Smoke 26 1016 50 2200 4.6 100 05:31 11.01.2020
4535 Smoke 26 1015 57 2200 3.6 70 04:43 11.01.2020
4536 Smoke 24 1015 57 2200 3.1 60 04:25 11.01.2020
4537 Haze 24 1013 60 2200 2.6 80 02:48 11.01.2020
4538 Haze 24 1013 64 2500 2.1 40 01:48 11.01.2020
4539 Haze 24 1013 64 2500 2.6 50 01:30 11.01.2020
4540 Haze 25 1012 61 2500 2.1 50 00:58 11.01.2020
4541 Haze 25 1012 61 2500 2.1 50 00:29 11.01.2020
4542 Haze 25 1012 61 2500 2.6 60 23:59 10.01.2020
4543 Haze 25 1012 61 2500 3.1 30 23:39 10.01.2020
4544 Haze 25 1012 61 2500 3.1 30 23:20 10.01.2020
4545 Haze 25 1012 61 2500 2.1 40 22:55 10.01.2020
4546 Haze 25 1012 61 2500 1.5 60 22:37 10.01.2020
4547 Haze 25 1012 61 2500 1.5 60 22:18 10.01.2020
4548 Haze 25 1012 61 2500 2.1 40 21:54 10.01.2020
4549 Haze 25 1012 61 3000 1.5 30 21:36 10.01.2020
4550 Haze 25 1012 61 3000 1.5 30 21:18 10.01.2020
4551 Haze 26 1013 61 3000 2.1 40 20:42 10.01.2020
4552 Haze 26 1013 61 3000 2.1 40 20:24 10.01.2020
4553 Haze 26 1013 61 3000 2.1 50 19:54 10.01.2020
4554 Haze 27 1013 57 3000 3.6 70 19:36 10.01.2020
4555 Haze 27 1013 57 3000 3.6 70 19:18 10.01.2020
4556 Haze 27 1014 57 3500 1.5 90 18:41 10.01.2020
4557 Haze 27 1014 57 3500 1.5 90 18:19 10.01.2020
4558 Haze 27 1014 57 3500 1.5 20 17:57 10.01.2020
4559 Smoke 27 1014 57 3500 2.6 360 17:38 10.01.2020
4560 Smoke 27 1014 57 3500 2.6 360 17:20 10.01.2020
4561 Smoke 27 1014 57 3500 2.6 360 17:20 10.01.2020
4562 Smoke 27 1013 57 3500 2.1 20 16:55 10.01.2020
4563 Smoke 27 1013 57 3500 1.5 340 16:37 10.01.2020
4564 Smoke 27 1013 57 3500 1.5 340 16:19 10.01.2020
4565 Smoke 27 1013 54 3500 2.1 340 15:55 10.01.2020
4566 Smoke 27 1012 57 3500 2.6 350 15:36 10.01.2020
4567 Smoke 27 1012 57 3500 2.6 350 15:18 10.01.2020
4568 Smoke 26 1012 57 3000 3.6 330 14:54 10.01.2020
4569 Smoke 27 1012 58 3000 2.6 320 14:36 10.01.2020
4570 Smoke 28 1012 58 3000 2.6 320 14:18 10.01.2020
4571 Smoke 30 1011 48 3500 3.1 300 13:41 10.01.2020
4572 Smoke 30 1011 48 3500 3.1 300 13:23 10.01.2020
4573 Smoke 30 1011 48 3500 3.1 290 12:58 10.01.2020
4574 Smoke 30 1011 45 3500 3.6 290 12:38 10.01.2020
4575 Smoke 30 1011 45 3500 3.6 290 12:19 10.01.2020
4576 Smoke 31 1011 43 3000 3.1 300 11:55 10.01.2020
4577 Smoke 31 1011 38 3000 3.1 340 11:37 10.01.2020
4578 Smoke 32 1011 38 3000 2.1 100 11:18 10.01.2020
4579 Smoke 32 1011 38 3000 2.1 100 10:43 10.01.2020
4580 Smoke 31 1011 40 3000 3.6 80 10:24 10.01.2020
4581 Smoke 31 1012 40 3000 4.1 140 09:56 10.01.2020
4582 Smoke 30 1012 40 3000 4.1 120 09:38 10.01.2020
4583 Smoke 30 1012 40 3000 4.1 120 09:20 10.01.2020
4584 Smoke 29 1014 42 3000 3.6 120 08:42 10.01.2020
4585 Smoke 29 1014 42 3000 3.6 120 08:23 10.01.2020
4586 Smoke 29 1014 42 3000 4.1 130 07:46 10.01.2020
4587 Smoke 29 1015 47 3000 4.6 120 07:26 10.01.2020
4588 Smoke 28 1015 44 2500 3.6 90 06:50 10.01.2020
4589 Smoke 28 1015 44 2500 3.1 80 06:26 10.01.2020
4590 Smoke 25 1015 47 2500 3.1 100 05:51 10.01.2020
4591 Smoke 23 1014 49 2200 4.1 70 03:46 10.01.2020
4592 Smoke 22 1013 53 2500 3.1 70 03:27 10.01.2020
4593 Smoke 23 1013 49 2500 3.1 80 02:50 10.01.2020
4594 Smoke 22 1012 53 4000 2.6 60 01:47 10.01.2020
4595 Smoke 23 1012 49 4000 2.6 50 01:28 10.01.2020
4596 Smoke 23 1011 49 4000 2.6 80 00:44 10.01.2020
4597 Smoke 23 1011 49 4000 2.6 80 00:19 10.01.2020
4598 Haze 22 1011 60 3000 2.1 120 23:39 09.01.2020
4599 Haze 22 1011 60 3000 2.1 120 23:39 09.01.2020
4600 Haze 22 1011 60 3000 2.1 120 23:39 09.01.2020
4601 Haze 22 1011 60 3000 2.1 120 23:20 09.01.2020
4602 Haze 23 1011 56 3000 2.1 60 22:58 09.01.2020
4603 Haze 23 1011 56 3000 2.1 60 22:58 09.01.2020
4604 Haze 23 1011 53 3000 2.1 50 22:39 09.01.2020
4605 Haze 23 1011 53 3000 2.1 50 22:39 09.01.2020
4606 Haze 23 1011 53 3000 2.1 50 22:19 09.01.2020
4607 Haze 23 1012 53 3000 2.1 50 21:57 09.01.2020
4608 Haze 23 1012 56 3000 2.6 80 21:38 09.01.2020
4609 Haze 23 1012 56 3000 2.6 80 21:20 09.01.2020
4610 Haze 23 1012 56 3000 2.1 30 20:58 09.01.2020
4611 Haze 23 1012 56 3000 2.1 30 20:39 09.01.2020
4612 Haze 23 1013 56 3000 2.3 36 20:20 09.01.2020
4613 Haze 23 1013 60 3000 1.5 40 19:58 09.01.2020
4614 Haze 23 1013 56 3000 2.1 20 19:39 09.01.2020
4615 Haze 23 1013 56 3000 2.1 20 19:20 09.01.2020
4616 Haze 23 1013 60 3000 2.1 10 18:56 09.01.2020
4617 Smoke 23 1014 60 3000 2.1 340 18:37 09.01.2020
4618 Smoke 23 1014 60 3000 2.1 340 18:19 09.01.2020
4619 Smoke 24 1014 57 3000 3.1 40 17:41 09.01.2020
4620 Smoke 24 1014 53 3000 3.1 340 17:19 09.01.2020
4621 Smoke 24 1014 53 3000 3.1 340 16:56 09.01.2020
4622 Smoke 25 1014 47 3000 3.6 360 16:37 09.01.2020
4623 Smoke 25 1014 47 3000 3.6 360 16:19 09.01.2020
4624 Smoke 25 1014 47 4000 5.7 340 15:42 09.01.2020
4625 Smoke 25 1013 47 4000 5.1 340 15:21 09.01.2020
4626 Smoke 24 1013 50 4000 3.6 320 14:55 09.01.2020
4627 Smoke 26 1012 53 4000 2.6 310 14:37 09.01.2020
4628 Smoke 26 1012 53 4000 2.6 310 14:18 09.01.2020
4629 Smoke 27 1012 47 4000 4.1 310 13:55 09.01.2020
4630 Smoke 27 1013 47 3500 5.7 320 13:37 09.01.2020
4631 Smoke 27 1013 47 3500 5.7 320 13:18 09.01.2020
4632 Smoke 27 1012 50 3000 5.1 310 12:42 09.01.2020
4633 Smoke 28 1012 47 3000 6.2 310 12:42 09.01.2020
4634 Smoke 28 1012 47 3000 6.2 310 12:23 09.01.2020
4635 Smoke 28 1012 51 3000 5.7 310 11:59 09.01.2020
4636 Smoke 28 1012 51 3000 5.7 300 11:41 09.01.2020
4637 Smoke 28 1012 51 3000 5.7 300 11:23 09.01.2020
4638 Smoke 28 1012 51 3000 4.6 300 10:56 09.01.2020
4639 Smoke 28 1012 45 3000 5.1 300 10:37 09.01.2020
4640 Smoke 28 1012 45 3000 5.1 300 10:19 09.01.2020
4641 Smoke 28 1012 45 3000 5.1 300 10:19 09.01.2020
4642 Smoke 28 1012 45 3000 4.6 300 09:41 09.01.2020
4643 Smoke 28 1013 45 3000 4.1 310 09:22 09.01.2020
4644 Smoke 28 1013 45 3000 3.1 290 08:56 09.01.2020
4645 Smoke 28 1014 42 3000 2.1 80 08:37 09.01.2020
4646 Smoke 28 1014 42 3000 2.1 80 08:19 09.01.2020
4647 Smoke 27 1015 47 3000 1.5 320 07:44 09.01.2020
4648 Smoke 27 1015 44 3000 1.5 0 07:24 09.01.2020
4649 Smoke 26 1016 50 2500 2.1 50 06:39 09.01.2020
4650 Smoke 26 1016 50 2500 2.1 50 06:21 09.01.2020
4651 Smoke 25 1016 47 2500 2.1 50 05:50 09.01.2020
4652 Smoke 22 1015 49 2200 3.6 60 04:45 09.01.2020
4653 Smoke 20 1014 60 2500 1.5 0 03:54 09.01.2020
4654 Haze 21 1014 56 2500 1.5 10 02:55 09.01.2020
4655 Haze 22 1013 56 3000 2.6 30 02:30 09.01.2020
4656 Haze 21 1013 60 3000 2.6 340 01:40 09.01.2020
4657 Haze 22 1012 60 3000 2.1 50 00:44 09.01.2020
4658 Haze 22 1012 60 3000 2.1 50 00:22 09.01.2020
4659 Haze 22 1012 60 3000 2.6 10 23:56 08.01.2020
4660 Haze 22 1012 60 3000 3.1 10 23:37 08.01.2020
4661 Haze 22 1012 60 3000 3.1 10 23:19 08.01.2020
4662 Haze 23 1013 60 3000 3.1 10 22:39 08.01.2020
4663 Haze 23 1013 60 3000 3.1 10 22:21 08.01.2020
4664 Haze 23 1013 60 3000 3.1 10 22:21 08.01.2020
4665 Haze 23 1013 60 3000 1.5 10 21:58 08.01.2020
4666 Haze 24 1013 57 3000 2.1 350 21:39 08.01.2020
4667 Haze 24 1013 57 3000 2.1 350 21:20 08.01.2020
4668 Haze 24 1013 60 3000 2.1 350 20:58 08.01.2020
4669 Haze 24 1013 60 3000 2.1 350 20:40 08.01.2020
4670 Haze 25 1013 57 3000 2.6 50 20:20 08.01.2020
4671 Haze 25 1013 57 3000 2.6 50 20:20 08.01.2020
4672 Haze 24 1014 57 3000 3.1 50 19:57 08.01.2020
4673 Haze 24 1014 64 3000 2.6 20 19:37 08.01.2020
4674 Haze 24 1014 64 3000 2.6 20 19:19 08.01.2020
4675 Haze 25 1014 61 3000 3.1 350 18:56 08.01.2020
4676 Haze 25 1014 61 3000 2.6 330 18:37 08.01.2020
4677 Haze 25 1014 61 3000 2.6 330 18:18 08.01.2020
4678 Haze 25 1014 61 3000 2.1 340 17:56 08.01.2020
4679 Smoke 26 1014 57 3000 3.1 30 17:37 08.01.2020
4680 Smoke 26 1014 57 3000 3.1 30 17:18 08.01.2020
4681 Smoke 25 1014 61 4000 3.6 260 16:54 08.01.2020
4682 Haze 25 1014 61 4000 4.1 330 16:36 08.01.2020
4683 Haze 25 1014 61 4000 4.1 330 16:18 08.01.2020
4684 Haze 26 1013 61 4000 4.1 330 15:41 08.01.2020
4685 Haze 26 1013 61 4000 3.1 340 15:21 08.01.2020
4686 Smoke 25 1013 57 4000 3.6 340 14:57 08.01.2020
4687 Smoke 25 1013 57 4000 3.6 340 14:39 08.01.2020
4688 Smoke 27 1012 57 4000 3.1 310 14:20 08.01.2020
4689 Smoke 27 1012 57 4500 3.1 310 13:40 08.01.2020
4690 Smoke 27 1012 57 4500 3.1 310 13:40 08.01.2020
4691 Smoke 28 1012 57 5000 4.1 300 13:19 08.01.2020
4692 Smoke 28 1012 54 5000 4.6 320 12:42 08.01.2020
4693 Smoke 28 1011 54 5000 5.1 310 12:20 08.01.2020
4694 Smoke 28 1011 54 4500 4.6 310 11:55 08.01.2020
4695 Smoke 28 1011 54 4500 4.6 310 11:55 08.01.2020
4696 Smoke 29 1011 54 4500 4.6 310 11:37 08.01.2020
4697 Smoke 29 1011 54 4500 4.6 310 11:19 08.01.2020
4698 Smoke 29 1011 54 4500 4.6 310 11:19 08.01.2020
4699 Smoke 29 1011 54 4000 3.1 290 10:55 08.01.2020
4700 Smoke 29 1011 58 4000 3.6 310 10:37 08.01.2020
4701 Smoke 29 1011 58 4000 3.6 310 10:37 08.01.2020
4702 Smoke 29 1011 58 4000 3.6 310 10:37 08.01.2020
4703 Smoke 29 1011 58 4000 3.6 310 10:18 08.01.2020
4704 Smoke 29 1012 54 4000 4.1 300 09:41 08.01.2020
4705 Smoke 29 1012 54 3500 3.1 320 09:19 08.01.2020
4706 Smoke 29 1013 54 3500 4.1 270 08:57 08.01.2020
4707 Smoke 29 1013 54 3500 3.1 280 08:37 08.01.2020
4708 Smoke 29 1013 54 3500 3.1 280 08:19 08.01.2020
4709 Smoke 29 1014 58 3000 4.6 260 07:49 08.01.2020
4710 Smoke 29 1014 58 3000 3.1 290 07:30 08.01.2020
4711 Smoke 28 1015 61 2500 2.1 330 06:48 08.01.2020
4712 Smoke 28 1015 61 2500 2.1 330 06:24 08.01.2020
4713 Smoke 28 1015 69 2500 1.5 290 05:41 08.01.2020
4714 Smoke 26 1015 74 2200 2.1 340 04:57 08.01.2020
4715 Smoke 25 1014 69 2200 1.18 57 04:25 08.01.2020
4716 Haze 24 1013 65 2500 1.5 360 02:45 08.01.2020
4717 Haze 25 1012 65 2500 1.5 80 02:22 08.01.2020
4718 Haze 25 1012 65 2500 1.83 16 01:50 08.01.2020
4719 Haze 25 1011 65 2500 1.83 16 01:23 08.01.2020
4720 Haze 26 1011 61 2500 1.65 15 00:38 08.01.2020
4721 Haze 26 1011 61 2500 1.65 15 00:20 08.01.2020
4722 Haze 26 1011 65 2500 1.5 10 23:43 07.01.2020
4723 Haze 26 1011 65 2500 1.5 10 23:20 07.01.2020
4724 Haze 26 1011 65 2500 1.5 10 23:20 07.01.2020
4725 Haze 26 1012 65 2500 1.5 340 22:40 07.01.2020
4726 Haze 26 1012 65 2500 1.5 340 22:20 07.01.2020
4727 Haze 26 1013 65 2500 1.5 340 21:57 07.01.2020
4728 Haze 27 1013 65 2500 2.39 348 21:38 07.01.2020
4729 Haze 27 1013 65 2500 2.39 348 21:20 07.01.2020
4730 Haze 26 1013 69 2500 2.39 348 20:56 07.01.2020
4731 Haze 26 1013 69 2500 1.5 320 20:38 07.01.2020
4732 Haze 26 1013 69 2500 1.5 320 20:19 07.01.2020
4733 Haze 27 1013 65 2500 2.6 350 19:38 07.01.2020
4734 Haze 27 1013 65 2500 2.6 350 19:20 07.01.2020
4735 Haze 26 1014 74 2500 2.6 340 18:58 07.01.2020
4736 Haze 27 1014 69 2500 2.6 140 18:40 07.01.2020
4737 Haze 27 1014 69 2500 2.6 140 18:19 07.01.2020
4738 Haze 27 1014 69 2500 1.5 30 18:00 07.01.2020
4739 Haze 27 1014 74 2500 1.5 20 17:39 07.01.2020
4740 Haze 27 1014 74 2500 1.5 20 17:21 07.01.2020
4741 Haze 27 1013 69 2500 2.1 350 16:57 07.01.2020
4742 Haze 27 1013 74 2100 2.1 330 16:38 07.01.2020
4743 Haze 27 1013 74 2100 2.1 330 16:19 07.01.2020
4744 Haze 27 1013 74 2100 2.6 320 15:58 07.01.2020
4745 Haze 27 1013 74 2100 2.6 320 15:40 07.01.2020
4746 Haze 27 1012 74 1800 3.6 300 15:22 07.01.2020
4747 Haze 27 1012 74 1900 3.1 310 14:55 07.01.2020
4748 Haze 27 1012 74 2200 4.1 290 14:37 07.01.2020
4749 Haze 28 1012 74 2200 4.1 290 14:18 07.01.2020
4750 Haze 29 1011 65 3000 4.1 280 13:39 07.01.2020
4751 Haze 29 1011 65 3000 4.1 280 13:19 07.01.2020
4752 Smoke 28 1011 61 3000 4.1 280 12:41 07.01.2020
4753 Smoke 29 1011 54 3000 4.1 290 12:20 07.01.2020
4754 Smoke 29 1011 55 3000 3.1 280 11:57 07.01.2020
4755 Smoke 30 1011 51 3000 4.1 260 11:38 07.01.2020
4756 Smoke 30 1011 51 3000 4.1 260 11:20 07.01.2020
4757 Smoke 30 1011 51 3000 4.6 240 10:42 07.01.2020
4758 Smoke 30 1011 51 3000 4.1 250 10:24 07.01.2020
4759 Smoke 31 1011 48 3000 3.6 240 09:58 07.01.2020
4760 Smoke 31 1012 48 3000 3.1 250 09:38 07.01.2020
4761 Smoke 31 1012 48 3000 3.1 250 09:20 07.01.2020
4762 Smoke 31 1012 45 3000 3.1 200 08:43 07.01.2020
4763 Smoke 30 1013 48 2500 3.1 180 08:25 07.01.2020
4764 Smoke 30 1014 51 2500 3.6 180 07:54 07.01.2020
4765 Smoke 30 1014 51 2500 1.5 180 07:28 07.01.2020
4766 Smoke 30 1014 51 2500 1.5 180 07:28 07.01.2020
4767 Smoke 29 1015 51 2500 1.5 0 06:53 07.01.2020
4768 Smoke 29 1015 54 2500 2.1 130 06:34 07.01.2020
4769 Smoke 28 1015 54 2500 2.1 130 05:55 07.01.2020
4770 Smoke 25 1014 61 2200 2.1 150 04:41 07.01.2020
4771 Smoke 25 1013 64 2500 2.1 80 03:27 07.01.2020
4772 Haze 25 1012 65 3500 2.6 150 02:22 07.01.2020
4773 Haze 25 1012 65 3500 1.5 180 01:54 07.01.2020
4774 Haze 24 1012 69 3500 1.5 180 01:30 07.01.2020
4775 Haze 25 1012 65 3500 2.17 48 00:37 07.01.2020
4776 Haze 25 1012 65 3500 2.17 48 00:18 07.01.2020
4777 Haze 25 1012 65 3500 2.17 48 23:55 06.01.2020
4778 Haze 25 1012 65 3500 2.17 48 23:36 06.01.2020
4779 Haze 25 1012 65 3500 2.45 44 23:18 06.01.2020
4780 Haze 26 1012 61 3000 2.45 44 22:42 06.01.2020
4781 Haze 26 1013 61 3000 2.45 44 22:22 06.01.2020
4782 Haze 25 1013 69 3000 2.45 44 21:56 06.01.2020
4783 Haze 26 1013 65 3000 2.45 44 21:38 06.01.2020
4784 Haze 26 1013 65 3000 2.45 44 21:19 06.01.2020
4785 Haze 27 1013 61 3000 2.1 160 20:56 06.01.2020
4786 Haze 26 1014 69 3000 2.45 44 20:37 06.01.2020
4787 Haze 26 1014 69 3000 2.61 47 20:19 06.01.2020
4788 Haze 26 1014 69 3000 2.6 160 19:55 06.01.2020
4789 Haze 27 1014 65 3000 2.61 47 19:37 06.01.2020
4790 Haze 27 1014 65 3000 2.61 47 19:19 06.01.2020
4791 Haze 26 1014 69 3000 2.6 290 18:45 06.01.2020
4792 Haze 26 1015 69 3000 2.61 47 18:21 06.01.2020
4793 Haze 27 1015 69 3500 1.5 350 17:56 06.01.2020
4794 Haze 27 1014 65 3500 1.5 10 17:37 06.01.2020
4795 Haze 27 1014 65 3500 1.5 10 17:18 06.01.2020
4796 Haze 27 1014 65 4000 3.1 340 16:42 06.01.2020
4797 Haze 27 1014 65 4000 3.1 340 16:42 06.01.2020
4798 Haze 27 1014 65 4000 3.1 340 16:23 06.01.2020
4799 Haze 28 1014 61 4000 3.6 360 15:59 06.01.2020
4800 Haze 28 1014 58 3500 3.1 320 15:37 06.01.2020
4801 Haze 28 1014 58 3500 3.1 320 15:37 06.01.2020
4802 Haze 28 1014 58 3500 3.1 320 15:18 06.01.2020
4803 Smoke 27 1013 61 3000 3.1 290 14:42 06.01.2020
4804 Smoke 29 1013 61 3000 3.1 290 14:23 06.01.2020
4805 Smoke 29 1013 61 3500 4.1 270 14:23 06.01.2020
4806 Smoke 29 1013 61 3500 4.1 270 13:59 06.01.2020
4807 Smoke 29 1012 54 3500 4.1 290 13:40 06.01.2020
4808 Smoke 30 1012 54 3500 4.1 290 13:22 06.01.2020
4809 Smoke 30 1012 54 4000 4.1 280 12:58 06.01.2020
4810 Smoke 30 1012 54 4000 5.1 270 12:39 06.01.2020
4811 Smoke 30 1012 54 4000 5.1 270 12:20 06.01.2020
4812 Smoke 30 1012 48 4000 4.1 290 11:55 06.01.2020
4813 Smoke 31 1012 46 4000 4.6 270 11:37 06.01.2020
4814 Smoke 31 1012 46 4000 4.6 270 11:18 06.01.2020
4815 Smoke 32 1012 36 4000 2.6 150 10:41 06.01.2020
4816 Smoke 32 1012 35 4000 2.6 170 10:21 06.01.2020
4817 Smoke 32 1012 35 3500 3.1 80 09:42 06.01.2020
4818 Smoke 32 1013 38 3000 4.1 130 09:24 06.01.2020
4819 Smoke 32 1013 38 3000 4.6 80 08:57 06.01.2020
4820 Smoke 31 1014 40 3000 4.6 130 08:38 06.01.2020
4821 Smoke 31 1014 40 3000 4.6 130 08:38 06.01.2020
4822 Smoke 31 1014 40 3000 4.6 130 08:19 06.01.2020
4823 Smoke 30 1015 45 2500 3.6 100 07:44 06.01.2020
4824 Smoke 28 1016 47 2500 4.6 120 06:53 06.01.2020
4825 Smoke 28 1016 47 2500 4.1 80 06:35 06.01.2020
4826 Smoke 27 1016 47 2500 4.1 100 05:48 06.01.2020
4827 Smoke 26 1016 50 2500 4.6 100 05:24 06.01.2020
4828 Smoke 24 1015 57 2500 3.1 80 04:24 06.01.2020
4829 Smoke 24 1015 57 2500 4.1 80 03:51 06.01.2020
4830 Smoke 24 1013 57 2500 4.6 40 02:28 06.01.2020
4831 Smoke 24 1013 57 2500 4.1 70 01:53 06.01.2020
4832 Smoke 24 1012 57 2500 2.1 50 01:30 06.01.2020
4833 Smoke 24 1012 57 3000 3.1 30 00:46 06.01.2020
4834 Smoke 24 1012 60 3000 3.1 30 00:27 06.01.2020
4835 Smoke 24 1012 60 3000 2.1 40 23:57 05.01.2020
4836 Smoke 24 1012 60 3000 2.1 40 23:57 05.01.2020
4837 Smoke 24 1012 60 3000 2.1 30 23:38 05.01.2020
4838 Smoke 24 1012 60 3000 2.1 30 23:20 05.01.2020
4839 Smoke 24 1012 60 3000 3.1 30 22:40 05.01.2020
4840 Smoke 25 1012 57 3000 1.5 80 22:21 05.01.2020
4841 Smoke 25 1012 53 3000 2.1 60 21:58 05.01.2020
4842 Smoke 25 1012 53 3000 2.6 40 21:40 05.01.2020
4843 Smoke 25 1012 53 3000 2.6 40 21:20 05.01.2020
4844 Smoke 25 1012 53 3000 2.6 30 20:58 05.01.2020
4845 Smoke 25 1012 53 3000 2.6 50 20:39 05.01.2020
4846 Smoke 25 1012 53 3000 2.6 50 20:19 05.01.2020
4847 Smoke 25 1013 57 3000 3.1 50 19:58 05.01.2020
4848 Smoke 25 1013 53 3000 3.1 40 19:39 05.01.2020
4849 Smoke 25 1013 53 3000 3.1 40 19:20 05.01.2020
4850 Smoke 26 1013 50 3000 2.6 40 18:55 05.01.2020
4851 Smoke 26 1013 54 3000 2.1 120 18:37 05.01.2020
4852 Smoke 26 1013 54 3000 2.1 120 18:19 05.01.2020
4853 Smoke 26 1013 57 3000 2.6 40 17:57 05.01.2020
4854 Smoke 26 1013 57 3000 2.1 70 17:38 05.01.2020
4855 Smoke 26 1013 57 3000 2.1 70 17:38 05.01.2020
4856 Smoke 26 1013 57 3000 2.1 70 17:38 05.01.2020
4857 Smoke 26 1013 57 3000 2.1 70 17:19 05.01.2020
4858 Smoke 26 1013 57 3000 2.1 70 17:19 05.01.2020
4859 Smoke 26 1013 57 3000 2.1 10 16:56 05.01.2020
4860 Smoke 26 1013 57 3000 1.5 320 16:38 05.01.2020
4861 Smoke 26 1013 57 3000 1.5 320 16:19 05.01.2020
4862 Smoke 26 1013 57 3000 2.6 340 15:39 05.01.2020
4863 Smoke 26 1012 57 3000 3.1 350 15:20 05.01.2020
4864 Smoke 25 1012 61 3000 2.1 320 14:56 05.01.2020
4865 Smoke 26 1011 57 3500 2.1 310 14:38 05.01.2020
4866 Smoke 27 1011 57 3500 2.1 310 14:20 05.01.2020
4867 Smoke 27 1011 61 4000 2.6 310 13:56 05.01.2020
4868 Smoke 28 1010 58 4000 3.6 280 13:38 05.01.2020
4869 Smoke 28 1010 58 4000 3.6 280 13:19 05.01.2020
4870 Smoke 29 1010 48 4000 4.6 280 12:55 05.01.2020
4871 Smoke 29 1010 48 4000 4.6 280 12:55 05.01.2020
4872 Smoke 29 1010 45 4000 4.1 280 12:37 05.01.2020
4873 Smoke 29 1010 45 4000 4.1 280 12:37 05.01.2020
4874 Smoke 29 1010 45 4000 4.1 280 12:18 05.01.2020
4875 Smoke 30 1010 40 4000 3.6 290 11:44 05.01.2020
4876 Smoke 30 1011 48 5000 4.1 280 11:20 05.01.2020
4877 Smoke 30 1011 35 4000 2.6 90 10:58 05.01.2020
4878 Smoke 30 1011 37 3500 3.6 70 10:40 05.01.2020
4879 Smoke 30 1011 37 3500 3.6 70 10:19 05.01.2020
4880 Smoke 30 1011 39 3500 2.1 50 09:42 05.01.2020
4881 Smoke 29 1012 39 3000 3.6 100 09:22 05.01.2020
4882 Smoke 29 1012 39 2500 4.1 100 08:51 05.01.2020
4883 Smoke 29 1013 45 2500 5.1 100 08:32 05.01.2020
4884 Smoke 28 1014 45 2500 4.6 100 07:59 05.01.2020
4885 -273 0 0 0 0 0 07:39 05.01.2020
4886 Smoke 27 1014 47 2500 4.6 90 07:20 05.01.2020
4887 Smoke 27 1015 47 2500 5.7 60 06:40 05.01.2020
4888 Smoke 23 1016 53 2200 4.6 40 05:34 05.01.2020
4889 Smoke 24 1015 53 2200 4.6 70 04:49 05.01.2020
4890 Smoke 23 1015 56 2200 2.6 40 04:18 05.01.2020
4891 Smoke 22 1014 60 2500 3.6 40 03:18 05.01.2020
4892 Haze 21 1013 64 2500 4.1 80 02:32 05.01.2020
4893 Haze 21 1012 68 2500 4.1 80 01:49 05.01.2020
4894 Haze 21 1012 68 2500 3.6 90 01:20 05.01.2020
4895 Haze 21 1012 73 2500 3.1 90 00:56 05.01.2020
4896 Haze 20 1012 77 2500 2.1 120 00:37 05.01.2020
4897 Haze 20 1012 77 2500 2.1 120 00:19 05.01.2020
4898 Haze 21 1011 73 2200 3.1 90 23:41 04.01.2020
4899 Haze 22 1012 73 2200 2.6 40 23:20 04.01.2020
4900 Haze 21 1012 77 2200 2.1 70 22:55 04.01.2020
4901 Haze 22 1012 68 2200 2.6 40 22:37 04.01.2020
4902 Haze 22 1012 68 2200 2.6 40 22:19 04.01.2020
4903 Haze 22 1012 68 2200 3.6 120 21:55 04.01.2020
4904 Haze 22 1013 68 2200 2.6 90 21:36 04.01.2020
4905 Haze 22 1013 68 2200 2.6 90 21:18 04.01.2020
4906 Haze 23 1013 64 2500 2.1 40 20:41 04.01.2020
4907 Haze 23 1013 64 2500 2.1 40 20:22 04.01.2020
4908 Haze 22 1013 64 2500 1.68 40 19:57 04.01.2020
4909 Haze 23 1013 60 2500 1.68 40 19:38 04.01.2020
4910 Haze 23 1013 60 2500 1.68 40 19:20 04.01.2020
4911 Haze 23 1014 60 2500 1.5 30 18:56 04.01.2020
4912 Haze 23 1014 60 2500 1.68 40 18:37 04.01.2020
4913 Haze 23 1014 60 2500 1.68 40 18:19 04.01.2020
4914 Haze 23 1014 60 2500 2.1 30 17:42 04.01.2020
4915 Haze 23 1014 60 2500 2.1 20 17:24 04.01.2020
4916 Smoke 23 1014 60 3000 3.1 40 16:59 04.01.2020
4917 Smoke 23 1014 60 3000 3.1 40 16:40 04.01.2020
4918 Smoke 23 1014 60 3000 3.1 350 16:22 04.01.2020
4919 Smoke 23 1013 60 3000 3.6 340 15:56 04.01.2020
4920 Smoke 24 1013 57 3000 3.6 360 15:38 04.01.2020
4921 Smoke 24 1013 57 3000 3.6 360 15:19 04.01.2020
4922 Smoke 23 1013 57 3000 4.1 340 14:54 04.01.2020
4923 Smoke 23 1012 57 3000 2.6 340 14:36 04.01.2020
4924 Smoke 25 1012 57 3000 2.6 340 14:18 04.01.2020
4925 Smoke 25 1012 57 3000 4.6 300 13:39 04.01.2020
4926 Smoke 25 1012 57 3000 4.6 300 13:39 04.01.2020
4927 Smoke 25 1012 57 3000 4.6 300 13:20 04.01.2020
4928 Smoke 26 1012 57 3000 4.6 320 12:59 04.01.2020
4929 Smoke 26 1012 57 3000 4.6 320 12:41 04.01.2020
4930 Smoke 26 1011 50 3000 5.7 310 12:19 04.01.2020
4931 Smoke 26 1011 50 3000 5.1 300 11:57 04.01.2020
4932 Smoke 26 1012 50 3000 4.6 320 11:38 04.01.2020
4933 Smoke 26 1012 50 3000 4.6 320 11:19 04.01.2020
4934 Smoke 26 1012 50 3000 4.1 310 10:42 04.01.2020
4935 Smoke 26 1012 50 3000 5.7 300 10:23 04.01.2020
4936 Smoke 26 1013 50 2500 4.6 310 09:57 04.01.2020
4937 Smoke 26 1013 47 2500 5.1 310 09:39 04.01.2020
4938 Smoke 26 1013 47 2500 5.1 310 09:20 04.01.2020
4939 Smoke 26 1014 47 2500 4.1 310 08:40 04.01.2020
4940 Smoke 26 1014 44 2500 3.1 300 08:20 04.01.2020
4941 Smoke 26 1015 44 2500 2.6 320 07:42 04.01.2020
4942 Smoke 25 1015 47 2200 4.1 290 07:19 04.01.2020
4943 Smoke 24 1016 49 2100 1.5 40 06:33 04.01.2020
4944 Smoke 22 1016 56 1700 1.5 30 05:19 04.01.2020
4945 Haze 20 1015 60 1700 2.1 40 04:34 04.01.2020
4946 Haze 20 1015 60 1700 1.5 40 03:43 04.01.2020
4947 Haze 19 1015 63 2200 2.6 30 03:18 04.01.2020
4948 Haze 20 1014 64 2200 2.1 20 02:21 04.01.2020
4949 Haze 20 1013 68 2200 2.6 10 01:55 04.01.2020
4950 Haze 20 1013 68 2200 2.6 350 01:31 04.01.2020
4951 Haze 20 1013 68 2200 2.6 350 00:44 04.01.2020
4952 Haze 20 1013 72 2200 3.1 360 00:23 04.01.2020
4953 Haze 20 1013 72 2200 2.1 330 23:46 03.01.2020
4954 Haze 21 1013 68 2200 2.6 350 23:25 03.01.2020
4955 Haze 22 1014 68 2500 2.1 10 22:41 03.01.2020
4956 Haze 22 1014 68 2500 2.1 10 22:20 03.01.2020
4957 Haze 22 1014 68 2500 1.5 0 21:59 03.01.2020
4958 Haze 22 1014 68 2500 1.5 0 21:39 03.01.2020
4959 Haze 22 1014 68 2500 1.5 0 21:19 03.01.2020
4960 Haze 22 1014 68 2500 1.5 0 21:19 03.01.2020
4961 Haze 22 1014 68 2500 2.6 30 20:59 03.01.2020
4962 Haze 22 1014 68 2500 3.1 340 20:41 03.01.2020
4963 Haze 22 1014 68 2500 3.1 340 20:18 03.01.2020
4964 Haze 23 1014 64 2500 2.6 30 19:57 03.01.2020
4965 Haze 23 1015 64 2500 3.1 20 19:38 03.01.2020
4966 Haze 23 1015 64 2500 3.1 20 19:20 03.01.2020
4967 Haze 23 1015 64 2500 2.6 30 18:44 03.01.2020
4968 Haze 23 1015 64 3000 3.1 360 18:25 03.01.2020
4969 Haze 23 1015 69 3000 2.6 350 17:56 03.01.2020
4970 Haze 23 1015 69 3000 3.1 350 17:38 03.01.2020
4971 Haze 23 1015 69 3000 3.1 350 17:19 03.01.2020
4972 Haze 24 1015 64 3000 2.6 360 16:42 03.01.2020
4973 Haze 24 1014 60 3000 2.6 340 16:24 03.01.2020
4974 Haze 24 1014 60 3000 3.1 350 15:58 03.01.2020
4975 Haze 24 1014 60 3000 4.1 260 15:40 03.01.2020
4976 Haze 24 1014 60 3000 4.1 260 15:18 03.01.2020
4977 Smoke 24 1014 57 2500 4.1 340 14:39 03.01.2020
4978 Smoke 26 1014 57 2500 4.1 340 14:19 03.01.2020
4979 Smoke 26 1014 57 3000 4.6 320 13:56 03.01.2020
4980 Smoke 26 1014 57 3000 4.6 330 13:37 03.01.2020
4981 Smoke 26 1014 57 3000 4.6 330 13:19 03.01.2020
4982 Smoke 26 1013 53 3000 5.1 340 12:39 03.01.2020
4983 Smoke 26 1013 53 3000 5.1 340 12:21 03.01.2020
4984 Smoke 27 1014 61 3000 6.2 340 11:48 03.01.2020
4985 Smoke 27 1013 57 2500 5.7 300 11:29 03.01.2020
4986 Smoke 27 1013 54 2500 6.7 300 10:47 03.01.2020
4987 Smoke 27 1014 54 2500 4.6 310 10:27 03.01.2020
4988 Smoke 27 1014 54 2500 6.2 290 09:59 03.01.2020
4989 Smoke 27 1015 50 2500 4.6 320 09:41 03.01.2020
4990 Smoke 27 1015 50 2500 4.6 320 09:22 03.01.2020
4991 Smoke 27 1015 50 2500 3.6 300 08:57 03.01.2020
4992 Smoke 27 1016 47 2500 3.1 320 08:38 03.01.2020
4993 Smoke 27 1016 47 2500 3.1 320 08:19 03.01.2020
4994 Smoke 27 1016 47 2500 1.5 300 07:40 03.01.2020
4995 Smoke 26 1017 53 2500 2.6 350 07:19 03.01.2020
4996 Smoke 26 1017 53 2500 2.1 350 06:54 03.01.2020
4997 Smoke 25 1018 57 2500 1.5 60 06:35 03.01.2020
4998 Smoke 25 1018 57 2200 2.1 10 05:47 03.01.2020
4999 Haze 21 1017 68 2200 1.5 340 04:31 03.01.2020
5000 Haze 21 1016 64 1800 1.5 50 03:18 03.01.2020
5001 Haze 20 1016 68 1800 2.1 60 02:45 03.01.2020
5002 Haze 21 1015 73 2200 1.5 80 01:45 03.01.2020
5003 Haze 21 1015 68 2200 2.6 30 00:56 03.01.2020
5004 Haze 21 1014 68 2200 2.1 30 00:32 03.01.2020
5005 Haze 21 1015 68 2200 2.6 30 23:58 02.01.2020
5006 Haze 22 1015 64 2200 1.5 30 23:39 02.01.2020
5007 Haze 22 1015 64 2200 1.5 30 23:19 02.01.2020
5008 Haze 22 1015 64 2200 2.39 29 22:58 02.01.2020
5009 Haze 22 1015 68 2200 1.5 80 22:39 02.01.2020
5010 Haze 22 1015 68 2200 1.5 80 22:19 02.01.2020
5011 Haze 22 1015 73 2200 1.5 0 21:54 02.01.2020
5012 Haze 23 1015 69 2200 1.5 180 21:36 02.01.2020
5013 Haze 23 1015 69 2200 1.5 180 21:36 02.01.2020
5014 Haze 23 1015 69 2200 1.5 180 21:18 02.01.2020
5015 Haze 23 1016 73 2000 2.39 29 20:40 02.01.2020
5016 Haze 23 1016 73 2000 2.54 8 20:21 02.01.2020
5017 Haze 23 1016 78 1800 2.89 11 19:56 02.01.2020
5018 Haze 23 1017 73 1800 2.89 11 19:38 02.01.2020
5019 Haze 23 1017 73 1800 2.89 11 19:19 02.01.2020
5020 Haze 24 1017 69 2000 2.1 130 18:58 02.01.2020
5021 Haze 24 1017 69 2000 2.1 130 18:40 02.01.2020
5022 Haze 24 1017 64 2000 2.1 30 18:22 02.01.2020
5023 Haze 24 1017 64 1800 3.6 20 17:57 02.01.2020
5024 Haze 24 1017 73 1500 3.6 20 17:37 02.01.2020
5025 Haze 24 1017 73 1500 3.6 20 17:19 02.01.2020
5026 Haze 24 1017 73 2200 3.1 340 16:57 02.01.2020
5027 Haze 25 1017 69 2200 2.6 340 16:38 02.01.2020
5028 Haze 25 1017 69 2200 2.6 340 16:20 02.01.2020
5029 Haze 25 1016 69 2200 2.6 350 15:56 02.01.2020
5030 Haze 25 1016 69 2200 3.6 350 15:37 02.01.2020
5031 Haze 25 1016 69 2500 3.1 310 15:19 02.01.2020
5032 Haze 25 1016 69 2500 3.1 310 14:54 02.01.2020
5033 Haze 25 1016 69 2500 3.1 310 14:54 02.01.2020
5034 Haze 25 1015 65 2500 3.1 310 14:36 02.01.2020
5035 Haze 27 1015 61 3000 3.1 300 14:18 02.01.2020
5036 Smoke 27 1015 57 3000 3.6 290 13:45 02.01.2020
5037 Smoke 27 1015 57 3000 3.6 290 13:26 02.01.2020
5038 Smoke 26 1014 57 3000 4.1 320 12:43 02.01.2020
5039 Smoke 27 1014 54 3000 5.7 290 12:24 02.01.2020
5040 Smoke 27 1014 54 3000 5.7 290 12:24 02.01.2020
5041 Smoke 27 1014 57 3000 4.6 310 11:43 02.01.2020
5042 Smoke 28 1014 57 3000 4.6 310 11:24 02.01.2020
5043 Smoke 28 1014 51 3000 4.6 310 10:56 02.01.2020
5044 Smoke 27 1014 48 2500 5.1 270 10:37 02.01.2020
5045 Smoke 28 1014 48 2500 5.1 270 10:18 02.01.2020
5046 Smoke 28 1015 48 2500 5.1 260 09:41 02.01.2020
5047 Smoke 28 1015 48 2500 5.1 260 09:22 02.01.2020
5048 Smoke 28 1016 54 2500 3.6 280 08:44 02.01.2020
5049 Smoke 28 1016 54 2500 4.6 300 08:25 02.01.2020
5050 Smoke 28 1017 54 2500 4.1 290 07:48 02.01.2020
5051 Smoke 27 1017 51 2200 3.6 290 07:28 02.01.2020
5052 Smoke 27 1017 51 2200 1.5 170 06:43 02.01.2020
5053 Haze 26 1018 57 1700 1.5 140 05:58 02.01.2020
5054 Haze 23 1017 64 1200 1.74 58 04:40 02.01.2020
5055 Haze 22 1017 68 1200 1.74 58 04:21 02.01.2020
5056 Haze 22 1017 68 1200 1.74 58 04:21 02.01.2020
5057 Haze 20 1015 82 1200 2.6 120 02:28 02.01.2020
5058 Haze 21 1015 77 1300 1.5 130 01:58 02.01.2020
5059 Haze 21 1015 77 1400 1.5 100 01:32 02.01.2020
5060 Haze 21 1014 73 1400 1.5 40 00:53 02.01.2020
5061 Haze 21 1014 73 1400 2.19 54 00:33 02.01.2020
5062 Haze 21 1014 73 1300 2.19 54 23:49 01.01.2020
5063 Haze 22 1014 68 1700 2.6 350 23:26 01.01.2020
5064 Haze 22 1015 73 1700 2.04 40 22:55 01.01.2020
5065 Haze 22 1015 73 1700 2.04 40 22:37 01.01.2020
5066 Haze 22 1015 73 1700 2.04 40 22:18 01.01.2020
5067 Haze 22 1015 73 1700 2.04 40 21:42 01.01.2020
5068 Haze 22 1015 73 1700 2.04 40 21:21 01.01.2020
5069 Haze 22 1015 78 1700 2.04 40 20:59 01.01.2020
5070 Haze 22 1015 78 1700 2.04 40 20:39 01.01.2020
5071 Haze 22 1015 78 1700 2.04 40 20:39 01.01.2020
5072 Haze 22 1015 78 1700 1.7 25 20:21 01.01.2020
5073 Haze 22 1015 78 1700 1.5 60 19:58 01.01.2020
5074 Haze 22 1015 78 1700 1.5 60 19:39 01.01.2020
5075 Haze 23 1015 73 1700 2.6 20 19:20 01.01.2020
5076 Haze 23 1015 69 1700 2.6 340 18:57 01.01.2020
5077 Haze 23 1015 69 1700 2.6 340 18:39 01.01.2020
5078 Haze 23 1016 69 2200 2.6 10 18:20 01.01.2020
5079 Haze 23 1016 69 2200 2.1 340 17:59 01.01.2020
5080 Haze 23 1016 69 2200 2.1 340 17:40 01.01.2020
5081 Haze 24 1015 64 2200 2.1 20 17:20 01.01.2020
5082 Haze 24 1015 64 2200 3.1 360 16:59 01.01.2020
5083 Haze 24 1015 60 2200 2.6 350 16:38 01.01.2020
5084 Haze 24 1015 60 2200 2.6 350 16:20 01.01.2020
5085 Haze 24 1015 60 2200 1.5 330 15:57 01.01.2020
5086 Haze 24 1015 60 2200 1.5 330 15:57 01.01.2020
5087 Smoke 25 1014 57 2200 3.6 20 15:38 01.01.2020
5088 Smoke 25 1014 57 2200 3.6 20 15:20 01.01.2020
5089 Smoke 24 1014 57 2500 2.1 350 14:56 01.01.2020
5090 Smoke 24 1014 57 2500 2.1 310 14:37 01.01.2020
5091 Smoke 26 1014 57 2500 2.1 310 14:19 01.01.2020
5092 Smoke 26 1014 57 2500 2.1 310 14:19 01.01.2020
5093 Smoke 26 1013 57 2500 1.5 290 13:55 01.01.2020
5094 Smoke 27 1013 54 2500 1.5 300 13:36 01.01.2020
5095 Smoke 27 1013 54 2500 1.5 300 13:18 01.01.2020
5096 Smoke 26 1012 54 2500 3.6 290 12:54 01.01.2020
5097 Smoke 26 1012 50 2500 3.1 240 12:36 01.01.2020
5098 Smoke 26 1012 50 2500 3.1 240 12:18 01.01.2020
5099 Smoke 27 1012 47 2500 4.6 260 11:41 01.01.2020
5100 Smoke 28 1012 44 2500 3.1 240 11:21 01.01.2020
5101 Smoke 28 1012 44 2500 3.1 240 11:21 01.01.2020
5102 Smoke 28 1012 39 2500 3.6 260 10:56 01.01.2020
5103 Smoke 28 1013 39 2500 3.1 230 10:38 01.01.2020
5104 Smoke 28 1013 39 2500 3.1 230 10:19 01.01.2020
5105 Smoke 28 1013 39 2500 2.6 300 09:40 01.01.2020
5106 Smoke 28 1013 39 2500 2.6 300 09:22 01.01.2020
5107 Smoke 28 1014 44 2500 2.6 280 08:57 01.01.2020
5108 Smoke 27 1015 47 3000 3.6 250 08:38 01.01.2020
5109 Smoke 27 1015 47 3000 3.6 250 08:38 01.01.2020
5110 Smoke 26 1015 47 3000 3.6 250 08:20 01.01.2020
5111 Smoke 26 1015 47 2400 1.43 287 07:57 01.01.2020
5112 Smoke 27 1016 47 2400 1.5 0 07:39 01.01.2020
5113 Smoke 26 1016 50 2200 2.6 130 06:55 01.01.2020
5114 Haze 26 1016 53 2200 2.6 130 06:36 01.01.2020
5115 Haze 25 1016 50 2000 3.1 90 05:51 01.01.2020
5116 Haze 21 1015 64 2200 2.6 110 04:28 01.01.2020
5117 Haze 19 1014 64 2200 2.1 100 03:39 01.01.2020
5118 Haze 19 1014 68 2200 2.6 80 03:21 01.01.2020
5119 Haze 20 1013 64 1700 1.5 100 02:42 01.01.2020
5120 Haze 20 1012 64 1800 2.1 150 02:23 01.01.2020
5121 Haze 20 1012 68 2100 1.5 80 01:42 01.01.2020
5122 Haze 20 1012 68 2100 1.5 80 01:22 01.01.2020
5123 Haze 20 1011 68 2200 1.82 77 00:45 01.01.2020
5124 Haze 20 1011 68 2200 1.82 77 00:26 01.01.2020
5125 Haze 20 1011 68 2200 1.82 77 23:56 31.12.2019
5126 Haze 20 1011 68 2200 1.5 100 23:36 31.12.2019
5127 Haze 20 1011 68 2200 1.5 100 23:18 31.12.2019
5128 Haze 20 1011 64 2200 1.7 70 22:55 31.12.2019
5129 Haze 20 1011 64 2200 1.7 70 22:55 31.12.2019
5130 Haze 21 1012 60 2200 1.5 350 22:36 31.12.2019
5131 Haze 21 1012 60 2200 1.5 350 22:18 31.12.2019
5132 Haze 21 1012 64 2500 1.7 70 21:42 31.12.2019
5133 Haze 21 1012 60 2500 1.5 350 21:24 31.12.2019
5134 Smoke 21 1013 64 2500 1.7 70 20:57 31.12.2019
5135 Smoke 21 1013 64 2500 1.7 70 20:57 31.12.2019
5136 Smoke 22 1013 60 2500 1.5 70 20:38 31.12.2019
5137 Smoke 22 1013 60 2500 1.5 70 20:20 31.12.2019
5138 Smoke 22 1013 56 2500 2.1 20 19:57 31.12.2019
5139 Smoke 22 1013 53 3000 1.5 30 19:39 31.12.2019
5140 Smoke 22 1013 53 3000 1.5 30 19:20 31.12.2019
5141 Smoke 22 1014 56 3000 2 36 18:56 31.12.2019
5142 Smoke 22 1014 60 3000 2 36 18:38 31.12.2019
5143 Smoke 22 1014 60 3000 2 36 18:19 31.12.2019
5144 Smoke 23 1014 53 3000 2.1 60 17:55 31.12.2019
5145 Smoke 23 1014 53 3000 2.1 40 17:36 31.12.2019
5146 Smoke 23 1014 53 3000 2.1 40 17:36 31.12.2019
5147 Smoke 23 1014 53 3000 2.1 40 17:18 31.12.2019
5148 Smoke 23 1013 53 3000 2.6 340 16:56 31.12.2019
5149 Smoke 24 1013 50 3500 3.6 350 16:37 31.12.2019
5150 Smoke 24 1013 50 3500 3.6 350 16:18 31.12.2019
5151 Smoke 24 1013 50 3500 4.6 340 15:56 31.12.2019
5152 Smoke 24 1013 50 3500 3.1 340 15:37 31.12.2019
5153 Smoke 24 1013 50 3500 3.1 340 15:19 31.12.2019
5154 Smoke 24 1012 47 3500 2.6 320 14:55 31.12.2019
5155 Smoke 24 1012 47 3500 3.1 320 14:37 31.12.2019
5156 Smoke 26 1012 47 3500 3.1 320 14:18 31.12.2019
5157 Smoke 26 1012 39 3500 3.6 310 13:56 31.12.2019
5158 Smoke 27 1012 39 3500 4.6 290 13:37 31.12.2019
5159 Smoke 27 1012 39 3500 4.6 290 13:19 31.12.2019
5160 Smoke 26 1012 36 3500 3.1 350 12:55 31.12.2019
5161 Smoke 26 1012 39 3500 4.1 310 12:37 31.12.2019
5162 Smoke 26 1012 39 3500 4.1 310 12:18 31.12.2019
5163 Smoke 26 1011 39 3500 4.6 310 11:55 31.12.2019
5164 Smoke 27 1011 39 3500 4.1 310 11:36 31.12.2019
5165 Smoke 28 1011 39 3500 4.1 310 11:18 31.12.2019
5166 Smoke 28 1012 41 3500 5.1 300 10:55 31.12.2019
5167 Smoke 28 1012 42 3500 5.1 300 10:37 31.12.2019
5168 Smoke 28 1012 42 3500 5.1 300 10:19 31.12.2019
5169 Smoke 28 1012 39 3500 4.1 290 09:56 31.12.2019
5170 Smoke 28 1013 42 2500 4.1 300 09:38 31.12.2019
5171 Smoke 28 1013 42 2500 4.1 300 09:18 31.12.2019
5172 Smoke 28 1013 42 2500 4.6 290 08:42 31.12.2019
5173 Smoke 27 1014 39 2500 3.1 310 08:23 31.12.2019
5174 Smoke 27 1014 42 2500 2.1 140 07:57 31.12.2019
5175 Smoke 26 1015 44 2500 1.5 160 07:38 31.12.2019
5176 Smoke 27 1015 44 2500 1.5 160 07:18 31.12.2019
5177 Smoke 27 1015 44 2500 1.5 60 06:40 31.12.2019
5178 Smoke 22 1015 56 2200 2.6 50 04:58 31.12.2019
5179 Haze 22 1014 60 2100 2.1 40 04:25 31.12.2019
5180 Smoke 22 1013 56 2500 1.5 30 02:59 31.12.2019
5181 Haze 23 1013 53 3000 2.6 10 02:34 31.12.2019
5182 Haze 22 1012 64 3000 2.1 10 01:51 31.12.2019
5183 Haze 22 1012 64 3000 2.01 46 01:32 31.12.2019
5184 Haze 22 1012 64 3000 1.9 42 01:32 31.12.2019
5185 Haze 22 1012 64 3000 2.1 360 00:54 31.12.2019
5186 Haze 23 1012 60 3000 1.5 0 00:36 31.12.2019
5187 Haze 23 1012 60 3000 1.5 0 00:18 31.12.2019
5188 Haze 23 1012 64 3000 2.6 350 23:54 30.12.2019
5189 Haze 23 1012 69 3000 2.6 340 23:36 30.12.2019
5190 Haze 23 1012 69 3000 2.6 340 23:18 30.12.2019
5191 Haze 23 1012 69 3000 2.6 320 22:54 30.12.2019
5192 Haze 23 1012 64 3000 2.1 330 22:36 30.12.2019
5193 Haze 23 1012 64 3000 2.1 330 22:18 30.12.2019
5194 Haze 24 1012 60 3000 2.1 320 21:55 30.12.2019
5195 Haze 24 1012 64 3000 2.1 340 21:36 30.12.2019
5196 Haze 24 1012 64 3000 2.1 340 21:18 30.12.2019
5197 Haze 24 1013 64 3000 3.1 10 20:41 30.12.2019
5198 Haze 25 1013 65 3000 3.1 320 20:20 30.12.2019
5199 Haze 24 1013 69 3000 2.6 330 19:59 30.12.2019
5200 Haze 24 1013 69 3000 2.6 330 19:40 30.12.2019
5201 Haze 24 1013 69 3000 3.6 340 19:20 30.12.2019
5202 Haze 24 1013 73 3000 3.1 340 18:59 30.12.2019
5203 Haze 24 1013 73 3000 3.1 340 18:41 30.12.2019
5204 Haze 24 1014 69 3000 2.1 350 18:21 30.12.2019
5205 Haze 25 1014 69 3000 4.1 350 17:58 30.12.2019
5206 Haze 25 1014 69 3000 4.1 350 17:40 30.12.2019
5207 Haze 25 1013 69 3000 3.1 320 17:19 30.12.2019
5208 Haze 25 1013 69 3000 3.1 300 16:59 30.12.2019
5209 Haze 25 1013 69 3000 2.6 310 16:38 30.12.2019
5210 Haze 25 1013 69 3000 2.6 310 16:20 30.12.2019
5211 Haze 25 1012 69 3000 4.1 310 15:56 30.12.2019
5212 Haze 25 1012 69 3000 3.1 310 15:38 30.12.2019
5213 Haze 25 1012 69 3000 3.1 310 15:19 30.12.2019
5214 Haze 26 1011 65 3000 3.1 310 14:43 30.12.2019
5215 Haze 27 1011 61 3000 5.1 300 14:21 30.12.2019
5216 Smoke 27 1010 57 3000 3.6 320 13:59 30.12.2019
5217 Smoke 28 1010 57 3000 3.6 320 13:41 30.12.2019
5218 Smoke 28 1010 54 3000 3.1 310 13:22 30.12.2019
5219 Smoke 29 1010 51 3000 4.6 300 12:57 30.12.2019
5220 -273 0 0 0 0 0 12:38 30.12.2019
5221 Smoke 27 1010 47 3000 4.6 310 12:18 30.12.2019
5222 Smoke 27 1010 47 3000 4.6 310 12:18 30.12.2019
5223 Smoke 27 1010 54 3000 5.7 300 11:46 30.12.2019
5224 Smoke 29 1010 51 3000 4.6 280 11:22 30.12.2019
5225 Smoke 29 1010 54 2500 4.6 280 10:59 30.12.2019
5226 Smoke 29 1010 51 2500 4.6 280 10:40 30.12.2019
5227 Smoke 29 1010 51 2500 4.6 280 10:19 30.12.2019
5228 Smoke 29 1011 54 2500 3.6 270 09:43 30.12.2019
5229 Smoke 29 1011 57 2500 4.1 270 09:21 30.12.2019
5230 Smoke 29 1012 54 2500 4.6 270 08:57 30.12.2019
5231 Smoke 29 1012 54 2500 2.1 250 08:38 30.12.2019
5232 Smoke 29 1012 54 2500 2.1 250 08:20 30.12.2019
5233 Smoke 28 1013 58 2500 2.6 270 07:48 30.12.2019
5234 Smoke 28 1013 58 2500 3.6 260 07:23 30.12.2019
5235 Smoke 28 1014 51 2500 2.6 130 06:32 30.12.2019
5236 Haze 25 1012 61 2500 3.1 70 04:31 30.12.2019
5237 Haze 23 1012 60 2500 2.1 100 03:50 30.12.2019
5238 Haze 23 1012 69 2500 1.5 140 02:47 30.12.2019
5239 Haze 23 1011 73 2500 1.5 150 02:26 30.12.2019
5240 Haze 24 1011 69 2200 1.55 71 01:29 30.12.2019
5241 Haze 24 1011 64 2200 1.5 60 00:59 30.12.2019
5242 Haze 24 1011 64 2200 1.5 60 00:39 30.12.2019
5243 Haze 24 1010 73 2200 2.1 120 23:55 29.12.2019
5244 Haze 24 1010 78 2200 1.5 80 23:36 29.12.2019
5245 Haze 24 1010 78 2200 1.5 80 23:18 29.12.2019
5246 Haze 24 1010 78 2200 1.09 352 22:40 29.12.2019
5247 Haze 24 1011 78 2200 2.1 40 22:21 29.12.2019
5248 Haze 25 1011 73 2200 1.5 10 21:56 29.12.2019
5249 Haze 25 1011 73 2500 1.09 352 21:38 29.12.2019
5250 Haze 25 1011 73 2500 1.09 352 21:19 29.12.2019
5251 Haze 25 1011 73 2500 1.5 330 20:55 29.12.2019
5252 Haze 25 1011 78 2500 3.1 240 20:37 29.12.2019
5253 Haze 25 1011 78 2500 3.1 240 20:18 29.12.2019
5254 Haze 26 1011 69 2500 2.1 170 19:56 29.12.2019
5255 Haze 26 1011 69 2500 1.5 0 19:37 29.12.2019
5256 Haze 26 1011 69 2500 1.5 0 19:19 29.12.2019
5257 Haze 26 1012 69 2500 1.56 36 18:55 29.12.2019
5258 Haze 26 1012 69 2500 1.56 36 18:37 29.12.2019
5259 Haze 26 1012 69 2500 1.56 36 18:18 29.12.2019
5260 Haze 26 1012 69 2500 2.6 30 17:56 29.12.2019
5261 Haze 26 1012 69 2500 2.6 30 17:37 29.12.2019
5262 Haze 26 1012 69 2500 2.6 30 17:37 29.12.2019
5263 Haze 26 1012 69 2500 2.6 30 17:37 29.12.2019
5264 Haze 26 1012 69 2500 2.6 30 17:19 29.12.2019
5265 Haze 26 1011 69 2500 2.1 40 16:55 29.12.2019
5266 Haze 27 1012 65 2500 2.1 350 16:36 29.12.2019
5267 Haze 27 1012 65 2500 2.1 350 16:36 29.12.2019
5268 Haze 27 1012 65 2500 2.1 350 16:18 29.12.2019
5269 Haze 26 1011 69 2500 2.6 350 15:55 29.12.2019
5270 Haze 27 1011 65 2500 2.6 350 15:37 29.12.2019
5271 Haze 27 1011 65 2500 2.6 350 15:18 29.12.2019
5272 Haze 26 1011 65 2500 3.1 310 14:55 29.12.2019
5273 Haze 26 1011 69 2500 4.6 310 14:37 29.12.2019
5274 Haze 28 1011 69 2500 4.6 310 14:18 29.12.2019
5275 Haze 28 1011 69 2500 3.6 320 13:41 29.12.2019
5276 Smoke 29 1010 61 2500 3.1 320 13:22 29.12.2019
5277 Smoke 29 1010 58 2500 4.1 290 12:59 29.12.2019
5278 Smoke 30 1010 58 2500 4.1 290 12:41 29.12.2019
5279 Smoke 30 1010 58 2500 3.6 280 12:22 29.12.2019
5280 Smoke 30 1010 62 2500 5.1 270 11:54 29.12.2019
5281 Smoke 30 1010 62 2500 5.1 270 11:36 29.12.2019
5282 Smoke 30 1010 62 2500 5.1 270 11:18 29.12.2019
5283 Smoke 31 1010 58 2500 4.6 260 10:41 29.12.2019
5284 Smoke 31 1010 48 2500 4.6 260 10:20 29.12.2019
5285 Smoke 31 1010 45 2500 1.5 170 09:54 29.12.2019
5286 Smoke 31 1011 45 3000 4.7 265 09:36 29.12.2019
5287 Smoke 31 1011 45 3000 4.7 265 09:18 29.12.2019
5288 Smoke 31 1013 48 3000 3.6 120 08:44 29.12.2019
5289 Smoke 30 1013 48 3000 3.6 120 08:24 29.12.2019
5290 Smoke 31 1013 48 3000 4.1 120 07:54 29.12.2019
5291 Smoke 29 1013 51 3000 3.6 110 07:27 29.12.2019
5292 Smoke 29 1014 51 3000 3.1 110 06:53 29.12.2019
5293 Smoke 29 1014 51 2500 3.6 110 06:23 29.12.2019
5294 Smoke 28 1014 54 2500 3.1 100 05:48 29.12.2019
5295 Smoke 26 1013 61 2500 2.6 80 04:34 29.12.2019
5296 Haze 25 1012 61 3000 2.6 70 03:40 29.12.2019
5297 Haze 25 1012 61 3000 2.1 80 02:49 29.12.2019
5298 Haze 25 1012 61 4000 2.1 30 02:19 29.12.2019
5299 Clouds 25 1011 61 6000 2.1 50 01:31 29.12.2019
5300 Clouds 25 1011 61 6000 2.6 50 00:51 29.12.2019
5301 Clouds 25 1011 61 6000 1.5 70 00:27 29.12.2019
5302 Clouds 25 1011 61 6000 2.6 50 23:56 28.12.2019
5303 Haze 25 1011 61 5000 2.6 40 23:37 28.12.2019
5304 Haze 25 1011 61 5000 2.6 40 23:18 28.12.2019
5305 Haze 26 1011 57 3000 1 60 22:38 28.12.2019
5306 Haze 26 1011 57 3000 1 60 22:38 28.12.2019
5307 Haze 26 1011 57 3000 1 60 22:19 28.12.2019
5308 Smoke 26 1011 57 3000 2.1 60 21:57 28.12.2019
5309 Haze 26 1011 61 3000 2.6 40 21:38 28.12.2019
5310 Haze 26 1011 61 3000 2.6 40 21:38 28.12.2019
5311 Haze 26 1011 61 3000 2.6 40 21:20 28.12.2019
5312 Haze 26 1011 65 3000 2.6 30 20:55 28.12.2019
5313 Haze 26 1011 65 3000 1.5 80 20:36 28.12.2019
5314 Haze 26 1011 65 3000 1.5 80 20:18 28.12.2019
5315 Haze 26 1012 69 3000 2.6 70 19:55 28.12.2019
5316 Haze 27 1012 65 3000 2.6 40 19:36 28.12.2019
5317 Haze 27 1012 65 3000 2.6 40 19:18 28.12.2019
5318 Smoke 27 1012 65 3000 2.1 130 18:55 28.12.2019
5319 Smoke 28 1012 58 3000 1.5 150 18:37 28.12.2019
5320 Smoke 28 1012 58 3000 1.5 150 18:18 28.12.2019
5321 Smoke 27 1012 65 3000 1.39 37 17:42 28.12.2019
5322 Smoke 27 1012 65 3000 1.5 60 17:21 28.12.2019
5323 Smoke 27 1011 65 3000 2.1 30 16:55 28.12.2019
5324 Smoke 27 1011 61 3000 2.1 10 16:37 28.12.2019
5325 Smoke 27 1011 61 3000 2.1 10 16:19 28.12.2019
5326 Smoke 28 1011 58 3000 2.6 340 15:43 28.12.2019
5327 Smoke 28 1010 54 3000 2.1 330 15:22 28.12.2019
5328 Smoke 27 1010 54 3000 4.1 340 14:55 28.12.2019
5329 Smoke 27 1010 61 3000 2.6 350 14:37 28.12.2019
5330 Smoke 29 1010 61 3000 2.6 350 14:18 28.12.2019
5331 Smoke 29 1009 61 3000 2.6 320 13:42 28.12.2019
5332 Smoke 30 1009 62 3500 4.1 300 13:21 28.12.2019
5333 Smoke 30 1009 55 3500 2.6 320 12:58 28.12.2019
5334 Smoke 30 1009 55 3500 2.6 320 12:40 28.12.2019
5335 Smoke 31 1009 45 3500 3.6 300 12:21 28.12.2019
5336 Smoke 31 1009 45 3500 3.6 310 11:40 28.12.2019
5337 Smoke 31 1009 43 3000 4.6 300 11:22 28.12.2019
5338 Smoke 32 1009 43 3000 2.1 310 10:59 28.12.2019
5339 Smoke 31 1009 45 3000 2.38 269 10:41 28.12.2019
5340 Smoke 31 1009 45 3000 2.38 269 10:20 28.12.2019
5341 Smoke 31 1010 48 2500 2.1 10 09:55 28.12.2019
5342 Smoke 31 1011 48 2500 3.6 30 09:36 28.12.2019
5343 Smoke 31 1011 48 2500 3.6 30 09:18 28.12.2019
5344 Smoke 31 1011 51 2500 2.1 90 08:43 28.12.2019
5345 Smoke 30 1012 51 2500 3.6 70 08:24 28.12.2019
5346 Smoke 30 1013 51 2500 3.6 100 07:48 28.12.2019
5347 Smoke 29 1013 48 2500 3.1 80 07:23 28.12.2019
5348 Haze 27 1014 57 2200 3.1 70 05:52 28.12.2019
5349 Haze 24 1012 64 2200 5.1 70 03:49 28.12.2019
5350 Haze 24 1011 64 2200 4.1 70 02:52 28.12.2019
5351 Haze 24 1011 64 2500 3.1 70 02:31 28.12.2019
5352 Haze 24 1011 64 2500 4.1 80 01:56 28.12.2019
5353 Haze 24 1011 64 2500 4.1 80 01:56 28.12.2019
5354 Haze 24 1010 64 2500 3.1 70 01:24 28.12.2019
5355 Haze 24 1010 60 2500 3.6 70 00:50 28.12.2019
5356 Haze 24 1010 60 2500 3.1 70 00:30 28.12.2019
5357 Haze 24 1010 60 3000 3.6 60 23:58 27.12.2019
5358 Haze 24 1010 60 3000 3.6 60 23:39 27.12.2019
5359 Haze 25 1010 61 3000 3.1 60 23:19 27.12.2019
5360 Haze 25 1010 61 3000 2.6 70 22:57 27.12.2019
5361 Haze 25 1011 61 3000 3.1 50 22:38 27.12.2019
5362 Haze 25 1011 61 3000 3.1 50 22:38 27.12.2019
5363 Haze 25 1011 61 3000 3.1 50 22:19 27.12.2019
5364 Smoke 26 1011 57 3000 2.1 60 21:43 27.12.2019
5365 Smoke 26 1011 57 3000 2.1 60 21:43 27.12.2019
5366 Haze 26 1011 57 3000 3.6 40 21:25 27.12.2019
5367 Haze 26 1011 57 3000 2.6 60 20:58 27.12.2019
5368 Haze 26 1011 57 3000 2.6 60 20:40 27.12.2019
5369 Haze 27 1011 54 3000 3.6 40 20:21 27.12.2019
5370 Haze 26 1011 61 3000 2.1 40 19:42 27.12.2019
5371 Haze 26 1011 65 3000 2.1 40 19:20 27.12.2019
5372 Haze 26 1011 65 3000 2.1 40 19:20 27.12.2019
5373 Haze 27 1012 61 3000 2.1 40 18:58 27.12.2019
5374 Haze 28 1012 65 3000 2.6 40 18:37 27.12.2019
5375 Haze 27 1012 65 3000 2.6 40 18:19 27.12.2019
5376 Haze 28 1012 61 3000 1.5 0 17:56 27.12.2019
5377 Haze 27 1011 65 3000 2.6 350 17:38 27.12.2019
5378 Haze 27 1011 65 3000 2.6 350 17:18 27.12.2019
5379 Haze 28 1011 65 3000 3.1 10 16:56 27.12.2019
5380 Haze 28 1011 65 3000 1.5 340 16:37 27.12.2019
5381 Haze 27 1011 65 3000 1.5 340 16:19 27.12.2019
5382 Haze 28 1010 58 3000 3.1 190 15:43 27.12.2019
5383 Haze 28 1010 58 3000 2.6 50 15:20 27.12.2019
5384 Smoke 27 1010 61 3000 2.1 330 14:57 27.12.2019
5385 Smoke 27 1010 65 3000 2.6 320 14:38 27.12.2019
5386 Smoke 28 1010 65 3000 2.6 320 14:20 27.12.2019
5387 Smoke 29 1009 62 3500 3.1 350 13:48 27.12.2019
5388 Smoke 29 1009 58 3500 3.6 320 13:25 27.12.2019
5389 Smoke 29 1009 58 3500 4.1 310 12:58 27.12.2019
5390 Smoke 29 1009 58 3500 4.1 310 12:39 27.12.2019
5391 Smoke 30 1009 54 3500 4.1 310 12:21 27.12.2019
5392 Smoke 31 1009 48 3500 4.6 270 11:44 27.12.2019
5393 Smoke 31 1009 48 3500 3.6 290 11:26 27.12.2019
5394 Smoke 31 1010 48 3500 4.6 280 10:56 27.12.2019
5395 Smoke 30 1010 51 3500 3.6 290 10:38 27.12.2019
5396 Smoke 29 1010 51 3500 3.6 290 10:20 27.12.2019
5397 Smoke 31 1011 40 4000 2.6 350 09:43 27.12.2019
5398 Smoke 31 1011 40 4000 2.6 350 09:21 27.12.2019
5399 Smoke 31 1011 45 3000 2.1 80 08:58 27.12.2019
5400 Smoke 30 1012 48 3000 2.6 50 08:36 27.12.2019
5401 Smoke 29 1013 48 2500 3.1 100 07:51 27.12.2019
5402 Smoke 28 1013 50 2500 3.1 120 07:32 27.12.2019
5403 Smoke 28 1013 54 2500 2.6 110 06:37 27.12.2019
5404 Smoke 26 1013 57 2000 3.1 80 05:37 27.12.2019
5405 Haze 22 1012 73 1700 2.1 110 03:44 27.12.2019
5406 Mist 21 1012 77 2200 1.98 44 02:21 27.12.2019
5407 Mist 21 1011 77 2200 1.98 44 01:38 27.12.2019
5408 Mist 21 1011 77 2200 1.98 44 01:19 27.12.2019
5409 Haze 22 1011 73 2500 1.98 44 00:43 27.12.2019
5410 Haze 22 1011 68 2500 1.98 44 00:24 27.12.2019
5411 Haze 22 1011 68 2500 1.98 44 00:24 27.12.2019
5412 Haze 22 1011 68 2500 1.5 70 23:42 26.12.2019
5413 Haze 23 1011 69 2500 2.1 40 23:22 26.12.2019
5414 Haze 23 1011 69 2500 2.6 20 22:57 26.12.2019
5415 Haze 24 1012 69 2500 2.6 30 22:37 26.12.2019
5416 Haze 24 1012 69 2500 2.6 30 22:18 26.12.2019
5417 Haze 24 1012 64 2500 1.5 20 21:39 26.12.2019
5418 Haze 24 1012 64 2500 2.1 10 21:21 26.12.2019
5419 Haze 24 1012 64 2500 2.1 10 21:21 26.12.2019
5420 Haze 25 1012 61 2500 2.03 46 20:47 26.12.2019
5421 Haze 25 1012 61 3000 2.06 48 20:24 26.12.2019
5422 Haze 25 1013 61 3000 2.51 25 19:59 26.12.2019
5423 Haze 25 1013 61 3000 2.51 25 19:40 26.12.2019
5424 Haze 25 1013 61 3000 1.5 50 19:22 26.12.2019
5425 Haze 25 1013 61 3000 2.1 40 18:58 26.12.2019
5426 Haze 25 1013 61 3000 2.1 40 18:40 26.12.2019
5427 Smoke 26 1013 57 3000 3.1 10 18:20 26.12.2019
5428 Smoke 26 1013 57 3500 2.1 340 17:57 26.12.2019
5429 Smoke 26 1013 57 3500 2.6 350 17:38 26.12.2019
5430 Smoke 26 1013 57 3500 2.6 350 17:38 26.12.2019
5431 Smoke 26 1013 57 3500 2.6 350 17:19 26.12.2019
5432 Smoke 26 1013 54 4000 2.1 350 16:45 26.12.2019
5433 Smoke 26 1013 54 4000 2.1 350 16:24 26.12.2019
5434 Smoke 27 1012 47 4000 3.6 340 15:56 26.12.2019
5435 Smoke 27 1012 47 4000 3.1 330 15:38 26.12.2019
5436 Smoke 27 1012 47 4000 3.1 330 15:18 26.12.2019
5437 Smoke 28 1012 39 5000 2.6 320 14:41 26.12.2019
5438 Smoke 28 1012 32 5000 3.1 330 14:22 26.12.2019
5439 Smoke 29 1011 34 5000 4.1 330 13:45 26.12.2019
5440 Smoke 28 1011 39 5000 3.6 320 13:23 26.12.2019
5441 Smoke 29 1011 39 5000 5.7 320 12:58 26.12.2019
5442 Smoke 29 1011 39 5000 5.7 320 12:40 26.12.2019
5443 Smoke 29 1011 39 4000 5.1 320 12:21 26.12.2019
5444 Smoke 29 1011 42 3500 6.7 330 11:58 26.12.2019
5445 Smoke 29 1011 42 3500 6.7 330 11:39 26.12.2019
5446 Smoke 29 1011 45 3000 5.1 320 11:20 26.12.2019
5447 Smoke 30 1011 48 3000 5.7 310 10:49 26.12.2019
5448 Smoke 30 1011 48 3000 5.7 310 10:20 26.12.2019
5449 Smoke 30 1011 48 3000 4.6 310 09:54 26.12.2019
5450 Smoke 29 1012 48 2500 3.6 120 09:32 26.12.2019
5451 Smoke 30 1012 45 2500 3.1 310 08:57 26.12.2019
5452 Smoke 30 1013 45 2500 2.6 350 08:38 26.12.2019
5453 Smoke 30 1013 45 2500 2.6 350 08:20 26.12.2019
5454 Smoke 30 1013 45 2500 2.6 350 08:20 26.12.2019
5455 Smoke 29 1014 51 2200 2.6 320 07:31 26.12.2019
5456 Smoke 27 1015 57 2200 2.6 330 06:56 26.12.2019
5457 Smoke 25 1014 69 2200 2.11 31 06:34 26.12.2019
5458 Haze 25 1014 69 1800 1 330 05:57 26.12.2019
5459 Haze 26 1014 69 1800 2.1 120 05:38 26.12.2019
5460 Haze 25 1014 69 1800 2.1 350 04:32 26.12.2019
5461 Haze 26 1013 65 1800 2.1 80 03:20 26.12.2019
5462 Haze 25 1012 69 1700 1.5 0 02:40 26.12.2019
5463 Haze 26 1012 69 2200 2.1 40 02:20 26.12.2019
5464 Haze 26 1011 69 2200 1.5 0 01:42 26.12.2019
5465 Haze 26 1011 69 2200 1.5 0 01:24 26.12.2019
5466 Haze 26 1011 69 2200 2.1 350 00:42 26.12.2019
5467 Haze 26 1011 69 2200 1.56 43 00:22 26.12.2019
5468 Haze 26 1011 69 2200 1.56 43 00:22 26.12.2019
5469 Haze 26 1011 74 2200 2.1 20 23:56 25.12.2019
5470 Drizzle 26 1011 69 2100 1.5 340 23:36 25.12.2019
5471 Drizzle 26 1011 69 2100 1.5 340 23:18 25.12.2019
5472 Haze 26 1011 74 2200 2.1 20 22:55 25.12.2019
5473 Haze 27 1012 69 2200 2.6 30 22:36 25.12.2019
5474 Haze 27 1012 69 2200 2.6 30 22:18 25.12.2019
5475 Haze 27 1012 69 1800 2.1 330 21:40 25.12.2019
5476 Haze 27 1012 65 1800 1.5 10 21:22 25.12.2019
5477 Haze 27 1012 69 2100 2.1 20 20:58 25.12.2019
5478 Haze 27 1012 69 2100 2.1 20 20:40 25.12.2019
5479 Haze 27 1013 69 1800 2.1 10 20:19 25.12.2019
5480 Haze 27 1013 74 1800 2.6 330 19:57 25.12.2019
5481 Haze 27 1013 74 1800 2.6 330 19:39 25.12.2019
5482 Drizzle 27 1013 69 1600 1.5 20 19:21 25.12.2019
5483 Drizzle 27 1014 74 1500 1.5 0 18:39 25.12.2019
5484 Drizzle 27 1014 74 1500 1.5 0 18:20 25.12.2019
5485 Drizzle 27 1014 74 1500 2.6 20 17:43 25.12.2019
5486 Drizzle 28 1014 74 1500 4.6 40 17:21 25.12.2019
5487 Drizzle 28 1014 74 1500 2.6 340 16:59 25.12.2019
5488 Rain 28 1014 69 1500 2.1 340 16:39 25.12.2019
5489 Rain 28 1014 69 1500 2.1 340 16:19 25.12.2019
5490 Rain 28 1014 69 1500 2.1 340 16:19 25.12.2019
5491 Drizzle 28 1013 74 1600 3.55 33 15:58 25.12.2019
5492 Drizzle 28 1013 74 1600 3.55 33 15:39 25.12.2019
5493 Drizzle 28 1013 74 1600 3.55 33 15:39 25.12.2019
5494 Rain 28 1013 74 1500 3.1 350 15:21 25.12.2019
5495 Drizzle 27 1012 74 1500 2.1 330 14:58 25.12.2019
5496 Drizzle 27 1012 74 1500 2.1 330 14:40 25.12.2019
5497 Drizzle 27 1012 74 1400 3.1 330 14:21 25.12.2019
5498 Drizzle 27 1012 74 1400 3.1 330 14:21 25.12.2019
5499 Drizzle 27 1012 74 1400 3.1 330 14:21 25.12.2019
5500 Drizzle 27 1012 74 1400 3.1 330 14:21 25.12.2019
5501 Drizzle 27 1012 74 1400 3.1 330 14:21 25.12.2019
5502 Haze 28 1012 74 1500 2.6 320 13:57 25.12.2019
5503 Haze 28 1011 70 1500 2.1 320 13:38 25.12.2019
5504 Haze 28 1011 70 1500 2.1 320 13:19 25.12.2019
5505 Rain 28 1011 70 1500 3.6 300 12:40 25.12.2019
5506 Haze 29 1011 66 1600 3.1 320 12:20 25.12.2019
5507 Haze 29 1011 66 1600 3.1 300 11:55 25.12.2019
5508 Haze 29 1011 66 1600 3.1 300 11:55 25.12.2019
5509 Haze 30 1011 66 1800 3.1 320 11:37 25.12.2019
5510 Haze 30 1011 66 1800 3.1 320 11:18 25.12.2019
5511 Haze 30 1011 66 1600 3.6 290 10:38 25.12.2019
5512 Haze 30 1011 66 1600 3.6 290 10:19 25.12.2019
5513 Haze 30 1011 66 1600 3.1 320 09:50 25.12.2019
5514 Haze 29 1012 70 1600 3.1 300 09:32 25.12.2019
5515 Haze 29 1012 66 1600 2.6 300 08:51 25.12.2019
5516 Haze 31 1012 55 2200 2.1 360 08:30 25.12.2019
5517 Haze 31 1013 62 2200 2.1 340 07:50 25.12.2019
5518 Haze 31 1013 62 2200 2.6 20 07:32 25.12.2019
5519 Haze 30 1014 62 1900 2.1 40 06:51 25.12.2019
5520 Haze 30 1014 62 1700 2.1 80 06:23 25.12.2019
5521 Haze 29 1014 62 1700 2.6 40 05:18 25.12.2019
5522 Haze 29 1013 69 1600 2.1 90 04:39 25.12.2019
5523 Haze 27 1013 69 1500 2.1 90 04:20 25.12.2019
5524 Haze 28 1013 69 1500 1.5 320 03:41 25.12.2019
5525 Haze 28 1012 69 1700 2.47 14 02:54 25.12.2019
5526 Haze 29 1011 69 2100 2.6 50 02:27 25.12.2019
5527 Haze 27 1011 74 2100 1.5 0 01:25 25.12.2019
5528 Haze 27 1011 69 2100 2.1 340 00:54 25.12.2019
5529 Haze 27 1011 69 2100 2.1 340 00:54 25.12.2019
5530 Haze 27 1011 65 2100 1.68 63 00:32 25.12.2019
5531 Haze 28 1011 61 2100 1.5 0 23:57 24.12.2019
5532 Haze 28 1011 61 2100 1.5 0 23:38 24.12.2019
5533 Haze 28 1011 61 2100 1.5 0 23:20 24.12.2019
5534 Haze 28 1012 61 2100 2.38 357 22:41 24.12.2019
5535 Haze 28 1012 61 2100 2.38 357 22:41 24.12.2019
5536 Haze 28 1012 61 2100 2.1 30 22:21 24.12.2019
5537 Haze 27 1012 69 2100 2.38 357 21:44 24.12.2019
5538 Haze 28 1012 65 2100 2.38 357 21:23 24.12.2019
5539 Haze 28 1012 65 2100 1.5 30 20:59 24.12.2019
5540 Haze 28 1012 65 2100 1.5 30 20:41 24.12.2019
5541 Haze 28 1013 65 2100 2.6 130 20:19 24.12.2019
5542 Haze 28 1013 65 2100 2.6 130 20:19 24.12.2019
5543 Haze 28 1013 65 2100 1.5 150 19:45 24.12.2019
5544 Haze 29 1013 62 2100 1.36 329 19:21 24.12.2019
5545 Haze 28 1013 65 2100 1.36 329 18:58 24.12.2019
5546 Haze 28 1013 65 2100 1.36 329 18:40 24.12.2019
5547 Haze 28 1013 69 2100 2.1 10 18:18 24.12.2019
5548 Haze 29 1013 62 2100 2.6 350 17:42 24.12.2019
5549 Haze 29 1013 62 2100 2.6 350 17:21 24.12.2019
5550 Haze 29 1013 62 2100 2.6 350 16:57 24.12.2019
5551 Haze 28 1013 65 1800 2.1 330 16:38 24.12.2019
5552 Haze 28 1013 65 1800 2.1 330 16:20 24.12.2019
5553 Haze 29 1012 66 2100 2.6 350 15:56 24.12.2019
5554 Haze 29 1012 66 2100 2.1 320 15:36 24.12.2019
5555 Haze 29 1012 66 2100 2.1 320 15:18 24.12.2019
5556 Haze 28 1012 66 2200 3.1 320 14:57 24.12.2019
5557 Haze 28 1012 66 2200 3.1 320 14:57 24.12.2019
5558 Haze 28 1012 66 2200 2.1 290 14:38 24.12.2019
5559 Haze 30 1012 66 2200 2.1 290 14:20 24.12.2019
5560 Haze 30 1011 66 2500 2.6 280 13:55 24.12.2019
5561 Smoke 30 1011 58 2500 2.6 260 13:37 24.12.2019
5562 Smoke 30 1011 58 2500 2.6 260 13:19 24.12.2019
5563 Smoke 30 1011 58 2500 3.6 250 12:55 24.12.2019
5564 Smoke 30 1011 55 2500 3.6 220 12:36 24.12.2019
5565 Smoke 30 1011 55 2500 3.6 220 12:18 24.12.2019
5566 Smoke 30 1011 55 2500 3.6 280 11:55 24.12.2019
5567 Smoke 30 1011 55 2500 3.6 280 11:55 24.12.2019
5568 Haze 30 1011 58 2500 2.6 230 11:37 24.12.2019
5569 Haze 30 1011 58 2500 2.6 230 11:37 24.12.2019
5570 Haze 30 1011 58 2500 2.6 230 11:18 24.12.2019
5571 Haze 30 1011 55 2500 3.6 260 10:56 24.12.2019
5572 Haze 30 1012 58 2500 3.1 260 10:37 24.12.2019
5573 Haze 30 1012 58 2500 3.1 260 10:19 24.12.2019
5574 Haze 30 1012 58 2200 4.6 260 09:55 24.12.2019
5575 Smoke 30 1012 58 1800 4.1 260 09:36 24.12.2019
5576 Smoke 30 1012 58 1800 4.1 260 09:18 24.12.2019
5577 Smoke 30 1013 55 2100 4.1 280 08:44 24.12.2019
5578 Smoke 30 1013 55 2100 3.1 290 08:20 24.12.2019
5579 Smoke 31 1014 55 1800 2.6 210 07:46 24.12.2019
5580 Smoke 30 1014 52 1800 1.5 0 07:26 24.12.2019
5581 Smoke 29 1015 58 1700 1.5 120 06:58 24.12.2019
5582 Smoke 29 1015 58 1700 2.6 130 06:38 24.12.2019
5583 Smoke 29 1015 58 1700 2.6 130 06:19 24.12.2019
5584 Smoke 26 1014 65 1700 2.6 90 05:21 24.12.2019
5585 Smoke 26 1014 69 1700 2.1 100 04:59 24.12.2019
5586 Haze 25 1013 74 1700 1 20 03:50 24.12.2019
5587 Mist 25 1013 74 1700 1.57 67 03:22 24.12.2019
5588 Haze 26 1011 74 2500 1.57 67 02:23 24.12.2019
5589 Haze 26 1011 74 2500 1.5 130 01:50 24.12.2019
5590 Haze 26 1011 74 2500 1.69 82 01:22 24.12.2019
5591 Haze 27 1010 69 2200 1.69 82 00:45 24.12.2019
5592 Haze 27 1010 69 2200 1.69 82 00:24 24.12.2019
5593 Haze 26 1010 78 2200 1.69 82 23:59 23.12.2019
5594 Haze 26 1010 78 2200 1.69 82 23:40 23.12.2019
5595 Haze 27 1010 74 2200 0.93 36 23:22 23.12.2019
5596 Haze 27 1010 74 2200 1.5 40 22:56 23.12.2019
5597 Haze 27 1011 74 2200 2.1 60 22:36 23.12.2019
5598 Haze 27 1011 74 2200 2.1 60 22:18 23.12.2019
5599 Haze 27 1011 78 2200 1.5 30 21:55 23.12.2019
5600 Haze 27 1011 78 2200 1.5 70 21:36 23.12.2019
5601 Haze 27 1011 78 2200 1.5 70 21:18 23.12.2019
5602 Haze 28 1011 74 2200 2.1 90 20:57 23.12.2019
5603 Haze 28 1011 74 2200 2.1 90 20:39 23.12.2019
5604 Haze 28 1011 74 2200 2.1 120 20:18 23.12.2019
5605 Haze 28 1011 74 2200 2.1 120 19:55 23.12.2019
5606 Haze 29 1012 70 2200 2.1 70 19:37 23.12.2019
5607 Haze 29 1012 70 2200 2.1 70 19:19 23.12.2019
5608 Haze 28 1012 74 2200 0.68 123 18:57 23.12.2019
5609 Haze 28 1012 78 2200 2.6 30 18:38 23.12.2019
5610 Haze 28 1012 78 2200 2.6 30 18:20 23.12.2019
5611 Haze 29 1012 74 2500 2.6 40 17:55 23.12.2019
5612 Haze 28 1011 78 2500 0.68 123 17:37 23.12.2019
5613 Haze 28 1011 78 2500 1.03 273 17:19 23.12.2019
5614 Haze 28 1011 78 2500 2.1 340 16:42 23.12.2019
5615 Haze 28 1011 78 2500 1.5 310 16:19 23.12.2019
5616 Haze 29 1011 70 2500 2.1 320 15:59 23.12.2019
5617 Haze 29 1011 70 2500 2.1 280 15:39 23.12.2019
5618 Haze 29 1011 70 2500 2.1 280 15:20 23.12.2019
5619 Haze 28 1010 74 2200 2.6 240 14:59 23.12.2019
5620 Haze 28 1010 74 2200 2.6 240 14:41 23.12.2019
5621 Haze 28 1010 66 3000 3.6 260 14:23 23.12.2019
5622 Haze 29 1009 70 3000 4.6 260 13:59 23.12.2019
5623 Haze 29 1009 70 3000 4.6 260 13:40 23.12.2019
5624 Haze 29 1009 70 3000 4.6 260 13:40 23.12.2019
5625 Haze 29 1009 66 3000 4.1 250 13:22 23.12.2019
5626 Haze 29 1009 66 3000 4.1 250 13:22 23.12.2019
5627 Haze 29 1009 66 3000 4.1 250 13:22 23.12.2019
5628 Smoke 30 1009 58 3000 4.6 240 12:58 23.12.2019
5629 Smoke 30 1009 58 3000 4.6 240 12:39 23.12.2019
5630 Smoke 30 1009 58 3000 3.6 250 12:20 23.12.2019
5631 Smoke 31 1009 52 3000 4.6 260 11:45 23.12.2019
5632 Smoke 31 1009 49 3000 4.1 240 11:26 23.12.2019
5633 Smoke 32 1009 43 3000 4.1 240 10:59 23.12.2019
5634 Smoke 32 1009 43 3000 4.1 240 10:41 23.12.2019
5635 Smoke 33 1010 43 3000 4.1 260 10:21 23.12.2019
5636 Smoke 32 1010 46 3000 2.6 150 09:59 23.12.2019
5637 Smoke 32 1010 46 3000 2.6 150 09:40 23.12.2019
5638 Smoke 33 1010 41 3000 4.1 160 09:21 23.12.2019
5639 Smoke 33 1011 38 2500 3.6 170 08:58 23.12.2019
5640 Smoke 33 1012 43 2500 3.6 170 08:40 23.12.2019
5641 Smoke 33 1012 43 2500 3.6 170 08:22 23.12.2019
5642 Smoke 32 1012 46 2500 2.6 150 07:48 23.12.2019
5643 Smoke 31 1013 45 2500 2.6 130 07:21 23.12.2019
5644 Smoke 31 1013 48 2200 3.6 120 06:57 23.12.2019
5645 Smoke 31 1013 58 2100 3.1 120 06:26 23.12.2019
5646 Smoke 30 1013 62 1900 3.1 100 05:56 23.12.2019
5647 Haze 28 1013 61 1800 2.6 100 05:29 23.12.2019
5648 Haze 27 1012 69 1800 1.5 120 04:34 23.12.2019
5649 Haze 25 1011 69 2000 1.5 120 03:26 23.12.2019
5650 Haze 26 1011 73 2200 1.5 130 02:42 23.12.2019
5651 Haze 25 1011 69 2500 1.84 96 02:19 23.12.2019
5652 Haze 25 1011 69 2500 1.84 96 01:43 23.12.2019
5653 Haze 26 1010 65 2500 1.5 130 01:25 23.12.2019
5654 Haze 26 1010 65 2500 1.5 130 00:44 23.12.2019
5655 Haze 26 1010 69 2500 1.89 96 00:23 23.12.2019
5656 Haze 26 1010 69 2500 1.89 96 23:40 22.12.2019
5657 Haze 27 1010 69 2500 2.1 170 23:22 22.12.2019
5658 Haze 27 1010 69 2500 0.83 80 22:58 22.12.2019
5659 Haze 27 1010 69 2500 0.83 80 22:40 22.12.2019
5660 Haze 27 1011 69 2500 1.5 20 22:22 22.12.2019
5661 Haze 28 1011 69 2500 1.5 50 21:58 22.12.2019
5662 Haze 28 1011 69 2500 1.5 50 21:40 22.12.2019
5663 Haze 28 1011 65 2500 0.83 80 21:21 22.12.2019
5664 Haze 28 1011 65 2500 0.83 80 21:21 22.12.2019
5665 Haze 28 1011 65 2500 1.5 310 20:58 22.12.2019
5666 Haze 28 1011 65 2500 1.5 310 20:39 22.12.2019
5667 Haze 28 1011 65 2500 1.34 353 20:19 22.12.2019
5668 Haze 28 1012 61 2500 1.32 350 19:57 22.12.2019
5669 Haze 29 1012 62 2500 1.5 40 19:39 22.12.2019
5670 Haze 29 1012 62 2500 1.5 40 19:19 22.12.2019
5671 Haze 29 1012 62 2500 1.5 50 18:42 22.12.2019
5672 Haze 28 1012 65 2500 2.1 360 18:24 22.12.2019
5673 Haze 29 1012 62 2500 2.6 340 17:56 22.12.2019
5674 Haze 29 1012 66 2500 1.5 320 17:38 22.12.2019
5675 Haze 29 1012 66 2500 1.5 320 17:19 22.12.2019
5676 Haze 29 1012 66 2500 2.1 290 16:57 22.12.2019
5677 Haze 29 1012 66 2500 2.1 290 16:39 22.12.2019
5678 Smoke 29 1012 66 2500 1.5 290 16:21 22.12.2019
5679 Smoke 29 1011 62 2500 1.5 320 15:56 22.12.2019
5680 Smoke 29 1011 62 2500 1.5 310 15:38 22.12.2019
5681 Smoke 29 1011 62 2500 1.5 310 15:20 22.12.2019
5682 Smoke 28 1010 62 2500 2.1 260 14:55 22.12.2019
5683 Smoke 28 1010 62 2500 2.1 260 14:55 22.12.2019
5684 Smoke 28 1010 66 2500 2.1 260 14:37 22.12.2019
5685 Smoke 30 1010 66 2500 2.1 260 14:18 22.12.2019
5686 Smoke 30 1010 66 2500 2.1 260 14:18 22.12.2019
5687 Smoke 30 1010 58 2500 2.6 280 13:55 22.12.2019
5688 Smoke 30 1009 58 2500 3.6 250 13:37 22.12.2019
5689 Smoke 30 1009 58 2500 3.6 250 13:18 22.12.2019
5690 Smoke 30 1009 52 3000 3.6 260 12:56 22.12.2019
5691 Smoke 31 1009 40 3000 2.6 120 12:37 22.12.2019
5692 Smoke 31 1009 40 3000 2.6 120 12:18 22.12.2019
5693 Smoke 32 1009 40 3000 2.1 120 11:56 22.12.2019
5694 Smoke 32 1009 40 3000 1.5 160 11:37 22.12.2019
5695 Smoke 33 1009 40 3000 1.5 160 11:18 22.12.2019
5696 Smoke 33 1009 40 3000 2.6 100 10:54 22.12.2019
5697 Smoke 33 1009 40 3000 2.1 130 10:36 22.12.2019
5698 Smoke 32 1009 40 3000 2.1 130 10:18 22.12.2019
5699 Smoke 32 1010 40 3000 3.6 90 09:56 22.12.2019
5700 Smoke 32 1010 40 3000 3.6 100 09:37 22.12.2019
5701 Smoke 32 1010 40 3000 3.6 100 09:19 22.12.2019
5702 Smoke 32 1011 45 3000 3.1 120 08:39 22.12.2019
5703 Smoke 31 1012 43 3000 4.1 100 08:21 22.12.2019
5704 Smoke 31 1013 48 3000 3.6 100 07:40 22.12.2019
5705 Smoke 30 1013 45 2500 3.1 110 07:21 22.12.2019
5706 Smoke 30 1013 48 2500 4.1 80 06:42 22.12.2019
5707 Smoke 29 1013 51 2500 3.6 90 06:21 22.12.2019
5708 Smoke 28 1013 51 2500 3.6 80 05:29 22.12.2019
5709 Smoke 27 1013 54 2500 2.6 70 04:45 22.12.2019
5710 Smoke 26 1013 54 2500 4.6 70 04:22 22.12.2019
5711 Smoke 26 1011 57 2500 1.5 90 02:43 22.12.2019
5712 Smoke 26 1011 57 2500 1.5 90 02:43 22.12.2019
5713 Smoke 26 1011 57 2500 1.5 90 02:43 22.12.2019
5714 Smoke 26 1011 57 2500 3.6 80 01:57 22.12.2019
5715 Haze 26 1011 61 2500 3.6 80 01:31 22.12.2019
5716 Haze 26 1010 61 2500 3.6 70 00:48 22.12.2019
5717 Haze 26 1010 61 2500 3.6 70 00:29 22.12.2019
5718 Haze 25 1010 69 2500 2.6 90 23:59 21.12.2019
5719 Haze 25 1010 69 2500 2.6 90 23:40 21.12.2019
5720 Haze 26 1010 69 2500 2.1 60 23:20 21.12.2019
5721 Smoke 26 1010 69 3000 1.5 120 22:47 21.12.2019
5722 Smoke 26 1011 69 3000 2.1 60 22:20 21.12.2019
5723 Smoke 26 1011 74 3000 1.5 10 21:58 21.12.2019
5724 Smoke 26 1011 74 3000 1.5 10 21:40 21.12.2019
5725 Smoke 26 1011 74 3000 2.1 20 21:21 21.12.2019
5726 Smoke 27 1011 69 3000 2.6 70 20:59 21.12.2019
5727 Smoke 27 1012 69 3000 2.1 360 20:41 21.12.2019
5728 Smoke 27 1012 69 3000 2.1 360 20:22 21.12.2019
5729 Smoke 27 1012 65 3000 2.6 10 19:59 21.12.2019
5730 Smoke 27 1012 65 3000 2.6 10 19:59 21.12.2019
5731 Smoke 27 1012 65 3000 2.6 10 19:41 21.12.2019
5732 Smoke 27 1012 65 3000 1.5 60 19:20 21.12.2019
5733 Smoke 27 1012 65 3000 2.1 110 18:59 21.12.2019
5734 Smoke 27 1012 65 3000 2.1 110 18:40 21.12.2019
5735 Smoke 28 1012 61 3000 1.5 340 18:22 21.12.2019
5736 Smoke 28 1012 61 3000 2.1 30 17:55 21.12.2019
5737 Smoke 28 1012 61 3000 2.1 20 17:37 21.12.2019
5738 Smoke 28 1012 61 3000 2.1 20 17:18 21.12.2019
5739 Smoke 29 1012 54 2500 3.1 30 16:54 21.12.2019
5740 Smoke 29 1012 54 2500 3.1 350 16:36 21.12.2019
5741 Smoke 29 1012 54 2500 3.1 350 16:36 21.12.2019
5742 Smoke 29 1012 54 2500 3.1 350 16:18 21.12.2019
5743 Haze 29 1011 54 2500 3.6 340 15:54 21.12.2019
5744 Haze 29 1011 58 2500 4.1 330 15:36 21.12.2019
5745 Haze 29 1011 58 2500 4.1 330 15:18 21.12.2019
5746 Haze 28 1010 65 2500 2.1 330 14:40 21.12.2019
5747 Haze 30 1010 62 3000 2.6 310 14:22 21.12.2019
5748 Haze 30 1010 62 3000 2.6 310 14:22 21.12.2019
5749 Smoke 30 1010 66 3000 2.1 300 13:57 21.12.2019
5750 Smoke 30 1010 66 3000 2.1 300 13:39 21.12.2019
5751 Smoke 30 1009 58 3500 3.1 300 13:19 21.12.2019
5752 Smoke 31 1009 55 3500 4.6 270 12:56 21.12.2019
5753 Smoke 32 1009 48 3000 4.1 290 12:38 21.12.2019
5754 Smoke 32 1009 48 3000 4.1 290 12:38 21.12.2019
5755 Smoke 32 1009 48 3000 4.1 290 12:19 21.12.2019
5756 Smoke 32 1009 45 3000 2.1 340 11:45 21.12.2019
5757 Smoke 32 1009 45 3000 1.5 350 11:26 21.12.2019
5758 Smoke 31 1009 42 3000 2.6 50 10:57 21.12.2019
5759 Smoke 31 1010 42 2500 1.5 40 10:39 21.12.2019
5760 Smoke 31 1010 42 2500 1.5 40 10:21 21.12.2019
5761 Smoke 32 1010 45 2500 2.6 80 09:57 21.12.2019
5762 Smoke 31 1011 42 2500 2.1 60 09:39 21.12.2019
5763 Smoke 31 1011 42 2500 2.1 60 09:19 21.12.2019
5764 Smoke 31 1012 45 2500 3.1 60 08:46 21.12.2019
5765 Smoke 31 1012 45 2500 3.1 60 08:26 21.12.2019
5766 Smoke 31 1012 48 2500 2.1 80 07:47 21.12.2019
5767 Smoke 30 1013 48 2200 2.6 60 07:23 21.12.2019
5768 Smoke 30 1013 54 1800 2.1 50 06:47 21.12.2019
5769 Smoke 30 1013 54 1800 2.1 90 06:28 21.12.2019
5770 Smoke 29 1013 61 1800 2.1 60 05:58 21.12.2019
5771 Haze 26 1013 65 2200 3.6 70 04:59 21.12.2019
5772 Haze 25 1013 65 2200 1.5 50 04:33 21.12.2019
5773 Haze 25 1013 65 2200 4.1 90 03:56 21.12.2019
5774 Haze 25 1012 69 2500 1.5 80 02:23 21.12.2019
5775 Haze 26 1012 65 2500 1.5 90 01:42 21.12.2019
5776 Haze 26 1012 65 2500 2.02 51 01:23 21.12.2019
5777 Haze 26 1011 65 2500 3.6 10 00:39 21.12.2019
5778 Haze 26 1011 65 2500 3.6 10 00:20 21.12.2019
5779 Haze 26 1012 69 2500 1.5 50 23:38 20.12.2019
5780 Haze 26 1012 69 2500 1.5 50 23:20 20.12.2019
5781 Haze 26 1012 69 2500 2.1 20 22:57 20.12.2019
5782 Haze 27 1012 61 2500 1.5 150 22:36 20.12.2019
5783 Haze 27 1012 61 2500 1.5 150 22:18 20.12.2019
5784 Haze 27 1012 61 2500 2.1 140 21:41 20.12.2019
5785 Haze 27 1012 61 2500 2.1 140 21:21 20.12.2019
5786 Haze 27 1013 57 2500 2.1 140 20:57 20.12.2019
5787 Haze 27 1013 61 2500 2.1 70 20:38 20.12.2019
5788 Haze 27 1013 61 2500 2.1 70 20:19 20.12.2019
5789 Haze 27 1013 57 2500 2.1 80 19:42 20.12.2019
5790 Haze 27 1013 61 2500 1.51 49 19:21 20.12.2019
5791 Haze 28 1013 58 2500 1.5 70 18:58 20.12.2019
5792 Haze 28 1013 58 2500 1.5 70 18:39 20.12.2019
5793 Haze 27 1013 65 2500 2.1 20 18:21 20.12.2019
5794 Haze 28 1013 65 2500 2.1 40 17:56 20.12.2019
5795 Haze 28 1013 65 2500 2.1 40 17:56 20.12.2019
5796 Haze 28 1013 65 2500 2.1 40 17:38 20.12.2019
5797 Haze 28 1013 65 2500 2.1 40 17:20 20.12.2019
5798 Haze 28 1013 65 2500 3.1 340 16:56 20.12.2019
5799 Haze 28 1012 65 3000 3.1 350 16:37 20.12.2019
5800 Haze 28 1012 65 3000 3.1 350 16:19 20.12.2019
5801 Haze 28 1012 61 3000 2.1 320 15:54 20.12.2019
5802 Haze 29 1012 58 2500 2.6 360 15:36 20.12.2019
5803 Haze 29 1012 58 2500 2.6 360 15:36 20.12.2019
5804 Haze 29 1012 58 2500 2.6 360 15:18 20.12.2019
5805 Smoke 28 1011 58 2500 2.6 310 14:42 20.12.2019
5806 Smoke 31 1011 58 2500 2.6 310 14:23 20.12.2019
5807 Smoke 31 1011 54 3000 4.1 300 13:56 20.12.2019
5808 Smoke 31 1011 54 3500 3.1 310 13:37 20.12.2019
5809 Smoke 31 1011 54 3500 3.1 310 13:18 20.12.2019
5810 Smoke 31 1010 48 3500 4.6 280 12:55 20.12.2019
5811 Smoke 31 1010 48 3500 3.6 290 12:36 20.12.2019
5812 Smoke 31 1010 48 3500 3.6 290 12:18 20.12.2019
5813 Smoke 31 1010 48 3500 4.1 260 11:57 20.12.2019
5814 Smoke 31 1010 48 3000 4.1 280 11:38 20.12.2019
5815 Smoke 31 1010 48 3000 4.1 280 11:18 20.12.2019
5816 Smoke 31 1010 51 3000 3.1 290 10:55 20.12.2019
5817 Smoke 31 1010 51 2500 3.1 270 10:37 20.12.2019
5818 Smoke 31 1010 51 2500 3.1 270 10:18 20.12.2019
5819 Smoke 31 1011 48 2500 3.6 260 09:42 20.12.2019
5820 Smoke 31 1011 48 2500 3.6 260 09:21 20.12.2019
5821 Smoke 31 1012 43 2500 1.5 0 08:54 20.12.2019
5822 Smoke 32 1012 45 2500 2.6 180 08:36 20.12.2019
5823 Smoke 32 1012 45 2500 2.6 180 08:18 20.12.2019
5824 Smoke 31 1013 42 2500 4.1 140 07:41 20.12.2019
5825 Smoke 31 1013 42 2500 4.1 140 07:23 20.12.2019
5826 Smoke 31 1014 48 2500 2.6 120 06:55 20.12.2019
5827 Smoke 31 1014 48 2200 2.1 160 06:36 20.12.2019
5828 Smoke 31 1014 48 2200 2.1 160 06:18 20.12.2019
5829 Haze 30 1014 51 2200 2.1 110 05:45 20.12.2019
5830 Haze 25 1013 65 2100 2.1 110 04:46 20.12.2019
5831 Haze 24 1012 73 2100 1.5 120 03:33 20.12.2019
5832 Haze 24 1012 69 2100 2.6 120 02:45 20.12.2019
5833 Haze 24 1012 69 2100 2.6 120 02:45 20.12.2019
5834 Haze 25 1011 65 2500 2.6 70 01:55 20.12.2019
5835 Haze 25 1011 65 2500 2.27 54 01:35 20.12.2019
5836 Haze 25 1011 69 2500 1.5 30 00:53 20.12.2019
5837 Haze 24 1011 73 2500 2.6 30 00:34 20.12.2019
5838 Haze 24 1011 73 2500 2.52 50 23:57 19.12.2019
5839 Haze 25 1011 69 2500 1.5 0 23:38 19.12.2019
5840 Haze 25 1011 69 2500 1.5 0 23:38 19.12.2019
5841 Haze 25 1011 69 2500 1.5 0 23:19 19.12.2019
5842 Haze 25 1011 69 2500 1.5 0 23:19 19.12.2019
5843 Haze 26 1011 69 2200 1.5 30 22:38 19.12.2019
5844 Haze 26 1011 69 2200 1.5 30 22:20 19.12.2019
5845 Haze 26 1012 69 2500 2.65 44 21:56 19.12.2019
5846 Haze 26 1012 65 2500 2.65 44 21:38 19.12.2019
5847 Haze 26 1012 65 2500 2.65 44 21:19 19.12.2019
5848 Haze 26 1012 65 2500 2.65 44 20:56 19.12.2019
5849 Haze 26 1012 65 2500 2.65 44 20:37 19.12.2019
5850 Haze 26 1012 65 2500 1.85 41 20:19 19.12.2019
5851 Haze 27 1013 61 2500 1.5 170 19:58 19.12.2019
5852 Haze 27 1013 61 2500 1.85 41 19:39 19.12.2019
5853 Haze 27 1013 61 2500 1.85 41 19:19 19.12.2019
5854 Haze 27 1013 61 2500 1.85 41 19:19 19.12.2019
5855 Haze 27 1013 61 2500 1.85 41 18:57 19.12.2019
5856 Haze 27 1014 61 2500 2.1 330 18:38 19.12.2019
5857 Haze 27 1014 61 2500 2.1 330 18:19 19.12.2019
5858 Haze 27 1013 61 2500 3.1 340 17:55 19.12.2019
5859 Haze 28 1013 61 2500 1.5 60 17:37 19.12.2019
5860 Haze 28 1013 61 2500 1.5 60 17:37 19.12.2019
5861 Haze 28 1013 61 2500 1.5 60 17:18 19.12.2019
5862 Smoke 28 1013 61 2500 2.6 10 16:55 19.12.2019
5863 Smoke 29 1013 54 2500 3.1 20 16:36 19.12.2019
5864 Smoke 29 1013 54 2500 3.1 20 16:18 19.12.2019
5865 Clouds 28 1012 58 2500 3.1 330 15:55 19.12.2019
5866 Smoke 28 1012 58 2500 3.1 340 15:36 19.12.2019
5867 Smoke 28 1012 58 2500 3.1 340 15:18 19.12.2019
5868 Smoke 28 1011 69 2500 3.1 300 14:42 19.12.2019
5869 Smoke 30 1011 69 2500 3.1 300 14:20 19.12.2019
5870 Clouds 30 1011 62 2500 3.6 310 13:58 19.12.2019
5871 Clouds 30 1011 62 2500 3.6 310 13:58 19.12.2019
5872 Smoke 30 1011 51 3000 4.1 310 13:38 19.12.2019
5873 Smoke 30 1011 51 3000 4.1 310 13:19 19.12.2019
5874 Smoke 31 1011 62 5000 4.1 310 12:57 19.12.2019
5875 Smoke 31 1010 51 3000 5.1 290 12:39 19.12.2019
5876 Smoke 31 1010 51 3000 5.1 290 12:39 19.12.2019
5877 Smoke 31 1010 51 3000 5.1 290 12:19 19.12.2019
5878 Smoke 32 1010 55 3000 4.1 280 11:58 19.12.2019
5879 Smoke 32 1011 55 3500 5.1 290 11:40 19.12.2019
5880 Smoke 32 1011 55 3500 5.1 290 11:18 19.12.2019
5881 Smoke 32 1011 33 3500 1.5 320 10:56 19.12.2019
5882 Smoke 32 1011 35 3500 2.1 70 10:38 19.12.2019
5883 Smoke 32 1011 35 3500 2.1 70 10:19 19.12.2019
5884 Smoke 33 1012 33 3500 2.6 310 09:54 19.12.2019
5885 Smoke 32 1012 33 3500 3.1 60 09:36 19.12.2019
5886 Smoke 32 1012 33 3500 3.1 60 09:18 19.12.2019
5887 Smoke 32 1014 38 2500 2.1 90 08:41 19.12.2019
5888 Smoke 32 1014 38 2500 2.1 90 08:19 19.12.2019
5889 Smoke 31 1015 42 2500 3.1 50 07:58 19.12.2019
5890 Smoke 31 1015 42 2500 3.1 50 07:38 19.12.2019
5891 Smoke 31 1015 42 2500 3.1 50 07:20 19.12.2019
5892 Smoke 30 1016 42 2500 2.1 60 06:50 19.12.2019
5893 Smoke 30 1016 45 2500 2.6 60 06:30 19.12.2019
5894 Smoke 30 1016 48 2500 2.6 70 05:55 19.12.2019
5895 Smoke 29 1016 51 2500 3.6 80 05:36 19.12.2019
5896 Smoke 27 1016 54 2500 4.1 80 04:52 19.12.2019
5897 Haze 25 1014 61 2500 3.6 80 03:23 19.12.2019
5898 Haze 25 1014 61 3000 3.6 80 02:23 19.12.2019
5899 Haze 25 1013 61 3000 3.1 70 01:23 19.12.2019
5900 Haze 25 1012 65 3000 1.5 60 00:44 19.12.2019
5901 Haze 25 1012 65 3000 1.5 60 00:24 19.12.2019
5902 Haze 25 1012 65 3000 1.5 70 23:58 18.12.2019
5903 Haze 26 1012 61 3000 2.1 10 23:38 18.12.2019
5904 Haze 26 1012 61 3000 2.1 10 23:19 18.12.2019
5905 Haze 26 1012 65 3000 2.1 80 22:56 18.12.2019
5906 Haze 26 1012 65 3000 1.5 50 22:37 18.12.2019
5907 Haze 26 1012 65 3000 1.5 50 22:19 18.12.2019
5908 Haze 26 1013 65 2500 2.13 58 21:57 18.12.2019
5909 Haze 26 1013 65 2500 1.5 70 21:39 18.12.2019
5910 Haze 26 1013 65 2500 1.5 70 21:19 18.12.2019
5911 Haze 27 1013 65 2500 2.13 58 20:55 18.12.2019
5912 Haze 26 1014 69 2500 2.13 58 20:37 18.12.2019
5913 Haze 26 1014 69 2500 2.13 58 20:37 18.12.2019
5914 Haze 26 1014 69 2500 2.57 45 20:19 18.12.2019
5915 Haze 27 1014 65 2500 2.6 40 19:55 18.12.2019
5916 Haze 27 1014 65 2500 1.5 50 19:37 18.12.2019
5917 Haze 27 1014 65 2500 1.5 50 19:37 18.12.2019
5918 Haze 27 1014 65 2500 1.5 50 19:18 18.12.2019
5919 Haze 27 1014 69 2500 2.1 120 18:44 18.12.2019
5920 Haze 27 1014 69 2500 2.1 120 18:25 18.12.2019
5921 Haze 27 1015 69 2500 2.6 70 17:57 18.12.2019
5922 Haze 28 1015 65 2500 2.6 360 17:39 18.12.2019
5923 Haze 28 1015 65 2500 2.6 360 17:20 18.12.2019
5924 Haze 28 1015 65 2500 2.6 360 17:20 18.12.2019
5925 Haze 27 1014 69 2500 2.6 10 16:57 18.12.2019
5926 Haze 27 1014 69 2500 2.6 10 16:39 18.12.2019
5927 Haze 28 1014 65 2500 3.1 350 16:20 18.12.2019
5928 Haze 29 1014 58 2500 3.6 340 15:56 18.12.2019
5929 Haze 29 1014 58 2500 3.6 340 15:37 18.12.2019
5930 Haze 29 1014 58 2500 3.6 340 15:19 18.12.2019
5931 Haze 28 1013 65 2500 2.6 340 14:43 18.12.2019
5932 Haze 30 1013 62 2500 4.76 301 14:22 18.12.2019
5933 Smoke 31 1013 55 3000 1.5 360 13:58 18.12.2019
5934 Smoke 31 1012 48 3000 3.6 320 13:39 18.12.2019
5935 Smoke 31 1012 48 3000 3.6 320 13:21 18.12.2019
5936 Smoke 32 1012 45 3000 3.6 310 12:59 18.12.2019
5937 Smoke 31 1012 52 3000 4.6 310 12:40 18.12.2019
5938 Smoke 31 1012 52 3000 4.6 310 12:21 18.12.2019
5939 Smoke 32 1012 40 3000 4.1 290 11:56 18.12.2019
5940 Smoke 32 1012 33 3000 3.1 300 11:38 18.12.2019
5941 Smoke 32 1012 33 3000 3.1 300 11:20 18.12.2019
5942 Smoke 32 1012 33 3000 2.6 310 10:57 18.12.2019
5943 Smoke 32 1013 38 3000 2.6 330 10:39 18.12.2019
5944 Smoke 32 1013 38 3000 2.6 330 10:20 18.12.2019
5945 Smoke 32 1013 40 3000 3.1 360 09:57 18.12.2019
5946 Smoke 32 1014 40 3000 1.5 0 09:19 18.12.2019
5947 Smoke 32 1014 43 3000 2.1 20 08:42 18.12.2019
5948 Smoke 32 1015 43 2500 2.1 150 08:24 18.12.2019
5949 Smoke 31 1015 45 2500 2.1 110 07:57 18.12.2019
5950 Smoke 31 1016 48 2500 2.1 70 07:39 18.12.2019
5951 Smoke 31 1016 48 2500 2.1 70 07:19 18.12.2019
5952 Smoke 30 1017 48 2500 3.6 120 06:51 18.12.2019
5953 Smoke 30 1017 54 2500 4.1 80 06:23 18.12.2019
5954 Smoke 29 1017 54 2200 2.6 80 05:34 18.12.2019
5955 Haze 25 1016 65 2200 4.1 90 03:46 18.12.2019
5956 Haze 25 1015 61 2500 4.1 80 02:44 18.12.2019
5957 Haze 25 1015 61 2500 4.1 80 02:26 18.12.2019
5958 Haze 25 1014 65 3000 3.6 70 01:43 18.12.2019
5959 Haze 25 1014 65 3000 2.6 60 01:25 18.12.2019
5960 Haze 25 1013 65 3000 4.1 80 00:42 18.12.2019
5961 Haze 25 1013 65 3000 4.1 80 00:24 18.12.2019
5962 Haze 24 1013 69 3000 1.5 130 23:58 17.12.2019
5963 Haze 25 1013 65 3000 2.1 80 23:40 17.12.2019
5964 Haze 25 1013 65 3000 2.1 80 23:21 17.12.2019
5965 Haze 25 1013 69 3000 2.1 60 22:57 17.12.2019
5966 Haze 26 1013 65 3000 1.5 60 22:39 17.12.2019
5967 Haze 26 1013 65 3000 1.5 60 22:19 17.12.2019
5968 Haze 26 1013 65 3000 3.6 70 21:57 17.12.2019
5969 Haze 26 1013 65 3000 3.6 50 21:38 17.12.2019
5970 Haze 26 1013 65 3000 3.6 50 21:20 17.12.2019
5971 Haze 26 1014 65 3000 3.1 50 20:59 17.12.2019
5972 Haze 27 1014 57 3000 2.6 40 20:39 17.12.2019
5973 Haze 27 1014 57 3000 2.6 40 20:19 17.12.2019
5974 Haze 27 1014 61 3000 2.6 30 19:57 17.12.2019
5975 Haze 28 1014 58 2500 3.6 40 19:39 17.12.2019
5976 Haze 28 1014 58 2500 3.6 40 19:19 17.12.2019
5977 Haze 27 1014 61 2500 2.1 50 18:57 17.12.2019
5978 Haze 27 1014 61 2500 2.1 50 18:57 17.12.2019
5979 Haze 27 1014 61 2500 2.1 50 18:57 17.12.2019
5980 Haze 28 1014 61 2500 2.6 60 18:38 17.12.2019
5981 Haze 28 1014 61 2500 2.6 60 18:20 17.12.2019
5982 Haze 28 1014 69 2200 2.6 100 17:55 17.12.2019
5983 Haze 27 1014 74 2200 1.09 65 17:37 17.12.2019
5984 Haze 29 1014 74 2200 3.6 353 17:18 17.12.2019
5985 Haze 27 1013 74 2500 1.5 350 16:55 17.12.2019
5986 Haze 27 1013 74 2500 1.5 20 16:36 17.12.2019
5987 Haze 27 1013 74 2500 1.5 20 16:18 17.12.2019
5988 Haze 27 1013 69 2500 1.5 330 15:38 17.12.2019
5989 Haze 27 1013 69 2500 1.5 330 15:20 17.12.2019
5990 Haze 27 1013 69 2500 1.5 330 14:56 17.12.2019
5991 Haze 27 1012 69 2500 2.1 310 14:38 17.12.2019
5992 Haze 29 1012 69 2500 2.1 310 14:19 17.12.2019
5993 Haze 29 1012 69 3000 3.1 310 13:58 17.12.2019
5994 Haze 29 1012 69 3000 3.6 310 13:39 17.12.2019
5995 Haze 30 1012 69 3000 3.6 310 13:19 17.12.2019
5996 Haze 30 1011 62 3500 4.6 300 12:59 17.12.2019
5997 Haze 30 1011 62 3500 4.1 300 12:38 17.12.2019
5998 Haze 30 1011 62 3500 4.1 300 12:38 17.12.2019
5999 Haze 30 1011 62 3500 4.1 300 12:18 17.12.2019
6000 Smoke 31 1011 55 3500 5.1 280 11:57 17.12.2019
6001 Smoke 31 1011 48 3500 4.6 270 11:37 17.12.2019
6002 Smoke 31 1011 48 3500 4.6 270 11:18 17.12.2019
6003 Smoke 31 1011 43 3500 2.6 280 10:57 17.12.2019
6004 Smoke 32 1012 38 3500 2.1 160 10:38 17.12.2019
6005 Smoke 32 1012 38 3500 2.1 160 10:19 17.12.2019
6006 Smoke 32 1012 38 3500 2.1 160 10:19 17.12.2019
6007 Smoke 32 1012 38 3500 3.6 120 09:56 17.12.2019
6008 Smoke 32 1013 40 3500 1.5 110 09:38 17.12.2019
6009 Smoke 32 1013 40 3500 1.5 110 09:18 17.12.2019
6010 Smoke 31 1013 43 3000 3.6 120 08:54 17.12.2019
6011 Smoke 31 1014 43 3000 3.1 120 08:36 17.12.2019
6012 Smoke 31 1014 43 3000 3.1 120 08:18 17.12.2019
6013 Smoke 30 1015 51 2500 4.6 70 07:42 17.12.2019
6014 Smoke 30 1015 51 2500 4.6 70 07:22 17.12.2019
6015 Smoke 29 1016 54 2500 4.1 120 06:50 17.12.2019
6016 Smoke 29 1016 54 2500 4.1 120 06:32 17.12.2019
6017 Smoke 28 1016 57 2500 3.6 80 05:50 17.12.2019
6018 Smoke 28 1016 57 2500 3.6 80 05:50 17.12.2019
6019 Haze 27 1016 57 2500 5.1 90 05:31 17.12.2019
6020 Haze 26 1015 65 2200 5.7 80 04:00 17.12.2019
6021 Haze 25 1014 69 2200 4.1 80 02:26 17.12.2019
6022 Haze 25 1013 69 2200 4.1 70 01:34 17.12.2019
6023 Haze 25 1013 69 2200 3.6 70 00:48 17.12.2019
6024 Haze 25 1013 69 2200 4.1 80 00:22 17.12.2019
6025 Haze 25 1013 69 2200 3.6 80 23:58 16.12.2019
6026 Haze 25 1013 69 2200 2.6 50 23:40 16.12.2019
6027 Haze 25 1013 69 2200 2.6 50 23:18 16.12.2019
6028 Haze 25 1013 73 2200 2.1 40 22:55 16.12.2019
6029 Haze 25 1013 73 2200 2.6 40 22:36 16.12.2019
6030 Haze 25 1013 73 2200 2.6 40 22:18 16.12.2019
6031 Haze 25 1013 73 2200 2.1 30 21:54 16.12.2019
6032 Haze 25 1013 78 2200 2.87 40 21:36 16.12.2019
6033 Haze 25 1013 78 2200 2.87 40 21:18 16.12.2019
6034 Haze 25 1013 78 2200 1 60 20:56 16.12.2019
6035 Haze 25 1014 78 2200 2.1 110 20:37 16.12.2019
6036 Haze 25 1014 78 2200 2.1 110 20:37 16.12.2019
6037 Haze 25 1014 78 2200 2.1 110 20:18 16.12.2019
6038 Haze 26 1014 74 2200 2.1 350 19:55 16.12.2019
6039 Haze 26 1014 74 2200 1.5 340 19:36 16.12.2019
6040 Haze 26 1014 74 2200 1.5 340 19:18 16.12.2019
6041 Haze 27 1014 69 2200 1.5 10 18:54 16.12.2019
6042 Haze 26 1014 74 2200 1.5 30 18:36 16.12.2019
6043 Haze 26 1014 74 2200 1.5 30 18:18 16.12.2019
6044 Haze 26 1014 74 2200 2.1 40 17:55 16.12.2019
6045 Smoke 26 1014 74 2200 2.6 10 17:37 16.12.2019
6046 Smoke 26 1014 74 2200 2.6 10 17:18 16.12.2019
6047 Smoke 26 1014 74 2200 3.1 20 16:54 16.12.2019
6048 Smoke 27 1014 69 2500 3.6 340 16:36 16.12.2019
6049 Smoke 27 1014 69 2500 3.6 340 16:18 16.12.2019
6050 Smoke 27 1013 69 2500 4.1 340 15:54 16.12.2019
6051 Smoke 27 1013 69 2500 3.1 340 15:36 16.12.2019
6052 Smoke 27 1013 69 2500 3.1 340 15:18 16.12.2019
6053 Smoke 26 1012 69 2500 2.1 330 14:54 16.12.2019
6054 Smoke 26 1012 69 2500 2.1 330 14:36 16.12.2019
6055 Smoke 28 1012 69 2500 2.1 330 14:18 16.12.2019
6056 Smoke 29 1012 65 2500 4.6 320 13:38 16.12.2019
6057 Smoke 29 1012 65 2500 4.6 320 13:20 16.12.2019
6058 Haze 29 1012 69 3500 4.6 320 12:58 16.12.2019
6059 Haze 29 1012 69 3500 4.6 320 12:58 16.12.2019
6060 Haze 29 1011 65 3500 4.1 330 12:40 16.12.2019
6061 Haze 29 1011 65 3500 4.1 330 12:20 16.12.2019
6062 Haze 30 1011 62 4000 4.6 310 11:59 16.12.2019
6063 Haze 30 1011 58 4000 4.6 290 11:41 16.12.2019
6064 Haze 30 1011 58 4000 4.6 290 11:22 16.12.2019
6065 Smoke 30 1011 62 3000 4.1 310 10:59 16.12.2019
6066 Smoke 30 1011 55 3000 4.1 290 10:40 16.12.2019
6067 Smoke 30 1011 55 3000 4.1 290 10:21 16.12.2019
6068 Smoke 30 1012 62 3000 4.1 280 09:47 16.12.2019
6069 Smoke 30 1012 58 3000 3.6 280 09:29 16.12.2019
6070 Smoke 30 1013 55 3000 1.5 0 08:58 16.12.2019
6071 Smoke 30 1013 48 3000 1.5 0 08:38 16.12.2019
6072 Smoke 30 1013 48 3000 1.5 0 08:19 16.12.2019
6073 Smoke 30 1014 51 3000 1.5 90 07:51 16.12.2019
6074 Smoke 29 1014 48 2500 1.5 290 07:31 16.12.2019
6075 Smoke 29 1014 48 2500 1.5 290 07:31 16.12.2019
6076 Smoke 29 1015 54 2500 1.5 110 06:48 16.12.2019
6077 Smoke 28 1015 58 2500 2.1 70 06:27 16.12.2019
6078 Haze 27 1015 61 2200 1.5 70 05:58 16.12.2019
6079 Haze 27 1014 65 2200 3.1 80 05:39 16.12.2019
6080 Haze 27 1014 65 2200 3.1 80 05:21 16.12.2019
6081 Haze 24 1012 73 2200 2.28 62 02:59 16.12.2019
6082 Haze 24 1012 73 2500 2.53 35 01:45 16.12.2019
6083 Haze 24 1011 78 2100 2.32 41 00:56 16.12.2019
6084 Haze 24 1011 78 2100 2.32 41 00:37 16.12.2019
6085 Haze 24 1011 78 2100 2.32 41 00:18 16.12.2019
6086 Haze 24 1011 73 2100 2.32 41 23:41 15.12.2019
6087 Haze 24 1011 73 2100 1.95 54 23:22 15.12.2019
6088 Haze 24 1011 78 2100 1.95 54 22:57 15.12.2019
6089 Haze 24 1011 78 2100 1.95 54 22:57 15.12.2019
6090 Haze 24 1012 78 2200 1.95 54 22:38 15.12.2019
6091 Haze 24 1012 78 2200 1.95 54 22:19 15.12.2019
6092 Haze 25 1012 73 2100 2.1 20 21:57 15.12.2019
6093 Haze 24 1012 83 2100 1.95 54 21:38 15.12.2019
6094 Haze 24 1012 83 2100 1.95 54 21:20 15.12.2019
6095 Haze 25 1012 78 1800 1.95 54 20:58 15.12.2019
6096 Haze 25 1013 78 1800 1.95 54 20:39 15.12.2019
6097 Haze 25 1013 78 1800 1.95 54 20:39 15.12.2019
6098 Haze 25 1013 78 1800 2.66 40 20:20 15.12.2019
6099 Haze 25 1013 78 2100 3.3 34 19:58 15.12.2019
6100 Haze 25 1013 78 2100 3.3 34 19:39 15.12.2019
6101 Haze 25 1013 78 2100 3.3 34 19:19 15.12.2019
6102 Haze 26 1013 74 2100 2.6 360 18:57 15.12.2019
6103 Haze 26 1013 74 2100 2.6 360 18:57 15.12.2019
6104 Haze 26 1013 74 2500 2.1 350 18:39 15.12.2019
6105 Haze 26 1013 69 2500 2.1 360 18:19 15.12.2019
6106 Haze 26 1013 69 2500 2.1 360 17:56 15.12.2019
6107 Haze 27 1013 69 2500 1.5 350 17:37 15.12.2019
6108 Haze 27 1013 69 2200 2.1 50 17:19 15.12.2019
6109 Haze 27 1013 69 2200 2.1 50 16:57 15.12.2019
6110 Smoke 26 1013 69 2500 1.5 340 16:39 15.12.2019
6111 Smoke 26 1013 69 2500 1.5 340 16:20 15.12.2019
6112 Smoke 27 1013 65 2500 3.1 10 15:55 15.12.2019
6113 Smoke 27 1012 65 2500 2.1 330 15:37 15.12.2019
6114 Smoke 27 1012 65 2500 2.1 330 15:18 15.12.2019
6115 Smoke 26 1012 65 3000 2.1 320 14:55 15.12.2019
6116 Smoke 26 1011 65 3000 1.5 300 14:36 15.12.2019
6117 Smoke 28 1011 65 3000 1.5 300 14:18 15.12.2019
6118 Smoke 28 1011 65 3500 2.6 330 13:56 15.12.2019
6119 Smoke 29 1011 65 3500 3.1 330 13:37 15.12.2019
6120 Smoke 29 1011 65 3500 3.1 330 13:19 15.12.2019
6121 Smoke 29 1011 65 3500 3.1 330 13:19 15.12.2019
6122 Smoke 29 1011 65 3500 3.1 320 12:56 15.12.2019
6123 Smoke 30 1011 58 3500 3.6 320 12:38 15.12.2019
6124 Smoke 30 1011 58 3500 3.6 320 12:20 15.12.2019
6125 Smoke 30 1011 55 3500 4.1 280 11:39 15.12.2019
6126 Smoke 30 1011 55 3500 4.1 280 11:20 15.12.2019
6127 Smoke 31 1011 52 3500 4.1 280 10:59 15.12.2019
6128 Smoke 30 1011 52 3500 4.1 250 10:41 15.12.2019
6129 Smoke 31 1011 52 3500 4.1 250 10:20 15.12.2019
6130 Smoke 30 1012 55 3500 2.6 280 09:59 15.12.2019
6131 Smoke 30 1012 55 3500 4.6 250 09:39 15.12.2019
6132 Smoke 30 1012 55 3500 4.6 250 09:20 15.12.2019
6133 Smoke 30 1013 55 3000 5.7 250 08:57 15.12.2019
6134 Smoke 30 1013 51 3000 2.6 280 08:39 15.12.2019
6135 Smoke 30 1013 51 3000 2.6 280 08:20 15.12.2019
6136 Smoke 29 1014 45 3000 2.1 350 07:55 15.12.2019
6137 Smoke 29 1014 48 3000 3.1 40 07:34 15.12.2019
6138 Smoke 28 1015 51 3000 2.1 50 06:39 15.12.2019
6139 Smoke 27 1015 54 2500 2.1 70 06:19 15.12.2019
6140 Haze 25 1015 57 2500 1.5 30 05:25 15.12.2019
6141 Haze 25 1015 57 2500 1.5 30 05:25 15.12.2019
6142 Haze 25 1015 57 2500 1.5 80 04:47 15.12.2019
6143 Haze 22 1014 60 2500 2.1 90 03:22 15.12.2019
6144 Haze 23 1013 69 3000 2.1 140 02:33 15.12.2019
6145 Haze 22 1013 68 3000 1.5 80 01:46 15.12.2019
6146 Haze 23 1014 69 3000 1.5 350 01:28 15.12.2019
6147 Haze 23 1013 69 3000 2.6 340 00:54 15.12.2019
6148 Haze 23 1013 69 3000 4.6 50 00:35 15.12.2019
6149 Haze 23 1013 73 3000 1.5 20 23:58 14.12.2019
6150 Haze 23 1013 73 3000 1.5 20 23:58 14.12.2019
6151 Haze 23 1013 73 3000 1.5 30 23:39 14.12.2019
6152 Haze 24 1013 69 3000 2.6 10 23:19 14.12.2019
6153 Haze 24 1013 69 3000 2.6 10 22:57 14.12.2019
6154 Haze 24 1014 69 3000 2.58 46 22:39 14.12.2019
6155 Haze 24 1014 69 3000 2.58 46 22:20 14.12.2019
6156 Haze 24 1014 69 3000 2.58 46 21:55 14.12.2019
6157 Haze 24 1014 69 3000 2.58 46 21:37 14.12.2019
6158 Haze 24 1014 69 3000 2.58 46 21:18 14.12.2019
6159 Haze 24 1014 69 3000 2.58 46 20:55 14.12.2019
6160 Haze 24 1014 69 3000 2.58 46 20:55 14.12.2019
6161 Haze 24 1014 69 3000 2.6 20 20:37 14.12.2019
6162 Haze 24 1014 69 3000 2.6 20 20:37 14.12.2019
6163 Haze 24 1014 69 3000 2.6 20 20:19 14.12.2019
6164 Haze 24 1015 69 3000 2.6 360 19:40 14.12.2019
6165 Haze 24 1015 69 3000 2.6 360 19:21 14.12.2019
6166 Haze 24 1015 69 3000 2.6 20 18:59 14.12.2019
6167 Haze 25 1015 65 3000 3.6 20 18:40 14.12.2019
6168 Haze 25 1015 65 3000 3.6 20 18:22 14.12.2019
6169 Haze 25 1015 65 3000 3.6 350 17:59 14.12.2019
6170 Haze 25 1014 65 3000 4.1 340 17:41 14.12.2019
6171 Haze 25 1014 65 3000 4.1 340 17:22 14.12.2019
6172 Haze 26 1014 61 3000 3.1 340 16:42 14.12.2019
6173 Haze 26 1014 65 3000 4.1 90 16:20 14.12.2019
6174 Haze 26 1013 65 3000 3.1 350 15:57 14.12.2019
6175 Haze 27 1013 61 3000 3.1 330 15:38 14.12.2019
6176 Haze 27 1013 61 3000 3.1 330 15:20 14.12.2019
6177 Haze 26 1013 61 3000 2.6 320 14:57 14.12.2019
6178 Haze 26 1013 61 4000 2.6 310 14:38 14.12.2019
6179 Haze 28 1013 61 4000 2.6 310 14:19 14.12.2019
6180 Smoke 29 1012 58 4000 2.6 320 13:45 14.12.2019
6181 Smoke 29 1012 54 4000 2.6 320 13:20 14.12.2019
6182 Smoke 29 1013 54 4000 3.6 330 12:58 14.12.2019
6183 Smoke 29 1013 54 4000 5.1 320 12:40 14.12.2019
6184 Smoke 29 1013 54 4000 5.1 320 12:21 14.12.2019
6185 Smoke 30 1012 51 4000 4.1 330 11:58 14.12.2019
6186 Smoke 30 1012 51 4000 6.2 300 11:39 14.12.2019
6187 Smoke 30 1012 51 4000 6.2 300 11:19 14.12.2019
6188 Smoke 30 1013 51 4000 5.1 310 10:57 14.12.2019
6189 Smoke 29 1013 48 4000 5.1 290 10:39 14.12.2019
6190 Smoke 30 1013 48 4000 5.1 290 10:21 14.12.2019
6191 Smoke 30 1013 51 4000 4.6 300 09:57 14.12.2019
6192 Smoke 30 1014 51 3500 4.6 270 09:38 14.12.2019
6193 Smoke 30 1014 51 3500 4.6 270 09:18 14.12.2019
6194 Smoke 29 1015 51 3000 3.6 290 08:43 14.12.2019
6195 Smoke 29 1015 51 3000 3.6 290 08:19 14.12.2019
6196 Smoke 29 1016 48 2500 1.5 0 07:44 14.12.2019
6197 Smoke 29 1016 51 2500 2.6 340 07:23 14.12.2019
6198 Smoke 28 1017 54 2500 2.6 40 06:57 14.12.2019
6199 Smoke 28 1017 54 2500 3.6 70 06:37 14.12.2019
6200 Smoke 27 1017 57 3000 2.1 50 05:59 14.12.2019
6201 Haze 24 1016 73 3000 1.5 130 04:47 14.12.2019
6202 Haze 23 1015 64 3000 2.6 10 02:31 14.12.2019
6203 Haze 22 1015 73 3000 2.94 30 01:56 14.12.2019
6204 Haze 22 1015 73 3000 2.94 30 01:56 14.12.2019
6205 Haze 21 1014 77 3000 1.5 50 01:37 14.12.2019
6206 Haze 22 1014 73 3000 3.03 23 00:47 14.12.2019
6207 Haze 22 1014 73 3000 3.03 23 00:27 14.12.2019
6208 Haze 23 1014 64 3000 2.1 60 23:56 13.12.2019
6209 Haze 24 1014 64 3000 2.1 70 23:37 13.12.2019
6210 Haze 24 1014 64 3000 2.1 70 23:18 13.12.2019
6211 Haze 24 1014 64 3000 3.6 30 22:40 13.12.2019
6212 Haze 24 1014 64 3000 3.6 30 22:19 13.12.2019
6213 Haze 24 1014 69 3000 2.1 10 21:56 13.12.2019
6214 Haze 25 1014 65 3000 3.6 40 21:38 13.12.2019
6215 Haze 25 1014 65 3000 3.6 40 21:20 13.12.2019
6216 Haze 25 1014 65 3000 4.1 20 20:42 13.12.2019
6217 Haze 26 1014 61 3000 3.1 10 20:23 13.12.2019
6218 Haze 26 1014 61 3000 3.1 10 19:59 13.12.2019
6219 Haze 25 1015 65 3000 2.6 60 19:41 13.12.2019
6220 Haze 25 1015 65 3000 2.6 60 19:22 13.12.2019
6221 Haze 26 1015 65 3000 2.6 10 18:59 13.12.2019
6222 Haze 25 1015 73 3000 3.1 60 18:40 13.12.2019
6223 Haze 25 1015 73 3000 3.1 60 18:19 13.12.2019
6224 Haze 26 1014 69 3000 3.1 50 17:55 13.12.2019
6225 Haze 26 1014 69 3000 3.6 70 17:37 13.12.2019
6226 Haze 26 1014 69 3000 3.6 70 17:18 13.12.2019
6227 Haze 26 1014 74 3000 4.6 340 16:54 13.12.2019
6228 Smoke 26 1014 74 3000 4.6 330 16:36 13.12.2019
6229 Smoke 26 1014 74 3000 4.6 330 16:18 13.12.2019
6230 Smoke 27 1013 69 4000 3.6 330 15:38 13.12.2019
6231 Smoke 27 1013 69 4000 3.6 330 15:20 13.12.2019
6232 Smoke 27 1012 65 4000 3.6 350 14:41 13.12.2019
6233 Smoke 28 1012 65 4000 3.6 350 14:21 13.12.2019
6234 Smoke 28 1012 61 4000 3.6 340 13:58 13.12.2019
6235 Smoke 28 1012 61 4000 4.1 310 13:39 13.12.2019
6236 Smoke 28 1012 61 4000 4.1 310 13:21 13.12.2019
6237 Smoke 27 1012 61 4000 5.1 320 12:42 13.12.2019
6238 Smoke 27 1012 61 4000 5.1 320 12:20 13.12.2019
6239 Smoke 28 1012 58 4000 6.2 310 11:58 13.12.2019
6240 Smoke 28 1011 61 4000 4.6 320 11:40 13.12.2019
6241 Smoke 30 1011 61 4000 4.6 320 11:22 13.12.2019
6242 Smoke 30 1011 58 4000 4.6 290 10:55 13.12.2019
6243 Smoke 30 1012 51 4000 4.6 310 10:37 13.12.2019
6244 Smoke 30 1012 51 4000 4.6 310 10:19 13.12.2019
6245 Smoke 30 1012 54 4000 3.6 330 09:39 13.12.2019
6246 Smoke 30 1012 54 4000 3.6 330 09:20 13.12.2019
6247 Smoke 30 1013 51 3500 3.1 340 08:42 13.12.2019
6248 Smoke 30 1013 51 3500 3.1 340 08:24 13.12.2019
6249 Smoke 29 1014 54 3500 3.6 320 07:47 13.12.2019
6250 Smoke 29 1014 54 3000 2.6 40 07:24 13.12.2019
6251 Smoke 28 1014 57 2500 2.1 330 06:55 13.12.2019
6252 Smoke 28 1014 61 2500 3.1 350 06:29 13.12.2019
6253 Smoke 28 1014 57 2200 2.1 70 05:51 13.12.2019
6254 Smoke 28 1014 54 2100 2.6 80 05:30 13.12.2019
6255 Haze 26 1013 61 1800 3.6 70 04:46 13.12.2019
6256 Haze 24 1013 64 1800 2.6 110 03:48 13.12.2019
6257 Haze 24 1012 64 2500 2.35 46 02:34 13.12.2019
6258 Haze 24 1012 69 2500 2.6 60 01:49 13.12.2019
6259 Haze 24 1011 69 2500 2.1 70 01:19 13.12.2019
6260 Mist 24 1011 73 2500 3.1 50 00:45 13.12.2019
6261 Mist 24 1011 78 2500 2.1 60 00:22 13.12.2019
6262 Haze 25 1011 73 2500 2.6 30 23:41 12.12.2019
6263 Haze 25 1011 73 2500 2.6 30 23:22 12.12.2019
6264 Haze 25 1011 78 2500 1.5 50 22:56 12.12.2019
6265 Haze 26 1011 69 2500 2.1 70 22:38 12.12.2019
6266 Haze 26 1011 69 2500 2.1 70 22:19 12.12.2019
6267 Haze 26 1011 69 2500 2.1 80 21:55 12.12.2019
6268 Haze 26 1011 69 2500 1.5 50 21:37 12.12.2019
6269 Haze 26 1011 69 2500 1.5 50 21:19 12.12.2019
6270 Haze 26 1011 69 2500 1.5 40 20:57 12.12.2019
6271 Haze 27 1011 65 2500 3.1 20 20:38 12.12.2019
6272 Haze 27 1011 65 2500 3.1 20 20:20 12.12.2019
6273 Haze 26 1012 69 2500 2.6 20 19:55 12.12.2019
6274 Haze 27 1012 69 2500 2.1 30 19:37 12.12.2019
6275 Haze 27 1012 69 2500 2.1 30 19:18 12.12.2019
6276 Haze 27 1012 69 2500 2.1 300 18:55 12.12.2019
6277 Haze 27 1012 69 2500 1.5 0 18:36 12.12.2019
6278 Haze 27 1012 69 2500 1.5 0 18:18 12.12.2019
6279 Haze 27 1012 69 2500 1.5 310 17:55 12.12.2019
6280 Haze 27 1012 69 2500 1.5 310 17:55 12.12.2019
6281 Haze 27 1011 65 2500 2.1 350 17:37 12.12.2019
6282 Haze 27 1011 65 2500 2.1 350 17:18 12.12.2019
6283 Haze 27 1011 65 2500 2.1 300 16:42 12.12.2019
6284 Haze 28 1011 61 2500 3.1 320 16:21 12.12.2019
6285 Haze 28 1011 61 2500 3.1 320 15:59 12.12.2019
6286 Haze 27 1010 65 2500 2.1 300 15:41 12.12.2019
6287 Haze 27 1010 65 2500 2.1 300 15:19 12.12.2019
6288 Haze 27 1010 61 2500 2.6 300 14:57 12.12.2019
6289 Haze 27 1010 61 2500 3.1 300 14:36 12.12.2019
6290 Haze 27 1010 61 2500 3.1 300 14:18 12.12.2019
6291 Smoke 27 1009 61 2500 2.6 310 13:54 12.12.2019
6292 Smoke 28 1009 61 3000 3.6 310 13:36 12.12.2019
6293 Smoke 28 1009 61 3000 3.6 310 13:18 12.12.2019
6294 Smoke 28 1009 61 3000 3.6 310 13:18 12.12.2019
6295 Smoke 29 1009 54 3000 4.1 300 12:42 12.12.2019
6296 Smoke 29 1009 54 3000 4.1 300 12:23 12.12.2019
6297 Smoke 29 1009 54 3000 5.1 290 11:59 12.12.2019
6298 Smoke 29 1009 54 3000 4.1 280 11:40 12.12.2019
6299 Smoke 29 1009 54 3000 4.1 280 11:22 12.12.2019
6300 Smoke 29 1009 51 3000 5.1 280 10:59 12.12.2019
6301 Smoke 29 1009 51 2500 4.1 300 10:40 12.12.2019
6302 Smoke 29 1009 51 2500 4.1 300 10:22 12.12.2019
6303 Smoke 29 1010 51 2500 4.6 270 09:56 12.12.2019
6304 Smoke 30 1010 48 2500 4.6 270 09:38 12.12.2019
6305 Smoke 30 1010 48 2500 4.6 270 09:20 12.12.2019
6306 Smoke 29 1011 51 2500 4.1 290 08:48 12.12.2019
6307 Smoke 29 1011 51 2500 3.6 290 08:29 12.12.2019
6308 Smoke 29 1011 54 2500 3.1 300 07:56 12.12.2019
6309 Smoke 30 1012 51 2200 4.1 240 07:37 12.12.2019
6310 Smoke 29 1012 51 2200 4.1 240 07:19 12.12.2019
6311 Haze 28 1012 58 2100 0.86 225 06:41 12.12.2019
6312 Haze 28 1012 58 2100 0.86 225 06:22 12.12.2019
6313 Haze 27 1013 65 1700 2.1 30 05:32 12.12.2019
6314 Haze 28 1012 61 1700 1.25 44 04:47 12.12.2019
6315 Haze 25 1011 69 2500 2.1 20 02:43 12.12.2019
6316 Haze 24 1010 78 2500 0.77 49 02:24 12.12.2019
6317 Haze 24 1010 78 2500 0.77 49 01:59 12.12.2019
6318 Haze 24 1010 78 2500 0.77 49 01:36 12.12.2019
6319 Haze 24 1010 78 2500 0.88 59 00:50 12.12.2019
6320 Haze 24 1010 78 2500 0.88 59 00:22 12.12.2019
6321 Haze 25 1010 73 2500 0.88 59 23:58 11.12.2019
6322 Haze 26 1010 74 2500 0.88 59 23:39 11.12.2019
6323 Haze 26 1010 74 2500 0.86 85 23:19 11.12.2019
6324 Haze 26 1010 74 2500 0.86 85 22:56 11.12.2019
6325 Haze 27 1010 65 2500 0.86 85 22:38 11.12.2019
6326 Haze 27 1010 65 2500 0.86 85 22:19 11.12.2019
6327 Haze 26 1010 74 2500 0.86 85 21:55 11.12.2019
6328 Haze 27 1010 69 2500 0.86 85 21:36 11.12.2019
6329 Haze 27 1010 69 2500 0.86 85 21:18 11.12.2019
6330 Haze 27 1010 69 2500 0.86 85 21:18 11.12.2019
6331 Haze 27 1010 65 2500 1.5 150 20:55 11.12.2019
6332 Haze 28 1010 61 2500 2.1 140 20:36 11.12.2019
6333 Haze 28 1011 61 2500 2.6 70 20:18 11.12.2019
6334 Haze 28 1011 61 2500 1.82 57 19:42 11.12.2019
6335 Haze 28 1011 61 2500 1.82 57 19:23 11.12.2019
6336 Haze 28 1011 65 3000 2.1 70 18:59 11.12.2019
6337 Haze 28 1011 65 3000 1.5 340 18:40 11.12.2019
6338 Haze 28 1011 65 3000 1.5 340 18:20 11.12.2019
6339 Haze 28 1011 65 2500 1.5 320 17:57 11.12.2019
6340 Haze 29 1011 58 2500 2.1 30 17:38 11.12.2019
6341 Haze 29 1011 58 2500 2.1 30 17:18 11.12.2019
6342 Haze 29 1011 62 2500 2.1 20 16:56 11.12.2019
6343 Haze 29 1010 66 2100 2.6 320 16:37 11.12.2019
6344 Haze 29 1010 66 2100 2.6 320 16:37 11.12.2019
6345 Haze 29 1010 66 2100 2.6 320 16:19 11.12.2019
6346 Haze 29 1010 70 2100 2.1 320 15:57 11.12.2019
6347 Haze 29 1010 66 2200 2.1 300 15:37 11.12.2019
6348 Haze 29 1010 66 2200 2.1 300 15:19 11.12.2019
6349 Haze 28 1010 66 2200 2.1 310 14:55 11.12.2019
6350 Haze 28 1010 66 2200 2.1 310 14:55 11.12.2019
6351 Haze 28 1009 66 2500 2.6 310 14:37 11.12.2019
6352 Haze 28 1009 66 2500 2.6 310 14:18 11.12.2019
6353 Smoke 30 1009 58 2500 3.1 300 13:44 11.12.2019
6354 Smoke 30 1009 58 2500 3.1 300 13:24 11.12.2019
6355 Smoke 30 1009 58 2500 3.6 300 12:59 11.12.2019
6356 Smoke 31 1008 55 2500 4.6 280 12:40 11.12.2019
6357 Smoke 31 1008 55 2500 4.6 280 12:22 11.12.2019
6358 Smoke 30 1008 58 2200 4.1 290 11:58 11.12.2019
6359 Haze 30 1009 62 2200 4.6 290 11:39 11.12.2019
6360 Haze 30 1009 62 2200 4.6 290 11:39 11.12.2019
6361 Haze 30 1009 62 2200 4.6 290 11:19 11.12.2019
6362 Smoke 30 1009 58 2500 4.1 280 10:59 11.12.2019
6363 Smoke 30 1009 58 2500 4.6 270 10:40 11.12.2019
6364 Smoke 30 1009 58 2500 4.6 270 10:22 11.12.2019
6365 Smoke 30 1009 58 2500 5.1 260 09:58 11.12.2019
6366 Smoke 30 1010 58 2500 4.1 290 09:38 11.12.2019
6367 Smoke 30 1010 58 2500 4.1 290 09:19 11.12.2019
6368 Smoke 30 1011 55 2500 4.1 290 08:56 11.12.2019
6369 Smoke 30 1011 58 2200 4.1 290 08:37 11.12.2019
6370 Smoke 30 1011 58 2200 4.1 290 08:18 11.12.2019
6371 Smoke 30 1012 58 2200 2.1 320 07:44 11.12.2019
6372 Smoke 30 1012 58 2200 2.1 320 07:24 11.12.2019
6373 Smoke 30 1013 55 2200 2.6 290 06:46 11.12.2019
6374 Haze 29 1013 58 2200 1.5 290 06:25 11.12.2019
6375 Haze 29 1013 62 2100 1.5 20 05:56 11.12.2019
6376 Haze 28 1013 61 2100 0.92 297 05:36 11.12.2019
6377 Haze 28 1013 65 2100 1.41 72 04:53 11.12.2019
6378 Smoke 25 1012 78 2200 1.5 120 03:37 11.12.2019
6379 Smoke 25 1011 78 2200 1.5 120 02:39 11.12.2019
6380 Haze 25 1011 78 3000 1.43 87 01:22 11.12.2019
6381 Haze 26 1010 74 3000 1.43 87 00:45 11.12.2019
6382 Haze 26 1010 74 3000 1.43 87 00:19 11.12.2019
6383 Haze 26 1010 74 3000 1.5 100 23:46 10.12.2019
6384 Haze 26 1010 74 3000 1.5 100 23:27 10.12.2019
6385 Haze 27 1010 69 3000 2.1 80 22:57 10.12.2019
6386 Haze 27 1011 69 3000 1.5 90 22:39 10.12.2019
6387 Haze 27 1011 69 3000 1.5 90 22:21 10.12.2019
6388 Haze 27 1011 69 3000 2.6 100 21:54 10.12.2019
6389 Haze 27 1011 69 3000 2.1 90 21:36 10.12.2019
6390 Haze 27 1011 69 3000 2.1 90 21:18 10.12.2019
6391 Haze 27 1011 69 3000 2.1 80 20:56 10.12.2019
6392 Haze 28 1011 65 3000 2.1 90 20:37 10.12.2019
6393 Haze 28 1012 69 3000 1.5 120 20:18 10.12.2019
6394 Haze 28 1012 69 3000 1.5 120 19:44 10.12.2019
6395 Haze 27 1012 74 3000 1.61 42 19:26 10.12.2019
6396 Haze 28 1012 69 3000 2.1 10 18:59 10.12.2019
6397 Haze 28 1012 69 3000 2.1 50 18:39 10.12.2019
6398 Haze 28 1012 69 3000 2.1 50 18:20 10.12.2019
6399 Haze 29 1012 66 3000 2.6 350 17:57 10.12.2019
6400 Haze 29 1012 66 3000 2.6 30 17:39 10.12.2019
6401 Haze 29 1012 66 3000 2.6 30 17:19 10.12.2019
6402 Haze 29 1011 66 3000 2.1 330 16:43 10.12.2019
6403 Haze 29 1011 66 3000 2.1 330 16:20 10.12.2019
6404 Haze 29 1011 66 3000 2.1 330 16:20 10.12.2019
6405 Haze 29 1011 62 3000 2.1 310 15:58 10.12.2019
6406 Haze 29 1011 66 3000 2.1 330 15:37 10.12.2019
6407 Haze 29 1011 66 3000 2.1 330 15:18 10.12.2019
6408 Haze 29 1011 66 3000 2.1 330 15:18 10.12.2019
6409 Haze 29 1011 66 3000 2.1 330 15:18 10.12.2019
6410 Haze 29 1010 66 3000 2.1 310 14:55 10.12.2019
6411 Haze 29 1010 62 3000 2.6 320 14:37 10.12.2019
6412 Haze 29 1010 62 3000 2.6 320 14:19 10.12.2019
6413 Smoke 29 1010 62 3000 3.6 300 13:56 10.12.2019
6414 Smoke 30 1009 51 3000 4.1 290 13:37 10.12.2019
6415 Smoke 30 1009 51 3000 4.1 290 13:18 10.12.2019
6416 Smoke 30 1009 55 3000 3.6 310 12:40 10.12.2019
6417 Smoke 30 1009 55 3000 3.6 310 12:22 10.12.2019
6418 Smoke 31 1010 48 3000 4.1 310 11:44 10.12.2019
6419 Smoke 31 1010 52 3000 4.1 260 11:25 10.12.2019
6420 Smoke 31 1010 52 3000 5.1 290 10:57 10.12.2019
6421 Smoke 31 1010 55 3000 4.6 270 10:39 10.12.2019
6422 Smoke 31 1011 49 3000 5.1 290 10:21 10.12.2019
6423 Smoke 31 1011 49 3000 5.1 290 09:56 10.12.2019
6424 Smoke 31 1011 49 3000 5.1 290 09:56 10.12.2019
6425 Smoke 31 1011 52 3000 4.1 290 09:38 10.12.2019
6426 Smoke 31 1011 52 3000 4.1 290 09:38 10.12.2019
6427 Smoke 31 1011 52 3000 4.1 290 09:38 10.12.2019
6428 Smoke 31 1011 52 3000 4.1 290 09:20 10.12.2019
6429 Smoke 32 1011 46 4000 1.5 280 08:57 10.12.2019
6430 Smoke 32 1012 43 3000 4.1 190 08:38 10.12.2019
6431 Smoke 32 1012 43 3000 4.1 190 08:19 10.12.2019
6432 Smoke 32 1013 46 3000 3.1 140 07:44 10.12.2019
6433 Smoke 32 1013 48 3000 3.1 130 07:26 10.12.2019
6434 Smoke 31 1014 48 3000 3.1 120 06:49 10.12.2019
6435 Haze 30 1014 55 2500 3.1 150 06:24 10.12.2019
6436 Haze 30 1014 58 2500 2.6 130 05:55 10.12.2019
6437 Haze 28 1014 65 2200 1.5 110 04:58 10.12.2019
6438 Haze 26 1013 69 2200 2.08 48 03:47 10.12.2019
6439 Haze 26 1012 69 2200 2.08 48 02:48 10.12.2019
6440 Haze 25 1012 73 2500 2.6 80 01:51 10.12.2019
6441 Haze 26 1012 69 2500 1.5 120 01:26 10.12.2019
6442 Haze 26 1012 69 2500 3.1 90 00:49 10.12.2019
6443 Haze 26 1012 69 3000 2.1 70 00:24 10.12.2019
6444 Haze 27 1012 74 5000 2.1 80 23:43 09.12.2019
6445 Haze 27 1012 74 5000 2.1 80 23:24 09.12.2019
6446 Clouds 26 1012 74 6000 2.1 80 22:59 09.12.2019
6447 Clouds 27 1012 69 6000 1.5 60 22:40 09.12.2019
6448 Clouds 27 1012 69 6000 1.5 60 22:21 09.12.2019
6449 Clouds 28 1012 61 6000 1.5 30 21:58 09.12.2019
6450 Clouds 27 1012 65 6000 1.3 51 21:39 09.12.2019
6451 Clouds 27 1012 65 6000 1.3 51 21:19 09.12.2019
6452 Clouds 28 1013 61 6000 2.6 240 20:57 09.12.2019
6453 Clouds 28 1013 65 6000 1.5 0 20:39 09.12.2019
6454 Clouds 28 1013 65 6000 1.5 0 20:20 09.12.2019
6455 Clouds 28 1013 65 6000 1.5 10 19:57 09.12.2019
6456 Clouds 28 1013 61 6000 2.6 40 19:39 09.12.2019
6457 Clouds 28 1013 61 6000 2.6 40 19:20 09.12.2019
6458 Clouds 28 1014 65 6000 1.5 40 18:59 09.12.2019
6459 Smoke 29 1014 66 5000 3.1 40 18:40 09.12.2019
6460 Smoke 29 1014 66 5000 3.1 40 18:20 09.12.2019
6461 Smoke 28 1014 69 4000 3.1 30 17:59 09.12.2019
6462 Smoke 29 1014 70 3500 3.6 330 17:40 09.12.2019
6463 Smoke 29 1014 70 3500 3.6 330 17:21 09.12.2019
6464 Haze 29 1014 70 3000 3.1 330 16:56 09.12.2019
6465 Haze 29 1014 66 3000 2.6 330 16:38 09.12.2019
6466 Haze 29 1014 66 3000 2.6 330 16:20 09.12.2019
6467 Haze 29 1013 70 3000 4.1 310 16:20 09.12.2019
6468 Haze 29 1013 70 3000 4.1 310 15:56 09.12.2019
6469 Haze 29 1013 70 3000 4.1 310 15:56 09.12.2019
6470 Haze 29 1013 66 3000 2.6 310 15:37 09.12.2019
6471 Haze 29 1013 66 3000 2.6 310 15:19 09.12.2019
6472 Haze 29 1012 62 3000 3.1 310 14:58 09.12.2019
6473 Smoke 29 1012 62 3000 3.1 280 14:39 09.12.2019
6474 Smoke 29 1012 62 3000 3.1 280 14:18 09.12.2019
6475 Smoke 30 1012 58 3000 3.6 280 13:55 09.12.2019
6476 Smoke 30 1011 55 3000 3.6 290 13:36 09.12.2019
6477 Smoke 32 1011 55 3000 3.6 290 13:18 09.12.2019
6478 Smoke 32 1011 55 3000 4.1 280 12:54 09.12.2019
6479 Smoke 32 1011 52 3000 4.1 290 12:36 09.12.2019
6480 Smoke 32 1011 52 3000 4.1 290 12:18 09.12.2019
6481 Smoke 32 1011 55 3000 4.1 270 11:40 09.12.2019
6482 Smoke 32 1011 55 3000 4.1 270 11:21 09.12.2019
6483 Smoke 32 1011 52 2500 4.1 260 10:57 09.12.2019
6484 Smoke 32 1011 52 2500 3.6 260 10:38 09.12.2019
6485 Smoke 32 1011 52 2500 3.6 260 10:19 09.12.2019
6486 Smoke 32 1012 49 2500 2.6 290 09:44 09.12.2019
6487 Smoke 32 1012 49 2500 2.6 290 09:25 09.12.2019
6488 Smoke 32 1013 46 2500 2.1 110 08:57 09.12.2019
6489 Smoke 32 1013 45 2500 1.5 130 08:39 09.12.2019
6490 Smoke 32 1013 45 2500 1.5 130 08:20 09.12.2019
6491 Smoke 32 1014 45 2500 3.1 130 07:49 09.12.2019
6492 Smoke 31 1014 45 2500 3.1 100 07:30 09.12.2019
6493 Smoke 31 1015 48 2500 2.1 50 06:55 09.12.2019
6494 Smoke 30 1015 48 2500 2.1 90 06:30 09.12.2019
6495 Smoke 29 1015 51 2500 2.1 70 05:42 09.12.2019
6496 Smoke 29 1015 51 2500 2.1 70 05:20 09.12.2019
6497 Haze 28 1014 61 2200 1.5 40 04:27 09.12.2019
6498 Haze 28 1014 61 2200 1.5 40 04:27 09.12.2019
6499 Haze 27 1012 69 3000 2.89 61 02:28 09.12.2019
6500 Haze 24 1012 69 3000 1.94 70 01:46 09.12.2019
6501 Haze 25 1012 65 3000 2.1 50 00:58 09.12.2019
6502 Haze 26 1012 61 3000 3.6 70 00:33 09.12.2019
6503 Haze 26 1012 61 3000 2.1 60 23:55 08.12.2019
6504 Haze 26 1012 61 3000 3.6 40 23:37 08.12.2019
6505 Haze 26 1012 61 3000 3.6 40 23:19 08.12.2019
6506 Haze 27 1012 57 3000 2.1 70 22:56 08.12.2019
6507 Haze 27 1012 57 2500 2.1 60 22:38 08.12.2019
6508 Haze 27 1012 57 2500 2.1 60 22:18 08.12.2019
6509 Haze 27 1013 57 2500 2.6 30 21:56 08.12.2019
6510 Haze 27 1013 65 2500 1.65 73 21:37 08.12.2019
6511 Haze 27 1013 65 2500 1.65 73 21:19 08.12.2019
6512 Haze 28 1013 58 2500 1.5 150 20:56 08.12.2019
6513 Haze 27 1013 65 2500 2.1 130 20:37 08.12.2019
6514 Haze 27 1013 65 2500 2.1 130 20:19 08.12.2019
6515 Haze 27 1013 65 2500 2.1 130 20:19 08.12.2019
6516 Haze 27 1014 69 2500 1.5 50 19:55 08.12.2019
6517 Haze 27 1014 65 3000 1.17 48 19:37 08.12.2019
6518 Haze 27 1014 65 3000 1.17 48 19:19 08.12.2019
6519 Haze 28 1014 61 3000 1.17 48 18:54 08.12.2019
6520 Haze 28 1014 61 3000 1.17 48 18:36 08.12.2019
6521 Haze 28 1014 61 3000 1.17 48 18:36 08.12.2019
6522 Haze 28 1014 61 3000 1.17 48 18:18 08.12.2019
6523 Haze 28 1014 65 3000 2.6 30 17:55 08.12.2019
6524 Haze 28 1014 65 3000 2.1 30 17:37 08.12.2019
6525 Haze 28 1014 65 3000 2.1 30 17:19 08.12.2019
6526 Haze 28 1014 65 2500 1.5 330 16:55 08.12.2019
6527 Haze 29 1013 62 2500 2.1 330 16:37 08.12.2019
6528 Haze 29 1013 62 2500 2.1 330 16:18 08.12.2019
6529 Haze 28 1013 65 2500 2.6 320 15:38 08.12.2019
6530 Haze 28 1013 65 2500 2.6 320 15:19 08.12.2019
6531 Haze 28 1013 65 2500 2.6 320 15:19 08.12.2019
6532 Haze 28 1012 61 2500 2.6 310 14:58 08.12.2019
6533 Smoke 28 1012 62 2500 1.5 310 14:39 08.12.2019
6534 Smoke 28 1012 62 2500 1.5 310 14:39 08.12.2019
6535 Smoke 30 1012 62 2500 1.5 310 14:20 08.12.2019
6536 Smoke 30 1012 58 2500 3.1 320 13:54 08.12.2019
6537 Smoke 31 1011 48 2500 3.1 300 13:36 08.12.2019
6538 Smoke 31 1011 48 2500 3.1 300 13:18 08.12.2019
6539 Smoke 32 1011 43 3000 3.1 280 12:41 08.12.2019
6540 Smoke 32 1011 43 3000 3.1 280 12:23 08.12.2019
6541 Smoke 32 1011 43 2500 3.6 280 11:59 08.12.2019
6542 Smoke 32 1011 45 2500 3.6 260 11:38 08.12.2019
6543 Smoke 32 1011 45 2500 3.6 260 11:19 08.12.2019
6544 Smoke 32 1011 45 2500 4.1 280 10:58 08.12.2019
6545 Smoke 31 1011 51 2500 4.6 290 10:38 08.12.2019
6546 Smoke 30 1011 51 2500 4.6 290 10:19 08.12.2019
6547 Smoke 33 1012 46 2800 3.6 290 09:56 08.12.2019
6548 Smoke 33 1012 40 2500 2.1 230 09:37 08.12.2019
6549 Smoke 33 1012 40 2500 2.1 230 09:37 08.12.2019
6550 Smoke 33 1012 40 2500 2.1 230 09:19 08.12.2019
6551 Smoke 33 1012 40 2500 2.1 230 09:19 08.12.2019
6552 Smoke 32 1013 40 2500 2.1 160 08:57 08.12.2019
6553 Smoke 32 1013 40 2500 2.1 160 08:57 08.12.2019
6554 Smoke 32 1013 43 2500 3.1 120 08:36 08.12.2019
6555 Smoke 32 1013 43 2500 3.1 120 08:18 08.12.2019
6556 Smoke 31 1014 45 2500 3.6 110 07:42 08.12.2019
6557 Smoke 31 1014 45 2500 3.6 110 07:19 08.12.2019
6558 Smoke 30 1015 48 2500 2.6 90 06:47 08.12.2019
6559 Smoke 30 1015 48 2500 3.1 110 06:22 08.12.2019
6560 Smoke 29 1015 48 2500 3.6 110 05:35 08.12.2019
6561 Smoke 27 1015 51 2500 3.1 90 04:59 08.12.2019
6562 Smoke 25 1014 57 3000 3.6 90 03:47 08.12.2019
6563 Smoke 25 1014 60 3000 1.5 130 03:20 08.12.2019
6564 Smoke 25 1013 53 3500 1.5 120 02:34 08.12.2019
6565 Smoke 25 1013 53 3500 2.1 100 01:48 08.12.2019
6566 Smoke 25 1013 53 3500 2.6 100 00:59 08.12.2019
6567 Smoke 25 1012 57 3500 2.1 130 00:39 08.12.2019
6568 Smoke 25 1012 57 3500 2.1 130 00:39 08.12.2019
6569 Smoke 25 1012 57 3500 2.1 130 00:19 08.12.2019
6570 Smoke 25 1012 57 3500 2.1 130 00:19 08.12.2019
6571 Smoke 27 1012 51 3500 2.6 30 23:40 07.12.2019
6572 Smoke 27 1012 51 3500 2.6 30 23:20 07.12.2019
6573 Smoke 26 1012 54 3500 1.5 70 22:56 07.12.2019
6574 Smoke 27 1012 54 3500 1.5 20 22:38 07.12.2019
6575 Smoke 27 1012 54 3500 1.5 20 22:20 07.12.2019
6576 Smoke 27 1013 54 3500 2.6 40 21:56 07.12.2019
6577 Smoke 27 1013 54 3500 1.5 20 21:38 07.12.2019
6578 Smoke 27 1013 54 3500 1.5 20 21:19 07.12.2019
6579 Smoke 28 1013 48 3500 3.6 70 20:55 07.12.2019
6580 Smoke 28 1013 51 3500 3.1 70 20:36 07.12.2019
6581 Smoke 28 1013 51 3500 3.1 70 20:18 07.12.2019
6582 Smoke 27 1013 57 3500 2.1 70 19:55 07.12.2019
6583 Smoke 27 1014 57 3500 2.6 50 19:36 07.12.2019
6584 Smoke 27 1014 57 3500 2.6 50 19:18 07.12.2019
6585 Smoke 27 1014 61 4000 2.6 90 18:44 07.12.2019
6586 Smoke 27 1014 61 4000 2.6 90 18:19 07.12.2019
6587 Smoke 28 1014 58 4000 2.6 90 17:57 07.12.2019
6588 Smoke 28 1014 58 5000 3.1 140 17:39 07.12.2019
6589 Smoke 28 1014 58 5000 3.1 140 17:20 07.12.2019
6590 Clear 28 1013 61 6000 2.6 30 16:56 07.12.2019
6591 Clear 28 1013 61 6000 2.6 30 16:56 07.12.2019
6592 Clear 28 1013 58 6000 3.1 350 16:37 07.12.2019
6593 Smoke 29 1013 54 5000 3.1 340 16:19 07.12.2019
6594 Smoke 28 1013 61 4000 2.6 0 15:42 07.12.2019
6595 Smoke 28 1013 61 4000 2.6 0 15:23 07.12.2019
6596 Smoke 28 1013 61 4000 2.6 0 15:23 07.12.2019
6597 Smoke 28 1013 58 4000 4.1 330 14:58 07.12.2019
6598 Smoke 28 1012 58 4000 4.1 340 14:40 07.12.2019
6599 Smoke 31 1012 51 4000 3.6 340 14:18 07.12.2019
6600 Smoke 30 1011 54 4000 3.6 320 13:41 07.12.2019
6601 Smoke 30 1011 54 4000 3.6 320 13:41 07.12.2019
6602 Smoke 30 1011 54 4000 3.6 320 13:21 07.12.2019
6603 Smoke 31 1011 51 4000 5.7 300 12:59 07.12.2019
6604 Smoke 32 1011 48 4000 2.6 300 12:40 07.12.2019
6605 Smoke 32 1011 48 4000 2.6 300 12:22 07.12.2019
6606 Smoke 32 1011 43 4000 4.6 300 11:57 07.12.2019
6607 Smoke 32 1011 43 4000 4.6 300 11:39 07.12.2019
6608 Smoke 32 1011 43 4000 4.6 300 11:20 07.12.2019
6609 Smoke 33 1011 31 4000 3.1 50 10:38 07.12.2019
6610 Smoke 33 1011 31 4000 3.1 50 10:19 07.12.2019
6611 Smoke 33 1012 31 3500 3.6 60 09:42 07.12.2019
6612 Smoke 33 1012 31 3500 3.6 60 09:22 07.12.2019
6613 Smoke 32 1012 33 3500 3.1 70 08:59 07.12.2019
6614 Smoke 32 1013 35 3500 3.6 70 08:39 07.12.2019
6615 Smoke 32 1013 35 3500 3.6 70 08:21 07.12.2019
6616 Smoke 32 1013 35 3500 3.6 90 07:45 07.12.2019
6617 Smoke 31 1014 37 3500 3.6 120 07:25 07.12.2019
6618 Smoke 31 1014 37 3000 3.6 90 06:48 07.12.2019
6619 Smoke 31 1015 37 3000 3.6 90 06:25 07.12.2019
6620 Smoke 28 1015 42 3000 3.6 100 05:25 07.12.2019
6621 Smoke 26 1014 54 3000 2.6 100 03:56 07.12.2019
6622 Smoke 25 1013 57 3000 1.5 120 03:18 07.12.2019
6623 Smoke 26 1013 54 3000 1 150 02:21 07.12.2019
6624 Smoke 25 1012 53 3000 3.6 80 01:34 07.12.2019
6625 Smoke 25 1012 57 3000 1.5 70 00:52 07.12.2019
6626 Smoke 26 1012 54 3000 1.5 50 00:19 07.12.2019
6627 Smoke 26 1012 54 3000 1.5 70 23:56 06.12.2019
6628 Smoke 26 1012 54 3000 1.5 70 23:36 06.12.2019
6629 Smoke 26 1012 54 3000 1.5 70 23:18 06.12.2019
6630 Smoke 27 1012 51 3000 2.1 70 22:38 06.12.2019
6631 Smoke 27 1012 51 3000 2.1 70 22:19 06.12.2019
6632 Smoke 27 1012 51 3000 2.6 100 21:57 06.12.2019
6633 Smoke 27 1013 51 3000 2.1 90 21:38 06.12.2019
6634 Smoke 27 1013 51 3000 2.1 90 21:19 06.12.2019
6635 Smoke 28 1013 51 3000 1.5 190 20:42 06.12.2019
6636 Smoke 28 1013 51 3000 1.5 190 20:42 06.12.2019
6637 Smoke 28 1013 51 3000 1.5 190 20:24 06.12.2019
6638 Smoke 28 1013 48 3000 1.76 81 19:59 06.12.2019
6639 Smoke 28 1013 51 3000 2.1 210 19:40 06.12.2019
6640 Smoke 28 1013 51 3000 2.1 210 19:21 06.12.2019
6641 Smoke 28 1013 51 3000 1.5 120 18:56 06.12.2019
6642 Smoke 30 1013 45 3000 2.1 40 18:38 06.12.2019
6643 Smoke 30 1013 45 3000 2.1 40 18:19 06.12.2019
6644 Smoke 30 1013 45 3000 3.6 50 17:55 06.12.2019
6645 Smoke 30 1013 45 3000 3.1 360 17:37 06.12.2019
6646 Smoke 31 1013 45 3000 3.1 360 17:19 06.12.2019
6647 Smoke 30 1013 48 3000 3.6 340 16:42 06.12.2019
6648 Smoke 30 1013 48 3000 3.6 340 16:24 06.12.2019
6649 Smoke 30 1013 51 3000 3.6 20 15:59 06.12.2019
6650 Smoke 30 1013 58 3500 3.1 340 15:40 06.12.2019
6651 Smoke 30 1013 58 3500 3.1 340 15:18 06.12.2019
6652 Smoke 30 1012 55 3500 2.6 20 14:56 06.12.2019
6653 Smoke 29 1012 58 0 3.1 360 14:37 06.12.2019
6654 Smoke 29 1012 62 3500 3.6 340 14:18 06.12.2019
6655 Smoke 30 1012 55 3500 4.1 330 13:42 06.12.2019
6656 Smoke 30 1012 55 3500 4.1 330 13:24 06.12.2019
6657 Smoke 32 1011 36 3500 2.6 60 12:42 06.12.2019
6658 Smoke 32 1011 36 3500 2.6 60 12:22 06.12.2019
6659 Smoke 32 1011 38 3500 1.5 0 11:57 06.12.2019
6660 Smoke 33 1011 36 3500 3.6 360 11:39 06.12.2019
6661 Smoke 33 1011 36 3500 3.6 360 11:19 06.12.2019
6662 Smoke 33 1012 38 3500 3.1 110 10:43 06.12.2019
6663 Smoke 33 1012 38 3500 3.1 110 10:21 06.12.2019
6664 Smoke 33 1012 38 3500 1.5 60 09:58 06.12.2019
6665 Smoke 33 1013 38 3500 3.1 30 09:37 06.12.2019
6666 Smoke 33 1013 38 3500 3.1 30 09:19 06.12.2019
6667 Smoke 33 1013 38 3500 3.1 90 08:45 06.12.2019
6668 Smoke 32 1014 38 3000 3.1 80 08:26 06.12.2019
6669 Smoke 31 1015 43 2500 4.6 100 07:44 06.12.2019
6670 Smoke 31 1015 43 2500 4.6 100 07:25 06.12.2019
6671 Smoke 31 1016 40 2500 4.1 90 06:59 06.12.2019
6672 Smoke 31 1016 45 2500 3.1 80 06:28 06.12.2019
6673 Smoke 30 1016 48 2500 3.1 80 05:53 06.12.2019
6674 Smoke 28 1016 51 2500 3.6 70 05:21 06.12.2019
6675 Haze 27 1014 61 3000 2.6 80 02:19 06.12.2019
6676 Haze 27 1014 65 3000 2.1 60 01:29 06.12.2019
6677 Haze 27 1013 69 3000 2.6 30 00:40 06.12.2019
6678 Haze 27 1013 69 3000 2.6 30 00:20 06.12.2019
6679 Haze 28 1013 65 3000 2.6 30 23:45 05.12.2019
6680 Haze 28 1013 65 3000 2.6 40 23:19 05.12.2019
6681 Haze 28 1013 65 3000 3.1 40 22:57 05.12.2019
6682 Haze 28 1013 69 3000 3.1 50 22:37 05.12.2019
6683 Haze 28 1013 69 3000 3.1 50 22:18 05.12.2019
6684 Haze 28 1014 69 3000 3.1 60 21:44 05.12.2019
6685 Haze 28 1014 69 3000 2.1 50 21:25 05.12.2019
6686 Haze 29 1014 66 3000 2.1 40 20:59 05.12.2019
6687 Haze 29 1014 66 3000 2.1 40 20:40 05.12.2019
6688 Haze 29 1014 66 3000 2.1 40 20:40 05.12.2019
6689 Haze 29 1014 66 3000 2.1 50 20:21 05.12.2019
6690 Haze 29 1014 66 3000 2.1 40 19:58 05.12.2019
6691 Haze 29 1014 66 3000 2.1 40 19:40 05.12.2019
6692 Haze 29 1015 66 3000 1.5 90 19:20 05.12.2019
6693 Haze 28 1015 69 3000 1.5 80 18:57 05.12.2019
6694 Haze 29 1015 58 3000 1.5 60 18:37 05.12.2019
6695 Haze 29 1015 58 3000 1.5 60 18:19 05.12.2019
6696 Haze 29 1015 58 3000 2.6 40 17:39 05.12.2019
6697 Haze 28 1015 65 3000 2.1 20 17:20 05.12.2019
6698 Haze 29 1015 62 3000 2.1 50 16:57 05.12.2019
6699 Haze 29 1014 62 3000 2.1 30 16:39 05.12.2019
6700 Haze 29 1014 62 3000 2.1 30 16:21 05.12.2019
6701 Haze 29 1014 62 3000 2.1 30 16:21 05.12.2019
6702 Smoke 29 1014 62 3000 2.6 30 15:56 05.12.2019
6703 Smoke 30 1014 58 3000 3.1 30 15:38 05.12.2019
6704 Smoke 30 1014 58 3000 3.1 30 15:19 05.12.2019
6705 Smoke 30 1014 55 3000 3.1 20 14:55 05.12.2019
6706 Smoke 30 1013 55 3000 1.5 30 14:37 05.12.2019
6707 Smoke 30 1013 55 3000 1.5 30 14:37 05.12.2019
6708 Smoke 31 1013 52 3000 3.1 30 14:18 05.12.2019
6709 Smoke 31 1013 52 3000 3.1 30 13:56 05.12.2019
6710 Smoke 31 1012 52 3000 3.1 50 13:38 05.12.2019
6711 Smoke 31 1012 52 3000 3.1 50 13:19 05.12.2019
6712 Smoke 31 1012 52 3000 3.1 50 13:19 05.12.2019
6713 Smoke 31 1012 52 3000 3.6 40 12:55 05.12.2019
6714 Smoke 32 1012 49 3000 3.1 30 12:37 05.12.2019
6715 Smoke 32 1012 49 3000 3.1 30 12:19 05.12.2019
6716 Smoke 32 1012 46 3000 3.6 70 11:39 05.12.2019
6717 Smoke 32 1012 46 3000 3.6 70 11:20 05.12.2019
6718 Smoke 32 1012 46 3000 4.1 110 10:57 05.12.2019
6719 Haze 32 1012 52 3000 2.1 70 10:39 05.12.2019
6720 Haze 32 1012 52 3000 2.1 70 10:18 05.12.2019
6721 Drizzle 32 1013 55 2500 3.1 350 09:54 05.12.2019
6722 Haze 32 1013 55 3000 2.6 20 09:36 05.12.2019
6723 Haze 32 1013 55 3000 2.6 20 09:18 05.12.2019
6724 Haze 31 1015 58 2500 2.1 30 08:39 05.12.2019
6725 Haze 30 1015 58 2500 2.1 30 08:20 05.12.2019
6726 Haze 30 1015 58 2500 2.1 60 07:57 05.12.2019
6727 Haze 30 1016 62 2500 4.1 40 07:36 05.12.2019
6728 Haze 31 1016 70 2500 4.6 60 07:18 05.12.2019
6729 Haze 31 1016 70 2500 4.6 60 06:42 05.12.2019
6730 Haze 30 1016 70 2500 2.6 40 06:21 05.12.2019
6731 Haze 29 1016 78 2500 3.1 30 05:48 05.12.2019
6732 Haze 28 1016 78 2500 2.6 60 05:23 05.12.2019
6733 Mist 27 1015 88 2500 3.1 30 04:25 05.12.2019
6734 Rain 27 1014 88 2500 2.1 310 02:54 05.12.2019
6735 Mist 28 1014 83 3000 1.5 290 02:25 05.12.2019
6736 Mist 28 1014 83 3000 3.1 240 01:59 05.12.2019
6737 Mist 28 1014 83 3000 3.1 240 01:40 05.12.2019
6738 Mist 28 1013 78 3000 3.1 230 01:20 05.12.2019
6739 Haze 28 1013 83 3000 4.1 250 00:37 05.12.2019
6740 Haze 28 1013 83 3000 4.1 250 00:18 05.12.2019
6741 Haze 28 1013 83 3000 3.1 240 23:42 04.12.2019
6742 Haze 28 1013 83 3000 3.1 240 23:22 04.12.2019
6743 Haze 29 1013 74 3000 3.6 250 22:57 04.12.2019
6744 Haze 29 1013 79 3000 3.1 260 22:36 04.12.2019
6745 Haze 29 1013 79 3000 3.1 260 22:18 04.12.2019
6746 Haze 29 1014 79 3000 2.6 270 21:55 04.12.2019